<?xml version="1.0" encoding="UTF-8" standalone="no" ?>
<gpx xmlns="http://www.topografix.com/GPX/1/1" xmlns:xsi="http://www.w3.org/2001/XMLSchema-instance" xsi:schemaLocation="http://www.topografix.com/GPX/1/1 http://www.topografix.com/GPX/1/1/gpx.xsd" version="1.1" creator="VisuGPX - https://www.visugpx.com">
  <metadata>
    <name>Circuit tour du marais Picquigny </name>
    <desc><![CDATA[Cœur et santé, à la journée ]]></desc>
  </metadata>
  <trk>
    <name><![CDATA[Circuit tour du marais Picquigny _1]]></name>
    <trkseg>
      <trkpt lat="49.94659" lon="2.14047">
        <ele>12.9</ele>
        <time>2023-06-28T12:02:35Z</time>
      </trkpt>
      <trkpt lat="49.94662" lon="2.1406">
        <ele>12.9</ele>
        <time>2023-06-28T12:02:37Z</time>
      </trkpt>
      <trkpt lat="49.94663" lon="2.14069">
        <ele>12.9</ele>
        <time>2023-06-28T12:02:39Z</time>
      </trkpt>
      <trkpt lat="49.9466" lon="2.1407">
        <ele>12.9</ele>
        <time>2023-06-28T12:02:40Z</time>
      </trkpt>
      <trkpt lat="49.94659" lon="2.14071">
        <ele>12.9</ele>
        <time>2023-06-28T12:02:41Z</time>
      </trkpt>
      <trkpt lat="49.94659" lon="2.14072">
        <ele>12.9</ele>
        <time>2023-06-28T12:02:42Z</time>
      </trkpt>
      <trkpt lat="49.94659" lon="2.14073">
        <ele>12.9</ele>
        <time>2023-06-28T12:02:43Z</time>
      </trkpt>
      <trkpt lat="49.94659" lon="2.14073">
        <ele>12.9</ele>
        <time>2023-06-28T12:02:44Z</time>
      </trkpt>
      <trkpt lat="49.94659" lon="2.14074">
        <ele>12.9</ele>
        <time>2023-06-28T12:02:46Z</time>
      </trkpt>
      <trkpt lat="49.94659" lon="2.14075">
        <ele>12.9</ele>
        <time>2023-06-28T12:02:47Z</time>
      </trkpt>
      <trkpt lat="49.94659" lon="2.14076">
        <ele>12.9</ele>
        <time>2023-06-28T12:02:48Z</time>
      </trkpt>
      <trkpt lat="49.94657" lon="2.14082">
        <ele>12.8</ele>
        <time>2023-06-28T12:02:49Z</time>
      </trkpt>
      <trkpt lat="49.94655" lon="2.14085">
        <ele>12.8</ele>
        <time>2023-06-28T12:02:50Z</time>
      </trkpt>
      <trkpt lat="49.94654" lon="2.14087">
        <ele>12.8</ele>
        <time>2023-06-28T12:02:51Z</time>
      </trkpt>
      <trkpt lat="49.94652" lon="2.1409">
        <ele>12.7</ele>
        <time>2023-06-28T12:02:52Z</time>
      </trkpt>
      <trkpt lat="49.94652" lon="2.14091">
        <ele>12.7</ele>
        <time>2023-06-28T12:02:54Z</time>
      </trkpt>
      <trkpt lat="49.94651" lon="2.14092">
        <ele>12.7</ele>
        <time>2023-06-28T12:02:55Z</time>
      </trkpt>
      <trkpt lat="49.9465" lon="2.14094">
        <ele>12.7</ele>
        <time>2023-06-28T12:02:56Z</time>
      </trkpt>
      <trkpt lat="49.94649" lon="2.14095">
        <ele>12.7</ele>
        <time>2023-06-28T12:02:57Z</time>
      </trkpt>
      <trkpt lat="49.94649" lon="2.14098">
        <ele>12.7</ele>
        <time>2023-06-28T12:02:58Z</time>
      </trkpt>
      <trkpt lat="49.94649" lon="2.14102">
        <ele>12.7</ele>
        <time>2023-06-28T12:03:00Z</time>
      </trkpt>
      <trkpt lat="49.94649" lon="2.14107">
        <ele>12.7</ele>
        <time>2023-06-28T12:03:01Z</time>
      </trkpt>
      <trkpt lat="49.94649" lon="2.1411">
        <ele>12.7</ele>
        <time>2023-06-28T12:03:02Z</time>
      </trkpt>
      <trkpt lat="49.94648" lon="2.14112">
        <ele>12.7</ele>
        <time>2023-06-28T12:03:03Z</time>
      </trkpt>
      <trkpt lat="49.94648" lon="2.14113">
        <ele>12.7</ele>
        <time>2023-06-28T12:03:04Z</time>
      </trkpt>
      <trkpt lat="49.94647" lon="2.14115">
        <ele>12.7</ele>
        <time>2023-06-28T12:03:06Z</time>
      </trkpt>
      <trkpt lat="49.94647" lon="2.14116">
        <ele>12.7</ele>
        <time>2023-06-28T12:03:07Z</time>
      </trkpt>
      <trkpt lat="49.94646" lon="2.14117">
        <ele>12.7</ele>
        <time>2023-06-28T12:03:08Z</time>
      </trkpt>
      <trkpt lat="49.94645" lon="2.14118">
        <ele>12.7</ele>
        <time>2023-06-28T12:03:09Z</time>
      </trkpt>
      <trkpt lat="49.94645" lon="2.1412">
        <ele>12.7</ele>
        <time>2023-06-28T12:03:10Z</time>
      </trkpt>
      <trkpt lat="49.94645" lon="2.14122">
        <ele>12.7</ele>
        <time>2023-06-28T12:03:11Z</time>
      </trkpt>
      <trkpt lat="49.94645" lon="2.14123">
        <ele>12.7</ele>
        <time>2023-06-28T12:03:13Z</time>
      </trkpt>
      <trkpt lat="49.94644" lon="2.14124">
        <ele>12.7</ele>
        <time>2023-06-28T12:03:14Z</time>
      </trkpt>
      <trkpt lat="49.94644" lon="2.14125">
        <ele>12.7</ele>
        <time>2023-06-28T12:03:15Z</time>
      </trkpt>
      <trkpt lat="49.94644" lon="2.14126">
        <ele>12.7</ele>
        <time>2023-06-28T12:03:16Z</time>
      </trkpt>
      <trkpt lat="49.94644" lon="2.14127">
        <ele>12.7</ele>
        <time>2023-06-28T12:03:17Z</time>
      </trkpt>
      <trkpt lat="49.94645" lon="2.14128">
        <ele>12.7</ele>
        <time>2023-06-28T12:03:18Z</time>
      </trkpt>
      <trkpt lat="49.94645" lon="2.14129">
        <ele>12.7</ele>
        <time>2023-06-28T12:03:19Z</time>
      </trkpt>
      <trkpt lat="49.94645" lon="2.1413">
        <ele>12.7</ele>
        <time>2023-06-28T12:03:21Z</time>
      </trkpt>
      <trkpt lat="49.94646" lon="2.1413">
        <ele>12.7</ele>
        <time>2023-06-28T12:03:22Z</time>
      </trkpt>
      <trkpt lat="49.94645" lon="2.1413">
        <ele>12.7</ele>
        <time>2023-06-28T12:03:23Z</time>
      </trkpt>
      <trkpt lat="49.94645" lon="2.1413">
        <ele>12.7</ele>
        <time>2023-06-28T12:03:24Z</time>
      </trkpt>
      <trkpt lat="49.94644" lon="2.14132">
        <ele>12.7</ele>
        <time>2023-06-28T12:03:26Z</time>
      </trkpt>
      <trkpt lat="49.94644" lon="2.14132">
        <ele>12.7</ele>
        <time>2023-06-28T12:03:27Z</time>
      </trkpt>
      <trkpt lat="49.94644" lon="2.14133">
        <ele>12.7</ele>
        <time>2023-06-28T12:03:28Z</time>
      </trkpt>
      <trkpt lat="49.94644" lon="2.14134">
        <ele>12.7</ele>
        <time>2023-06-28T12:03:29Z</time>
      </trkpt>
      <trkpt lat="49.94644" lon="2.14135">
        <ele>12.7</ele>
        <time>2023-06-28T12:03:30Z</time>
      </trkpt>
      <trkpt lat="49.94644" lon="2.14137">
        <ele>12.8</ele>
        <time>2023-06-28T12:03:32Z</time>
      </trkpt>
      <trkpt lat="49.94644" lon="2.14139">
        <ele>12.8</ele>
        <time>2023-06-28T12:03:33Z</time>
      </trkpt>
      <trkpt lat="49.94644" lon="2.1414">
        <ele>12.8</ele>
        <time>2023-06-28T12:03:34Z</time>
      </trkpt>
      <trkpt lat="49.94644" lon="2.14142">
        <ele>12.8</ele>
        <time>2023-06-28T12:03:35Z</time>
      </trkpt>
      <trkpt lat="49.94644" lon="2.14146">
        <ele>12.9</ele>
        <time>2023-06-28T12:03:36Z</time>
      </trkpt>
      <trkpt lat="49.94643" lon="2.14147">
        <ele>12.9</ele>
        <time>2023-06-28T12:03:37Z</time>
      </trkpt>
      <trkpt lat="49.94643" lon="2.14148">
        <ele>12.9</ele>
        <time>2023-06-28T12:03:38Z</time>
      </trkpt>
      <trkpt lat="49.94643" lon="2.1415">
        <ele>13</ele>
        <time>2023-06-28T12:03:39Z</time>
      </trkpt>
      <trkpt lat="49.94643" lon="2.14153">
        <ele>13</ele>
        <time>2023-06-28T12:03:41Z</time>
      </trkpt>
      <trkpt lat="49.94643" lon="2.14155">
        <ele>13.1</ele>
        <time>2023-06-28T12:03:42Z</time>
      </trkpt>
      <trkpt lat="49.94642" lon="2.14156">
        <ele>13.1</ele>
        <time>2023-06-28T12:03:43Z</time>
      </trkpt>
      <trkpt lat="49.94642" lon="2.14156">
        <ele>13.1</ele>
        <time>2023-06-28T12:03:45Z</time>
      </trkpt>
      <trkpt lat="49.94642" lon="2.14156">
        <ele>13.1</ele>
        <time>2023-06-28T12:03:46Z</time>
      </trkpt>
      <trkpt lat="49.94642" lon="2.14156">
        <ele>13.2</ele>
        <time>2023-06-28T12:03:48Z</time>
      </trkpt>
      <trkpt lat="49.94642" lon="2.14157">
        <ele>13.2</ele>
        <time>2023-06-28T12:03:49Z</time>
      </trkpt>
      <trkpt lat="49.94642" lon="2.14157">
        <ele>13.2</ele>
        <time>2023-06-28T12:03:50Z</time>
      </trkpt>
      <trkpt lat="49.94642" lon="2.14157">
        <ele>13.2</ele>
        <time>2023-06-28T12:03:52Z</time>
      </trkpt>
      <trkpt lat="49.94642" lon="2.14157">
        <ele>13.2</ele>
        <time>2023-06-28T12:03:53Z</time>
      </trkpt>
      <trkpt lat="49.94642" lon="2.14157">
        <ele>13.2</ele>
        <time>2023-06-28T12:03:55Z</time>
      </trkpt>
      <trkpt lat="49.94642" lon="2.14157">
        <ele>13.2</ele>
        <time>2023-06-28T12:03:56Z</time>
      </trkpt>
      <trkpt lat="49.94642" lon="2.14158">
        <ele>13.2</ele>
        <time>2023-06-28T12:03:57Z</time>
      </trkpt>
      <trkpt lat="49.94642" lon="2.14158">
        <ele>13.2</ele>
        <time>2023-06-28T12:03:59Z</time>
      </trkpt>
      <trkpt lat="49.94642" lon="2.14158">
        <ele>13.2</ele>
        <time>2023-06-28T12:04:00Z</time>
      </trkpt>
      <trkpt lat="49.94642" lon="2.14158">
        <ele>13.2</ele>
        <time>2023-06-28T12:04:01Z</time>
      </trkpt>
      <trkpt lat="49.94642" lon="2.14158">
        <ele>13.2</ele>
        <time>2023-06-28T12:04:02Z</time>
      </trkpt>
      <trkpt lat="49.94642" lon="2.14158">
        <ele>13.2</ele>
        <time>2023-06-28T12:04:03Z</time>
      </trkpt>
      <trkpt lat="49.94642" lon="2.14158">
        <ele>13.2</ele>
        <time>2023-06-28T12:04:04Z</time>
      </trkpt>
      <trkpt lat="49.94642" lon="2.14158">
        <ele>13.2</ele>
        <time>2023-06-28T12:04:05Z</time>
      </trkpt>
      <trkpt lat="49.94642" lon="2.14158">
        <ele>13.2</ele>
        <time>2023-06-28T12:04:06Z</time>
      </trkpt>
      <trkpt lat="49.94642" lon="2.14159">
        <ele>13.2</ele>
        <time>2023-06-28T12:04:07Z</time>
      </trkpt>
      <trkpt lat="49.94642" lon="2.14159">
        <ele>13.2</ele>
        <time>2023-06-28T12:04:08Z</time>
      </trkpt>
      <trkpt lat="49.94643" lon="2.14159">
        <ele>13.2</ele>
        <time>2023-06-28T12:04:09Z</time>
      </trkpt>
      <trkpt lat="49.94643" lon="2.14159">
        <ele>13.2</ele>
        <time>2023-06-28T12:04:10Z</time>
      </trkpt>
      <trkpt lat="49.94643" lon="2.14159">
        <ele>13.2</ele>
        <time>2023-06-28T12:04:11Z</time>
      </trkpt>
      <trkpt lat="49.94643" lon="2.14159">
        <ele>13.2</ele>
        <time>2023-06-28T12:04:12Z</time>
      </trkpt>
      <trkpt lat="49.94643" lon="2.14159">
        <ele>13.3</ele>
        <time>2023-06-28T12:04:13Z</time>
      </trkpt>
      <trkpt lat="49.94643" lon="2.14159">
        <ele>13.3</ele>
        <time>2023-06-28T12:04:14Z</time>
      </trkpt>
      <trkpt lat="49.94643" lon="2.1416">
        <ele>13.3</ele>
        <time>2023-06-28T12:04:15Z</time>
      </trkpt>
      <trkpt lat="49.94643" lon="2.1416">
        <ele>13.3</ele>
        <time>2023-06-28T12:04:16Z</time>
      </trkpt>
      <trkpt lat="49.94643" lon="2.1416">
        <ele>13.3</ele>
        <time>2023-06-28T12:04:17Z</time>
      </trkpt>
      <trkpt lat="49.94643" lon="2.1416">
        <ele>13.3</ele>
        <time>2023-06-28T12:04:18Z</time>
      </trkpt>
      <trkpt lat="49.94643" lon="2.1416">
        <ele>13.3</ele>
        <time>2023-06-28T12:04:19Z</time>
      </trkpt>
      <trkpt lat="49.94643" lon="2.1416">
        <ele>13.3</ele>
        <time>2023-06-28T12:04:20Z</time>
      </trkpt>
      <trkpt lat="49.94643" lon="2.1416">
        <ele>13.3</ele>
        <time>2023-06-28T12:04:21Z</time>
      </trkpt>
      <trkpt lat="49.94643" lon="2.1416">
        <ele>13.3</ele>
        <time>2023-06-28T12:04:22Z</time>
      </trkpt>
      <trkpt lat="49.94643" lon="2.1416">
        <ele>13.3</ele>
        <time>2023-06-28T12:04:23Z</time>
      </trkpt>
      <trkpt lat="49.94643" lon="2.14161">
        <ele>13.3</ele>
        <time>2023-06-28T12:04:24Z</time>
      </trkpt>
      <trkpt lat="49.94643" lon="2.14161">
        <ele>13.3</ele>
        <time>2023-06-28T12:04:25Z</time>
      </trkpt>
      <trkpt lat="49.94644" lon="2.14161">
        <ele>13.3</ele>
        <time>2023-06-28T12:04:26Z</time>
      </trkpt>
      <trkpt lat="49.94644" lon="2.14161">
        <ele>13.3</ele>
        <time>2023-06-28T12:04:27Z</time>
      </trkpt>
      <trkpt lat="49.94644" lon="2.14161">
        <ele>13.3</ele>
        <time>2023-06-28T12:04:28Z</time>
      </trkpt>
      <trkpt lat="49.94644" lon="2.14161">
        <ele>13.3</ele>
        <time>2023-06-28T12:04:29Z</time>
      </trkpt>
      <trkpt lat="49.94644" lon="2.14161">
        <ele>13.3</ele>
        <time>2023-06-28T12:04:30Z</time>
      </trkpt>
      <trkpt lat="49.94644" lon="2.14161">
        <ele>13.3</ele>
        <time>2023-06-28T12:04:31Z</time>
      </trkpt>
      <trkpt lat="49.94644" lon="2.14161">
        <ele>13.3</ele>
        <time>2023-06-28T12:04:32Z</time>
      </trkpt>
      <trkpt lat="49.94644" lon="2.14165">
        <ele>13.4</ele>
        <time>2023-06-28T12:04:33Z</time>
      </trkpt>
      <trkpt lat="49.94644" lon="2.14166">
        <ele>13.5</ele>
        <time>2023-06-28T12:04:34Z</time>
      </trkpt>
      <trkpt lat="49.94643" lon="2.14168">
        <ele>13.5</ele>
        <time>2023-06-28T12:04:35Z</time>
      </trkpt>
      <trkpt lat="49.94642" lon="2.1417">
        <ele>13.6</ele>
        <time>2023-06-28T12:04:37Z</time>
      </trkpt>
      <trkpt lat="49.94641" lon="2.14172">
        <ele>13.7</ele>
        <time>2023-06-28T12:04:38Z</time>
      </trkpt>
      <trkpt lat="49.94639" lon="2.14174">
        <ele>13.8</ele>
        <time>2023-06-28T12:04:39Z</time>
      </trkpt>
      <trkpt lat="49.94638" lon="2.14176">
        <ele>13.8</ele>
        <time>2023-06-28T12:04:40Z</time>
      </trkpt>
      <trkpt lat="49.94637" lon="2.14179">
        <ele>14</ele>
        <time>2023-06-28T12:04:42Z</time>
      </trkpt>
      <trkpt lat="49.94636" lon="2.1418">
        <ele>14</ele>
        <time>2023-06-28T12:04:43Z</time>
      </trkpt>
      <trkpt lat="49.94635" lon="2.14182">
        <ele>14.1</ele>
        <time>2023-06-28T12:04:44Z</time>
      </trkpt>
      <trkpt lat="49.94634" lon="2.14185">
        <ele>14.2</ele>
        <time>2023-06-28T12:04:45Z</time>
      </trkpt>
      <trkpt lat="49.94632" lon="2.14187">
        <ele>14.4</ele>
        <time>2023-06-28T12:04:46Z</time>
      </trkpt>
      <trkpt lat="49.94632" lon="2.14189">
        <ele>14.5</ele>
        <time>2023-06-28T12:04:48Z</time>
      </trkpt>
      <trkpt lat="49.94631" lon="2.14191">
        <ele>14.5</ele>
        <time>2023-06-28T12:04:49Z</time>
      </trkpt>
      <trkpt lat="49.94631" lon="2.14192">
        <ele>14.6</ele>
        <time>2023-06-28T12:04:50Z</time>
      </trkpt>
      <trkpt lat="49.94631" lon="2.14194">
        <ele>14.7</ele>
        <time>2023-06-28T12:04:51Z</time>
      </trkpt>
      <trkpt lat="49.94631" lon="2.14195">
        <ele>14.7</ele>
        <time>2023-06-28T12:04:52Z</time>
      </trkpt>
      <trkpt lat="49.9463" lon="2.14197">
        <ele>14.8</ele>
        <time>2023-06-28T12:04:53Z</time>
      </trkpt>
      <trkpt lat="49.9463" lon="2.142">
        <ele>14.9</ele>
        <time>2023-06-28T12:04:55Z</time>
      </trkpt>
      <trkpt lat="49.94629" lon="2.14202">
        <ele>15</ele>
        <time>2023-06-28T12:04:56Z</time>
      </trkpt>
      <trkpt lat="49.94629" lon="2.14203">
        <ele>15.1</ele>
        <time>2023-06-28T12:04:57Z</time>
      </trkpt>
      <trkpt lat="49.94629" lon="2.14204">
        <ele>15.1</ele>
        <time>2023-06-28T12:04:58Z</time>
      </trkpt>
      <trkpt lat="49.94629" lon="2.14205">
        <ele>15.2</ele>
        <time>2023-06-28T12:04:59Z</time>
      </trkpt>
      <trkpt lat="49.94628" lon="2.14207">
        <ele>15.2</ele>
        <time>2023-06-28T12:05:00Z</time>
      </trkpt>
      <trkpt lat="49.94628" lon="2.1421">
        <ele>15.3</ele>
        <time>2023-06-28T12:05:02Z</time>
      </trkpt>
      <trkpt lat="49.94628" lon="2.1421">
        <ele>15.4</ele>
        <time>2023-06-28T12:05:03Z</time>
      </trkpt>
      <trkpt lat="49.94628" lon="2.14211">
        <ele>15.4</ele>
        <time>2023-06-28T12:05:04Z</time>
      </trkpt>
      <trkpt lat="49.94629" lon="2.14212">
        <ele>15.4</ele>
        <time>2023-06-28T12:05:05Z</time>
      </trkpt>
      <trkpt lat="49.94629" lon="2.14212">
        <ele>15.5</ele>
        <time>2023-06-28T12:05:06Z</time>
      </trkpt>
      <trkpt lat="49.94629" lon="2.14211">
        <ele>15.5</ele>
        <time>2023-06-28T12:05:07Z</time>
      </trkpt>
      <trkpt lat="49.9463" lon="2.1421">
        <ele>15.6</ele>
        <time>2023-06-28T12:05:08Z</time>
      </trkpt>
      <trkpt lat="49.9463" lon="2.1421">
        <ele>15.6</ele>
        <time>2023-06-28T12:05:09Z</time>
      </trkpt>
      <trkpt lat="49.94631" lon="2.14211">
        <ele>15.7</ele>
        <time>2023-06-28T12:05:10Z</time>
      </trkpt>
      <trkpt lat="49.94632" lon="2.14212">
        <ele>15.7</ele>
        <time>2023-06-28T12:05:11Z</time>
      </trkpt>
      <trkpt lat="49.94633" lon="2.14212">
        <ele>15.8</ele>
        <time>2023-06-28T12:05:13Z</time>
      </trkpt>
      <trkpt lat="49.94634" lon="2.14213">
        <ele>15.9</ele>
        <time>2023-06-28T12:05:14Z</time>
      </trkpt>
      <trkpt lat="49.94635" lon="2.14213">
        <ele>16.5</ele>
        <time>2023-06-28T12:05:15Z</time>
      </trkpt>
      <trkpt lat="49.94637" lon="2.14213">
        <ele>16.5</ele>
        <time>2023-06-28T12:05:16Z</time>
      </trkpt>
      <trkpt lat="49.94639" lon="2.14214">
        <ele>16.5</ele>
        <time>2023-06-28T12:05:17Z</time>
      </trkpt>
      <trkpt lat="49.94641" lon="2.14216">
        <ele>16.4</ele>
        <time>2023-06-28T12:05:19Z</time>
      </trkpt>
      <trkpt lat="49.94644" lon="2.14218">
        <ele>16.4</ele>
        <time>2023-06-28T12:05:20Z</time>
      </trkpt>
      <trkpt lat="49.94646" lon="2.14218">
        <ele>16.4</ele>
        <time>2023-06-28T12:05:21Z</time>
      </trkpt>
      <trkpt lat="49.94648" lon="2.14219">
        <ele>16.4</ele>
        <time>2023-06-28T12:05:22Z</time>
      </trkpt>
      <trkpt lat="49.94651" lon="2.1422">
        <ele>16.4</ele>
        <time>2023-06-28T12:05:24Z</time>
      </trkpt>
      <trkpt lat="49.94654" lon="2.1422">
        <ele>16.4</ele>
        <time>2023-06-28T12:05:25Z</time>
      </trkpt>
      <trkpt lat="49.94656" lon="2.1422">
        <ele>16.4</ele>
        <time>2023-06-28T12:05:26Z</time>
      </trkpt>
      <trkpt lat="49.94658" lon="2.1422">
        <ele>16.4</ele>
        <time>2023-06-28T12:05:28Z</time>
      </trkpt>
      <trkpt lat="49.94661" lon="2.1422">
        <ele>16.3</ele>
        <time>2023-06-28T12:05:29Z</time>
      </trkpt>
      <trkpt lat="49.94662" lon="2.14219">
        <ele>16.3</ele>
        <time>2023-06-28T12:05:30Z</time>
      </trkpt>
      <trkpt lat="49.94663" lon="2.1422">
        <ele>16.3</ele>
        <time>2023-06-28T12:05:31Z</time>
      </trkpt>
      <trkpt lat="49.94665" lon="2.14219">
        <ele>16.3</ele>
        <time>2023-06-28T12:05:32Z</time>
      </trkpt>
      <trkpt lat="49.94667" lon="2.14219">
        <ele>16.3</ele>
        <time>2023-06-28T12:05:33Z</time>
      </trkpt>
      <trkpt lat="49.94669" lon="2.14219">
        <ele>16.3</ele>
        <time>2023-06-28T12:05:35Z</time>
      </trkpt>
      <trkpt lat="49.94671" lon="2.14219">
        <ele>16.3</ele>
        <time>2023-06-28T12:05:36Z</time>
      </trkpt>
      <trkpt lat="49.94672" lon="2.14218">
        <ele>16.3</ele>
        <time>2023-06-28T12:05:37Z</time>
      </trkpt>
      <trkpt lat="49.94673" lon="2.14218">
        <ele>16.2</ele>
        <time>2023-06-28T12:05:38Z</time>
      </trkpt>
      <trkpt lat="49.94675" lon="2.14219">
        <ele>16.2</ele>
        <time>2023-06-28T12:05:39Z</time>
      </trkpt>
      <trkpt lat="49.94676" lon="2.14219">
        <ele>16.1</ele>
        <time>2023-06-28T12:05:41Z</time>
      </trkpt>
      <trkpt lat="49.94677" lon="2.1422">
        <ele>16.1</ele>
        <time>2023-06-28T12:05:42Z</time>
      </trkpt>
      <trkpt lat="49.94678" lon="2.1422">
        <ele>16.1</ele>
        <time>2023-06-28T12:05:43Z</time>
      </trkpt>
      <trkpt lat="49.94678" lon="2.14223">
        <ele>16</ele>
        <time>2023-06-28T12:05:45Z</time>
      </trkpt>
      <trkpt lat="49.94677" lon="2.14224">
        <ele>16</ele>
        <time>2023-06-28T12:05:46Z</time>
      </trkpt>
      <trkpt lat="49.94677" lon="2.14225">
        <ele>15.9</ele>
        <time>2023-06-28T12:05:48Z</time>
      </trkpt>
      <trkpt lat="49.94676" lon="2.14225">
        <ele>15.9</ele>
        <time>2023-06-28T12:05:49Z</time>
      </trkpt>
      <trkpt lat="49.94676" lon="2.14224">
        <ele>15.9</ele>
        <time>2023-06-28T12:05:51Z</time>
      </trkpt>
      <trkpt lat="49.94676" lon="2.14224">
        <ele>15.9</ele>
        <time>2023-06-28T12:05:52Z</time>
      </trkpt>
      <trkpt lat="49.94676" lon="2.14224">
        <ele>15.9</ele>
        <time>2023-06-28T12:05:53Z</time>
      </trkpt>
      <trkpt lat="49.94676" lon="2.14224">
        <ele>15.9</ele>
        <time>2023-06-28T12:05:55Z</time>
      </trkpt>
      <trkpt lat="49.94676" lon="2.14224">
        <ele>15.9</ele>
        <time>2023-06-28T12:05:56Z</time>
      </trkpt>
      <trkpt lat="49.94676" lon="2.14224">
        <ele>15.9</ele>
        <time>2023-06-28T12:05:58Z</time>
      </trkpt>
      <trkpt lat="49.94676" lon="2.14225">
        <ele>15.9</ele>
        <time>2023-06-28T12:05:59Z</time>
      </trkpt>
      <trkpt lat="49.94675" lon="2.14225">
        <ele>15.9</ele>
        <time>2023-06-28T12:06:01Z</time>
      </trkpt>
      <trkpt lat="49.94675" lon="2.14225">
        <ele>15.9</ele>
        <time>2023-06-28T12:06:02Z</time>
      </trkpt>
      <trkpt lat="49.94675" lon="2.14225">
        <ele>15.9</ele>
        <time>2023-06-28T12:06:04Z</time>
      </trkpt>
      <trkpt lat="49.94675" lon="2.14225">
        <ele>15.9</ele>
        <time>2023-06-28T12:06:05Z</time>
      </trkpt>
      <trkpt lat="49.94675" lon="2.14226">
        <ele>15.8</ele>
        <time>2023-06-28T12:06:06Z</time>
      </trkpt>
      <trkpt lat="49.94674" lon="2.14227">
        <ele>15.8</ele>
        <time>2023-06-28T12:06:07Z</time>
      </trkpt>
      <trkpt lat="49.94672" lon="2.14229">
        <ele>15.7</ele>
        <time>2023-06-28T12:06:08Z</time>
      </trkpt>
      <trkpt lat="49.94672" lon="2.14231">
        <ele>15.7</ele>
        <time>2023-06-28T12:06:10Z</time>
      </trkpt>
      <trkpt lat="49.94671" lon="2.14232">
        <ele>15.7</ele>
        <time>2023-06-28T12:06:11Z</time>
      </trkpt>
      <trkpt lat="49.9467" lon="2.14235">
        <ele>15.6</ele>
        <time>2023-06-28T12:06:12Z</time>
      </trkpt>
      <trkpt lat="49.94669" lon="2.14237">
        <ele>15.6</ele>
        <time>2023-06-28T12:06:13Z</time>
      </trkpt>
      <trkpt lat="49.94668" lon="2.14238">
        <ele>15.5</ele>
        <time>2023-06-28T12:06:14Z</time>
      </trkpt>
      <trkpt lat="49.94667" lon="2.14241">
        <ele>15.4</ele>
        <time>2023-06-28T12:06:16Z</time>
      </trkpt>
      <trkpt lat="49.94667" lon="2.14242">
        <ele>15.4</ele>
        <time>2023-06-28T12:06:17Z</time>
      </trkpt>
      <trkpt lat="49.94666" lon="2.14244">
        <ele>15.4</ele>
        <time>2023-06-28T12:06:18Z</time>
      </trkpt>
      <trkpt lat="49.94665" lon="2.14245">
        <ele>15.4</ele>
        <time>2023-06-28T12:06:19Z</time>
      </trkpt>
      <trkpt lat="49.94665" lon="2.14247">
        <ele>15.4</ele>
        <time>2023-06-28T12:06:20Z</time>
      </trkpt>
      <trkpt lat="49.94664" lon="2.14249">
        <ele>15.3</ele>
        <time>2023-06-28T12:06:22Z</time>
      </trkpt>
      <trkpt lat="49.94664" lon="2.1425">
        <ele>15.3</ele>
        <time>2023-06-28T12:06:23Z</time>
      </trkpt>
      <trkpt lat="49.94664" lon="2.14252">
        <ele>15.3</ele>
        <time>2023-06-28T12:06:24Z</time>
      </trkpt>
      <trkpt lat="49.94663" lon="2.14254">
        <ele>15.3</ele>
        <time>2023-06-28T12:06:25Z</time>
      </trkpt>
      <trkpt lat="49.94663" lon="2.14256">
        <ele>15.3</ele>
        <time>2023-06-28T12:06:26Z</time>
      </trkpt>
      <trkpt lat="49.94663" lon="2.14258">
        <ele>15.3</ele>
        <time>2023-06-28T12:06:28Z</time>
      </trkpt>
      <trkpt lat="49.94662" lon="2.1426">
        <ele>15.3</ele>
        <time>2023-06-28T12:06:29Z</time>
      </trkpt>
      <trkpt lat="49.94662" lon="2.14261">
        <ele>15.2</ele>
        <time>2023-06-28T12:06:30Z</time>
      </trkpt>
      <trkpt lat="49.94662" lon="2.14263">
        <ele>15.2</ele>
        <time>2023-06-28T12:06:31Z</time>
      </trkpt>
      <trkpt lat="49.94662" lon="2.14266">
        <ele>15.2</ele>
        <time>2023-06-28T12:06:32Z</time>
      </trkpt>
      <trkpt lat="49.94662" lon="2.14268">
        <ele>15.2</ele>
        <time>2023-06-28T12:06:33Z</time>
      </trkpt>
      <trkpt lat="49.94662" lon="2.14269">
        <ele>15.2</ele>
        <time>2023-06-28T12:06:35Z</time>
      </trkpt>
      <trkpt lat="49.94661" lon="2.14271">
        <ele>15.2</ele>
        <time>2023-06-28T12:06:36Z</time>
      </trkpt>
      <trkpt lat="49.94661" lon="2.14272">
        <ele>15.2</ele>
        <time>2023-06-28T12:06:37Z</time>
      </trkpt>
      <trkpt lat="49.9466" lon="2.14274">
        <ele>15.2</ele>
        <time>2023-06-28T12:06:38Z</time>
      </trkpt>
      <trkpt lat="49.94659" lon="2.14277">
        <ele>15.2</ele>
        <time>2023-06-28T12:06:40Z</time>
      </trkpt>
      <trkpt lat="49.94659" lon="2.14278">
        <ele>15.2</ele>
        <time>2023-06-28T12:06:41Z</time>
      </trkpt>
      <trkpt lat="49.94659" lon="2.14279">
        <ele>15.2</ele>
        <time>2023-06-28T12:06:42Z</time>
      </trkpt>
      <trkpt lat="49.94658" lon="2.14281">
        <ele>15.2</ele>
        <time>2023-06-28T12:06:43Z</time>
      </trkpt>
      <trkpt lat="49.94658" lon="2.14282">
        <ele>15.2</ele>
        <time>2023-06-28T12:06:44Z</time>
      </trkpt>
      <trkpt lat="49.94658" lon="2.14284">
        <ele>15.2</ele>
        <time>2023-06-28T12:06:45Z</time>
      </trkpt>
      <trkpt lat="49.94657" lon="2.14286">
        <ele>15.2</ele>
        <time>2023-06-28T12:06:46Z</time>
      </trkpt>
      <trkpt lat="49.94657" lon="2.14288">
        <ele>15.2</ele>
        <time>2023-06-28T12:06:47Z</time>
      </trkpt>
      <trkpt lat="49.94657" lon="2.14289">
        <ele>15.2</ele>
        <time>2023-06-28T12:06:49Z</time>
      </trkpt>
      <trkpt lat="49.94656" lon="2.14291">
        <ele>15.2</ele>
        <time>2023-06-28T12:06:50Z</time>
      </trkpt>
      <trkpt lat="49.94656" lon="2.14293">
        <ele>15.2</ele>
        <time>2023-06-28T12:06:51Z</time>
      </trkpt>
      <trkpt lat="49.94656" lon="2.14295">
        <ele>15.2</ele>
        <time>2023-06-28T12:06:52Z</time>
      </trkpt>
      <trkpt lat="49.94655" lon="2.14296">
        <ele>15.2</ele>
        <time>2023-06-28T12:06:53Z</time>
      </trkpt>
      <trkpt lat="49.94655" lon="2.14298">
        <ele>15.3</ele>
        <time>2023-06-28T12:06:54Z</time>
      </trkpt>
      <trkpt lat="49.94654" lon="2.14299">
        <ele>15.3</ele>
        <time>2023-06-28T12:06:55Z</time>
      </trkpt>
      <trkpt lat="49.94654" lon="2.14301">
        <ele>15.3</ele>
        <time>2023-06-28T12:06:57Z</time>
      </trkpt>
      <trkpt lat="49.94653" lon="2.14302">
        <ele>15.3</ele>
        <time>2023-06-28T12:06:58Z</time>
      </trkpt>
      <trkpt lat="49.94652" lon="2.14303">
        <ele>15.3</ele>
        <time>2023-06-28T12:06:59Z</time>
      </trkpt>
      <trkpt lat="49.94652" lon="2.14305">
        <ele>15.3</ele>
        <time>2023-06-28T12:07:00Z</time>
      </trkpt>
      <trkpt lat="49.94651" lon="2.14306">
        <ele>15.3</ele>
        <time>2023-06-28T12:07:01Z</time>
      </trkpt>
      <trkpt lat="49.9465" lon="2.14308">
        <ele>15.3</ele>
        <time>2023-06-28T12:07:02Z</time>
      </trkpt>
      <trkpt lat="49.9465" lon="2.14309">
        <ele>15.3</ele>
        <time>2023-06-28T12:07:03Z</time>
      </trkpt>
      <trkpt lat="49.94649" lon="2.14311">
        <ele>15.3</ele>
        <time>2023-06-28T12:07:04Z</time>
      </trkpt>
      <trkpt lat="49.94649" lon="2.14312">
        <ele>15.3</ele>
        <time>2023-06-28T12:07:06Z</time>
      </trkpt>
      <trkpt lat="49.94648" lon="2.14314">
        <ele>15.3</ele>
        <time>2023-06-28T12:07:07Z</time>
      </trkpt>
      <trkpt lat="49.94648" lon="2.14315">
        <ele>15.4</ele>
        <time>2023-06-28T12:07:08Z</time>
      </trkpt>
      <trkpt lat="49.94647" lon="2.14317">
        <ele>15.4</ele>
        <time>2023-06-28T12:07:09Z</time>
      </trkpt>
      <trkpt lat="49.94646" lon="2.1432">
        <ele>15.4</ele>
        <time>2023-06-28T12:07:10Z</time>
      </trkpt>
      <trkpt lat="49.94646" lon="2.14321">
        <ele>15.4</ele>
        <time>2023-06-28T12:07:11Z</time>
      </trkpt>
      <trkpt lat="49.94645" lon="2.14322">
        <ele>15.4</ele>
        <time>2023-06-28T12:07:12Z</time>
      </trkpt>
      <trkpt lat="49.94645" lon="2.14323">
        <ele>15.4</ele>
        <time>2023-06-28T12:07:14Z</time>
      </trkpt>
      <trkpt lat="49.94644" lon="2.14325">
        <ele>15.4</ele>
        <time>2023-06-28T12:07:15Z</time>
      </trkpt>
      <trkpt lat="49.94643" lon="2.14326">
        <ele>15.4</ele>
        <time>2023-06-28T12:07:16Z</time>
      </trkpt>
      <trkpt lat="49.94642" lon="2.14329">
        <ele>15.4</ele>
        <time>2023-06-28T12:07:17Z</time>
      </trkpt>
      <trkpt lat="49.94641" lon="2.1433">
        <ele>15.4</ele>
        <time>2023-06-28T12:07:18Z</time>
      </trkpt>
      <trkpt lat="49.94641" lon="2.14331">
        <ele>15.4</ele>
        <time>2023-06-28T12:07:19Z</time>
      </trkpt>
      <trkpt lat="49.9464" lon="2.14333">
        <ele>15.4</ele>
        <time>2023-06-28T12:07:20Z</time>
      </trkpt>
      <trkpt lat="49.94639" lon="2.14334">
        <ele>15.4</ele>
        <time>2023-06-28T12:07:21Z</time>
      </trkpt>
      <trkpt lat="49.94639" lon="2.14335">
        <ele>15.4</ele>
        <time>2023-06-28T12:07:22Z</time>
      </trkpt>
      <trkpt lat="49.94638" lon="2.14338">
        <ele>15.4</ele>
        <time>2023-06-28T12:07:24Z</time>
      </trkpt>
      <trkpt lat="49.94637" lon="2.14339">
        <ele>15.4</ele>
        <time>2023-06-28T12:07:25Z</time>
      </trkpt>
      <trkpt lat="49.94637" lon="2.1434">
        <ele>15.4</ele>
        <time>2023-06-28T12:07:26Z</time>
      </trkpt>
      <trkpt lat="49.94636" lon="2.14341">
        <ele>15.4</ele>
        <time>2023-06-28T12:07:27Z</time>
      </trkpt>
      <trkpt lat="49.94635" lon="2.14343">
        <ele>15.4</ele>
        <time>2023-06-28T12:07:28Z</time>
      </trkpt>
      <trkpt lat="49.94634" lon="2.14345">
        <ele>15.4</ele>
        <time>2023-06-28T12:07:30Z</time>
      </trkpt>
      <trkpt lat="49.94633" lon="2.14346">
        <ele>15.4</ele>
        <time>2023-06-28T12:07:31Z</time>
      </trkpt>
      <trkpt lat="49.94632" lon="2.14347">
        <ele>15.4</ele>
        <time>2023-06-28T12:07:32Z</time>
      </trkpt>
      <trkpt lat="49.94631" lon="2.14349">
        <ele>15.4</ele>
        <time>2023-06-28T12:07:34Z</time>
      </trkpt>
      <trkpt lat="49.94629" lon="2.14351">
        <ele>15.4</ele>
        <time>2023-06-28T12:07:35Z</time>
      </trkpt>
      <trkpt lat="49.94629" lon="2.14352">
        <ele>15.4</ele>
        <time>2023-06-28T12:07:36Z</time>
      </trkpt>
      <trkpt lat="49.94628" lon="2.14353">
        <ele>15.4</ele>
        <time>2023-06-28T12:07:37Z</time>
      </trkpt>
      <trkpt lat="49.94627" lon="2.14355">
        <ele>15.4</ele>
        <time>2023-06-28T12:07:38Z</time>
      </trkpt>
      <trkpt lat="49.94626" lon="2.14357">
        <ele>15.4</ele>
        <time>2023-06-28T12:07:39Z</time>
      </trkpt>
      <trkpt lat="49.94625" lon="2.14359">
        <ele>15.4</ele>
        <time>2023-06-28T12:07:41Z</time>
      </trkpt>
      <trkpt lat="49.94625" lon="2.1436">
        <ele>15.4</ele>
        <time>2023-06-28T12:07:42Z</time>
      </trkpt>
      <trkpt lat="49.94624" lon="2.14361">
        <ele>15.4</ele>
        <time>2023-06-28T12:07:43Z</time>
      </trkpt>
      <trkpt lat="49.94623" lon="2.14364">
        <ele>15.4</ele>
        <time>2023-06-28T12:07:44Z</time>
      </trkpt>
      <trkpt lat="49.94622" lon="2.14365">
        <ele>15.4</ele>
        <time>2023-06-28T12:07:45Z</time>
      </trkpt>
      <trkpt lat="49.94622" lon="2.14366">
        <ele>15.4</ele>
        <time>2023-06-28T12:07:46Z</time>
      </trkpt>
      <trkpt lat="49.94621" lon="2.14368">
        <ele>15.4</ele>
        <time>2023-06-28T12:07:47Z</time>
      </trkpt>
      <trkpt lat="49.9462" lon="2.14369">
        <ele>15.4</ele>
        <time>2023-06-28T12:07:49Z</time>
      </trkpt>
      <trkpt lat="49.9462" lon="2.1437">
        <ele>15.4</ele>
        <time>2023-06-28T12:07:50Z</time>
      </trkpt>
      <trkpt lat="49.94619" lon="2.14372">
        <ele>15.4</ele>
        <time>2023-06-28T12:07:51Z</time>
      </trkpt>
      <trkpt lat="49.94619" lon="2.14374">
        <ele>15.4</ele>
        <time>2023-06-28T12:07:52Z</time>
      </trkpt>
      <trkpt lat="49.94618" lon="2.14375">
        <ele>15.4</ele>
        <time>2023-06-28T12:07:53Z</time>
      </trkpt>
      <trkpt lat="49.94617" lon="2.14378">
        <ele>15.4</ele>
        <time>2023-06-28T12:07:54Z</time>
      </trkpt>
      <trkpt lat="49.94617" lon="2.14379">
        <ele>15.4</ele>
        <time>2023-06-28T12:07:55Z</time>
      </trkpt>
      <trkpt lat="49.94617" lon="2.1438">
        <ele>15.4</ele>
        <time>2023-06-28T12:07:56Z</time>
      </trkpt>
      <trkpt lat="49.94616" lon="2.14382">
        <ele>15.4</ele>
        <time>2023-06-28T12:07:58Z</time>
      </trkpt>
      <trkpt lat="49.94616" lon="2.14384">
        <ele>15.4</ele>
        <time>2023-06-28T12:07:59Z</time>
      </trkpt>
      <trkpt lat="49.94616" lon="2.14385">
        <ele>15.4</ele>
        <time>2023-06-28T12:08:00Z</time>
      </trkpt>
      <trkpt lat="49.94616" lon="2.14387">
        <ele>15.4</ele>
        <time>2023-06-28T12:08:01Z</time>
      </trkpt>
      <trkpt lat="49.94615" lon="2.14389">
        <ele>15.4</ele>
        <time>2023-06-28T12:08:02Z</time>
      </trkpt>
      <trkpt lat="49.94615" lon="2.1439">
        <ele>15.4</ele>
        <time>2023-06-28T12:08:03Z</time>
      </trkpt>
      <trkpt lat="49.94615" lon="2.14392">
        <ele>15.4</ele>
        <time>2023-06-28T12:08:04Z</time>
      </trkpt>
      <trkpt lat="49.94614" lon="2.14394">
        <ele>15.4</ele>
        <time>2023-06-28T12:08:06Z</time>
      </trkpt>
      <trkpt lat="49.94614" lon="2.14396">
        <ele>15.4</ele>
        <time>2023-06-28T12:08:07Z</time>
      </trkpt>
      <trkpt lat="49.94613" lon="2.14397">
        <ele>15.5</ele>
        <time>2023-06-28T12:08:08Z</time>
      </trkpt>
      <trkpt lat="49.94613" lon="2.14398">
        <ele>15.5</ele>
        <time>2023-06-28T12:08:09Z</time>
      </trkpt>
      <trkpt lat="49.94612" lon="2.144">
        <ele>15.5</ele>
        <time>2023-06-28T12:08:10Z</time>
      </trkpt>
      <trkpt lat="49.94612" lon="2.14402">
        <ele>15.5</ele>
        <time>2023-06-28T12:08:11Z</time>
      </trkpt>
      <trkpt lat="49.94612" lon="2.14403">
        <ele>15.5</ele>
        <time>2023-06-28T12:08:12Z</time>
      </trkpt>
      <trkpt lat="49.94611" lon="2.14405">
        <ele>15.5</ele>
        <time>2023-06-28T12:08:14Z</time>
      </trkpt>
      <trkpt lat="49.9461" lon="2.14408">
        <ele>15.5</ele>
        <time>2023-06-28T12:08:15Z</time>
      </trkpt>
      <trkpt lat="49.9461" lon="2.14409">
        <ele>15.5</ele>
        <time>2023-06-28T12:08:16Z</time>
      </trkpt>
      <trkpt lat="49.9461" lon="2.14411">
        <ele>15.5</ele>
        <time>2023-06-28T12:08:17Z</time>
      </trkpt>
      <trkpt lat="49.94609" lon="2.14412">
        <ele>15.5</ele>
        <time>2023-06-28T12:08:18Z</time>
      </trkpt>
      <trkpt lat="49.94609" lon="2.14414">
        <ele>15.5</ele>
        <time>2023-06-28T12:08:19Z</time>
      </trkpt>
      <trkpt lat="49.94608" lon="2.14416">
        <ele>15.5</ele>
        <time>2023-06-28T12:08:20Z</time>
      </trkpt>
      <trkpt lat="49.94608" lon="2.14417">
        <ele>15.5</ele>
        <time>2023-06-28T12:08:22Z</time>
      </trkpt>
      <trkpt lat="49.94608" lon="2.14419">
        <ele>15.5</ele>
        <time>2023-06-28T12:08:23Z</time>
      </trkpt>
      <trkpt lat="49.94607" lon="2.1442">
        <ele>15.5</ele>
        <time>2023-06-28T12:08:24Z</time>
      </trkpt>
      <trkpt lat="49.94606" lon="2.14423">
        <ele>15.5</ele>
        <time>2023-06-28T12:08:26Z</time>
      </trkpt>
      <trkpt lat="49.94606" lon="2.14425">
        <ele>15.5</ele>
        <time>2023-06-28T12:08:27Z</time>
      </trkpt>
      <trkpt lat="49.94605" lon="2.14426">
        <ele>15.5</ele>
        <time>2023-06-28T12:08:28Z</time>
      </trkpt>
      <trkpt lat="49.94604" lon="2.14428">
        <ele>15.5</ele>
        <time>2023-06-28T12:08:29Z</time>
      </trkpt>
      <trkpt lat="49.94603" lon="2.14431">
        <ele>15.5</ele>
        <time>2023-06-28T12:08:30Z</time>
      </trkpt>
      <trkpt lat="49.94603" lon="2.14433">
        <ele>15.4</ele>
        <time>2023-06-28T12:08:32Z</time>
      </trkpt>
      <trkpt lat="49.94602" lon="2.14434">
        <ele>15.4</ele>
        <time>2023-06-28T12:08:33Z</time>
      </trkpt>
      <trkpt lat="49.94602" lon="2.14436">
        <ele>15.4</ele>
        <time>2023-06-28T12:08:34Z</time>
      </trkpt>
      <trkpt lat="49.94601" lon="2.14438">
        <ele>15.4</ele>
        <time>2023-06-28T12:08:35Z</time>
      </trkpt>
      <trkpt lat="49.946" lon="2.14439">
        <ele>15.4</ele>
        <time>2023-06-28T12:08:36Z</time>
      </trkpt>
      <trkpt lat="49.94599" lon="2.14441">
        <ele>15.4</ele>
        <time>2023-06-28T12:08:37Z</time>
      </trkpt>
      <trkpt lat="49.94598" lon="2.14443">
        <ele>15.4</ele>
        <time>2023-06-28T12:08:38Z</time>
      </trkpt>
      <trkpt lat="49.94597" lon="2.14444">
        <ele>15.4</ele>
        <time>2023-06-28T12:08:39Z</time>
      </trkpt>
      <trkpt lat="49.94596" lon="2.14447">
        <ele>15.4</ele>
        <time>2023-06-28T12:08:40Z</time>
      </trkpt>
      <trkpt lat="49.94595" lon="2.14448">
        <ele>15.4</ele>
        <time>2023-06-28T12:08:42Z</time>
      </trkpt>
      <trkpt lat="49.94595" lon="2.14449">
        <ele>15.4</ele>
        <time>2023-06-28T12:08:43Z</time>
      </trkpt>
      <trkpt lat="49.94593" lon="2.14452">
        <ele>15.4</ele>
        <time>2023-06-28T12:08:45Z</time>
      </trkpt>
      <trkpt lat="49.94593" lon="2.14453">
        <ele>15.4</ele>
        <time>2023-06-28T12:08:46Z</time>
      </trkpt>
      <trkpt lat="49.94592" lon="2.14455">
        <ele>15.4</ele>
        <time>2023-06-28T12:08:47Z</time>
      </trkpt>
      <trkpt lat="49.94592" lon="2.14457">
        <ele>15.4</ele>
        <time>2023-06-28T12:08:48Z</time>
      </trkpt>
      <trkpt lat="49.94591" lon="2.14459">
        <ele>15.4</ele>
        <time>2023-06-28T12:08:50Z</time>
      </trkpt>
      <trkpt lat="49.94591" lon="2.14461">
        <ele>15.5</ele>
        <time>2023-06-28T12:08:51Z</time>
      </trkpt>
      <trkpt lat="49.9459" lon="2.14463">
        <ele>15.4</ele>
        <time>2023-06-28T12:08:52Z</time>
      </trkpt>
      <trkpt lat="49.9459" lon="2.14464">
        <ele>15.4</ele>
        <time>2023-06-28T12:08:53Z</time>
      </trkpt>
      <trkpt lat="49.94589" lon="2.14466">
        <ele>15.5</ele>
        <time>2023-06-28T12:08:54Z</time>
      </trkpt>
      <trkpt lat="49.94589" lon="2.14467">
        <ele>15.5</ele>
        <time>2023-06-28T12:08:55Z</time>
      </trkpt>
      <trkpt lat="49.94588" lon="2.1447">
        <ele>15.5</ele>
        <time>2023-06-28T12:08:57Z</time>
      </trkpt>
      <trkpt lat="49.94587" lon="2.14472">
        <ele>15.5</ele>
        <time>2023-06-28T12:08:59Z</time>
      </trkpt>
      <trkpt lat="49.94587" lon="2.14474">
        <ele>15.5</ele>
        <time>2023-06-28T12:09:00Z</time>
      </trkpt>
      <trkpt lat="49.94586" lon="2.14477">
        <ele>15.5</ele>
        <time>2023-06-28T12:09:02Z</time>
      </trkpt>
      <trkpt lat="49.94586" lon="2.14478">
        <ele>15.5</ele>
        <time>2023-06-28T12:09:03Z</time>
      </trkpt>
      <trkpt lat="49.94586" lon="2.1448">
        <ele>15.5</ele>
        <time>2023-06-28T12:09:04Z</time>
      </trkpt>
      <trkpt lat="49.94585" lon="2.14482">
        <ele>15.5</ele>
        <time>2023-06-28T12:09:05Z</time>
      </trkpt>
      <trkpt lat="49.94585" lon="2.14484">
        <ele>15.5</ele>
        <time>2023-06-28T12:09:06Z</time>
      </trkpt>
      <trkpt lat="49.94585" lon="2.14486">
        <ele>15.5</ele>
        <time>2023-06-28T12:09:07Z</time>
      </trkpt>
      <trkpt lat="49.94584" lon="2.14488">
        <ele>15.5</ele>
        <time>2023-06-28T12:09:09Z</time>
      </trkpt>
      <trkpt lat="49.94584" lon="2.14491">
        <ele>15.5</ele>
        <time>2023-06-28T12:09:10Z</time>
      </trkpt>
      <trkpt lat="49.94584" lon="2.14493">
        <ele>15.5</ele>
        <time>2023-06-28T12:09:12Z</time>
      </trkpt>
      <trkpt lat="49.94584" lon="2.14495">
        <ele>15.5</ele>
        <time>2023-06-28T12:09:13Z</time>
      </trkpt>
      <trkpt lat="49.94584" lon="2.14497">
        <ele>15.5</ele>
        <time>2023-06-28T12:09:14Z</time>
      </trkpt>
      <trkpt lat="49.94584" lon="2.14499">
        <ele>15.5</ele>
        <time>2023-06-28T12:09:15Z</time>
      </trkpt>
      <trkpt lat="49.94584" lon="2.14501">
        <ele>15.5</ele>
        <time>2023-06-28T12:09:16Z</time>
      </trkpt>
      <trkpt lat="49.94584" lon="2.14503">
        <ele>15.5</ele>
        <time>2023-06-28T12:09:18Z</time>
      </trkpt>
      <trkpt lat="49.94585" lon="2.14505">
        <ele>15.5</ele>
        <time>2023-06-28T12:09:19Z</time>
      </trkpt>
      <trkpt lat="49.94585" lon="2.14507">
        <ele>15.5</ele>
        <time>2023-06-28T12:09:20Z</time>
      </trkpt>
      <trkpt lat="49.94585" lon="2.1451">
        <ele>15.5</ele>
        <time>2023-06-28T12:09:21Z</time>
      </trkpt>
      <trkpt lat="49.94586" lon="2.14512">
        <ele>15.5</ele>
        <time>2023-06-28T12:09:22Z</time>
      </trkpt>
      <trkpt lat="49.94586" lon="2.14514">
        <ele>15.4</ele>
        <time>2023-06-28T12:09:23Z</time>
      </trkpt>
      <trkpt lat="49.94586" lon="2.14516">
        <ele>15.5</ele>
        <time>2023-06-28T12:09:24Z</time>
      </trkpt>
      <trkpt lat="49.94587" lon="2.14519">
        <ele>15.5</ele>
        <time>2023-06-28T12:09:26Z</time>
      </trkpt>
      <trkpt lat="49.94587" lon="2.14521">
        <ele>15.5</ele>
        <time>2023-06-28T12:09:28Z</time>
      </trkpt>
      <trkpt lat="49.94588" lon="2.14523">
        <ele>15.5</ele>
        <time>2023-06-28T12:09:29Z</time>
      </trkpt>
      <trkpt lat="49.94588" lon="2.14524">
        <ele>15.4</ele>
        <time>2023-06-28T12:09:30Z</time>
      </trkpt>
      <trkpt lat="49.94588" lon="2.14525">
        <ele>15.4</ele>
        <time>2023-06-28T12:09:31Z</time>
      </trkpt>
      <trkpt lat="49.94588" lon="2.14527">
        <ele>15.4</ele>
        <time>2023-06-28T12:09:32Z</time>
      </trkpt>
      <trkpt lat="49.94589" lon="2.14528">
        <ele>15.4</ele>
        <time>2023-06-28T12:09:33Z</time>
      </trkpt>
      <trkpt lat="49.94589" lon="2.1453">
        <ele>15.4</ele>
        <time>2023-06-28T12:09:34Z</time>
      </trkpt>
      <trkpt lat="49.94589" lon="2.14532">
        <ele>15.4</ele>
        <time>2023-06-28T12:09:36Z</time>
      </trkpt>
      <trkpt lat="49.94589" lon="2.14533">
        <ele>15.4</ele>
        <time>2023-06-28T12:09:37Z</time>
      </trkpt>
      <trkpt lat="49.94588" lon="2.14534">
        <ele>15.4</ele>
        <time>2023-06-28T12:09:38Z</time>
      </trkpt>
      <trkpt lat="49.94588" lon="2.14536">
        <ele>15.4</ele>
        <time>2023-06-28T12:09:39Z</time>
      </trkpt>
      <trkpt lat="49.94588" lon="2.14537">
        <ele>15.4</ele>
        <time>2023-06-28T12:09:40Z</time>
      </trkpt>
      <trkpt lat="49.94587" lon="2.14539">
        <ele>15.3</ele>
        <time>2023-06-28T12:09:42Z</time>
      </trkpt>
      <trkpt lat="49.94586" lon="2.1454">
        <ele>15.3</ele>
        <time>2023-06-28T12:09:44Z</time>
      </trkpt>
      <trkpt lat="49.94586" lon="2.14541">
        <ele>15.3</ele>
        <time>2023-06-28T12:09:45Z</time>
      </trkpt>
      <trkpt lat="49.94585" lon="2.14542">
        <ele>15.3</ele>
        <time>2023-06-28T12:09:46Z</time>
      </trkpt>
      <trkpt lat="49.94585" lon="2.14543">
        <ele>15.2</ele>
        <time>2023-06-28T12:09:48Z</time>
      </trkpt>
      <trkpt lat="49.94584" lon="2.14544">
        <ele>15.2</ele>
        <time>2023-06-28T12:09:49Z</time>
      </trkpt>
      <trkpt lat="49.94584" lon="2.14545">
        <ele>15.2</ele>
        <time>2023-06-28T12:09:50Z</time>
      </trkpt>
      <trkpt lat="49.94584" lon="2.14546">
        <ele>15.2</ele>
        <time>2023-06-28T12:09:51Z</time>
      </trkpt>
      <trkpt lat="49.94584" lon="2.14547">
        <ele>15.2</ele>
        <time>2023-06-28T12:09:53Z</time>
      </trkpt>
      <trkpt lat="49.94584" lon="2.14548">
        <ele>15.2</ele>
        <time>2023-06-28T12:09:54Z</time>
      </trkpt>
      <trkpt lat="49.94583" lon="2.1455">
        <ele>15.1</ele>
        <time>2023-06-28T12:09:56Z</time>
      </trkpt>
      <trkpt lat="49.94583" lon="2.1455">
        <ele>15.1</ele>
        <time>2023-06-28T12:09:57Z</time>
      </trkpt>
      <trkpt lat="49.94582" lon="2.14551">
        <ele>15.1</ele>
        <time>2023-06-28T12:09:58Z</time>
      </trkpt>
      <trkpt lat="49.94581" lon="2.14553">
        <ele>15.1</ele>
        <time>2023-06-28T12:10:00Z</time>
      </trkpt>
      <trkpt lat="49.94581" lon="2.14553">
        <ele>15.1</ele>
        <time>2023-06-28T12:10:01Z</time>
      </trkpt>
      <trkpt lat="49.94579" lon="2.14552">
        <ele>15.1</ele>
        <time>2023-06-28T12:10:02Z</time>
      </trkpt>
      <trkpt lat="49.94579" lon="2.14551">
        <ele>15.1</ele>
        <time>2023-06-28T12:10:03Z</time>
      </trkpt>
      <trkpt lat="49.94578" lon="2.14551">
        <ele>15</ele>
        <time>2023-06-28T12:10:05Z</time>
      </trkpt>
      <trkpt lat="49.94577" lon="2.14551">
        <ele>15</ele>
        <time>2023-06-28T12:10:06Z</time>
      </trkpt>
      <trkpt lat="49.94577" lon="2.14552">
        <ele>15</ele>
        <time>2023-06-28T12:10:07Z</time>
      </trkpt>
      <trkpt lat="49.94577" lon="2.14553">
        <ele>15</ele>
        <time>2023-06-28T12:10:08Z</time>
      </trkpt>
      <trkpt lat="49.94576" lon="2.14555">
        <ele>15</ele>
        <time>2023-06-28T12:10:09Z</time>
      </trkpt>
      <trkpt lat="49.94576" lon="2.14556">
        <ele>14.9</ele>
        <time>2023-06-28T12:10:10Z</time>
      </trkpt>
      <trkpt lat="49.94576" lon="2.14557">
        <ele>14.9</ele>
        <time>2023-06-28T12:10:11Z</time>
      </trkpt>
      <trkpt lat="49.94576" lon="2.14558">
        <ele>14.9</ele>
        <time>2023-06-28T12:10:13Z</time>
      </trkpt>
      <trkpt lat="49.94576" lon="2.14559">
        <ele>14.9</ele>
        <time>2023-06-28T12:10:14Z</time>
      </trkpt>
      <trkpt lat="49.94575" lon="2.1456">
        <ele>14.9</ele>
        <time>2023-06-28T12:10:15Z</time>
      </trkpt>
      <trkpt lat="49.94575" lon="2.14561">
        <ele>14.8</ele>
        <time>2023-06-28T12:10:16Z</time>
      </trkpt>
      <trkpt lat="49.94575" lon="2.14562">
        <ele>14.8</ele>
        <time>2023-06-28T12:10:17Z</time>
      </trkpt>
      <trkpt lat="49.94575" lon="2.14563">
        <ele>14.8</ele>
        <time>2023-06-28T12:10:19Z</time>
      </trkpt>
      <trkpt lat="49.94576" lon="2.14564">
        <ele>14.9</ele>
        <time>2023-06-28T12:10:20Z</time>
      </trkpt>
      <trkpt lat="49.94575" lon="2.14565">
        <ele>14.8</ele>
        <time>2023-06-28T12:10:21Z</time>
      </trkpt>
      <trkpt lat="49.94575" lon="2.14566">
        <ele>14.8</ele>
        <time>2023-06-28T12:10:22Z</time>
      </trkpt>
      <trkpt lat="49.94575" lon="2.14567">
        <ele>14.8</ele>
        <time>2023-06-28T12:10:24Z</time>
      </trkpt>
      <trkpt lat="49.94574" lon="2.14568">
        <ele>14.8</ele>
        <time>2023-06-28T12:10:25Z</time>
      </trkpt>
      <trkpt lat="49.94574" lon="2.14569">
        <ele>14.8</ele>
        <time>2023-06-28T12:10:26Z</time>
      </trkpt>
      <trkpt lat="49.94574" lon="2.1457">
        <ele>14.8</ele>
        <time>2023-06-28T12:10:27Z</time>
      </trkpt>
      <trkpt lat="49.94574" lon="2.14572">
        <ele>14.8</ele>
        <time>2023-06-28T12:10:28Z</time>
      </trkpt>
      <trkpt lat="49.94575" lon="2.14573">
        <ele>14.7</ele>
        <time>2023-06-28T12:10:29Z</time>
      </trkpt>
      <trkpt lat="49.94576" lon="2.14574">
        <ele>14.8</ele>
        <time>2023-06-28T12:10:31Z</time>
      </trkpt>
      <trkpt lat="49.94576" lon="2.14575">
        <ele>14.8</ele>
        <time>2023-06-28T12:10:32Z</time>
      </trkpt>
      <trkpt lat="49.94577" lon="2.14575">
        <ele>14.8</ele>
        <time>2023-06-28T12:10:33Z</time>
      </trkpt>
      <trkpt lat="49.94578" lon="2.14576">
        <ele>14.8</ele>
        <time>2023-06-28T12:10:34Z</time>
      </trkpt>
      <trkpt lat="49.9458" lon="2.14576">
        <ele>14.8</ele>
        <time>2023-06-28T12:10:35Z</time>
      </trkpt>
      <trkpt lat="49.94581" lon="2.14576">
        <ele>14.8</ele>
        <time>2023-06-28T12:10:37Z</time>
      </trkpt>
      <trkpt lat="49.94583" lon="2.14577">
        <ele>14.8</ele>
        <time>2023-06-28T12:10:38Z</time>
      </trkpt>
      <trkpt lat="49.94584" lon="2.14577">
        <ele>14.9</ele>
        <time>2023-06-28T12:10:40Z</time>
      </trkpt>
      <trkpt lat="49.94585" lon="2.14577">
        <ele>14.9</ele>
        <time>2023-06-28T12:10:41Z</time>
      </trkpt>
      <trkpt lat="49.94586" lon="2.14578">
        <ele>14.8</ele>
        <time>2023-06-28T12:10:42Z</time>
      </trkpt>
      <trkpt lat="49.94587" lon="2.14579">
        <ele>14.9</ele>
        <time>2023-06-28T12:10:43Z</time>
      </trkpt>
      <trkpt lat="49.94588" lon="2.1458">
        <ele>14.9</ele>
        <time>2023-06-28T12:10:44Z</time>
      </trkpt>
      <trkpt lat="49.94588" lon="2.14581">
        <ele>14.9</ele>
        <time>2023-06-28T12:10:46Z</time>
      </trkpt>
      <trkpt lat="49.94589" lon="2.14583">
        <ele>14.9</ele>
        <time>2023-06-28T12:10:47Z</time>
      </trkpt>
      <trkpt lat="49.9459" lon="2.14584">
        <ele>14.9</ele>
        <time>2023-06-28T12:10:48Z</time>
      </trkpt>
      <trkpt lat="49.94591" lon="2.14586">
        <ele>14.9</ele>
        <time>2023-06-28T12:10:49Z</time>
      </trkpt>
      <trkpt lat="49.94592" lon="2.14587">
        <ele>15</ele>
        <time>2023-06-28T12:10:50Z</time>
      </trkpt>
      <trkpt lat="49.94593" lon="2.14589">
        <ele>15</ele>
        <time>2023-06-28T12:10:52Z</time>
      </trkpt>
      <trkpt lat="49.94593" lon="2.1459">
        <ele>15</ele>
        <time>2023-06-28T12:10:53Z</time>
      </trkpt>
      <trkpt lat="49.94594" lon="2.14591">
        <ele>15</ele>
        <time>2023-06-28T12:10:54Z</time>
      </trkpt>
      <trkpt lat="49.94594" lon="2.14592">
        <ele>15</ele>
        <time>2023-06-28T12:10:55Z</time>
      </trkpt>
      <trkpt lat="49.94595" lon="2.14593">
        <ele>14.9</ele>
        <time>2023-06-28T12:10:56Z</time>
      </trkpt>
      <trkpt lat="49.94595" lon="2.14594">
        <ele>15</ele>
        <time>2023-06-28T12:10:57Z</time>
      </trkpt>
      <trkpt lat="49.94596" lon="2.14595">
        <ele>15</ele>
        <time>2023-06-28T12:10:58Z</time>
      </trkpt>
      <trkpt lat="49.94596" lon="2.14597">
        <ele>15</ele>
        <time>2023-06-28T12:11:00Z</time>
      </trkpt>
      <trkpt lat="49.94597" lon="2.14598">
        <ele>15</ele>
        <time>2023-06-28T12:11:01Z</time>
      </trkpt>
      <trkpt lat="49.94597" lon="2.14599">
        <ele>15</ele>
        <time>2023-06-28T12:11:02Z</time>
      </trkpt>
      <trkpt lat="49.94598" lon="2.14601">
        <ele>15</ele>
        <time>2023-06-28T12:11:03Z</time>
      </trkpt>
      <trkpt lat="49.94598" lon="2.14603">
        <ele>15</ele>
        <time>2023-06-28T12:11:05Z</time>
      </trkpt>
      <trkpt lat="49.94599" lon="2.14604">
        <ele>15</ele>
        <time>2023-06-28T12:11:06Z</time>
      </trkpt>
      <trkpt lat="49.94599" lon="2.14605">
        <ele>15</ele>
        <time>2023-06-28T12:11:07Z</time>
      </trkpt>
      <trkpt lat="49.946" lon="2.14607">
        <ele>15</ele>
        <time>2023-06-28T12:11:08Z</time>
      </trkpt>
      <trkpt lat="49.94601" lon="2.14608">
        <ele>15</ele>
        <time>2023-06-28T12:11:10Z</time>
      </trkpt>
      <trkpt lat="49.94602" lon="2.1461">
        <ele>15</ele>
        <time>2023-06-28T12:11:11Z</time>
      </trkpt>
      <trkpt lat="49.94602" lon="2.14611">
        <ele>15.1</ele>
        <time>2023-06-28T12:11:12Z</time>
      </trkpt>
      <trkpt lat="49.94603" lon="2.14613">
        <ele>15.1</ele>
        <time>2023-06-28T12:11:14Z</time>
      </trkpt>
      <trkpt lat="49.94604" lon="2.14614">
        <ele>15.1</ele>
        <time>2023-06-28T12:11:15Z</time>
      </trkpt>
      <trkpt lat="49.94604" lon="2.14616">
        <ele>15.1</ele>
        <time>2023-06-28T12:11:16Z</time>
      </trkpt>
      <trkpt lat="49.94605" lon="2.14617">
        <ele>15.1</ele>
        <time>2023-06-28T12:11:17Z</time>
      </trkpt>
      <trkpt lat="49.94606" lon="2.14619">
        <ele>15.1</ele>
        <time>2023-06-28T12:11:18Z</time>
      </trkpt>
      <trkpt lat="49.94607" lon="2.14621">
        <ele>15.1</ele>
        <time>2023-06-28T12:11:20Z</time>
      </trkpt>
      <trkpt lat="49.94607" lon="2.14622">
        <ele>15.1</ele>
        <time>2023-06-28T12:11:21Z</time>
      </trkpt>
      <trkpt lat="49.94607" lon="2.14623">
        <ele>15.1</ele>
        <time>2023-06-28T12:11:22Z</time>
      </trkpt>
      <trkpt lat="49.94608" lon="2.14625">
        <ele>15.1</ele>
        <time>2023-06-28T12:11:24Z</time>
      </trkpt>
      <trkpt lat="49.94608" lon="2.14626">
        <ele>15.1</ele>
        <time>2023-06-28T12:11:25Z</time>
      </trkpt>
      <trkpt lat="49.94609" lon="2.14627">
        <ele>15.1</ele>
        <time>2023-06-28T12:11:26Z</time>
      </trkpt>
      <trkpt lat="49.94609" lon="2.14628">
        <ele>15.1</ele>
        <time>2023-06-28T12:11:27Z</time>
      </trkpt>
      <trkpt lat="49.94609" lon="2.14629">
        <ele>15.1</ele>
        <time>2023-06-28T12:11:28Z</time>
      </trkpt>
      <trkpt lat="49.94609" lon="2.1463">
        <ele>15.1</ele>
        <time>2023-06-28T12:11:29Z</time>
      </trkpt>
      <trkpt lat="49.94609" lon="2.14632">
        <ele>15.1</ele>
        <time>2023-06-28T12:11:30Z</time>
      </trkpt>
      <trkpt lat="49.94609" lon="2.14634">
        <ele>15.1</ele>
        <time>2023-06-28T12:11:31Z</time>
      </trkpt>
      <trkpt lat="49.9461" lon="2.14635">
        <ele>15.1</ele>
        <time>2023-06-28T12:11:32Z</time>
      </trkpt>
      <trkpt lat="49.9461" lon="2.14637">
        <ele>15.1</ele>
        <time>2023-06-28T12:11:34Z</time>
      </trkpt>
      <trkpt lat="49.9461" lon="2.14639">
        <ele>15.1</ele>
        <time>2023-06-28T12:11:35Z</time>
      </trkpt>
      <trkpt lat="49.94611" lon="2.14642">
        <ele>15.1</ele>
        <time>2023-06-28T12:11:36Z</time>
      </trkpt>
      <trkpt lat="49.94611" lon="2.14643">
        <ele>15.1</ele>
        <time>2023-06-28T12:11:37Z</time>
      </trkpt>
      <trkpt lat="49.94611" lon="2.14644">
        <ele>15.2</ele>
        <time>2023-06-28T12:11:38Z</time>
      </trkpt>
      <trkpt lat="49.94611" lon="2.14646">
        <ele>15.2</ele>
        <time>2023-06-28T12:11:40Z</time>
      </trkpt>
      <trkpt lat="49.94612" lon="2.14648">
        <ele>15.2</ele>
        <time>2023-06-28T12:11:41Z</time>
      </trkpt>
      <trkpt lat="49.94612" lon="2.1465">
        <ele>15.2</ele>
        <time>2023-06-28T12:11:42Z</time>
      </trkpt>
      <trkpt lat="49.94612" lon="2.14651">
        <ele>15.2</ele>
        <time>2023-06-28T12:11:43Z</time>
      </trkpt>
      <trkpt lat="49.94612" lon="2.14652">
        <ele>15.2</ele>
        <time>2023-06-28T12:11:44Z</time>
      </trkpt>
      <trkpt lat="49.94612" lon="2.14654">
        <ele>15.2</ele>
        <time>2023-06-28T12:11:46Z</time>
      </trkpt>
      <trkpt lat="49.94612" lon="2.14655">
        <ele>15.2</ele>
        <time>2023-06-28T12:11:47Z</time>
      </trkpt>
      <trkpt lat="49.94612" lon="2.14656">
        <ele>15.2</ele>
        <time>2023-06-28T12:11:48Z</time>
      </trkpt>
      <trkpt lat="49.94612" lon="2.14658">
        <ele>15.2</ele>
        <time>2023-06-28T12:11:49Z</time>
      </trkpt>
      <trkpt lat="49.94612" lon="2.14659">
        <ele>15.2</ele>
        <time>2023-06-28T12:11:50Z</time>
      </trkpt>
      <trkpt lat="49.94613" lon="2.1466">
        <ele>15.2</ele>
        <time>2023-06-28T12:11:52Z</time>
      </trkpt>
      <trkpt lat="49.94613" lon="2.14662">
        <ele>15.2</ele>
        <time>2023-06-28T12:11:53Z</time>
      </trkpt>
      <trkpt lat="49.94613" lon="2.14663">
        <ele>15.3</ele>
        <time>2023-06-28T12:11:54Z</time>
      </trkpt>
      <trkpt lat="49.94614" lon="2.14665">
        <ele>15.3</ele>
        <time>2023-06-28T12:11:55Z</time>
      </trkpt>
      <trkpt lat="49.94614" lon="2.14666">
        <ele>15.3</ele>
        <time>2023-06-28T12:11:56Z</time>
      </trkpt>
      <trkpt lat="49.94614" lon="2.14668">
        <ele>15.3</ele>
        <time>2023-06-28T12:11:57Z</time>
      </trkpt>
      <trkpt lat="49.94614" lon="2.14669">
        <ele>15.3</ele>
        <time>2023-06-28T12:11:58Z</time>
      </trkpt>
      <trkpt lat="49.94614" lon="2.14671">
        <ele>15.3</ele>
        <time>2023-06-28T12:11:59Z</time>
      </trkpt>
      <trkpt lat="49.94614" lon="2.14672">
        <ele>15.3</ele>
        <time>2023-06-28T12:12:01Z</time>
      </trkpt>
      <trkpt lat="49.94615" lon="2.14674">
        <ele>15.3</ele>
        <time>2023-06-28T12:12:02Z</time>
      </trkpt>
      <trkpt lat="49.94615" lon="2.14676">
        <ele>15.3</ele>
        <time>2023-06-28T12:12:03Z</time>
      </trkpt>
      <trkpt lat="49.94615" lon="2.14677">
        <ele>15.3</ele>
        <time>2023-06-28T12:12:04Z</time>
      </trkpt>
      <trkpt lat="49.94615" lon="2.14679">
        <ele>15.4</ele>
        <time>2023-06-28T12:12:05Z</time>
      </trkpt>
      <trkpt lat="49.94615" lon="2.14681">
        <ele>15.4</ele>
        <time>2023-06-28T12:12:07Z</time>
      </trkpt>
      <trkpt lat="49.94615" lon="2.14682">
        <ele>15.4</ele>
        <time>2023-06-28T12:12:08Z</time>
      </trkpt>
      <trkpt lat="49.94615" lon="2.14683">
        <ele>15.4</ele>
        <time>2023-06-28T12:12:09Z</time>
      </trkpt>
      <trkpt lat="49.94615" lon="2.14684">
        <ele>15.4</ele>
        <time>2023-06-28T12:12:11Z</time>
      </trkpt>
      <trkpt lat="49.94615" lon="2.14685">
        <ele>15.4</ele>
        <time>2023-06-28T12:12:12Z</time>
      </trkpt>
      <trkpt lat="49.94616" lon="2.14686">
        <ele>15.4</ele>
        <time>2023-06-28T12:12:13Z</time>
      </trkpt>
      <trkpt lat="49.94616" lon="2.14688">
        <ele>15.4</ele>
        <time>2023-06-28T12:12:14Z</time>
      </trkpt>
      <trkpt lat="49.94617" lon="2.1469">
        <ele>15.4</ele>
        <time>2023-06-28T12:12:15Z</time>
      </trkpt>
      <trkpt lat="49.94617" lon="2.14691">
        <ele>15.4</ele>
        <time>2023-06-28T12:12:16Z</time>
      </trkpt>
      <trkpt lat="49.94618" lon="2.14694">
        <ele>15.5</ele>
        <time>2023-06-28T12:12:18Z</time>
      </trkpt>
      <trkpt lat="49.94619" lon="2.14697">
        <ele>15.5</ele>
        <time>2023-06-28T12:12:19Z</time>
      </trkpt>
      <trkpt lat="49.9462" lon="2.14698">
        <ele>15.5</ele>
        <time>2023-06-28T12:12:20Z</time>
      </trkpt>
      <trkpt lat="49.9462" lon="2.14699">
        <ele>15.5</ele>
        <time>2023-06-28T12:12:21Z</time>
      </trkpt>
      <trkpt lat="49.94621" lon="2.14701">
        <ele>15.5</ele>
        <time>2023-06-28T12:12:22Z</time>
      </trkpt>
      <trkpt lat="49.94621" lon="2.14702">
        <ele>15.5</ele>
        <time>2023-06-28T12:12:24Z</time>
      </trkpt>
      <trkpt lat="49.94622" lon="2.14704">
        <ele>15.5</ele>
        <time>2023-06-28T12:12:25Z</time>
      </trkpt>
      <trkpt lat="49.94623" lon="2.14706">
        <ele>15.5</ele>
        <time>2023-06-28T12:12:26Z</time>
      </trkpt>
      <trkpt lat="49.94623" lon="2.14708">
        <ele>15.5</ele>
        <time>2023-06-28T12:12:27Z</time>
      </trkpt>
      <trkpt lat="49.94624" lon="2.1471">
        <ele>15.6</ele>
        <time>2023-06-28T12:12:28Z</time>
      </trkpt>
      <trkpt lat="49.94624" lon="2.14711">
        <ele>15.6</ele>
        <time>2023-06-28T12:12:29Z</time>
      </trkpt>
      <trkpt lat="49.94625" lon="2.14713">
        <ele>15.6</ele>
        <time>2023-06-28T12:12:31Z</time>
      </trkpt>
      <trkpt lat="49.94626" lon="2.14714">
        <ele>15.6</ele>
        <time>2023-06-28T12:12:32Z</time>
      </trkpt>
      <trkpt lat="49.94627" lon="2.14716">
        <ele>15.6</ele>
        <time>2023-06-28T12:12:33Z</time>
      </trkpt>
      <trkpt lat="49.94627" lon="2.14717">
        <ele>15.6</ele>
        <time>2023-06-28T12:12:34Z</time>
      </trkpt>
      <trkpt lat="49.94628" lon="2.14718">
        <ele>15.6</ele>
        <time>2023-06-28T12:12:35Z</time>
      </trkpt>
      <trkpt lat="49.94628" lon="2.14719">
        <ele>15.6</ele>
        <time>2023-06-28T12:12:36Z</time>
      </trkpt>
      <trkpt lat="49.94629" lon="2.14719">
        <ele>15.6</ele>
        <time>2023-06-28T12:12:37Z</time>
      </trkpt>
      <trkpt lat="49.94629" lon="2.1472">
        <ele>15.6</ele>
        <time>2023-06-28T12:12:39Z</time>
      </trkpt>
      <trkpt lat="49.9463" lon="2.14721">
        <ele>15.6</ele>
        <time>2023-06-28T12:12:40Z</time>
      </trkpt>
      <trkpt lat="49.94631" lon="2.14722">
        <ele>15.6</ele>
        <time>2023-06-28T12:12:41Z</time>
      </trkpt>
      <trkpt lat="49.94631" lon="2.14722">
        <ele>15.6</ele>
        <time>2023-06-28T12:12:42Z</time>
      </trkpt>
      <trkpt lat="49.94632" lon="2.14723">
        <ele>15.6</ele>
        <time>2023-06-28T12:12:43Z</time>
      </trkpt>
      <trkpt lat="49.94633" lon="2.14725">
        <ele>15.6</ele>
        <time>2023-06-28T12:12:44Z</time>
      </trkpt>
      <trkpt lat="49.94633" lon="2.14726">
        <ele>15.6</ele>
        <time>2023-06-28T12:12:46Z</time>
      </trkpt>
      <trkpt lat="49.94634" lon="2.14727">
        <ele>15.6</ele>
        <time>2023-06-28T12:12:47Z</time>
      </trkpt>
      <trkpt lat="49.94634" lon="2.14728">
        <ele>15.6</ele>
        <time>2023-06-28T12:12:48Z</time>
      </trkpt>
      <trkpt lat="49.94635" lon="2.14729">
        <ele>15.6</ele>
        <time>2023-06-28T12:12:49Z</time>
      </trkpt>
      <trkpt lat="49.94636" lon="2.14731">
        <ele>15.6</ele>
        <time>2023-06-28T12:12:51Z</time>
      </trkpt>
      <trkpt lat="49.94636" lon="2.14732">
        <ele>15.6</ele>
        <time>2023-06-28T12:12:52Z</time>
      </trkpt>
      <trkpt lat="49.94636" lon="2.14733">
        <ele>15.6</ele>
        <time>2023-06-28T12:12:53Z</time>
      </trkpt>
      <trkpt lat="49.94637" lon="2.14735">
        <ele>15.6</ele>
        <time>2023-06-28T12:12:54Z</time>
      </trkpt>
      <trkpt lat="49.94638" lon="2.14737">
        <ele>15.6</ele>
        <time>2023-06-28T12:12:56Z</time>
      </trkpt>
      <trkpt lat="49.94639" lon="2.14738">
        <ele>15.6</ele>
        <time>2023-06-28T12:12:57Z</time>
      </trkpt>
      <trkpt lat="49.9464" lon="2.14739">
        <ele>15.6</ele>
        <time>2023-06-28T12:12:58Z</time>
      </trkpt>
      <trkpt lat="49.9464" lon="2.14741">
        <ele>15.6</ele>
        <time>2023-06-28T12:12:59Z</time>
      </trkpt>
      <trkpt lat="49.94641" lon="2.14742">
        <ele>15.6</ele>
        <time>2023-06-28T12:13:00Z</time>
      </trkpt>
      <trkpt lat="49.94643" lon="2.14742">
        <ele>15.6</ele>
        <time>2023-06-28T12:13:01Z</time>
      </trkpt>
      <trkpt lat="49.94645" lon="2.14745">
        <ele>15.6</ele>
        <time>2023-06-28T12:13:02Z</time>
      </trkpt>
      <trkpt lat="49.94645" lon="2.14745">
        <ele>15.6</ele>
        <time>2023-06-28T12:13:04Z</time>
      </trkpt>
      <trkpt lat="49.94646" lon="2.14746">
        <ele>15.6</ele>
        <time>2023-06-28T12:13:05Z</time>
      </trkpt>
      <trkpt lat="49.94647" lon="2.14748">
        <ele>15.6</ele>
        <time>2023-06-28T12:13:06Z</time>
      </trkpt>
      <trkpt lat="49.94648" lon="2.1475">
        <ele>15.6</ele>
        <time>2023-06-28T12:13:08Z</time>
      </trkpt>
      <trkpt lat="49.94649" lon="2.14752">
        <ele>15.6</ele>
        <time>2023-06-28T12:13:09Z</time>
      </trkpt>
      <trkpt lat="49.9465" lon="2.14753">
        <ele>15.6</ele>
        <time>2023-06-28T12:13:10Z</time>
      </trkpt>
      <trkpt lat="49.9465" lon="2.14755">
        <ele>15.6</ele>
        <time>2023-06-28T12:13:11Z</time>
      </trkpt>
      <trkpt lat="49.94651" lon="2.14757">
        <ele>15.6</ele>
        <time>2023-06-28T12:13:12Z</time>
      </trkpt>
      <trkpt lat="49.94651" lon="2.14759">
        <ele>15.6</ele>
        <time>2023-06-28T12:13:13Z</time>
      </trkpt>
      <trkpt lat="49.94652" lon="2.14761">
        <ele>15.6</ele>
        <time>2023-06-28T12:13:14Z</time>
      </trkpt>
      <trkpt lat="49.94653" lon="2.14763">
        <ele>15.6</ele>
        <time>2023-06-28T12:13:16Z</time>
      </trkpt>
      <trkpt lat="49.94653" lon="2.14765">
        <ele>15.6</ele>
        <time>2023-06-28T12:13:17Z</time>
      </trkpt>
      <trkpt lat="49.94655" lon="2.14767">
        <ele>15.6</ele>
        <time>2023-06-28T12:13:18Z</time>
      </trkpt>
      <trkpt lat="49.94655" lon="2.14769">
        <ele>15.6</ele>
        <time>2023-06-28T12:13:19Z</time>
      </trkpt>
      <trkpt lat="49.94656" lon="2.1477">
        <ele>15.6</ele>
        <time>2023-06-28T12:13:20Z</time>
      </trkpt>
      <trkpt lat="49.94657" lon="2.14773">
        <ele>15.6</ele>
        <time>2023-06-28T12:13:22Z</time>
      </trkpt>
      <trkpt lat="49.94658" lon="2.14774">
        <ele>15.6</ele>
        <time>2023-06-28T12:13:23Z</time>
      </trkpt>
      <trkpt lat="49.94658" lon="2.14775">
        <ele>15.6</ele>
        <time>2023-06-28T12:13:24Z</time>
      </trkpt>
      <trkpt lat="49.94659" lon="2.14777">
        <ele>15.6</ele>
        <time>2023-06-28T12:13:25Z</time>
      </trkpt>
      <trkpt lat="49.9466" lon="2.14779">
        <ele>15.6</ele>
        <time>2023-06-28T12:13:27Z</time>
      </trkpt>
      <trkpt lat="49.94661" lon="2.14781">
        <ele>15.6</ele>
        <time>2023-06-28T12:13:28Z</time>
      </trkpt>
      <trkpt lat="49.94662" lon="2.14783">
        <ele>15.6</ele>
        <time>2023-06-28T12:13:29Z</time>
      </trkpt>
      <trkpt lat="49.94663" lon="2.14785">
        <ele>15.6</ele>
        <time>2023-06-28T12:13:30Z</time>
      </trkpt>
      <trkpt lat="49.94664" lon="2.14788">
        <ele>15.6</ele>
        <time>2023-06-28T12:13:32Z</time>
      </trkpt>
      <trkpt lat="49.94665" lon="2.14789">
        <ele>15.6</ele>
        <time>2023-06-28T12:13:33Z</time>
      </trkpt>
      <trkpt lat="49.94666" lon="2.14791">
        <ele>15.6</ele>
        <time>2023-06-28T12:13:34Z</time>
      </trkpt>
      <trkpt lat="49.94667" lon="2.14794">
        <ele>15.6</ele>
        <time>2023-06-28T12:13:35Z</time>
      </trkpt>
      <trkpt lat="49.94668" lon="2.14796">
        <ele>15.6</ele>
        <time>2023-06-28T12:13:36Z</time>
      </trkpt>
      <trkpt lat="49.94668" lon="2.14798">
        <ele>15.6</ele>
        <time>2023-06-28T12:13:38Z</time>
      </trkpt>
      <trkpt lat="49.94669" lon="2.148">
        <ele>15.6</ele>
        <time>2023-06-28T12:13:39Z</time>
      </trkpt>
      <trkpt lat="49.94669" lon="2.14803">
        <ele>15.6</ele>
        <time>2023-06-28T12:13:40Z</time>
      </trkpt>
      <trkpt lat="49.9467" lon="2.14805">
        <ele>15.6</ele>
        <time>2023-06-28T12:13:41Z</time>
      </trkpt>
      <trkpt lat="49.9467" lon="2.14806">
        <ele>15.6</ele>
        <time>2023-06-28T12:13:42Z</time>
      </trkpt>
      <trkpt lat="49.9467" lon="2.14809">
        <ele>15.6</ele>
        <time>2023-06-28T12:13:44Z</time>
      </trkpt>
      <trkpt lat="49.9467" lon="2.14811">
        <ele>15.5</ele>
        <time>2023-06-28T12:13:45Z</time>
      </trkpt>
      <trkpt lat="49.9467" lon="2.14812">
        <ele>15.5</ele>
        <time>2023-06-28T12:13:46Z</time>
      </trkpt>
      <trkpt lat="49.9467" lon="2.14814">
        <ele>15.5</ele>
        <time>2023-06-28T12:13:47Z</time>
      </trkpt>
      <trkpt lat="49.9467" lon="2.14816">
        <ele>15.5</ele>
        <time>2023-06-28T12:13:48Z</time>
      </trkpt>
      <trkpt lat="49.94669" lon="2.14818">
        <ele>15.5</ele>
        <time>2023-06-28T12:13:49Z</time>
      </trkpt>
      <trkpt lat="49.94669" lon="2.14822">
        <ele>15.5</ele>
        <time>2023-06-28T12:13:51Z</time>
      </trkpt>
      <trkpt lat="49.94669" lon="2.14824">
        <ele>15.5</ele>
        <time>2023-06-28T12:13:53Z</time>
      </trkpt>
      <trkpt lat="49.94668" lon="2.14826">
        <ele>15.5</ele>
        <time>2023-06-28T12:13:54Z</time>
      </trkpt>
      <trkpt lat="49.94668" lon="2.14827">
        <ele>15.5</ele>
        <time>2023-06-28T12:13:55Z</time>
      </trkpt>
      <trkpt lat="49.94667" lon="2.14829">
        <ele>15.5</ele>
        <time>2023-06-28T12:13:56Z</time>
      </trkpt>
      <trkpt lat="49.94667" lon="2.14831">
        <ele>15.5</ele>
        <time>2023-06-28T12:13:57Z</time>
      </trkpt>
      <trkpt lat="49.94667" lon="2.14833">
        <ele>15.5</ele>
        <time>2023-06-28T12:13:59Z</time>
      </trkpt>
      <trkpt lat="49.94666" lon="2.14835">
        <ele>15.5</ele>
        <time>2023-06-28T12:14:00Z</time>
      </trkpt>
      <trkpt lat="49.94666" lon="2.14836">
        <ele>15.4</ele>
        <time>2023-06-28T12:14:01Z</time>
      </trkpt>
      <trkpt lat="49.94666" lon="2.14838">
        <ele>15.4</ele>
        <time>2023-06-28T12:14:02Z</time>
      </trkpt>
      <trkpt lat="49.94665" lon="2.1484">
        <ele>15.4</ele>
        <time>2023-06-28T12:14:03Z</time>
      </trkpt>
      <trkpt lat="49.94665" lon="2.14843">
        <ele>15.4</ele>
        <time>2023-06-28T12:14:05Z</time>
      </trkpt>
      <trkpt lat="49.94666" lon="2.14845">
        <ele>15.4</ele>
        <time>2023-06-28T12:14:06Z</time>
      </trkpt>
      <trkpt lat="49.94666" lon="2.14847">
        <ele>15.4</ele>
        <time>2023-06-28T12:14:07Z</time>
      </trkpt>
      <trkpt lat="49.94666" lon="2.14849">
        <ele>15.4</ele>
        <time>2023-06-28T12:14:08Z</time>
      </trkpt>
      <trkpt lat="49.94667" lon="2.14851">
        <ele>15.4</ele>
        <time>2023-06-28T12:14:09Z</time>
      </trkpt>
      <trkpt lat="49.94667" lon="2.14854">
        <ele>15.4</ele>
        <time>2023-06-28T12:14:10Z</time>
      </trkpt>
      <trkpt lat="49.94667" lon="2.14856">
        <ele>15.4</ele>
        <time>2023-06-28T12:14:12Z</time>
      </trkpt>
      <trkpt lat="49.94667" lon="2.14858">
        <ele>15.3</ele>
        <time>2023-06-28T12:14:13Z</time>
      </trkpt>
      <trkpt lat="49.94667" lon="2.1486">
        <ele>15.3</ele>
        <time>2023-06-28T12:14:14Z</time>
      </trkpt>
      <trkpt lat="49.94667" lon="2.14861">
        <ele>15.3</ele>
        <time>2023-06-28T12:14:15Z</time>
      </trkpt>
      <trkpt lat="49.94668" lon="2.14862">
        <ele>15.3</ele>
        <time>2023-06-28T12:14:16Z</time>
      </trkpt>
      <trkpt lat="49.94668" lon="2.14864">
        <ele>15.3</ele>
        <time>2023-06-28T12:14:17Z</time>
      </trkpt>
      <trkpt lat="49.94668" lon="2.14865">
        <ele>15.3</ele>
        <time>2023-06-28T12:14:18Z</time>
      </trkpt>
      <trkpt lat="49.94668" lon="2.14867">
        <ele>15.3</ele>
        <time>2023-06-28T12:14:20Z</time>
      </trkpt>
      <trkpt lat="49.94668" lon="2.14869">
        <ele>15.3</ele>
        <time>2023-06-28T12:14:21Z</time>
      </trkpt>
      <trkpt lat="49.94668" lon="2.14871">
        <ele>15.3</ele>
        <time>2023-06-28T12:14:22Z</time>
      </trkpt>
      <trkpt lat="49.94668" lon="2.14873">
        <ele>15.3</ele>
        <time>2023-06-28T12:14:23Z</time>
      </trkpt>
      <trkpt lat="49.94668" lon="2.14875">
        <ele>15.3</ele>
        <time>2023-06-28T12:14:24Z</time>
      </trkpt>
      <trkpt lat="49.94668" lon="2.14877">
        <ele>15.3</ele>
        <time>2023-06-28T12:14:25Z</time>
      </trkpt>
      <trkpt lat="49.94668" lon="2.14879">
        <ele>15.3</ele>
        <time>2023-06-28T12:14:26Z</time>
      </trkpt>
      <trkpt lat="49.94668" lon="2.1488">
        <ele>15.3</ele>
        <time>2023-06-28T12:14:28Z</time>
      </trkpt>
      <trkpt lat="49.94668" lon="2.14882">
        <ele>15.3</ele>
        <time>2023-06-28T12:14:29Z</time>
      </trkpt>
      <trkpt lat="49.94668" lon="2.14884">
        <ele>15.3</ele>
        <time>2023-06-28T12:14:30Z</time>
      </trkpt>
      <trkpt lat="49.94668" lon="2.14888">
        <ele>15.3</ele>
        <time>2023-06-28T12:14:32Z</time>
      </trkpt>
      <trkpt lat="49.94668" lon="2.1489">
        <ele>15.3</ele>
        <time>2023-06-28T12:14:34Z</time>
      </trkpt>
      <trkpt lat="49.94667" lon="2.14892">
        <ele>15.3</ele>
        <time>2023-06-28T12:14:35Z</time>
      </trkpt>
      <trkpt lat="49.94667" lon="2.14894">
        <ele>15.3</ele>
        <time>2023-06-28T12:14:36Z</time>
      </trkpt>
      <trkpt lat="49.94666" lon="2.14895">
        <ele>15.3</ele>
        <time>2023-06-28T12:14:37Z</time>
      </trkpt>
      <trkpt lat="49.94666" lon="2.14897">
        <ele>15.3</ele>
        <time>2023-06-28T12:14:38Z</time>
      </trkpt>
      <trkpt lat="49.94665" lon="2.14899">
        <ele>15.3</ele>
        <time>2023-06-28T12:14:39Z</time>
      </trkpt>
      <trkpt lat="49.94665" lon="2.149">
        <ele>15.3</ele>
        <time>2023-06-28T12:14:41Z</time>
      </trkpt>
      <trkpt lat="49.94664" lon="2.14903">
        <ele>15.3</ele>
        <time>2023-06-28T12:14:42Z</time>
      </trkpt>
      <trkpt lat="49.94664" lon="2.14904">
        <ele>15.3</ele>
        <time>2023-06-28T12:14:43Z</time>
      </trkpt>
      <trkpt lat="49.94663" lon="2.14906">
        <ele>15.3</ele>
        <time>2023-06-28T12:14:44Z</time>
      </trkpt>
      <trkpt lat="49.94663" lon="2.14907">
        <ele>15.3</ele>
        <time>2023-06-28T12:14:45Z</time>
      </trkpt>
      <trkpt lat="49.94662" lon="2.14909">
        <ele>15.4</ele>
        <time>2023-06-28T12:14:46Z</time>
      </trkpt>
      <trkpt lat="49.94661" lon="2.1491">
        <ele>15.4</ele>
        <time>2023-06-28T12:14:48Z</time>
      </trkpt>
      <trkpt lat="49.9466" lon="2.14912">
        <ele>15.4</ele>
        <time>2023-06-28T12:14:49Z</time>
      </trkpt>
      <trkpt lat="49.94659" lon="2.14914">
        <ele>15.4</ele>
        <time>2023-06-28T12:14:50Z</time>
      </trkpt>
      <trkpt lat="49.94658" lon="2.14915">
        <ele>15.4</ele>
        <time>2023-06-28T12:14:51Z</time>
      </trkpt>
      <trkpt lat="49.94657" lon="2.14917">
        <ele>15.4</ele>
        <time>2023-06-28T12:14:52Z</time>
      </trkpt>
      <trkpt lat="49.94656" lon="2.14919">
        <ele>15.4</ele>
        <time>2023-06-28T12:14:53Z</time>
      </trkpt>
      <trkpt lat="49.94655" lon="2.14921">
        <ele>15.4</ele>
        <time>2023-06-28T12:14:55Z</time>
      </trkpt>
      <trkpt lat="49.94654" lon="2.14923">
        <ele>15.4</ele>
        <time>2023-06-28T12:14:56Z</time>
      </trkpt>
      <trkpt lat="49.94653" lon="2.14925">
        <ele>15.4</ele>
        <time>2023-06-28T12:14:57Z</time>
      </trkpt>
      <trkpt lat="49.94652" lon="2.14926">
        <ele>15.4</ele>
        <time>2023-06-28T12:14:58Z</time>
      </trkpt>
      <trkpt lat="49.94651" lon="2.14928">
        <ele>15.4</ele>
        <time>2023-06-28T12:14:59Z</time>
      </trkpt>
      <trkpt lat="49.9465" lon="2.1493">
        <ele>15.4</ele>
        <time>2023-06-28T12:15:00Z</time>
      </trkpt>
      <trkpt lat="49.9465" lon="2.14932">
        <ele>15.4</ele>
        <time>2023-06-28T12:15:01Z</time>
      </trkpt>
      <trkpt lat="49.94649" lon="2.14935">
        <ele>15.4</ele>
        <time>2023-06-28T12:15:02Z</time>
      </trkpt>
      <trkpt lat="49.94649" lon="2.14936">
        <ele>15.4</ele>
        <time>2023-06-28T12:15:04Z</time>
      </trkpt>
      <trkpt lat="49.94649" lon="2.14937">
        <ele>15.4</ele>
        <time>2023-06-28T12:15:05Z</time>
      </trkpt>
      <trkpt lat="49.94648" lon="2.14939">
        <ele>15.4</ele>
        <time>2023-06-28T12:15:06Z</time>
      </trkpt>
      <trkpt lat="49.94648" lon="2.1494">
        <ele>15.4</ele>
        <time>2023-06-28T12:15:07Z</time>
      </trkpt>
      <trkpt lat="49.94648" lon="2.14941">
        <ele>15.5</ele>
        <time>2023-06-28T12:15:08Z</time>
      </trkpt>
      <trkpt lat="49.94648" lon="2.14942">
        <ele>15.5</ele>
        <time>2023-06-28T12:15:09Z</time>
      </trkpt>
      <trkpt lat="49.94648" lon="2.14943">
        <ele>15.5</ele>
        <time>2023-06-28T12:15:10Z</time>
      </trkpt>
      <trkpt lat="49.94648" lon="2.14945">
        <ele>15.5</ele>
        <time>2023-06-28T12:15:12Z</time>
      </trkpt>
      <trkpt lat="49.94648" lon="2.14947">
        <ele>15.5</ele>
        <time>2023-06-28T12:15:13Z</time>
      </trkpt>
      <trkpt lat="49.94648" lon="2.14948">
        <ele>15.5</ele>
        <time>2023-06-28T12:15:14Z</time>
      </trkpt>
      <trkpt lat="49.94648" lon="2.1495">
        <ele>15.5</ele>
        <time>2023-06-28T12:15:15Z</time>
      </trkpt>
      <trkpt lat="49.94648" lon="2.14953">
        <ele>15.5</ele>
        <time>2023-06-28T12:15:17Z</time>
      </trkpt>
      <trkpt lat="49.94647" lon="2.14954">
        <ele>15.5</ele>
        <time>2023-06-28T12:15:18Z</time>
      </trkpt>
      <trkpt lat="49.94647" lon="2.14956">
        <ele>15.5</ele>
        <time>2023-06-28T12:15:19Z</time>
      </trkpt>
      <trkpt lat="49.94647" lon="2.14957">
        <ele>15.5</ele>
        <time>2023-06-28T12:15:20Z</time>
      </trkpt>
      <trkpt lat="49.94647" lon="2.14959">
        <ele>15.5</ele>
        <time>2023-06-28T12:15:21Z</time>
      </trkpt>
      <trkpt lat="49.94647" lon="2.14962">
        <ele>15.5</ele>
        <time>2023-06-28T12:15:23Z</time>
      </trkpt>
      <trkpt lat="49.94646" lon="2.14964">
        <ele>15.5</ele>
        <time>2023-06-28T12:15:24Z</time>
      </trkpt>
      <trkpt lat="49.94646" lon="2.14966">
        <ele>15.5</ele>
        <time>2023-06-28T12:15:25Z</time>
      </trkpt>
      <trkpt lat="49.94646" lon="2.14967">
        <ele>15.5</ele>
        <time>2023-06-28T12:15:26Z</time>
      </trkpt>
      <trkpt lat="49.94646" lon="2.14969">
        <ele>15.5</ele>
        <time>2023-06-28T12:15:28Z</time>
      </trkpt>
      <trkpt lat="49.94645" lon="2.14971">
        <ele>15.5</ele>
        <time>2023-06-28T12:15:29Z</time>
      </trkpt>
      <trkpt lat="49.94645" lon="2.14972">
        <ele>15.5</ele>
        <time>2023-06-28T12:15:30Z</time>
      </trkpt>
      <trkpt lat="49.94645" lon="2.14974">
        <ele>15.5</ele>
        <time>2023-06-28T12:15:31Z</time>
      </trkpt>
      <trkpt lat="49.94645" lon="2.14976">
        <ele>15.5</ele>
        <time>2023-06-28T12:15:32Z</time>
      </trkpt>
      <trkpt lat="49.94645" lon="2.14977">
        <ele>15.5</ele>
        <time>2023-06-28T12:15:34Z</time>
      </trkpt>
      <trkpt lat="49.94644" lon="2.14979">
        <ele>15.5</ele>
        <time>2023-06-28T12:15:35Z</time>
      </trkpt>
      <trkpt lat="49.94644" lon="2.14981">
        <ele>15.5</ele>
        <time>2023-06-28T12:15:36Z</time>
      </trkpt>
      <trkpt lat="49.94644" lon="2.14983">
        <ele>15.5</ele>
        <time>2023-06-28T12:15:37Z</time>
      </trkpt>
      <trkpt lat="49.94645" lon="2.14985">
        <ele>15.5</ele>
        <time>2023-06-28T12:15:38Z</time>
      </trkpt>
      <trkpt lat="49.94645" lon="2.14987">
        <ele>15.5</ele>
        <time>2023-06-28T12:15:39Z</time>
      </trkpt>
      <trkpt lat="49.94645" lon="2.14989">
        <ele>15.5</ele>
        <time>2023-06-28T12:15:40Z</time>
      </trkpt>
      <trkpt lat="49.94645" lon="2.14991">
        <ele>15.5</ele>
        <time>2023-06-28T12:15:42Z</time>
      </trkpt>
      <trkpt lat="49.94644" lon="2.14994">
        <ele>15.5</ele>
        <time>2023-06-28T12:15:43Z</time>
      </trkpt>
      <trkpt lat="49.94644" lon="2.14996">
        <ele>15.5</ele>
        <time>2023-06-28T12:15:44Z</time>
      </trkpt>
      <trkpt lat="49.94644" lon="2.14998">
        <ele>15.5</ele>
        <time>2023-06-28T12:15:45Z</time>
      </trkpt>
      <trkpt lat="49.94643" lon="2.15">
        <ele>15.5</ele>
        <time>2023-06-28T12:15:46Z</time>
      </trkpt>
      <trkpt lat="49.94643" lon="2.15003">
        <ele>15.5</ele>
        <time>2023-06-28T12:15:48Z</time>
      </trkpt>
      <trkpt lat="49.94643" lon="2.15005">
        <ele>15.5</ele>
        <time>2023-06-28T12:15:49Z</time>
      </trkpt>
      <trkpt lat="49.94642" lon="2.15007">
        <ele>15.5</ele>
        <time>2023-06-28T12:15:50Z</time>
      </trkpt>
      <trkpt lat="49.94642" lon="2.15009">
        <ele>15.5</ele>
        <time>2023-06-28T12:15:51Z</time>
      </trkpt>
      <trkpt lat="49.94642" lon="2.15011">
        <ele>15.5</ele>
        <time>2023-06-28T12:15:52Z</time>
      </trkpt>
      <trkpt lat="49.94641" lon="2.15014">
        <ele>15.5</ele>
        <time>2023-06-28T12:15:53Z</time>
      </trkpt>
      <trkpt lat="49.94641" lon="2.15016">
        <ele>15.5</ele>
        <time>2023-06-28T12:15:54Z</time>
      </trkpt>
      <trkpt lat="49.94641" lon="2.15018">
        <ele>15.5</ele>
        <time>2023-06-28T12:15:56Z</time>
      </trkpt>
      <trkpt lat="49.94641" lon="2.1502">
        <ele>15.5</ele>
        <time>2023-06-28T12:15:57Z</time>
      </trkpt>
      <trkpt lat="49.94641" lon="2.15021">
        <ele>15.5</ele>
        <time>2023-06-28T12:15:58Z</time>
      </trkpt>
      <trkpt lat="49.94641" lon="2.15022">
        <ele>15.5</ele>
        <time>2023-06-28T12:15:59Z</time>
      </trkpt>
      <trkpt lat="49.94643" lon="2.15023">
        <ele>15.5</ele>
        <time>2023-06-28T12:16:01Z</time>
      </trkpt>
      <trkpt lat="49.94643" lon="2.15022">
        <ele>15.5</ele>
        <time>2023-06-28T12:16:02Z</time>
      </trkpt>
      <trkpt lat="49.94643" lon="2.15023">
        <ele>15.5</ele>
        <time>2023-06-28T12:16:03Z</time>
      </trkpt>
      <trkpt lat="49.94643" lon="2.15024">
        <ele>15.5</ele>
        <time>2023-06-28T12:16:05Z</time>
      </trkpt>
      <trkpt lat="49.94643" lon="2.15026">
        <ele>15.5</ele>
        <time>2023-06-28T12:16:06Z</time>
      </trkpt>
      <trkpt lat="49.94642" lon="2.15028">
        <ele>15.5</ele>
        <time>2023-06-28T12:16:07Z</time>
      </trkpt>
      <trkpt lat="49.94641" lon="2.1503">
        <ele>15.5</ele>
        <time>2023-06-28T12:16:08Z</time>
      </trkpt>
      <trkpt lat="49.94641" lon="2.15032">
        <ele>15.5</ele>
        <time>2023-06-28T12:16:09Z</time>
      </trkpt>
      <trkpt lat="49.9464" lon="2.15033">
        <ele>15.5</ele>
        <time>2023-06-28T12:16:10Z</time>
      </trkpt>
      <trkpt lat="49.94639" lon="2.15035">
        <ele>15.5</ele>
        <time>2023-06-28T12:16:11Z</time>
      </trkpt>
      <trkpt lat="49.94638" lon="2.15036">
        <ele>15.5</ele>
        <time>2023-06-28T12:16:13Z</time>
      </trkpt>
      <trkpt lat="49.94637" lon="2.15037">
        <ele>15.5</ele>
        <time>2023-06-28T12:16:14Z</time>
      </trkpt>
      <trkpt lat="49.94636" lon="2.15038">
        <ele>15.5</ele>
        <time>2023-06-28T12:16:15Z</time>
      </trkpt>
      <trkpt lat="49.94635" lon="2.15039">
        <ele>15.6</ele>
        <time>2023-06-28T12:16:16Z</time>
      </trkpt>
      <trkpt lat="49.94635" lon="2.15041">
        <ele>15.6</ele>
        <time>2023-06-28T12:16:17Z</time>
      </trkpt>
      <trkpt lat="49.94634" lon="2.15042">
        <ele>15.6</ele>
        <time>2023-06-28T12:16:18Z</time>
      </trkpt>
      <trkpt lat="49.94633" lon="2.15043">
        <ele>15.6</ele>
        <time>2023-06-28T12:16:20Z</time>
      </trkpt>
      <trkpt lat="49.94632" lon="2.15044">
        <ele>15.6</ele>
        <time>2023-06-28T12:16:21Z</time>
      </trkpt>
      <trkpt lat="49.94632" lon="2.15045">
        <ele>15.6</ele>
        <time>2023-06-28T12:16:22Z</time>
      </trkpt>
      <trkpt lat="49.94631" lon="2.15048">
        <ele>15.6</ele>
        <time>2023-06-28T12:16:24Z</time>
      </trkpt>
      <trkpt lat="49.94631" lon="2.15049">
        <ele>15.6</ele>
        <time>2023-06-28T12:16:25Z</time>
      </trkpt>
      <trkpt lat="49.94631" lon="2.15051">
        <ele>15.6</ele>
        <time>2023-06-28T12:16:26Z</time>
      </trkpt>
      <trkpt lat="49.94631" lon="2.15053">
        <ele>15.6</ele>
        <time>2023-06-28T12:16:27Z</time>
      </trkpt>
      <trkpt lat="49.94632" lon="2.15056">
        <ele>15.6</ele>
        <time>2023-06-28T12:16:28Z</time>
      </trkpt>
      <trkpt lat="49.94633" lon="2.15057">
        <ele>15.6</ele>
        <time>2023-06-28T12:16:30Z</time>
      </trkpt>
      <trkpt lat="49.94633" lon="2.15058">
        <ele>15.5</ele>
        <time>2023-06-28T12:16:31Z</time>
      </trkpt>
      <trkpt lat="49.94633" lon="2.1506">
        <ele>15.5</ele>
        <time>2023-06-28T12:16:32Z</time>
      </trkpt>
      <trkpt lat="49.94634" lon="2.15062">
        <ele>15.5</ele>
        <time>2023-06-28T12:16:33Z</time>
      </trkpt>
      <trkpt lat="49.94634" lon="2.15064">
        <ele>15.5</ele>
        <time>2023-06-28T12:16:34Z</time>
      </trkpt>
      <trkpt lat="49.94634" lon="2.15066">
        <ele>15.5</ele>
        <time>2023-06-28T12:16:36Z</time>
      </trkpt>
      <trkpt lat="49.94634" lon="2.15069">
        <ele>15.5</ele>
        <time>2023-06-28T12:16:37Z</time>
      </trkpt>
      <trkpt lat="49.94634" lon="2.15071">
        <ele>15.5</ele>
        <time>2023-06-28T12:16:38Z</time>
      </trkpt>
      <trkpt lat="49.94634" lon="2.15074">
        <ele>15.5</ele>
        <time>2023-06-28T12:16:39Z</time>
      </trkpt>
      <trkpt lat="49.94634" lon="2.15076">
        <ele>15.5</ele>
        <time>2023-06-28T12:16:40Z</time>
      </trkpt>
      <trkpt lat="49.94634" lon="2.15077">
        <ele>15.6</ele>
        <time>2023-06-28T12:16:41Z</time>
      </trkpt>
      <trkpt lat="49.94634" lon="2.15079">
        <ele>15.6</ele>
        <time>2023-06-28T12:16:43Z</time>
      </trkpt>
      <trkpt lat="49.94634" lon="2.15081">
        <ele>15.6</ele>
        <time>2023-06-28T12:16:44Z</time>
      </trkpt>
      <trkpt lat="49.94634" lon="2.15085">
        <ele>15.6</ele>
        <time>2023-06-28T12:16:45Z</time>
      </trkpt>
      <trkpt lat="49.94634" lon="2.15086">
        <ele>15.6</ele>
        <time>2023-06-28T12:16:46Z</time>
      </trkpt>
      <trkpt lat="49.94634" lon="2.15088">
        <ele>15.6</ele>
        <time>2023-06-28T12:16:47Z</time>
      </trkpt>
      <trkpt lat="49.94634" lon="2.1509">
        <ele>15.6</ele>
        <time>2023-06-28T12:16:48Z</time>
      </trkpt>
      <trkpt lat="49.94634" lon="2.15092">
        <ele>15.6</ele>
        <time>2023-06-28T12:16:49Z</time>
      </trkpt>
      <trkpt lat="49.94634" lon="2.15095">
        <ele>15.6</ele>
        <time>2023-06-28T12:16:50Z</time>
      </trkpt>
      <trkpt lat="49.94634" lon="2.15097">
        <ele>15.5</ele>
        <time>2023-06-28T12:16:52Z</time>
      </trkpt>
      <trkpt lat="49.94634" lon="2.15098">
        <ele>15.5</ele>
        <time>2023-06-28T12:16:53Z</time>
      </trkpt>
      <trkpt lat="49.94634" lon="2.15101">
        <ele>15.5</ele>
        <time>2023-06-28T12:16:54Z</time>
      </trkpt>
      <trkpt lat="49.94634" lon="2.15103">
        <ele>15.5</ele>
        <time>2023-06-28T12:16:56Z</time>
      </trkpt>
      <trkpt lat="49.94634" lon="2.15105">
        <ele>15.4</ele>
        <time>2023-06-28T12:16:57Z</time>
      </trkpt>
      <trkpt lat="49.94633" lon="2.15107">
        <ele>15.4</ele>
        <time>2023-06-28T12:16:58Z</time>
      </trkpt>
      <trkpt lat="49.94633" lon="2.1511">
        <ele>15.3</ele>
        <time>2023-06-28T12:16:59Z</time>
      </trkpt>
      <trkpt lat="49.94632" lon="2.15112">
        <ele>15.3</ele>
        <time>2023-06-28T12:17:00Z</time>
      </trkpt>
      <trkpt lat="49.94631" lon="2.15114">
        <ele>15.3</ele>
        <time>2023-06-28T12:17:01Z</time>
      </trkpt>
      <trkpt lat="49.94631" lon="2.15115">
        <ele>15.3</ele>
        <time>2023-06-28T12:17:02Z</time>
      </trkpt>
      <trkpt lat="49.94629" lon="2.15118">
        <ele>15.2</ele>
        <time>2023-06-28T12:17:04Z</time>
      </trkpt>
      <trkpt lat="49.94629" lon="2.15119">
        <ele>15.2</ele>
        <time>2023-06-28T12:17:05Z</time>
      </trkpt>
      <trkpt lat="49.94629" lon="2.1512">
        <ele>15.2</ele>
        <time>2023-06-28T12:17:06Z</time>
      </trkpt>
      <trkpt lat="49.94627" lon="2.15123">
        <ele>15.1</ele>
        <time>2023-06-28T12:17:08Z</time>
      </trkpt>
      <trkpt lat="49.94627" lon="2.15125">
        <ele>15.1</ele>
        <time>2023-06-28T12:17:09Z</time>
      </trkpt>
      <trkpt lat="49.94626" lon="2.15127">
        <ele>15</ele>
        <time>2023-06-28T12:17:10Z</time>
      </trkpt>
      <trkpt lat="49.94625" lon="2.15128">
        <ele>15</ele>
        <time>2023-06-28T12:17:11Z</time>
      </trkpt>
      <trkpt lat="49.94624" lon="2.1513">
        <ele>15</ele>
        <time>2023-06-28T12:17:12Z</time>
      </trkpt>
      <trkpt lat="49.94623" lon="2.15131">
        <ele>15</ele>
        <time>2023-06-28T12:17:13Z</time>
      </trkpt>
      <trkpt lat="49.94621" lon="2.15133">
        <ele>14.9</ele>
        <time>2023-06-28T12:17:15Z</time>
      </trkpt>
      <trkpt lat="49.9462" lon="2.15134">
        <ele>14.9</ele>
        <time>2023-06-28T12:17:16Z</time>
      </trkpt>
      <trkpt lat="49.94619" lon="2.15135">
        <ele>14.8</ele>
        <time>2023-06-28T12:17:17Z</time>
      </trkpt>
      <trkpt lat="49.94617" lon="2.15136">
        <ele>14.8</ele>
        <time>2023-06-28T12:17:19Z</time>
      </trkpt>
      <trkpt lat="49.94616" lon="2.15136">
        <ele>14.8</ele>
        <time>2023-06-28T12:17:20Z</time>
      </trkpt>
      <trkpt lat="49.94614" lon="2.15136">
        <ele>14.7</ele>
        <time>2023-06-28T12:17:21Z</time>
      </trkpt>
      <trkpt lat="49.94613" lon="2.15137">
        <ele>14.7</ele>
        <time>2023-06-28T12:17:22Z</time>
      </trkpt>
      <trkpt lat="49.94611" lon="2.15137">
        <ele>14.6</ele>
        <time>2023-06-28T12:17:24Z</time>
      </trkpt>
      <trkpt lat="49.94609" lon="2.15138">
        <ele>14.6</ele>
        <time>2023-06-28T12:17:26Z</time>
      </trkpt>
      <trkpt lat="49.94608" lon="2.15138">
        <ele>14.6</ele>
        <time>2023-06-28T12:17:27Z</time>
      </trkpt>
      <trkpt lat="49.94606" lon="2.15139">
        <ele>14.5</ele>
        <time>2023-06-28T12:17:28Z</time>
      </trkpt>
      <trkpt lat="49.94605" lon="2.1514">
        <ele>14.5</ele>
        <time>2023-06-28T12:17:30Z</time>
      </trkpt>
      <trkpt lat="49.94603" lon="2.1514">
        <ele>14.5</ele>
        <time>2023-06-28T12:17:31Z</time>
      </trkpt>
      <trkpt lat="49.94601" lon="2.1514">
        <ele>14.4</ele>
        <time>2023-06-28T12:17:32Z</time>
      </trkpt>
      <trkpt lat="49.946" lon="2.1514">
        <ele>14.4</ele>
        <time>2023-06-28T12:17:33Z</time>
      </trkpt>
      <trkpt lat="49.94598" lon="2.1514">
        <ele>14.4</ele>
        <time>2023-06-28T12:17:34Z</time>
      </trkpt>
      <trkpt lat="49.94597" lon="2.1514">
        <ele>14.3</ele>
        <time>2023-06-28T12:17:36Z</time>
      </trkpt>
      <trkpt lat="49.94595" lon="2.1514">
        <ele>14.3</ele>
        <time>2023-06-28T12:17:37Z</time>
      </trkpt>
      <trkpt lat="49.94593" lon="2.15141">
        <ele>14.2</ele>
        <time>2023-06-28T12:17:39Z</time>
      </trkpt>
      <trkpt lat="49.94591" lon="2.1514">
        <ele>14.2</ele>
        <time>2023-06-28T12:17:40Z</time>
      </trkpt>
      <trkpt lat="49.9459" lon="2.1514">
        <ele>14.2</ele>
        <time>2023-06-28T12:17:41Z</time>
      </trkpt>
      <trkpt lat="49.94589" lon="2.1514">
        <ele>14.1</ele>
        <time>2023-06-28T12:17:42Z</time>
      </trkpt>
      <trkpt lat="49.94587" lon="2.15141">
        <ele>14.1</ele>
        <time>2023-06-28T12:17:43Z</time>
      </trkpt>
      <trkpt lat="49.94586" lon="2.15141">
        <ele>14.1</ele>
        <time>2023-06-28T12:17:44Z</time>
      </trkpt>
      <trkpt lat="49.94585" lon="2.15142">
        <ele>14</ele>
        <time>2023-06-28T12:17:46Z</time>
      </trkpt>
      <trkpt lat="49.94584" lon="2.15142">
        <ele>14</ele>
        <time>2023-06-28T12:17:47Z</time>
      </trkpt>
      <trkpt lat="49.94583" lon="2.15142">
        <ele>14</ele>
        <time>2023-06-28T12:17:48Z</time>
      </trkpt>
      <trkpt lat="49.94582" lon="2.15143">
        <ele>14</ele>
        <time>2023-06-28T12:17:49Z</time>
      </trkpt>
      <trkpt lat="49.94581" lon="2.15144">
        <ele>13.9</ele>
        <time>2023-06-28T12:17:50Z</time>
      </trkpt>
      <trkpt lat="49.94579" lon="2.15146">
        <ele>13.9</ele>
        <time>2023-06-28T12:17:51Z</time>
      </trkpt>
      <trkpt lat="49.94578" lon="2.15147">
        <ele>13.9</ele>
        <time>2023-06-28T12:17:52Z</time>
      </trkpt>
      <trkpt lat="49.94577" lon="2.15149">
        <ele>13.9</ele>
        <time>2023-06-28T12:17:53Z</time>
      </trkpt>
      <trkpt lat="49.94577" lon="2.15151">
        <ele>13.8</ele>
        <time>2023-06-28T12:17:55Z</time>
      </trkpt>
      <trkpt lat="49.94576" lon="2.15153">
        <ele>13.8</ele>
        <time>2023-06-28T12:17:56Z</time>
      </trkpt>
      <trkpt lat="49.94576" lon="2.15157">
        <ele>13.8</ele>
        <time>2023-06-28T12:17:57Z</time>
      </trkpt>
      <trkpt lat="49.94576" lon="2.15159">
        <ele>13.8</ele>
        <time>2023-06-28T12:17:58Z</time>
      </trkpt>
      <trkpt lat="49.94576" lon="2.15161">
        <ele>13.8</ele>
        <time>2023-06-28T12:18:00Z</time>
      </trkpt>
      <trkpt lat="49.94576" lon="2.15164">
        <ele>13.8</ele>
        <time>2023-06-28T12:18:01Z</time>
      </trkpt>
      <trkpt lat="49.94577" lon="2.15167">
        <ele>13.8</ele>
        <time>2023-06-28T12:18:02Z</time>
      </trkpt>
      <trkpt lat="49.94577" lon="2.15169">
        <ele>13.7</ele>
        <time>2023-06-28T12:18:03Z</time>
      </trkpt>
      <trkpt lat="49.94578" lon="2.15172">
        <ele>13.7</ele>
        <time>2023-06-28T12:18:04Z</time>
      </trkpt>
      <trkpt lat="49.94578" lon="2.15175">
        <ele>13.7</ele>
        <time>2023-06-28T12:18:06Z</time>
      </trkpt>
      <trkpt lat="49.94578" lon="2.15177">
        <ele>13.7</ele>
        <time>2023-06-28T12:18:07Z</time>
      </trkpt>
      <trkpt lat="49.94579" lon="2.1518">
        <ele>13.7</ele>
        <time>2023-06-28T12:18:08Z</time>
      </trkpt>
      <trkpt lat="49.9458" lon="2.15184">
        <ele>13.7</ele>
        <time>2023-06-28T12:18:10Z</time>
      </trkpt>
      <trkpt lat="49.9458" lon="2.15185">
        <ele>13.7</ele>
        <time>2023-06-28T12:18:11Z</time>
      </trkpt>
      <trkpt lat="49.9458" lon="2.15187">
        <ele>13.7</ele>
        <time>2023-06-28T12:18:12Z</time>
      </trkpt>
      <trkpt lat="49.9458" lon="2.1519">
        <ele>13.7</ele>
        <time>2023-06-28T12:18:13Z</time>
      </trkpt>
      <trkpt lat="49.94581" lon="2.15192">
        <ele>13.7</ele>
        <time>2023-06-28T12:18:14Z</time>
      </trkpt>
      <trkpt lat="49.94581" lon="2.15195">
        <ele>13.7</ele>
        <time>2023-06-28T12:18:16Z</time>
      </trkpt>
      <trkpt lat="49.94581" lon="2.15197">
        <ele>13.7</ele>
        <time>2023-06-28T12:18:17Z</time>
      </trkpt>
      <trkpt lat="49.94581" lon="2.15199">
        <ele>13.7</ele>
        <time>2023-06-28T12:18:18Z</time>
      </trkpt>
      <trkpt lat="49.94581" lon="2.15202">
        <ele>13.7</ele>
        <time>2023-06-28T12:18:19Z</time>
      </trkpt>
      <trkpt lat="49.94581" lon="2.15205">
        <ele>13.7</ele>
        <time>2023-06-28T12:18:21Z</time>
      </trkpt>
      <trkpt lat="49.94581" lon="2.15207">
        <ele>13.7</ele>
        <time>2023-06-28T12:18:22Z</time>
      </trkpt>
      <trkpt lat="49.9458" lon="2.15209">
        <ele>13.7</ele>
        <time>2023-06-28T12:18:23Z</time>
      </trkpt>
      <trkpt lat="49.94579" lon="2.15212">
        <ele>13.7</ele>
        <time>2023-06-28T12:18:24Z</time>
      </trkpt>
      <trkpt lat="49.94578" lon="2.15213">
        <ele>13.7</ele>
        <time>2023-06-28T12:18:25Z</time>
      </trkpt>
      <trkpt lat="49.94578" lon="2.15214">
        <ele>13.7</ele>
        <time>2023-06-28T12:18:26Z</time>
      </trkpt>
      <trkpt lat="49.94577" lon="2.15215">
        <ele>13.7</ele>
        <time>2023-06-28T12:18:28Z</time>
      </trkpt>
      <trkpt lat="49.94576" lon="2.15216">
        <ele>13.7</ele>
        <time>2023-06-28T12:18:29Z</time>
      </trkpt>
      <trkpt lat="49.94575" lon="2.15217">
        <ele>13.6</ele>
        <time>2023-06-28T12:18:30Z</time>
      </trkpt>
      <trkpt lat="49.94573" lon="2.15219">
        <ele>13.6</ele>
        <time>2023-06-28T12:18:31Z</time>
      </trkpt>
      <trkpt lat="49.94572" lon="2.1522">
        <ele>13.6</ele>
        <time>2023-06-28T12:18:32Z</time>
      </trkpt>
      <trkpt lat="49.94572" lon="2.15221">
        <ele>13.6</ele>
        <time>2023-06-28T12:18:33Z</time>
      </trkpt>
      <trkpt lat="49.94571" lon="2.15221">
        <ele>13.6</ele>
        <time>2023-06-28T12:18:34Z</time>
      </trkpt>
      <trkpt lat="49.94569" lon="2.15222">
        <ele>13.5</ele>
        <time>2023-06-28T12:18:35Z</time>
      </trkpt>
      <trkpt lat="49.94568" lon="2.15222">
        <ele>13.5</ele>
        <time>2023-06-28T12:18:36Z</time>
      </trkpt>
      <trkpt lat="49.94566" lon="2.15223">
        <ele>13.4</ele>
        <time>2023-06-28T12:18:38Z</time>
      </trkpt>
      <trkpt lat="49.94566" lon="2.15224">
        <ele>13.4</ele>
        <time>2023-06-28T12:18:39Z</time>
      </trkpt>
      <trkpt lat="49.94565" lon="2.15224">
        <ele>13.4</ele>
        <time>2023-06-28T12:18:40Z</time>
      </trkpt>
      <trkpt lat="49.94563" lon="2.15226">
        <ele>13.4</ele>
        <time>2023-06-28T12:18:41Z</time>
      </trkpt>
      <trkpt lat="49.94562" lon="2.15226">
        <ele>13.4</ele>
        <time>2023-06-28T12:18:42Z</time>
      </trkpt>
      <trkpt lat="49.94561" lon="2.15227">
        <ele>13.3</ele>
        <time>2023-06-28T12:18:43Z</time>
      </trkpt>
      <trkpt lat="49.94559" lon="2.15228">
        <ele>13.3</ele>
        <time>2023-06-28T12:18:45Z</time>
      </trkpt>
      <trkpt lat="49.94558" lon="2.15228">
        <ele>13.3</ele>
        <time>2023-06-28T12:18:46Z</time>
      </trkpt>
      <trkpt lat="49.94558" lon="2.15229">
        <ele>13.2</ele>
        <time>2023-06-28T12:18:47Z</time>
      </trkpt>
      <trkpt lat="49.94556" lon="2.15229">
        <ele>13.3</ele>
        <time>2023-06-28T12:18:48Z</time>
      </trkpt>
      <trkpt lat="49.94555" lon="2.1523">
        <ele>13.2</ele>
        <time>2023-06-28T12:18:49Z</time>
      </trkpt>
      <trkpt lat="49.94554" lon="2.15231">
        <ele>13.2</ele>
        <time>2023-06-28T12:18:51Z</time>
      </trkpt>
      <trkpt lat="49.94553" lon="2.15231">
        <ele>13.2</ele>
        <time>2023-06-28T12:18:52Z</time>
      </trkpt>
      <trkpt lat="49.94552" lon="2.15232">
        <ele>13.1</ele>
        <time>2023-06-28T12:18:53Z</time>
      </trkpt>
      <trkpt lat="49.9455" lon="2.15232">
        <ele>13.1</ele>
        <time>2023-06-28T12:18:54Z</time>
      </trkpt>
      <trkpt lat="49.94549" lon="2.15233">
        <ele>13.1</ele>
        <time>2023-06-28T12:18:55Z</time>
      </trkpt>
      <trkpt lat="49.94548" lon="2.15234">
        <ele>13.1</ele>
        <time>2023-06-28T12:18:57Z</time>
      </trkpt>
      <trkpt lat="49.94547" lon="2.15236">
        <ele>13.1</ele>
        <time>2023-06-28T12:18:58Z</time>
      </trkpt>
      <trkpt lat="49.94548" lon="2.15236">
        <ele>13.1</ele>
        <time>2023-06-28T12:18:59Z</time>
      </trkpt>
      <trkpt lat="49.94548" lon="2.15238">
        <ele>13.1</ele>
        <time>2023-06-28T12:19:00Z</time>
      </trkpt>
      <trkpt lat="49.94549" lon="2.15239">
        <ele>13.1</ele>
        <time>2023-06-28T12:19:01Z</time>
      </trkpt>
      <trkpt lat="49.94549" lon="2.1524">
        <ele>13.1</ele>
        <time>2023-06-28T12:19:02Z</time>
      </trkpt>
      <trkpt lat="49.94549" lon="2.1524">
        <ele>13.1</ele>
        <time>2023-06-28T12:19:03Z</time>
      </trkpt>
      <trkpt lat="49.94549" lon="2.1524">
        <ele>13.1</ele>
        <time>2023-06-28T12:19:04Z</time>
      </trkpt>
      <trkpt lat="49.94549" lon="2.1524">
        <ele>13.1</ele>
        <time>2023-06-28T12:19:06Z</time>
      </trkpt>
      <trkpt lat="49.94549" lon="2.1524">
        <ele>13.1</ele>
        <time>2023-06-28T12:19:07Z</time>
      </trkpt>
      <trkpt lat="49.94549" lon="2.1524">
        <ele>13.1</ele>
        <time>2023-06-28T12:19:08Z</time>
      </trkpt>
      <trkpt lat="49.94549" lon="2.1524">
        <ele>13.1</ele>
        <time>2023-06-28T12:19:10Z</time>
      </trkpt>
      <trkpt lat="49.94549" lon="2.15239">
        <ele>13.1</ele>
        <time>2023-06-28T12:19:11Z</time>
      </trkpt>
      <trkpt lat="49.94549" lon="2.15239">
        <ele>13.1</ele>
        <time>2023-06-28T12:19:12Z</time>
      </trkpt>
      <trkpt lat="49.94549" lon="2.15239">
        <ele>13.1</ele>
        <time>2023-06-28T12:19:14Z</time>
      </trkpt>
      <trkpt lat="49.94549" lon="2.15239">
        <ele>13.1</ele>
        <time>2023-06-28T12:19:15Z</time>
      </trkpt>
      <trkpt lat="49.94549" lon="2.15239">
        <ele>13.1</ele>
        <time>2023-06-28T12:19:17Z</time>
      </trkpt>
      <trkpt lat="49.94549" lon="2.15239">
        <ele>13.1</ele>
        <time>2023-06-28T12:19:18Z</time>
      </trkpt>
      <trkpt lat="49.94549" lon="2.15239">
        <ele>13.1</ele>
        <time>2023-06-28T12:19:20Z</time>
      </trkpt>
      <trkpt lat="49.94549" lon="2.15239">
        <ele>13.1</ele>
        <time>2023-06-28T12:19:21Z</time>
      </trkpt>
      <trkpt lat="49.9455" lon="2.15239">
        <ele>13.1</ele>
        <time>2023-06-28T12:19:23Z</time>
      </trkpt>
      <trkpt lat="49.9455" lon="2.15239">
        <ele>13.1</ele>
        <time>2023-06-28T12:19:24Z</time>
      </trkpt>
      <trkpt lat="49.9455" lon="2.15239">
        <ele>13.1</ele>
        <time>2023-06-28T12:19:25Z</time>
      </trkpt>
      <trkpt lat="49.9455" lon="2.15239">
        <ele>13.1</ele>
        <time>2023-06-28T12:19:26Z</time>
      </trkpt>
      <trkpt lat="49.9455" lon="2.15239">
        <ele>13.1</ele>
        <time>2023-06-28T12:19:27Z</time>
      </trkpt>
      <trkpt lat="49.9455" lon="2.15239">
        <ele>13.1</ele>
        <time>2023-06-28T12:19:28Z</time>
      </trkpt>
      <trkpt lat="49.9455" lon="2.15239">
        <ele>13.1</ele>
        <time>2023-06-28T12:19:29Z</time>
      </trkpt>
      <trkpt lat="49.9455" lon="2.15238">
        <ele>13.1</ele>
        <time>2023-06-28T12:19:30Z</time>
      </trkpt>
      <trkpt lat="49.9455" lon="2.15238">
        <ele>13.1</ele>
        <time>2023-06-28T12:19:31Z</time>
      </trkpt>
      <trkpt lat="49.9455" lon="2.15238">
        <ele>13.1</ele>
        <time>2023-06-28T12:19:32Z</time>
      </trkpt>
      <trkpt lat="49.9455" lon="2.15238">
        <ele>13.1</ele>
        <time>2023-06-28T12:19:33Z</time>
      </trkpt>
      <trkpt lat="49.9455" lon="2.15238">
        <ele>13.1</ele>
        <time>2023-06-28T12:19:34Z</time>
      </trkpt>
      <trkpt lat="49.9455" lon="2.15238">
        <ele>13.1</ele>
        <time>2023-06-28T12:19:35Z</time>
      </trkpt>
      <trkpt lat="49.9455" lon="2.15238">
        <ele>13.1</ele>
        <time>2023-06-28T12:19:36Z</time>
      </trkpt>
      <trkpt lat="49.9455" lon="2.15238">
        <ele>13.1</ele>
        <time>2023-06-28T12:19:37Z</time>
      </trkpt>
      <trkpt lat="49.9455" lon="2.15238">
        <ele>13.1</ele>
        <time>2023-06-28T12:19:38Z</time>
      </trkpt>
      <trkpt lat="49.9455" lon="2.15238">
        <ele>13.1</ele>
        <time>2023-06-28T12:19:39Z</time>
      </trkpt>
      <trkpt lat="49.9455" lon="2.15238">
        <ele>13.1</ele>
        <time>2023-06-28T12:19:40Z</time>
      </trkpt>
      <trkpt lat="49.9455" lon="2.15238">
        <ele>13.1</ele>
        <time>2023-06-28T12:19:41Z</time>
      </trkpt>
      <trkpt lat="49.9455" lon="2.15238">
        <ele>13.1</ele>
        <time>2023-06-28T12:19:42Z</time>
      </trkpt>
      <trkpt lat="49.9455" lon="2.15238">
        <ele>13.1</ele>
        <time>2023-06-28T12:19:43Z</time>
      </trkpt>
      <trkpt lat="49.9455" lon="2.15238">
        <ele>13.1</ele>
        <time>2023-06-28T12:19:44Z</time>
      </trkpt>
      <trkpt lat="49.9455" lon="2.15237">
        <ele>13.1</ele>
        <time>2023-06-28T12:19:45Z</time>
      </trkpt>
      <trkpt lat="49.9455" lon="2.15237">
        <ele>13.1</ele>
        <time>2023-06-28T12:19:46Z</time>
      </trkpt>
      <trkpt lat="49.9455" lon="2.15237">
        <ele>13.1</ele>
        <time>2023-06-28T12:19:47Z</time>
      </trkpt>
      <trkpt lat="49.94551" lon="2.15237">
        <ele>13.1</ele>
        <time>2023-06-28T12:19:48Z</time>
      </trkpt>
      <trkpt lat="49.94551" lon="2.15237">
        <ele>13.1</ele>
        <time>2023-06-28T12:19:49Z</time>
      </trkpt>
      <trkpt lat="49.94551" lon="2.15237">
        <ele>13.1</ele>
        <time>2023-06-28T12:19:50Z</time>
      </trkpt>
      <trkpt lat="49.94551" lon="2.15237">
        <ele>13.1</ele>
        <time>2023-06-28T12:19:51Z</time>
      </trkpt>
      <trkpt lat="49.94551" lon="2.15237">
        <ele>13.1</ele>
        <time>2023-06-28T12:19:52Z</time>
      </trkpt>
      <trkpt lat="49.94551" lon="2.15237">
        <ele>13.1</ele>
        <time>2023-06-28T12:19:53Z</time>
      </trkpt>
      <trkpt lat="49.94551" lon="2.15237">
        <ele>13.1</ele>
        <time>2023-06-28T12:19:54Z</time>
      </trkpt>
      <trkpt lat="49.94551" lon="2.15237">
        <ele>13.1</ele>
        <time>2023-06-28T12:19:55Z</time>
      </trkpt>
      <trkpt lat="49.94551" lon="2.15237">
        <ele>13.1</ele>
        <time>2023-06-28T12:19:56Z</time>
      </trkpt>
      <trkpt lat="49.94551" lon="2.15237">
        <ele>13.1</ele>
        <time>2023-06-28T12:19:57Z</time>
      </trkpt>
      <trkpt lat="49.94551" lon="2.15237">
        <ele>13.1</ele>
        <time>2023-06-28T12:19:58Z</time>
      </trkpt>
      <trkpt lat="49.94551" lon="2.15237">
        <ele>13.1</ele>
        <time>2023-06-28T12:19:59Z</time>
      </trkpt>
      <trkpt lat="49.94551" lon="2.15236">
        <ele>13.1</ele>
        <time>2023-06-28T12:20:00Z</time>
      </trkpt>
      <trkpt lat="49.94551" lon="2.15236">
        <ele>13.1</ele>
        <time>2023-06-28T12:20:01Z</time>
      </trkpt>
      <trkpt lat="49.94551" lon="2.15236">
        <ele>13.1</ele>
        <time>2023-06-28T12:20:02Z</time>
      </trkpt>
      <trkpt lat="49.94551" lon="2.15236">
        <ele>13.1</ele>
        <time>2023-06-28T12:20:03Z</time>
      </trkpt>
      <trkpt lat="49.94552" lon="2.15236">
        <ele>13.1</ele>
        <time>2023-06-28T12:20:04Z</time>
      </trkpt>
      <trkpt lat="49.94552" lon="2.15237">
        <ele>13.1</ele>
        <time>2023-06-28T12:20:05Z</time>
      </trkpt>
      <trkpt lat="49.94552" lon="2.15237">
        <ele>13.1</ele>
        <time>2023-06-28T12:20:06Z</time>
      </trkpt>
      <trkpt lat="49.94551" lon="2.15236">
        <ele>13.1</ele>
        <time>2023-06-28T12:20:07Z</time>
      </trkpt>
      <trkpt lat="49.9455" lon="2.15236">
        <ele>13.1</ele>
        <time>2023-06-28T12:20:08Z</time>
      </trkpt>
      <trkpt lat="49.94549" lon="2.15235">
        <ele>13.1</ele>
        <time>2023-06-28T12:20:09Z</time>
      </trkpt>
      <trkpt lat="49.94549" lon="2.15235">
        <ele>13.1</ele>
        <time>2023-06-28T12:20:10Z</time>
      </trkpt>
      <trkpt lat="49.94548" lon="2.15235">
        <ele>13.1</ele>
        <time>2023-06-28T12:20:12Z</time>
      </trkpt>
      <trkpt lat="49.94547" lon="2.15234">
        <ele>13.1</ele>
        <time>2023-06-28T12:20:13Z</time>
      </trkpt>
      <trkpt lat="49.94545" lon="2.15231">
        <ele>13.1</ele>
        <time>2023-06-28T12:20:14Z</time>
      </trkpt>
      <trkpt lat="49.94544" lon="2.15229">
        <ele>13.1</ele>
        <time>2023-06-28T12:20:15Z</time>
      </trkpt>
      <trkpt lat="49.94544" lon="2.15228">
        <ele>13.1</ele>
        <time>2023-06-28T12:20:16Z</time>
      </trkpt>
      <trkpt lat="49.94543" lon="2.15227">
        <ele>13.1</ele>
        <time>2023-06-28T12:20:17Z</time>
      </trkpt>
      <trkpt lat="49.94542" lon="2.15225">
        <ele>13.1</ele>
        <time>2023-06-28T12:20:18Z</time>
      </trkpt>
      <trkpt lat="49.94541" lon="2.15224">
        <ele>13.1</ele>
        <time>2023-06-28T12:20:20Z</time>
      </trkpt>
      <trkpt lat="49.9454" lon="2.15223">
        <ele>13.1</ele>
        <time>2023-06-28T12:20:21Z</time>
      </trkpt>
      <trkpt lat="49.94539" lon="2.15222">
        <ele>13.1</ele>
        <time>2023-06-28T12:20:22Z</time>
      </trkpt>
      <trkpt lat="49.94539" lon="2.15221">
        <ele>13.1</ele>
        <time>2023-06-28T12:20:23Z</time>
      </trkpt>
      <trkpt lat="49.94539" lon="2.1522">
        <ele>13.1</ele>
        <time>2023-06-28T12:20:24Z</time>
      </trkpt>
      <trkpt lat="49.94538" lon="2.15219">
        <ele>13.1</ele>
        <time>2023-06-28T12:20:25Z</time>
      </trkpt>
      <trkpt lat="49.94536" lon="2.15217">
        <ele>13.2</ele>
        <time>2023-06-28T12:20:26Z</time>
      </trkpt>
      <trkpt lat="49.94535" lon="2.15216">
        <ele>13.2</ele>
        <time>2023-06-28T12:20:28Z</time>
      </trkpt>
      <trkpt lat="49.94534" lon="2.15215">
        <ele>13.2</ele>
        <time>2023-06-28T12:20:29Z</time>
      </trkpt>
      <trkpt lat="49.94533" lon="2.15214">
        <ele>13.2</ele>
        <time>2023-06-28T12:20:30Z</time>
      </trkpt>
      <trkpt lat="49.94532" lon="2.15213">
        <ele>13.2</ele>
        <time>2023-06-28T12:20:31Z</time>
      </trkpt>
      <trkpt lat="49.94531" lon="2.15212">
        <ele>13.2</ele>
        <time>2023-06-28T12:20:32Z</time>
      </trkpt>
      <trkpt lat="49.9453" lon="2.1521">
        <ele>13.2</ele>
        <time>2023-06-28T12:20:34Z</time>
      </trkpt>
      <trkpt lat="49.94528" lon="2.15209">
        <ele>13.2</ele>
        <time>2023-06-28T12:20:35Z</time>
      </trkpt>
      <trkpt lat="49.94527" lon="2.15207">
        <ele>13.2</ele>
        <time>2023-06-28T12:20:36Z</time>
      </trkpt>
      <trkpt lat="49.94526" lon="2.15205">
        <ele>13.2</ele>
        <time>2023-06-28T12:20:37Z</time>
      </trkpt>
      <trkpt lat="49.94525" lon="2.15203">
        <ele>13.3</ele>
        <time>2023-06-28T12:20:38Z</time>
      </trkpt>
      <trkpt lat="49.94523" lon="2.152">
        <ele>13.3</ele>
        <time>2023-06-28T12:20:39Z</time>
      </trkpt>
      <trkpt lat="49.94522" lon="2.15199">
        <ele>13.3</ele>
        <time>2023-06-28T12:20:41Z</time>
      </trkpt>
      <trkpt lat="49.94521" lon="2.15198">
        <ele>13.3</ele>
        <time>2023-06-28T12:20:42Z</time>
      </trkpt>
      <trkpt lat="49.94521" lon="2.15197">
        <ele>13.3</ele>
        <time>2023-06-28T12:20:43Z</time>
      </trkpt>
      <trkpt lat="49.9452" lon="2.15196">
        <ele>13.3</ele>
        <time>2023-06-28T12:20:44Z</time>
      </trkpt>
      <trkpt lat="49.94519" lon="2.15195">
        <ele>13.3</ele>
        <time>2023-06-28T12:20:45Z</time>
      </trkpt>
      <trkpt lat="49.94518" lon="2.15194">
        <ele>13.3</ele>
        <time>2023-06-28T12:20:46Z</time>
      </trkpt>
      <trkpt lat="49.94517" lon="2.15193">
        <ele>13.3</ele>
        <time>2023-06-28T12:20:47Z</time>
      </trkpt>
      <trkpt lat="49.94516" lon="2.15191">
        <ele>13.3</ele>
        <time>2023-06-28T12:20:48Z</time>
      </trkpt>
      <trkpt lat="49.94515" lon="2.1519">
        <ele>13.3</ele>
        <time>2023-06-28T12:20:49Z</time>
      </trkpt>
      <trkpt lat="49.94514" lon="2.15189">
        <ele>13.3</ele>
        <time>2023-06-28T12:20:51Z</time>
      </trkpt>
      <trkpt lat="49.94513" lon="2.15188">
        <ele>13.3</ele>
        <time>2023-06-28T12:20:52Z</time>
      </trkpt>
      <trkpt lat="49.94512" lon="2.15187">
        <ele>13.3</ele>
        <time>2023-06-28T12:20:53Z</time>
      </trkpt>
      <trkpt lat="49.9451" lon="2.15185">
        <ele>13.3</ele>
        <time>2023-06-28T12:20:54Z</time>
      </trkpt>
      <trkpt lat="49.94509" lon="2.15184">
        <ele>13.3</ele>
        <time>2023-06-28T12:20:55Z</time>
      </trkpt>
      <trkpt lat="49.94508" lon="2.15184">
        <ele>13.3</ele>
        <time>2023-06-28T12:20:56Z</time>
      </trkpt>
      <trkpt lat="49.94507" lon="2.15182">
        <ele>13.3</ele>
        <time>2023-06-28T12:20:57Z</time>
      </trkpt>
      <trkpt lat="49.94506" lon="2.15181">
        <ele>13.3</ele>
        <time>2023-06-28T12:20:59Z</time>
      </trkpt>
      <trkpt lat="49.94505" lon="2.1518">
        <ele>13.3</ele>
        <time>2023-06-28T12:21:00Z</time>
      </trkpt>
      <trkpt lat="49.94504" lon="2.15179">
        <ele>13.2</ele>
        <time>2023-06-28T12:21:01Z</time>
      </trkpt>
      <trkpt lat="49.94503" lon="2.15178">
        <ele>13.2</ele>
        <time>2023-06-28T12:21:02Z</time>
      </trkpt>
      <trkpt lat="49.94502" lon="2.15177">
        <ele>13.2</ele>
        <time>2023-06-28T12:21:03Z</time>
      </trkpt>
      <trkpt lat="49.94501" lon="2.15176">
        <ele>13.2</ele>
        <time>2023-06-28T12:21:05Z</time>
      </trkpt>
      <trkpt lat="49.945" lon="2.15175">
        <ele>13.2</ele>
        <time>2023-06-28T12:21:06Z</time>
      </trkpt>
      <trkpt lat="49.94498" lon="2.15174">
        <ele>13.2</ele>
        <time>2023-06-28T12:21:07Z</time>
      </trkpt>
      <trkpt lat="49.94497" lon="2.15172">
        <ele>13.1</ele>
        <time>2023-06-28T12:21:08Z</time>
      </trkpt>
      <trkpt lat="49.94496" lon="2.15171">
        <ele>13.1</ele>
        <time>2023-06-28T12:21:09Z</time>
      </trkpt>
      <trkpt lat="49.94495" lon="2.1517">
        <ele>13.1</ele>
        <time>2023-06-28T12:21:10Z</time>
      </trkpt>
      <trkpt lat="49.94495" lon="2.15169">
        <ele>13.1</ele>
        <time>2023-06-28T12:21:11Z</time>
      </trkpt>
      <trkpt lat="49.94494" lon="2.15168">
        <ele>13.1</ele>
        <time>2023-06-28T12:21:12Z</time>
      </trkpt>
      <trkpt lat="49.94493" lon="2.15167">
        <ele>13.1</ele>
        <time>2023-06-28T12:21:14Z</time>
      </trkpt>
      <trkpt lat="49.94492" lon="2.15165">
        <ele>13.1</ele>
        <time>2023-06-28T12:21:15Z</time>
      </trkpt>
      <trkpt lat="49.94491" lon="2.15164">
        <ele>13.1</ele>
        <time>2023-06-28T12:21:16Z</time>
      </trkpt>
      <trkpt lat="49.9449" lon="2.15163">
        <ele>13.1</ele>
        <time>2023-06-28T12:21:17Z</time>
      </trkpt>
      <trkpt lat="49.9449" lon="2.15162">
        <ele>13.1</ele>
        <time>2023-06-28T12:21:18Z</time>
      </trkpt>
      <trkpt lat="49.94488" lon="2.1516">
        <ele>13.1</ele>
        <time>2023-06-28T12:21:20Z</time>
      </trkpt>
      <trkpt lat="49.94488" lon="2.15158">
        <ele>13.1</ele>
        <time>2023-06-28T12:21:21Z</time>
      </trkpt>
      <trkpt lat="49.94487" lon="2.15157">
        <ele>13.1</ele>
        <time>2023-06-28T12:21:22Z</time>
      </trkpt>
      <trkpt lat="49.94486" lon="2.15155">
        <ele>13.1</ele>
        <time>2023-06-28T12:21:23Z</time>
      </trkpt>
      <trkpt lat="49.94485" lon="2.15154">
        <ele>13.1</ele>
        <time>2023-06-28T12:21:24Z</time>
      </trkpt>
      <trkpt lat="49.94484" lon="2.15153">
        <ele>13.1</ele>
        <time>2023-06-28T12:21:25Z</time>
      </trkpt>
      <trkpt lat="49.94482" lon="2.15151">
        <ele>13.1</ele>
        <time>2023-06-28T12:21:27Z</time>
      </trkpt>
      <trkpt lat="49.94482" lon="2.1515">
        <ele>13.1</ele>
        <time>2023-06-28T12:21:28Z</time>
      </trkpt>
      <trkpt lat="49.94481" lon="2.15149">
        <ele>13.1</ele>
        <time>2023-06-28T12:21:29Z</time>
      </trkpt>
      <trkpt lat="49.9448" lon="2.15148">
        <ele>13.1</ele>
        <time>2023-06-28T12:21:30Z</time>
      </trkpt>
      <trkpt lat="49.94479" lon="2.15146">
        <ele>13.1</ele>
        <time>2023-06-28T12:21:31Z</time>
      </trkpt>
      <trkpt lat="49.94478" lon="2.15146">
        <ele>13.1</ele>
        <time>2023-06-28T12:21:32Z</time>
      </trkpt>
      <trkpt lat="49.94477" lon="2.15145">
        <ele>13.1</ele>
        <time>2023-06-28T12:21:33Z</time>
      </trkpt>
      <trkpt lat="49.94476" lon="2.15144">
        <ele>13.1</ele>
        <time>2023-06-28T12:21:34Z</time>
      </trkpt>
      <trkpt lat="49.94475" lon="2.15142">
        <ele>13.1</ele>
        <time>2023-06-28T12:21:36Z</time>
      </trkpt>
      <trkpt lat="49.94474" lon="2.15142">
        <ele>13.1</ele>
        <time>2023-06-28T12:21:37Z</time>
      </trkpt>
      <trkpt lat="49.94474" lon="2.15141">
        <ele>13.1</ele>
        <time>2023-06-28T12:21:38Z</time>
      </trkpt>
      <trkpt lat="49.94473" lon="2.1514">
        <ele>13.1</ele>
        <time>2023-06-28T12:21:39Z</time>
      </trkpt>
      <trkpt lat="49.94472" lon="2.15139">
        <ele>13.1</ele>
        <time>2023-06-28T12:21:40Z</time>
      </trkpt>
      <trkpt lat="49.94471" lon="2.15138">
        <ele>13.1</ele>
        <time>2023-06-28T12:21:41Z</time>
      </trkpt>
      <trkpt lat="49.9447" lon="2.15137">
        <ele>13.1</ele>
        <time>2023-06-28T12:21:42Z</time>
      </trkpt>
      <trkpt lat="49.94468" lon="2.15135">
        <ele>13.1</ele>
        <time>2023-06-28T12:21:44Z</time>
      </trkpt>
      <trkpt lat="49.94467" lon="2.15134">
        <ele>13.1</ele>
        <time>2023-06-28T12:21:45Z</time>
      </trkpt>
      <trkpt lat="49.94467" lon="2.15133">
        <ele>13.1</ele>
        <time>2023-06-28T12:21:46Z</time>
      </trkpt>
      <trkpt lat="49.94465" lon="2.15131">
        <ele>13.1</ele>
        <time>2023-06-28T12:21:47Z</time>
      </trkpt>
      <trkpt lat="49.94465" lon="2.15131">
        <ele>13.1</ele>
        <time>2023-06-28T12:21:48Z</time>
      </trkpt>
      <trkpt lat="49.94464" lon="2.1513">
        <ele>13.1</ele>
        <time>2023-06-28T12:21:49Z</time>
      </trkpt>
      <trkpt lat="49.94463" lon="2.15129">
        <ele>13.1</ele>
        <time>2023-06-28T12:21:50Z</time>
      </trkpt>
      <trkpt lat="49.94461" lon="2.15128">
        <ele>13.1</ele>
        <time>2023-06-28T12:21:51Z</time>
      </trkpt>
      <trkpt lat="49.9446" lon="2.15127">
        <ele>13.1</ele>
        <time>2023-06-28T12:21:53Z</time>
      </trkpt>
      <trkpt lat="49.94459" lon="2.15126">
        <ele>13.1</ele>
        <time>2023-06-28T12:21:54Z</time>
      </trkpt>
      <trkpt lat="49.94458" lon="2.15125">
        <ele>13.1</ele>
        <time>2023-06-28T12:21:55Z</time>
      </trkpt>
      <trkpt lat="49.94457" lon="2.15123">
        <ele>13.2</ele>
        <time>2023-06-28T12:21:56Z</time>
      </trkpt>
      <trkpt lat="49.94456" lon="2.15122">
        <ele>13.2</ele>
        <time>2023-06-28T12:21:57Z</time>
      </trkpt>
      <trkpt lat="49.94455" lon="2.15121">
        <ele>13.2</ele>
        <time>2023-06-28T12:21:58Z</time>
      </trkpt>
      <trkpt lat="49.94454" lon="2.1512">
        <ele>13.2</ele>
        <time>2023-06-28T12:21:59Z</time>
      </trkpt>
      <trkpt lat="49.94454" lon="2.15119">
        <ele>13.2</ele>
        <time>2023-06-28T12:22:00Z</time>
      </trkpt>
      <trkpt lat="49.94453" lon="2.15118">
        <ele>13.2</ele>
        <time>2023-06-28T12:22:01Z</time>
      </trkpt>
      <trkpt lat="49.94452" lon="2.15116">
        <ele>13.2</ele>
        <time>2023-06-28T12:22:03Z</time>
      </trkpt>
      <trkpt lat="49.94451" lon="2.15115">
        <ele>13.2</ele>
        <time>2023-06-28T12:22:04Z</time>
      </trkpt>
      <trkpt lat="49.9445" lon="2.15114">
        <ele>13.2</ele>
        <time>2023-06-28T12:22:05Z</time>
      </trkpt>
      <trkpt lat="49.94449" lon="2.15113">
        <ele>13.2</ele>
        <time>2023-06-28T12:22:07Z</time>
      </trkpt>
      <trkpt lat="49.94448" lon="2.15111">
        <ele>13.2</ele>
        <time>2023-06-28T12:22:08Z</time>
      </trkpt>
      <trkpt lat="49.94448" lon="2.1511">
        <ele>13.2</ele>
        <time>2023-06-28T12:22:09Z</time>
      </trkpt>
      <trkpt lat="49.94447" lon="2.15109">
        <ele>13.2</ele>
        <time>2023-06-28T12:22:10Z</time>
      </trkpt>
      <trkpt lat="49.94446" lon="2.15108">
        <ele>13.2</ele>
        <time>2023-06-28T12:22:11Z</time>
      </trkpt>
      <trkpt lat="49.94445" lon="2.15107">
        <ele>13.2</ele>
        <time>2023-06-28T12:22:12Z</time>
      </trkpt>
      <trkpt lat="49.94444" lon="2.15106">
        <ele>13.2</ele>
        <time>2023-06-28T12:22:13Z</time>
      </trkpt>
      <trkpt lat="49.94444" lon="2.15105">
        <ele>13.3</ele>
        <time>2023-06-28T12:22:15Z</time>
      </trkpt>
      <trkpt lat="49.94443" lon="2.15103">
        <ele>13.3</ele>
        <time>2023-06-28T12:22:16Z</time>
      </trkpt>
      <trkpt lat="49.94442" lon="2.15103">
        <ele>13.3</ele>
        <time>2023-06-28T12:22:17Z</time>
      </trkpt>
      <trkpt lat="49.94441" lon="2.15102">
        <ele>13.3</ele>
        <time>2023-06-28T12:22:18Z</time>
      </trkpt>
      <trkpt lat="49.9444" lon="2.15101">
        <ele>13.2</ele>
        <time>2023-06-28T12:22:19Z</time>
      </trkpt>
      <trkpt lat="49.94439" lon="2.151">
        <ele>13.2</ele>
        <time>2023-06-28T12:22:21Z</time>
      </trkpt>
      <trkpt lat="49.94438" lon="2.15099">
        <ele>13.2</ele>
        <time>2023-06-28T12:22:22Z</time>
      </trkpt>
      <trkpt lat="49.94437" lon="2.15098">
        <ele>13.2</ele>
        <time>2023-06-28T12:22:23Z</time>
      </trkpt>
      <trkpt lat="49.94436" lon="2.15098">
        <ele>13.2</ele>
        <time>2023-06-28T12:22:24Z</time>
      </trkpt>
      <trkpt lat="49.94435" lon="2.15097">
        <ele>13.2</ele>
        <time>2023-06-28T12:22:25Z</time>
      </trkpt>
      <trkpt lat="49.94433" lon="2.15096">
        <ele>13.2</ele>
        <time>2023-06-28T12:22:26Z</time>
      </trkpt>
      <trkpt lat="49.94432" lon="2.15096">
        <ele>13.2</ele>
        <time>2023-06-28T12:22:28Z</time>
      </trkpt>
      <trkpt lat="49.94431" lon="2.15096">
        <ele>13.2</ele>
        <time>2023-06-28T12:22:29Z</time>
      </trkpt>
      <trkpt lat="49.94429" lon="2.15095">
        <ele>13.2</ele>
        <time>2023-06-28T12:22:30Z</time>
      </trkpt>
      <trkpt lat="49.94429" lon="2.15095">
        <ele>13.2</ele>
        <time>2023-06-28T12:22:31Z</time>
      </trkpt>
      <trkpt lat="49.94428" lon="2.15095">
        <ele>13.2</ele>
        <time>2023-06-28T12:22:32Z</time>
      </trkpt>
      <trkpt lat="49.94426" lon="2.15095">
        <ele>13.1</ele>
        <time>2023-06-28T12:22:33Z</time>
      </trkpt>
      <trkpt lat="49.94424" lon="2.15093">
        <ele>13.1</ele>
        <time>2023-06-28T12:22:35Z</time>
      </trkpt>
      <trkpt lat="49.94423" lon="2.15092">
        <ele>13.1</ele>
        <time>2023-06-28T12:22:37Z</time>
      </trkpt>
      <trkpt lat="49.94422" lon="2.15091">
        <ele>13.1</ele>
        <time>2023-06-28T12:22:38Z</time>
      </trkpt>
      <trkpt lat="49.94421" lon="2.1509">
        <ele>13.1</ele>
        <time>2023-06-28T12:22:39Z</time>
      </trkpt>
      <trkpt lat="49.94419" lon="2.15089">
        <ele>13.1</ele>
        <time>2023-06-28T12:22:40Z</time>
      </trkpt>
      <trkpt lat="49.94418" lon="2.15088">
        <ele>13.1</ele>
        <time>2023-06-28T12:22:41Z</time>
      </trkpt>
      <trkpt lat="49.94417" lon="2.15086">
        <ele>13.1</ele>
        <time>2023-06-28T12:22:43Z</time>
      </trkpt>
      <trkpt lat="49.94416" lon="2.15085">
        <ele>13.1</ele>
        <time>2023-06-28T12:22:44Z</time>
      </trkpt>
      <trkpt lat="49.94415" lon="2.15084">
        <ele>13.1</ele>
        <time>2023-06-28T12:22:45Z</time>
      </trkpt>
      <trkpt lat="49.94414" lon="2.15083">
        <ele>13.1</ele>
        <time>2023-06-28T12:22:46Z</time>
      </trkpt>
      <trkpt lat="49.94413" lon="2.15081">
        <ele>13.1</ele>
        <time>2023-06-28T12:22:47Z</time>
      </trkpt>
      <trkpt lat="49.94413" lon="2.1508">
        <ele>13.1</ele>
        <time>2023-06-28T12:22:48Z</time>
      </trkpt>
      <trkpt lat="49.94412" lon="2.15079">
        <ele>13.1</ele>
        <time>2023-06-28T12:22:49Z</time>
      </trkpt>
      <trkpt lat="49.9441" lon="2.15077">
        <ele>13.2</ele>
        <time>2023-06-28T12:22:50Z</time>
      </trkpt>
      <trkpt lat="49.94409" lon="2.15077">
        <ele>13.2</ele>
        <time>2023-06-28T12:22:52Z</time>
      </trkpt>
      <trkpt lat="49.94408" lon="2.15076">
        <ele>13.2</ele>
        <time>2023-06-28T12:22:53Z</time>
      </trkpt>
      <trkpt lat="49.94407" lon="2.15075">
        <ele>13.2</ele>
        <time>2023-06-28T12:22:54Z</time>
      </trkpt>
      <trkpt lat="49.94406" lon="2.15074">
        <ele>13.2</ele>
        <time>2023-06-28T12:22:55Z</time>
      </trkpt>
      <trkpt lat="49.94405" lon="2.15073">
        <ele>13.2</ele>
        <time>2023-06-28T12:22:57Z</time>
      </trkpt>
      <trkpt lat="49.94403" lon="2.15073">
        <ele>13.3</ele>
        <time>2023-06-28T12:22:58Z</time>
      </trkpt>
      <trkpt lat="49.94402" lon="2.15072">
        <ele>13.3</ele>
        <time>2023-06-28T12:22:59Z</time>
      </trkpt>
      <trkpt lat="49.94401" lon="2.1507">
        <ele>13.3</ele>
        <time>2023-06-28T12:23:01Z</time>
      </trkpt>
      <trkpt lat="49.944" lon="2.15069">
        <ele>13.3</ele>
        <time>2023-06-28T12:23:02Z</time>
      </trkpt>
      <trkpt lat="49.94399" lon="2.15069">
        <ele>13.3</ele>
        <time>2023-06-28T12:23:03Z</time>
      </trkpt>
      <trkpt lat="49.94398" lon="2.15068">
        <ele>13.3</ele>
        <time>2023-06-28T12:23:04Z</time>
      </trkpt>
      <trkpt lat="49.94397" lon="2.15067">
        <ele>13.4</ele>
        <time>2023-06-28T12:23:05Z</time>
      </trkpt>
      <trkpt lat="49.94397" lon="2.15066">
        <ele>13.4</ele>
        <time>2023-06-28T12:23:06Z</time>
      </trkpt>
      <trkpt lat="49.94395" lon="2.15065">
        <ele>13.4</ele>
        <time>2023-06-28T12:23:07Z</time>
      </trkpt>
      <trkpt lat="49.94395" lon="2.15065">
        <ele>13.4</ele>
        <time>2023-06-28T12:23:08Z</time>
      </trkpt>
      <trkpt lat="49.94393" lon="2.15064">
        <ele>13.4</ele>
        <time>2023-06-28T12:23:10Z</time>
      </trkpt>
      <trkpt lat="49.94392" lon="2.15063">
        <ele>13.4</ele>
        <time>2023-06-28T12:23:11Z</time>
      </trkpt>
      <trkpt lat="49.94391" lon="2.15062">
        <ele>13.5</ele>
        <time>2023-06-28T12:23:12Z</time>
      </trkpt>
      <trkpt lat="49.9439" lon="2.15062">
        <ele>13.5</ele>
        <time>2023-06-28T12:23:13Z</time>
      </trkpt>
      <trkpt lat="49.94389" lon="2.15061">
        <ele>13.5</ele>
        <time>2023-06-28T12:23:14Z</time>
      </trkpt>
      <trkpt lat="49.94388" lon="2.1506">
        <ele>13.5</ele>
        <time>2023-06-28T12:23:15Z</time>
      </trkpt>
      <trkpt lat="49.94387" lon="2.15059">
        <ele>13.5</ele>
        <time>2023-06-28T12:23:16Z</time>
      </trkpt>
      <trkpt lat="49.94386" lon="2.15058">
        <ele>13.5</ele>
        <time>2023-06-28T12:23:17Z</time>
      </trkpt>
      <trkpt lat="49.94384" lon="2.15056">
        <ele>13.6</ele>
        <time>2023-06-28T12:23:19Z</time>
      </trkpt>
      <trkpt lat="49.94383" lon="2.15056">
        <ele>13.6</ele>
        <time>2023-06-28T12:23:20Z</time>
      </trkpt>
      <trkpt lat="49.94382" lon="2.15055">
        <ele>13.6</ele>
        <time>2023-06-28T12:23:21Z</time>
      </trkpt>
      <trkpt lat="49.9438" lon="2.15054">
        <ele>13.6</ele>
        <time>2023-06-28T12:23:23Z</time>
      </trkpt>
      <trkpt lat="49.94379" lon="2.15054">
        <ele>13.6</ele>
        <time>2023-06-28T12:23:24Z</time>
      </trkpt>
      <trkpt lat="49.94378" lon="2.15054">
        <ele>13.6</ele>
        <time>2023-06-28T12:23:25Z</time>
      </trkpt>
      <trkpt lat="49.94376" lon="2.15053">
        <ele>13.6</ele>
        <time>2023-06-28T12:23:26Z</time>
      </trkpt>
      <trkpt lat="49.94375" lon="2.15053">
        <ele>13.7</ele>
        <time>2023-06-28T12:23:27Z</time>
      </trkpt>
      <trkpt lat="49.94375" lon="2.15053">
        <ele>13.7</ele>
        <time>2023-06-28T12:23:28Z</time>
      </trkpt>
      <trkpt lat="49.94373" lon="2.15052">
        <ele>13.7</ele>
        <time>2023-06-28T12:23:29Z</time>
      </trkpt>
      <trkpt lat="49.94372" lon="2.15052">
        <ele>13.7</ele>
        <time>2023-06-28T12:23:30Z</time>
      </trkpt>
      <trkpt lat="49.9437" lon="2.15052">
        <ele>13.7</ele>
        <time>2023-06-28T12:23:31Z</time>
      </trkpt>
      <trkpt lat="49.94369" lon="2.15052">
        <ele>13.7</ele>
        <time>2023-06-28T12:23:33Z</time>
      </trkpt>
      <trkpt lat="49.94368" lon="2.15051">
        <ele>13.7</ele>
        <time>2023-06-28T12:23:34Z</time>
      </trkpt>
      <trkpt lat="49.94366" lon="2.15051">
        <ele>13.7</ele>
        <time>2023-06-28T12:23:35Z</time>
      </trkpt>
      <trkpt lat="49.94365" lon="2.15051">
        <ele>13.7</ele>
        <time>2023-06-28T12:23:36Z</time>
      </trkpt>
      <trkpt lat="49.94364" lon="2.15051">
        <ele>13.7</ele>
        <time>2023-06-28T12:23:37Z</time>
      </trkpt>
      <trkpt lat="49.94363" lon="2.15051">
        <ele>13.7</ele>
        <time>2023-06-28T12:23:38Z</time>
      </trkpt>
      <trkpt lat="49.94362" lon="2.15051">
        <ele>13.7</ele>
        <time>2023-06-28T12:23:40Z</time>
      </trkpt>
      <trkpt lat="49.94361" lon="2.15051">
        <ele>13.7</ele>
        <time>2023-06-28T12:23:41Z</time>
      </trkpt>
      <trkpt lat="49.9436" lon="2.15052">
        <ele>13.7</ele>
        <time>2023-06-28T12:23:42Z</time>
      </trkpt>
      <trkpt lat="49.94359" lon="2.15052">
        <ele>13.7</ele>
        <time>2023-06-28T12:23:43Z</time>
      </trkpt>
      <trkpt lat="49.94358" lon="2.15053">
        <ele>13.7</ele>
        <time>2023-06-28T12:23:44Z</time>
      </trkpt>
      <trkpt lat="49.94356" lon="2.15054">
        <ele>13.7</ele>
        <time>2023-06-28T12:23:45Z</time>
      </trkpt>
      <trkpt lat="49.94355" lon="2.15055">
        <ele>13.8</ele>
        <time>2023-06-28T12:23:46Z</time>
      </trkpt>
      <trkpt lat="49.94354" lon="2.15056">
        <ele>13.8</ele>
        <time>2023-06-28T12:23:48Z</time>
      </trkpt>
      <trkpt lat="49.94354" lon="2.15056">
        <ele>13.8</ele>
        <time>2023-06-28T12:23:49Z</time>
      </trkpt>
      <trkpt lat="49.94353" lon="2.15057">
        <ele>13.8</ele>
        <time>2023-06-28T12:23:50Z</time>
      </trkpt>
      <trkpt lat="49.94352" lon="2.15058">
        <ele>13.8</ele>
        <time>2023-06-28T12:23:51Z</time>
      </trkpt>
      <trkpt lat="49.9435" lon="2.1506">
        <ele>13.8</ele>
        <time>2023-06-28T12:23:52Z</time>
      </trkpt>
      <trkpt lat="49.9435" lon="2.15061">
        <ele>13.8</ele>
        <time>2023-06-28T12:23:53Z</time>
      </trkpt>
      <trkpt lat="49.94349" lon="2.15061">
        <ele>13.8</ele>
        <time>2023-06-28T12:23:54Z</time>
      </trkpt>
      <trkpt lat="49.94348" lon="2.15062">
        <ele>13.8</ele>
        <time>2023-06-28T12:23:55Z</time>
      </trkpt>
      <trkpt lat="49.94347" lon="2.15064">
        <ele>13.9</ele>
        <time>2023-06-28T12:23:56Z</time>
      </trkpt>
      <trkpt lat="49.94347" lon="2.15065">
        <ele>13.9</ele>
        <time>2023-06-28T12:23:58Z</time>
      </trkpt>
      <trkpt lat="49.94346" lon="2.15066">
        <ele>13.9</ele>
        <time>2023-06-28T12:23:59Z</time>
      </trkpt>
      <trkpt lat="49.94346" lon="2.15068">
        <ele>13.9</ele>
        <time>2023-06-28T12:24:00Z</time>
      </trkpt>
      <trkpt lat="49.94345" lon="2.15069">
        <ele>13.9</ele>
        <time>2023-06-28T12:24:01Z</time>
      </trkpt>
      <trkpt lat="49.94345" lon="2.1507">
        <ele>14</ele>
        <time>2023-06-28T12:24:02Z</time>
      </trkpt>
      <trkpt lat="49.94344" lon="2.15072">
        <ele>14</ele>
        <time>2023-06-28T12:24:03Z</time>
      </trkpt>
      <trkpt lat="49.94343" lon="2.15073">
        <ele>14</ele>
        <time>2023-06-28T12:24:04Z</time>
      </trkpt>
      <trkpt lat="49.94343" lon="2.15075">
        <ele>14.1</ele>
        <time>2023-06-28T12:24:05Z</time>
      </trkpt>
      <trkpt lat="49.94342" lon="2.15077">
        <ele>14.1</ele>
        <time>2023-06-28T12:24:07Z</time>
      </trkpt>
      <trkpt lat="49.94342" lon="2.15078">
        <ele>14.1</ele>
        <time>2023-06-28T12:24:08Z</time>
      </trkpt>
      <trkpt lat="49.94341" lon="2.1508">
        <ele>14.2</ele>
        <time>2023-06-28T12:24:09Z</time>
      </trkpt>
      <trkpt lat="49.94341" lon="2.15081">
        <ele>14.2</ele>
        <time>2023-06-28T12:24:10Z</time>
      </trkpt>
      <trkpt lat="49.9434" lon="2.15083">
        <ele>14.2</ele>
        <time>2023-06-28T12:24:11Z</time>
      </trkpt>
      <trkpt lat="49.94339" lon="2.15086">
        <ele>14.3</ele>
        <time>2023-06-28T12:24:12Z</time>
      </trkpt>
      <trkpt lat="49.94339" lon="2.15087">
        <ele>14.3</ele>
        <time>2023-06-28T12:24:13Z</time>
      </trkpt>
      <trkpt lat="49.94339" lon="2.15089">
        <ele>14.3</ele>
        <time>2023-06-28T12:24:14Z</time>
      </trkpt>
      <trkpt lat="49.94338" lon="2.15091">
        <ele>14.4</ele>
        <time>2023-06-28T12:24:16Z</time>
      </trkpt>
      <trkpt lat="49.94337" lon="2.15093">
        <ele>14.4</ele>
        <time>2023-06-28T12:24:17Z</time>
      </trkpt>
      <trkpt lat="49.94337" lon="2.15094">
        <ele>14.4</ele>
        <time>2023-06-28T12:24:18Z</time>
      </trkpt>
      <trkpt lat="49.94336" lon="2.15097">
        <ele>14.5</ele>
        <time>2023-06-28T12:24:19Z</time>
      </trkpt>
      <trkpt lat="49.94336" lon="2.15098">
        <ele>14.5</ele>
        <time>2023-06-28T12:24:20Z</time>
      </trkpt>
      <trkpt lat="49.94335" lon="2.15099">
        <ele>14.5</ele>
        <time>2023-06-28T12:24:21Z</time>
      </trkpt>
      <trkpt lat="49.94335" lon="2.15101">
        <ele>14.5</ele>
        <time>2023-06-28T12:24:22Z</time>
      </trkpt>
      <trkpt lat="49.94334" lon="2.15103">
        <ele>14.5</ele>
        <time>2023-06-28T12:24:23Z</time>
      </trkpt>
      <trkpt lat="49.94334" lon="2.15105">
        <ele>14.5</ele>
        <time>2023-06-28T12:24:25Z</time>
      </trkpt>
      <trkpt lat="49.94333" lon="2.15108">
        <ele>14.6</ele>
        <time>2023-06-28T12:24:26Z</time>
      </trkpt>
      <trkpt lat="49.94332" lon="2.15109">
        <ele>14.6</ele>
        <time>2023-06-28T12:24:27Z</time>
      </trkpt>
      <trkpt lat="49.94332" lon="2.1511">
        <ele>14.6</ele>
        <time>2023-06-28T12:24:28Z</time>
      </trkpt>
      <trkpt lat="49.94331" lon="2.15112">
        <ele>14.6</ele>
        <time>2023-06-28T12:24:29Z</time>
      </trkpt>
      <trkpt lat="49.94331" lon="2.15114">
        <ele>14.6</ele>
        <time>2023-06-28T12:24:30Z</time>
      </trkpt>
      <trkpt lat="49.9433" lon="2.15117">
        <ele>14.6</ele>
        <time>2023-06-28T12:24:32Z</time>
      </trkpt>
      <trkpt lat="49.9433" lon="2.15119">
        <ele>14.6</ele>
        <time>2023-06-28T12:24:33Z</time>
      </trkpt>
      <trkpt lat="49.94329" lon="2.15121">
        <ele>14.6</ele>
        <time>2023-06-28T12:24:35Z</time>
      </trkpt>
      <trkpt lat="49.94328" lon="2.15123">
        <ele>14.6</ele>
        <time>2023-06-28T12:24:36Z</time>
      </trkpt>
      <trkpt lat="49.94327" lon="2.15125">
        <ele>14.6</ele>
        <time>2023-06-28T12:24:37Z</time>
      </trkpt>
      <trkpt lat="49.94326" lon="2.15127">
        <ele>14.6</ele>
        <time>2023-06-28T12:24:38Z</time>
      </trkpt>
      <trkpt lat="49.94325" lon="2.15128">
        <ele>14.7</ele>
        <time>2023-06-28T12:24:39Z</time>
      </trkpt>
      <trkpt lat="49.94324" lon="2.1513">
        <ele>14.7</ele>
        <time>2023-06-28T12:24:40Z</time>
      </trkpt>
      <trkpt lat="49.94323" lon="2.15131">
        <ele>14.7</ele>
        <time>2023-06-28T12:24:42Z</time>
      </trkpt>
      <trkpt lat="49.94322" lon="2.15133">
        <ele>14.7</ele>
        <time>2023-06-28T12:24:43Z</time>
      </trkpt>
      <trkpt lat="49.94321" lon="2.15134">
        <ele>14.7</ele>
        <time>2023-06-28T12:24:44Z</time>
      </trkpt>
      <trkpt lat="49.94321" lon="2.15137">
        <ele>14.7</ele>
        <time>2023-06-28T12:24:45Z</time>
      </trkpt>
      <trkpt lat="49.9432" lon="2.1514">
        <ele>14.7</ele>
        <time>2023-06-28T12:24:47Z</time>
      </trkpt>
      <trkpt lat="49.9432" lon="2.15141">
        <ele>14.7</ele>
        <time>2023-06-28T12:24:48Z</time>
      </trkpt>
      <trkpt lat="49.9432" lon="2.15143">
        <ele>14.6</ele>
        <time>2023-06-28T12:24:49Z</time>
      </trkpt>
      <trkpt lat="49.9432" lon="2.15144">
        <ele>14.6</ele>
        <time>2023-06-28T12:24:50Z</time>
      </trkpt>
      <trkpt lat="49.9432" lon="2.15146">
        <ele>14.6</ele>
        <time>2023-06-28T12:24:51Z</time>
      </trkpt>
      <trkpt lat="49.9432" lon="2.15148">
        <ele>14.6</ele>
        <time>2023-06-28T12:24:52Z</time>
      </trkpt>
      <trkpt lat="49.9432" lon="2.15149">
        <ele>14.6</ele>
        <time>2023-06-28T12:24:54Z</time>
      </trkpt>
      <trkpt lat="49.9432" lon="2.15151">
        <ele>14.6</ele>
        <time>2023-06-28T12:24:55Z</time>
      </trkpt>
      <trkpt lat="49.9432" lon="2.15151">
        <ele>14.6</ele>
        <time>2023-06-28T12:24:56Z</time>
      </trkpt>
      <trkpt lat="49.9432" lon="2.15152">
        <ele>14.6</ele>
        <time>2023-06-28T12:24:57Z</time>
      </trkpt>
      <trkpt lat="49.9432" lon="2.15154">
        <ele>14.6</ele>
        <time>2023-06-28T12:24:58Z</time>
      </trkpt>
      <trkpt lat="49.9432" lon="2.15156">
        <ele>14.6</ele>
        <time>2023-06-28T12:24:59Z</time>
      </trkpt>
      <trkpt lat="49.9432" lon="2.15158">
        <ele>14.5</ele>
        <time>2023-06-28T12:25:00Z</time>
      </trkpt>
      <trkpt lat="49.9432" lon="2.15161">
        <ele>14.5</ele>
        <time>2023-06-28T12:25:02Z</time>
      </trkpt>
      <trkpt lat="49.94321" lon="2.15162">
        <ele>14.5</ele>
        <time>2023-06-28T12:25:03Z</time>
      </trkpt>
      <trkpt lat="49.94321" lon="2.15164">
        <ele>14.5</ele>
        <time>2023-06-28T12:25:04Z</time>
      </trkpt>
      <trkpt lat="49.94321" lon="2.15167">
        <ele>14.5</ele>
        <time>2023-06-28T12:25:05Z</time>
      </trkpt>
      <trkpt lat="49.94321" lon="2.15168">
        <ele>14.5</ele>
        <time>2023-06-28T12:25:06Z</time>
      </trkpt>
      <trkpt lat="49.94321" lon="2.1517">
        <ele>14.5</ele>
        <time>2023-06-28T12:25:07Z</time>
      </trkpt>
      <trkpt lat="49.94322" lon="2.15172">
        <ele>14.4</ele>
        <time>2023-06-28T12:25:08Z</time>
      </trkpt>
      <trkpt lat="49.94322" lon="2.15174">
        <ele>14.4</ele>
        <time>2023-06-28T12:25:09Z</time>
      </trkpt>
      <trkpt lat="49.94323" lon="2.15177">
        <ele>14.4</ele>
        <time>2023-06-28T12:25:10Z</time>
      </trkpt>
      <trkpt lat="49.94323" lon="2.15178">
        <ele>14.4</ele>
        <time>2023-06-28T12:25:12Z</time>
      </trkpt>
      <trkpt lat="49.94323" lon="2.1518">
        <ele>14.4</ele>
        <time>2023-06-28T12:25:13Z</time>
      </trkpt>
      <trkpt lat="49.94324" lon="2.15181">
        <ele>14.4</ele>
        <time>2023-06-28T12:25:14Z</time>
      </trkpt>
      <trkpt lat="49.94324" lon="2.15184">
        <ele>14.4</ele>
        <time>2023-06-28T12:25:16Z</time>
      </trkpt>
      <trkpt lat="49.94325" lon="2.15186">
        <ele>14.3</ele>
        <time>2023-06-28T12:25:17Z</time>
      </trkpt>
      <trkpt lat="49.94325" lon="2.15189">
        <ele>14.3</ele>
        <time>2023-06-28T12:25:18Z</time>
      </trkpt>
      <trkpt lat="49.94325" lon="2.15191">
        <ele>14.3</ele>
        <time>2023-06-28T12:25:19Z</time>
      </trkpt>
      <trkpt lat="49.94325" lon="2.15193">
        <ele>14.3</ele>
        <time>2023-06-28T12:25:20Z</time>
      </trkpt>
      <trkpt lat="49.94324" lon="2.15195">
        <ele>14.3</ele>
        <time>2023-06-28T12:25:22Z</time>
      </trkpt>
      <trkpt lat="49.94324" lon="2.15197">
        <ele>14.3</ele>
        <time>2023-06-28T12:25:23Z</time>
      </trkpt>
      <trkpt lat="49.94324" lon="2.152">
        <ele>14.3</ele>
        <time>2023-06-28T12:25:24Z</time>
      </trkpt>
      <trkpt lat="49.94324" lon="2.15202">
        <ele>14.3</ele>
        <time>2023-06-28T12:25:25Z</time>
      </trkpt>
      <trkpt lat="49.94323" lon="2.15205">
        <ele>14.3</ele>
        <time>2023-06-28T12:25:27Z</time>
      </trkpt>
      <trkpt lat="49.94323" lon="2.15207">
        <ele>14.3</ele>
        <time>2023-06-28T12:25:28Z</time>
      </trkpt>
      <trkpt lat="49.94323" lon="2.15208">
        <ele>14.3</ele>
        <time>2023-06-28T12:25:29Z</time>
      </trkpt>
      <trkpt lat="49.94323" lon="2.15211">
        <ele>14.3</ele>
        <time>2023-06-28T12:25:30Z</time>
      </trkpt>
      <trkpt lat="49.94324" lon="2.15212">
        <ele>14.3</ele>
        <time>2023-06-28T12:25:31Z</time>
      </trkpt>
      <trkpt lat="49.94324" lon="2.15214">
        <ele>14.3</ele>
        <time>2023-06-28T12:25:32Z</time>
      </trkpt>
      <trkpt lat="49.94324" lon="2.15215">
        <ele>14.3</ele>
        <time>2023-06-28T12:25:33Z</time>
      </trkpt>
      <trkpt lat="49.94324" lon="2.15218">
        <ele>14.3</ele>
        <time>2023-06-28T12:25:35Z</time>
      </trkpt>
      <trkpt lat="49.94324" lon="2.1522">
        <ele>14.3</ele>
        <time>2023-06-28T12:25:36Z</time>
      </trkpt>
      <trkpt lat="49.94325" lon="2.15222">
        <ele>14.3</ele>
        <time>2023-06-28T12:25:37Z</time>
      </trkpt>
      <trkpt lat="49.94325" lon="2.15223">
        <ele>14.3</ele>
        <time>2023-06-28T12:25:38Z</time>
      </trkpt>
      <trkpt lat="49.94325" lon="2.15225">
        <ele>14.2</ele>
        <time>2023-06-28T12:25:39Z</time>
      </trkpt>
      <trkpt lat="49.94325" lon="2.15228">
        <ele>14.2</ele>
        <time>2023-06-28T12:25:41Z</time>
      </trkpt>
      <trkpt lat="49.94325" lon="2.15229">
        <ele>14.2</ele>
        <time>2023-06-28T12:25:43Z</time>
      </trkpt>
      <trkpt lat="49.94325" lon="2.15231">
        <ele>14.2</ele>
        <time>2023-06-28T12:25:44Z</time>
      </trkpt>
      <trkpt lat="49.94325" lon="2.15232">
        <ele>14.2</ele>
        <time>2023-06-28T12:25:45Z</time>
      </trkpt>
      <trkpt lat="49.94325" lon="2.15236">
        <ele>14.2</ele>
        <time>2023-06-28T12:25:46Z</time>
      </trkpt>
      <trkpt lat="49.94325" lon="2.15237">
        <ele>14.2</ele>
        <time>2023-06-28T12:25:48Z</time>
      </trkpt>
      <trkpt lat="49.94325" lon="2.15239">
        <ele>14.2</ele>
        <time>2023-06-28T12:25:49Z</time>
      </trkpt>
      <trkpt lat="49.94325" lon="2.15242">
        <ele>14.2</ele>
        <time>2023-06-28T12:25:50Z</time>
      </trkpt>
      <trkpt lat="49.94325" lon="2.15243">
        <ele>14.2</ele>
        <time>2023-06-28T12:25:51Z</time>
      </trkpt>
      <trkpt lat="49.94325" lon="2.15245">
        <ele>14.1</ele>
        <time>2023-06-28T12:25:52Z</time>
      </trkpt>
      <trkpt lat="49.94325" lon="2.15247">
        <ele>14.1</ele>
        <time>2023-06-28T12:25:53Z</time>
      </trkpt>
      <trkpt lat="49.94325" lon="2.15249">
        <ele>14.1</ele>
        <time>2023-06-28T12:25:54Z</time>
      </trkpt>
      <trkpt lat="49.94325" lon="2.15252">
        <ele>14.1</ele>
        <time>2023-06-28T12:25:56Z</time>
      </trkpt>
      <trkpt lat="49.94325" lon="2.15254">
        <ele>14.1</ele>
        <time>2023-06-28T12:25:57Z</time>
      </trkpt>
      <trkpt lat="49.94325" lon="2.15257">
        <ele>14.1</ele>
        <time>2023-06-28T12:25:58Z</time>
      </trkpt>
      <trkpt lat="49.94325" lon="2.15258">
        <ele>14.1</ele>
        <time>2023-06-28T12:25:59Z</time>
      </trkpt>
      <trkpt lat="49.94325" lon="2.1526">
        <ele>14.1</ele>
        <time>2023-06-28T12:26:00Z</time>
      </trkpt>
      <trkpt lat="49.94326" lon="2.15263">
        <ele>14.1</ele>
        <time>2023-06-28T12:26:01Z</time>
      </trkpt>
      <trkpt lat="49.94326" lon="2.15264">
        <ele>14.1</ele>
        <time>2023-06-28T12:26:03Z</time>
      </trkpt>
      <trkpt lat="49.94326" lon="2.15265">
        <ele>14.1</ele>
        <time>2023-06-28T12:26:04Z</time>
      </trkpt>
      <trkpt lat="49.94327" lon="2.15268">
        <ele>14.1</ele>
        <time>2023-06-28T12:26:05Z</time>
      </trkpt>
      <trkpt lat="49.94327" lon="2.1527">
        <ele>14.1</ele>
        <time>2023-06-28T12:26:06Z</time>
      </trkpt>
      <trkpt lat="49.94327" lon="2.15271">
        <ele>14.1</ele>
        <time>2023-06-28T12:26:07Z</time>
      </trkpt>
      <trkpt lat="49.94327" lon="2.15274">
        <ele>14.1</ele>
        <time>2023-06-28T12:26:08Z</time>
      </trkpt>
      <trkpt lat="49.94327" lon="2.15275">
        <ele>14.1</ele>
        <time>2023-06-28T12:26:09Z</time>
      </trkpt>
      <trkpt lat="49.94327" lon="2.15277">
        <ele>14.2</ele>
        <time>2023-06-28T12:26:10Z</time>
      </trkpt>
      <trkpt lat="49.94328" lon="2.1528">
        <ele>14.2</ele>
        <time>2023-06-28T12:26:12Z</time>
      </trkpt>
      <trkpt lat="49.94328" lon="2.15281">
        <ele>14.2</ele>
        <time>2023-06-28T12:26:13Z</time>
      </trkpt>
      <trkpt lat="49.94328" lon="2.15283">
        <ele>14.2</ele>
        <time>2023-06-28T12:26:14Z</time>
      </trkpt>
      <trkpt lat="49.94328" lon="2.15286">
        <ele>14.2</ele>
        <time>2023-06-28T12:26:15Z</time>
      </trkpt>
      <trkpt lat="49.94328" lon="2.15288">
        <ele>14.2</ele>
        <time>2023-06-28T12:26:17Z</time>
      </trkpt>
      <trkpt lat="49.94328" lon="2.1529">
        <ele>14.2</ele>
        <time>2023-06-28T12:26:18Z</time>
      </trkpt>
      <trkpt lat="49.94329" lon="2.15292">
        <ele>14.2</ele>
        <time>2023-06-28T12:26:19Z</time>
      </trkpt>
      <trkpt lat="49.94329" lon="2.15294">
        <ele>14.2</ele>
        <time>2023-06-28T12:26:20Z</time>
      </trkpt>
      <trkpt lat="49.94328" lon="2.15296">
        <ele>14.3</ele>
        <time>2023-06-28T12:26:22Z</time>
      </trkpt>
      <trkpt lat="49.94328" lon="2.15299">
        <ele>14.3</ele>
        <time>2023-06-28T12:26:23Z</time>
      </trkpt>
      <trkpt lat="49.94328" lon="2.15302">
        <ele>14.3</ele>
        <time>2023-06-28T12:26:24Z</time>
      </trkpt>
      <trkpt lat="49.94328" lon="2.15303">
        <ele>14.3</ele>
        <time>2023-06-28T12:26:25Z</time>
      </trkpt>
      <trkpt lat="49.94328" lon="2.15305">
        <ele>14.3</ele>
        <time>2023-06-28T12:26:26Z</time>
      </trkpt>
      <trkpt lat="49.94328" lon="2.15308">
        <ele>14.3</ele>
        <time>2023-06-28T12:26:27Z</time>
      </trkpt>
      <trkpt lat="49.94328" lon="2.1531">
        <ele>14.3</ele>
        <time>2023-06-28T12:26:28Z</time>
      </trkpt>
      <trkpt lat="49.94329" lon="2.15311">
        <ele>14.3</ele>
        <time>2023-06-28T12:26:29Z</time>
      </trkpt>
      <trkpt lat="49.94329" lon="2.15314">
        <ele>14.4</ele>
        <time>2023-06-28T12:26:30Z</time>
      </trkpt>
      <trkpt lat="49.94329" lon="2.15315">
        <ele>14.4</ele>
        <time>2023-06-28T12:26:32Z</time>
      </trkpt>
      <trkpt lat="49.94329" lon="2.15317">
        <ele>14.4</ele>
        <time>2023-06-28T12:26:33Z</time>
      </trkpt>
      <trkpt lat="49.94329" lon="2.15318">
        <ele>14.4</ele>
        <time>2023-06-28T12:26:34Z</time>
      </trkpt>
      <trkpt lat="49.94329" lon="2.1532">
        <ele>14.4</ele>
        <time>2023-06-28T12:26:35Z</time>
      </trkpt>
      <trkpt lat="49.94329" lon="2.15323">
        <ele>14.4</ele>
        <time>2023-06-28T12:26:37Z</time>
      </trkpt>
      <trkpt lat="49.94329" lon="2.15326">
        <ele>14.4</ele>
        <time>2023-06-28T12:26:38Z</time>
      </trkpt>
      <trkpt lat="49.94329" lon="2.15327">
        <ele>14.4</ele>
        <time>2023-06-28T12:26:39Z</time>
      </trkpt>
      <trkpt lat="49.94329" lon="2.15328">
        <ele>14.5</ele>
        <time>2023-06-28T12:26:40Z</time>
      </trkpt>
      <trkpt lat="49.9433" lon="2.1533">
        <ele>14.5</ele>
        <time>2023-06-28T12:26:41Z</time>
      </trkpt>
      <trkpt lat="49.9433" lon="2.15332">
        <ele>14.5</ele>
        <time>2023-06-28T12:26:42Z</time>
      </trkpt>
      <trkpt lat="49.9433" lon="2.15334">
        <ele>14.5</ele>
        <time>2023-06-28T12:26:43Z</time>
      </trkpt>
      <trkpt lat="49.9433" lon="2.15336">
        <ele>14.5</ele>
        <time>2023-06-28T12:26:45Z</time>
      </trkpt>
      <trkpt lat="49.94331" lon="2.15338">
        <ele>14.5</ele>
        <time>2023-06-28T12:26:46Z</time>
      </trkpt>
      <trkpt lat="49.94331" lon="2.15341">
        <ele>14.5</ele>
        <time>2023-06-28T12:26:47Z</time>
      </trkpt>
      <trkpt lat="49.94332" lon="2.15342">
        <ele>14.5</ele>
        <time>2023-06-28T12:26:48Z</time>
      </trkpt>
      <trkpt lat="49.94332" lon="2.15344">
        <ele>14.5</ele>
        <time>2023-06-28T12:26:49Z</time>
      </trkpt>
      <trkpt lat="49.94332" lon="2.15346">
        <ele>14.6</ele>
        <time>2023-06-28T12:26:50Z</time>
      </trkpt>
      <trkpt lat="49.94333" lon="2.15348">
        <ele>14.6</ele>
        <time>2023-06-28T12:26:51Z</time>
      </trkpt>
      <trkpt lat="49.94333" lon="2.15351">
        <ele>14.6</ele>
        <time>2023-06-28T12:26:53Z</time>
      </trkpt>
      <trkpt lat="49.94333" lon="2.15352">
        <ele>14.6</ele>
        <time>2023-06-28T12:26:54Z</time>
      </trkpt>
      <trkpt lat="49.94334" lon="2.15353">
        <ele>14.6</ele>
        <time>2023-06-28T12:26:55Z</time>
      </trkpt>
      <trkpt lat="49.94334" lon="2.15356">
        <ele>14.6</ele>
        <time>2023-06-28T12:26:57Z</time>
      </trkpt>
      <trkpt lat="49.94334" lon="2.15358">
        <ele>14.6</ele>
        <time>2023-06-28T12:26:58Z</time>
      </trkpt>
      <trkpt lat="49.94334" lon="2.1536">
        <ele>14.6</ele>
        <time>2023-06-28T12:26:59Z</time>
      </trkpt>
      <trkpt lat="49.94333" lon="2.15361">
        <ele>14.6</ele>
        <time>2023-06-28T12:27:00Z</time>
      </trkpt>
      <trkpt lat="49.94333" lon="2.15363">
        <ele>14.6</ele>
        <time>2023-06-28T12:27:01Z</time>
      </trkpt>
      <trkpt lat="49.94332" lon="2.15366">
        <ele>14.6</ele>
        <time>2023-06-28T12:27:03Z</time>
      </trkpt>
      <trkpt lat="49.94332" lon="2.15368">
        <ele>14.6</ele>
        <time>2023-06-28T12:27:04Z</time>
      </trkpt>
      <trkpt lat="49.94331" lon="2.15369">
        <ele>14.6</ele>
        <time>2023-06-28T12:27:05Z</time>
      </trkpt>
      <trkpt lat="49.9433" lon="2.15371">
        <ele>14.6</ele>
        <time>2023-06-28T12:27:06Z</time>
      </trkpt>
      <trkpt lat="49.94329" lon="2.15372">
        <ele>14.6</ele>
        <time>2023-06-28T12:27:07Z</time>
      </trkpt>
      <trkpt lat="49.94328" lon="2.15374">
        <ele>14.6</ele>
        <time>2023-06-28T12:27:08Z</time>
      </trkpt>
      <trkpt lat="49.94328" lon="2.15376">
        <ele>14.6</ele>
        <time>2023-06-28T12:27:09Z</time>
      </trkpt>
      <trkpt lat="49.94327" lon="2.15378">
        <ele>14.6</ele>
        <time>2023-06-28T12:27:10Z</time>
      </trkpt>
      <trkpt lat="49.94326" lon="2.1538">
        <ele>14.6</ele>
        <time>2023-06-28T12:27:11Z</time>
      </trkpt>
      <trkpt lat="49.94325" lon="2.15383">
        <ele>14.6</ele>
        <time>2023-06-28T12:27:13Z</time>
      </trkpt>
      <trkpt lat="49.94324" lon="2.15384">
        <ele>14.6</ele>
        <time>2023-06-28T12:27:14Z</time>
      </trkpt>
      <trkpt lat="49.94324" lon="2.15385">
        <ele>14.6</ele>
        <time>2023-06-28T12:27:15Z</time>
      </trkpt>
      <trkpt lat="49.94323" lon="2.15388">
        <ele>14.6</ele>
        <time>2023-06-28T12:27:16Z</time>
      </trkpt>
      <trkpt lat="49.94322" lon="2.15389">
        <ele>14.6</ele>
        <time>2023-06-28T12:27:18Z</time>
      </trkpt>
      <trkpt lat="49.94322" lon="2.1539">
        <ele>14.6</ele>
        <time>2023-06-28T12:27:19Z</time>
      </trkpt>
      <trkpt lat="49.94322" lon="2.15392">
        <ele>14.6</ele>
        <time>2023-06-28T12:27:20Z</time>
      </trkpt>
      <trkpt lat="49.94321" lon="2.15395">
        <ele>14.6</ele>
        <time>2023-06-28T12:27:21Z</time>
      </trkpt>
      <trkpt lat="49.94321" lon="2.15398">
        <ele>14.6</ele>
        <time>2023-06-28T12:27:22Z</time>
      </trkpt>
      <trkpt lat="49.94321" lon="2.15399">
        <ele>14.7</ele>
        <time>2023-06-28T12:27:23Z</time>
      </trkpt>
      <trkpt lat="49.94321" lon="2.15401">
        <ele>14.7</ele>
        <time>2023-06-28T12:27:24Z</time>
      </trkpt>
      <trkpt lat="49.94321" lon="2.15403">
        <ele>14.7</ele>
        <time>2023-06-28T12:27:25Z</time>
      </trkpt>
      <trkpt lat="49.94321" lon="2.15405">
        <ele>14.7</ele>
        <time>2023-06-28T12:27:26Z</time>
      </trkpt>
      <trkpt lat="49.9432" lon="2.15407">
        <ele>14.7</ele>
        <time>2023-06-28T12:27:28Z</time>
      </trkpt>
      <trkpt lat="49.9432" lon="2.15411">
        <ele>14.7</ele>
        <time>2023-06-28T12:27:29Z</time>
      </trkpt>
      <trkpt lat="49.9432" lon="2.15412">
        <ele>14.7</ele>
        <time>2023-06-28T12:27:30Z</time>
      </trkpt>
      <trkpt lat="49.94319" lon="2.15414">
        <ele>14.7</ele>
        <time>2023-06-28T12:27:31Z</time>
      </trkpt>
      <trkpt lat="49.94319" lon="2.15416">
        <ele>14.7</ele>
        <time>2023-06-28T12:27:32Z</time>
      </trkpt>
      <trkpt lat="49.94319" lon="2.15418">
        <ele>14.7</ele>
        <time>2023-06-28T12:27:33Z</time>
      </trkpt>
      <trkpt lat="49.94318" lon="2.1542">
        <ele>14.7</ele>
        <time>2023-06-28T12:27:34Z</time>
      </trkpt>
      <trkpt lat="49.94318" lon="2.15422">
        <ele>14.7</ele>
        <time>2023-06-28T12:27:35Z</time>
      </trkpt>
      <trkpt lat="49.94317" lon="2.15423">
        <ele>14.7</ele>
        <time>2023-06-28T12:27:36Z</time>
      </trkpt>
      <trkpt lat="49.94317" lon="2.15427">
        <ele>14.7</ele>
        <time>2023-06-28T12:27:38Z</time>
      </trkpt>
      <trkpt lat="49.94317" lon="2.15428">
        <ele>14.7</ele>
        <time>2023-06-28T12:27:39Z</time>
      </trkpt>
      <trkpt lat="49.94317" lon="2.1543">
        <ele>14.7</ele>
        <time>2023-06-28T12:27:40Z</time>
      </trkpt>
      <trkpt lat="49.94316" lon="2.15432">
        <ele>14.7</ele>
        <time>2023-06-28T12:27:41Z</time>
      </trkpt>
      <trkpt lat="49.94315" lon="2.15434">
        <ele>14.8</ele>
        <time>2023-06-28T12:27:42Z</time>
      </trkpt>
      <trkpt lat="49.94314" lon="2.15437">
        <ele>14.8</ele>
        <time>2023-06-28T12:27:44Z</time>
      </trkpt>
      <trkpt lat="49.94314" lon="2.15438">
        <ele>14.8</ele>
        <time>2023-06-28T12:27:45Z</time>
      </trkpt>
      <trkpt lat="49.94314" lon="2.15439">
        <ele>14.8</ele>
        <time>2023-06-28T12:27:46Z</time>
      </trkpt>
      <trkpt lat="49.94313" lon="2.15443">
        <ele>14.8</ele>
        <time>2023-06-28T12:27:47Z</time>
      </trkpt>
      <trkpt lat="49.94313" lon="2.15444">
        <ele>14.8</ele>
        <time>2023-06-28T12:27:48Z</time>
      </trkpt>
      <trkpt lat="49.94312" lon="2.15445">
        <ele>14.8</ele>
        <time>2023-06-28T12:27:49Z</time>
      </trkpt>
      <trkpt lat="49.94313" lon="2.15446">
        <ele>14.8</ele>
        <time>2023-06-28T12:27:50Z</time>
      </trkpt>
      <trkpt lat="49.94313" lon="2.15448">
        <ele>14.8</ele>
        <time>2023-06-28T12:27:51Z</time>
      </trkpt>
      <trkpt lat="49.94313" lon="2.1545">
        <ele>14.8</ele>
        <time>2023-06-28T12:27:52Z</time>
      </trkpt>
      <trkpt lat="49.94313" lon="2.15452">
        <ele>14.8</ele>
        <time>2023-06-28T12:27:54Z</time>
      </trkpt>
      <trkpt lat="49.94312" lon="2.15454">
        <ele>14.8</ele>
        <time>2023-06-28T12:27:55Z</time>
      </trkpt>
      <trkpt lat="49.94312" lon="2.15456">
        <ele>14.8</ele>
        <time>2023-06-28T12:27:56Z</time>
      </trkpt>
      <trkpt lat="49.94312" lon="2.15459">
        <ele>14.8</ele>
        <time>2023-06-28T12:27:57Z</time>
      </trkpt>
      <trkpt lat="49.94311" lon="2.15461">
        <ele>14.9</ele>
        <time>2023-06-28T12:27:58Z</time>
      </trkpt>
      <trkpt lat="49.94311" lon="2.15464">
        <ele>14.9</ele>
        <time>2023-06-28T12:28:00Z</time>
      </trkpt>
      <trkpt lat="49.94311" lon="2.15467">
        <ele>14.9</ele>
        <time>2023-06-28T12:28:01Z</time>
      </trkpt>
      <trkpt lat="49.94311" lon="2.15469">
        <ele>14.9</ele>
        <time>2023-06-28T12:28:02Z</time>
      </trkpt>
      <trkpt lat="49.9431" lon="2.15471">
        <ele>14.9</ele>
        <time>2023-06-28T12:28:03Z</time>
      </trkpt>
      <trkpt lat="49.9431" lon="2.15473">
        <ele>14.9</ele>
        <time>2023-06-28T12:28:04Z</time>
      </trkpt>
      <trkpt lat="49.9431" lon="2.15476">
        <ele>14.9</ele>
        <time>2023-06-28T12:28:05Z</time>
      </trkpt>
      <trkpt lat="49.9431" lon="2.15478">
        <ele>14.9</ele>
        <time>2023-06-28T12:28:06Z</time>
      </trkpt>
      <trkpt lat="49.9431" lon="2.1548">
        <ele>14.9</ele>
        <time>2023-06-28T12:28:07Z</time>
      </trkpt>
      <trkpt lat="49.94309" lon="2.15483">
        <ele>15</ele>
        <time>2023-06-28T12:28:09Z</time>
      </trkpt>
      <trkpt lat="49.94309" lon="2.15485">
        <ele>15</ele>
        <time>2023-06-28T12:28:10Z</time>
      </trkpt>
      <trkpt lat="49.94309" lon="2.15487">
        <ele>15</ele>
        <time>2023-06-28T12:28:11Z</time>
      </trkpt>
      <trkpt lat="49.94309" lon="2.15489">
        <ele>15</ele>
        <time>2023-06-28T12:28:12Z</time>
      </trkpt>
      <trkpt lat="49.94309" lon="2.15491">
        <ele>15</ele>
        <time>2023-06-28T12:28:13Z</time>
      </trkpt>
      <trkpt lat="49.94308" lon="2.15495">
        <ele>15</ele>
        <time>2023-06-28T12:28:14Z</time>
      </trkpt>
      <trkpt lat="49.94308" lon="2.15496">
        <ele>15</ele>
        <time>2023-06-28T12:28:16Z</time>
      </trkpt>
      <trkpt lat="49.94308" lon="2.15497">
        <ele>15</ele>
        <time>2023-06-28T12:28:17Z</time>
      </trkpt>
      <trkpt lat="49.94308" lon="2.15499">
        <ele>15</ele>
        <time>2023-06-28T12:28:18Z</time>
      </trkpt>
      <trkpt lat="49.94307" lon="2.155">
        <ele>15</ele>
        <time>2023-06-28T12:28:20Z</time>
      </trkpt>
      <trkpt lat="49.94307" lon="2.15502">
        <ele>15</ele>
        <time>2023-06-28T12:28:21Z</time>
      </trkpt>
      <trkpt lat="49.94307" lon="2.15504">
        <ele>15.1</ele>
        <time>2023-06-28T12:28:22Z</time>
      </trkpt>
      <trkpt lat="49.94306" lon="2.15506">
        <ele>15.1</ele>
        <time>2023-06-28T12:28:23Z</time>
      </trkpt>
      <trkpt lat="49.94305" lon="2.15508">
        <ele>15.1</ele>
        <time>2023-06-28T12:28:24Z</time>
      </trkpt>
      <trkpt lat="49.94304" lon="2.1551">
        <ele>15.1</ele>
        <time>2023-06-28T12:28:25Z</time>
      </trkpt>
      <trkpt lat="49.94304" lon="2.15512">
        <ele>15.1</ele>
        <time>2023-06-28T12:28:27Z</time>
      </trkpt>
      <trkpt lat="49.94303" lon="2.15514">
        <ele>15.1</ele>
        <time>2023-06-28T12:28:28Z</time>
      </trkpt>
      <trkpt lat="49.94302" lon="2.15515">
        <ele>15.2</ele>
        <time>2023-06-28T12:28:29Z</time>
      </trkpt>
      <trkpt lat="49.94301" lon="2.15518">
        <ele>15.2</ele>
        <time>2023-06-28T12:28:30Z</time>
      </trkpt>
      <trkpt lat="49.943" lon="2.1552">
        <ele>15.2</ele>
        <time>2023-06-28T12:28:32Z</time>
      </trkpt>
      <trkpt lat="49.94299" lon="2.15521">
        <ele>15.2</ele>
        <time>2023-06-28T12:28:33Z</time>
      </trkpt>
      <trkpt lat="49.94298" lon="2.15522">
        <ele>15.2</ele>
        <time>2023-06-28T12:28:34Z</time>
      </trkpt>
      <trkpt lat="49.94297" lon="2.15524">
        <ele>15.2</ele>
        <time>2023-06-28T12:28:35Z</time>
      </trkpt>
      <trkpt lat="49.94296" lon="2.15526">
        <ele>15.3</ele>
        <time>2023-06-28T12:28:36Z</time>
      </trkpt>
      <trkpt lat="49.94295" lon="2.15527">
        <ele>15.3</ele>
        <time>2023-06-28T12:28:38Z</time>
      </trkpt>
      <trkpt lat="49.94294" lon="2.15527">
        <ele>15.3</ele>
        <time>2023-06-28T12:28:39Z</time>
      </trkpt>
      <trkpt lat="49.94293" lon="2.15529">
        <ele>15.3</ele>
        <time>2023-06-28T12:28:40Z</time>
      </trkpt>
      <trkpt lat="49.94293" lon="2.1553">
        <ele>15.3</ele>
        <time>2023-06-28T12:28:41Z</time>
      </trkpt>
      <trkpt lat="49.94292" lon="2.15531">
        <ele>15.3</ele>
        <time>2023-06-28T12:28:42Z</time>
      </trkpt>
      <trkpt lat="49.94291" lon="2.15532">
        <ele>15.3</ele>
        <time>2023-06-28T12:28:43Z</time>
      </trkpt>
      <trkpt lat="49.9429" lon="2.15534">
        <ele>15.3</ele>
        <time>2023-06-28T12:28:45Z</time>
      </trkpt>
      <trkpt lat="49.94289" lon="2.15535">
        <ele>15.3</ele>
        <time>2023-06-28T12:28:46Z</time>
      </trkpt>
      <trkpt lat="49.94289" lon="2.15536">
        <ele>15.3</ele>
        <time>2023-06-28T12:28:47Z</time>
      </trkpt>
      <trkpt lat="49.94288" lon="2.15537">
        <ele>15.3</ele>
        <time>2023-06-28T12:28:48Z</time>
      </trkpt>
      <trkpt lat="49.94287" lon="2.15539">
        <ele>15.3</ele>
        <time>2023-06-28T12:28:49Z</time>
      </trkpt>
      <trkpt lat="49.94287" lon="2.1554">
        <ele>15.3</ele>
        <time>2023-06-28T12:28:50Z</time>
      </trkpt>
      <trkpt lat="49.94286" lon="2.15542">
        <ele>15.3</ele>
        <time>2023-06-28T12:28:52Z</time>
      </trkpt>
      <trkpt lat="49.94286" lon="2.15543">
        <ele>15.3</ele>
        <time>2023-06-28T12:28:53Z</time>
      </trkpt>
      <trkpt lat="49.94285" lon="2.15544">
        <ele>15.3</ele>
        <time>2023-06-28T12:28:54Z</time>
      </trkpt>
      <trkpt lat="49.94285" lon="2.15545">
        <ele>15.3</ele>
        <time>2023-06-28T12:28:55Z</time>
      </trkpt>
      <trkpt lat="49.94284" lon="2.15547">
        <ele>15.3</ele>
        <time>2023-06-28T12:28:56Z</time>
      </trkpt>
      <trkpt lat="49.94283" lon="2.15548">
        <ele>15.3</ele>
        <time>2023-06-28T12:28:57Z</time>
      </trkpt>
      <trkpt lat="49.94283" lon="2.1555">
        <ele>15.3</ele>
        <time>2023-06-28T12:28:58Z</time>
      </trkpt>
      <trkpt lat="49.94282" lon="2.15551">
        <ele>15.3</ele>
        <time>2023-06-28T12:29:00Z</time>
      </trkpt>
      <trkpt lat="49.94282" lon="2.15552">
        <ele>15.3</ele>
        <time>2023-06-28T12:29:01Z</time>
      </trkpt>
      <trkpt lat="49.94281" lon="2.15554">
        <ele>15.3</ele>
        <time>2023-06-28T12:29:02Z</time>
      </trkpt>
      <trkpt lat="49.94281" lon="2.15556">
        <ele>15.3</ele>
        <time>2023-06-28T12:29:04Z</time>
      </trkpt>
      <trkpt lat="49.9428" lon="2.15557">
        <ele>15.3</ele>
        <time>2023-06-28T12:29:05Z</time>
      </trkpt>
      <trkpt lat="49.9428" lon="2.15559">
        <ele>15.3</ele>
        <time>2023-06-28T12:29:06Z</time>
      </trkpt>
      <trkpt lat="49.94279" lon="2.1556">
        <ele>15.3</ele>
        <time>2023-06-28T12:29:07Z</time>
      </trkpt>
      <trkpt lat="49.94279" lon="2.15561">
        <ele>15.3</ele>
        <time>2023-06-28T12:29:08Z</time>
      </trkpt>
      <trkpt lat="49.94279" lon="2.15563">
        <ele>15.4</ele>
        <time>2023-06-28T12:29:09Z</time>
      </trkpt>
      <trkpt lat="49.94278" lon="2.15565">
        <ele>15.4</ele>
        <time>2023-06-28T12:29:10Z</time>
      </trkpt>
      <trkpt lat="49.94278" lon="2.15568">
        <ele>15.4</ele>
        <time>2023-06-28T12:29:12Z</time>
      </trkpt>
      <trkpt lat="49.94277" lon="2.15569">
        <ele>15.4</ele>
        <time>2023-06-28T12:29:13Z</time>
      </trkpt>
      <trkpt lat="49.94277" lon="2.1557">
        <ele>15.4</ele>
        <time>2023-06-28T12:29:14Z</time>
      </trkpt>
      <trkpt lat="49.94277" lon="2.15572">
        <ele>15.4</ele>
        <time>2023-06-28T12:29:15Z</time>
      </trkpt>
      <trkpt lat="49.94276" lon="2.15574">
        <ele>15.4</ele>
        <time>2023-06-28T12:29:16Z</time>
      </trkpt>
      <trkpt lat="49.94276" lon="2.15576">
        <ele>15.4</ele>
        <time>2023-06-28T12:29:17Z</time>
      </trkpt>
      <trkpt lat="49.94275" lon="2.15578">
        <ele>15.4</ele>
        <time>2023-06-28T12:29:18Z</time>
      </trkpt>
      <trkpt lat="49.94275" lon="2.1558">
        <ele>15.5</ele>
        <time>2023-06-28T12:29:20Z</time>
      </trkpt>
      <trkpt lat="49.94275" lon="2.15581">
        <ele>15.5</ele>
        <time>2023-06-28T12:29:21Z</time>
      </trkpt>
      <trkpt lat="49.94274" lon="2.15583">
        <ele>15.5</ele>
        <time>2023-06-28T12:29:22Z</time>
      </trkpt>
      <trkpt lat="49.94274" lon="2.15584">
        <ele>15.5</ele>
        <time>2023-06-28T12:29:23Z</time>
      </trkpt>
      <trkpt lat="49.94273" lon="2.15586">
        <ele>15.5</ele>
        <time>2023-06-28T12:29:24Z</time>
      </trkpt>
      <trkpt lat="49.94272" lon="2.15588">
        <ele>15.5</ele>
        <time>2023-06-28T12:29:26Z</time>
      </trkpt>
      <trkpt lat="49.94272" lon="2.1559">
        <ele>15.5</ele>
        <time>2023-06-28T12:29:27Z</time>
      </trkpt>
      <trkpt lat="49.94271" lon="2.15592">
        <ele>15.6</ele>
        <time>2023-06-28T12:29:28Z</time>
      </trkpt>
      <trkpt lat="49.9427" lon="2.15594">
        <ele>15.6</ele>
        <time>2023-06-28T12:29:29Z</time>
      </trkpt>
      <trkpt lat="49.9427" lon="2.15596">
        <ele>15.6</ele>
        <time>2023-06-28T12:29:30Z</time>
      </trkpt>
      <trkpt lat="49.94269" lon="2.15598">
        <ele>15.6</ele>
        <time>2023-06-28T12:29:32Z</time>
      </trkpt>
      <trkpt lat="49.94269" lon="2.15599">
        <ele>15.6</ele>
        <time>2023-06-28T12:29:33Z</time>
      </trkpt>
      <trkpt lat="49.94268" lon="2.15601">
        <ele>15.6</ele>
        <time>2023-06-28T12:29:34Z</time>
      </trkpt>
      <trkpt lat="49.94267" lon="2.15603">
        <ele>15.6</ele>
        <time>2023-06-28T12:29:35Z</time>
      </trkpt>
      <trkpt lat="49.94267" lon="2.15604">
        <ele>15.6</ele>
        <time>2023-06-28T12:29:36Z</time>
      </trkpt>
      <trkpt lat="49.94266" lon="2.15607">
        <ele>15.6</ele>
        <time>2023-06-28T12:29:38Z</time>
      </trkpt>
      <trkpt lat="49.94265" lon="2.15609">
        <ele>15.6</ele>
        <time>2023-06-28T12:29:39Z</time>
      </trkpt>
      <trkpt lat="49.94265" lon="2.15611">
        <ele>15.6</ele>
        <time>2023-06-28T12:29:40Z</time>
      </trkpt>
      <trkpt lat="49.94264" lon="2.15614">
        <ele>15.6</ele>
        <time>2023-06-28T12:29:41Z</time>
      </trkpt>
      <trkpt lat="49.94264" lon="2.15616">
        <ele>15.6</ele>
        <time>2023-06-28T12:29:42Z</time>
      </trkpt>
      <trkpt lat="49.94264" lon="2.15618">
        <ele>15.6</ele>
        <time>2023-06-28T12:29:43Z</time>
      </trkpt>
      <trkpt lat="49.94263" lon="2.1562">
        <ele>15.6</ele>
        <time>2023-06-28T12:29:44Z</time>
      </trkpt>
      <trkpt lat="49.94263" lon="2.15622">
        <ele>15.6</ele>
        <time>2023-06-28T12:29:45Z</time>
      </trkpt>
      <trkpt lat="49.94263" lon="2.15624">
        <ele>15.6</ele>
        <time>2023-06-28T12:29:46Z</time>
      </trkpt>
      <trkpt lat="49.94262" lon="2.15626">
        <ele>15.6</ele>
        <time>2023-06-28T12:29:47Z</time>
      </trkpt>
      <trkpt lat="49.94262" lon="2.15628">
        <ele>15.6</ele>
        <time>2023-06-28T12:29:48Z</time>
      </trkpt>
      <trkpt lat="49.94261" lon="2.1563">
        <ele>15.6</ele>
        <time>2023-06-28T12:29:50Z</time>
      </trkpt>
      <trkpt lat="49.94261" lon="2.15632">
        <ele>15.6</ele>
        <time>2023-06-28T12:29:51Z</time>
      </trkpt>
      <trkpt lat="49.9426" lon="2.15635">
        <ele>15.6</ele>
        <time>2023-06-28T12:29:52Z</time>
      </trkpt>
      <trkpt lat="49.9426" lon="2.15637">
        <ele>15.6</ele>
        <time>2023-06-28T12:29:53Z</time>
      </trkpt>
      <trkpt lat="49.94259" lon="2.15638">
        <ele>15.6</ele>
        <time>2023-06-28T12:29:54Z</time>
      </trkpt>
      <trkpt lat="49.94259" lon="2.1564">
        <ele>15.6</ele>
        <time>2023-06-28T12:29:55Z</time>
      </trkpt>
      <trkpt lat="49.94258" lon="2.15642">
        <ele>15.5</ele>
        <time>2023-06-28T12:29:57Z</time>
      </trkpt>
      <trkpt lat="49.94257" lon="2.15644">
        <ele>15.5</ele>
        <time>2023-06-28T12:29:58Z</time>
      </trkpt>
      <trkpt lat="49.94257" lon="2.15646">
        <ele>15.5</ele>
        <time>2023-06-28T12:29:59Z</time>
      </trkpt>
      <trkpt lat="49.94256" lon="2.15648">
        <ele>15.5</ele>
        <time>2023-06-28T12:30:00Z</time>
      </trkpt>
      <trkpt lat="49.94256" lon="2.1565">
        <ele>15.5</ele>
        <time>2023-06-28T12:30:01Z</time>
      </trkpt>
      <trkpt lat="49.94255" lon="2.15652">
        <ele>15.5</ele>
        <time>2023-06-28T12:30:02Z</time>
      </trkpt>
      <trkpt lat="49.94254" lon="2.15654">
        <ele>15.5</ele>
        <time>2023-06-28T12:30:03Z</time>
      </trkpt>
      <trkpt lat="49.94254" lon="2.15656">
        <ele>15.5</ele>
        <time>2023-06-28T12:30:04Z</time>
      </trkpt>
      <trkpt lat="49.94253" lon="2.15657">
        <ele>15.5</ele>
        <time>2023-06-28T12:30:05Z</time>
      </trkpt>
      <trkpt lat="49.94252" lon="2.15661">
        <ele>15.5</ele>
        <time>2023-06-28T12:30:07Z</time>
      </trkpt>
      <trkpt lat="49.94251" lon="2.15662">
        <ele>15.4</ele>
        <time>2023-06-28T12:30:08Z</time>
      </trkpt>
      <trkpt lat="49.94251" lon="2.15663">
        <ele>15.4</ele>
        <time>2023-06-28T12:30:09Z</time>
      </trkpt>
      <trkpt lat="49.9425" lon="2.15665">
        <ele>15.4</ele>
        <time>2023-06-28T12:30:10Z</time>
      </trkpt>
      <trkpt lat="49.9425" lon="2.15667">
        <ele>15.4</ele>
        <time>2023-06-28T12:30:11Z</time>
      </trkpt>
      <trkpt lat="49.94249" lon="2.15669">
        <ele>15.4</ele>
        <time>2023-06-28T12:30:13Z</time>
      </trkpt>
      <trkpt lat="49.94249" lon="2.15671">
        <ele>15.4</ele>
        <time>2023-06-28T12:30:14Z</time>
      </trkpt>
      <trkpt lat="49.94248" lon="2.15675">
        <ele>15.4</ele>
        <time>2023-06-28T12:30:15Z</time>
      </trkpt>
      <trkpt lat="49.94248" lon="2.15676">
        <ele>15.4</ele>
        <time>2023-06-28T12:30:16Z</time>
      </trkpt>
      <trkpt lat="49.94248" lon="2.15677">
        <ele>15.4</ele>
        <time>2023-06-28T12:30:17Z</time>
      </trkpt>
      <trkpt lat="49.94247" lon="2.1568">
        <ele>15.4</ele>
        <time>2023-06-28T12:30:18Z</time>
      </trkpt>
      <trkpt lat="49.94247" lon="2.15681">
        <ele>15.4</ele>
        <time>2023-06-28T12:30:19Z</time>
      </trkpt>
      <trkpt lat="49.94246" lon="2.15682">
        <ele>15.4</ele>
        <time>2023-06-28T12:30:20Z</time>
      </trkpt>
      <trkpt lat="49.94245" lon="2.15686">
        <ele>15.4</ele>
        <time>2023-06-28T12:30:22Z</time>
      </trkpt>
      <trkpt lat="49.94245" lon="2.15688">
        <ele>15.4</ele>
        <time>2023-06-28T12:30:24Z</time>
      </trkpt>
      <trkpt lat="49.94244" lon="2.15691">
        <ele>15.4</ele>
        <time>2023-06-28T12:30:25Z</time>
      </trkpt>
      <trkpt lat="49.94244" lon="2.15692">
        <ele>15.4</ele>
        <time>2023-06-28T12:30:26Z</time>
      </trkpt>
      <trkpt lat="49.94244" lon="2.15693">
        <ele>15.4</ele>
        <time>2023-06-28T12:30:27Z</time>
      </trkpt>
      <trkpt lat="49.94244" lon="2.15695">
        <ele>15.4</ele>
        <time>2023-06-28T12:30:28Z</time>
      </trkpt>
      <trkpt lat="49.94243" lon="2.15697">
        <ele>15.4</ele>
        <time>2023-06-28T12:30:29Z</time>
      </trkpt>
      <trkpt lat="49.94243" lon="2.15698">
        <ele>15.4</ele>
        <time>2023-06-28T12:30:31Z</time>
      </trkpt>
      <trkpt lat="49.94243" lon="2.15699">
        <ele>15.3</ele>
        <time>2023-06-28T12:30:32Z</time>
      </trkpt>
      <trkpt lat="49.94244" lon="2.157">
        <ele>15.3</ele>
        <time>2023-06-28T12:30:33Z</time>
      </trkpt>
      <trkpt lat="49.94244" lon="2.15701">
        <ele>15.3</ele>
        <time>2023-06-28T12:30:34Z</time>
      </trkpt>
      <trkpt lat="49.94244" lon="2.15703">
        <ele>15.3</ele>
        <time>2023-06-28T12:30:35Z</time>
      </trkpt>
      <trkpt lat="49.94244" lon="2.15706">
        <ele>15.3</ele>
        <time>2023-06-28T12:30:36Z</time>
      </trkpt>
      <trkpt lat="49.94244" lon="2.15707">
        <ele>15.3</ele>
        <time>2023-06-28T12:30:37Z</time>
      </trkpt>
      <trkpt lat="49.94244" lon="2.15709">
        <ele>15.3</ele>
        <time>2023-06-28T12:30:38Z</time>
      </trkpt>
      <trkpt lat="49.94244" lon="2.15711">
        <ele>15.2</ele>
        <time>2023-06-28T12:30:40Z</time>
      </trkpt>
      <trkpt lat="49.94245" lon="2.15712">
        <ele>15.2</ele>
        <time>2023-06-28T12:30:41Z</time>
      </trkpt>
      <trkpt lat="49.94245" lon="2.15714">
        <ele>15.2</ele>
        <time>2023-06-28T12:30:42Z</time>
      </trkpt>
      <trkpt lat="49.94245" lon="2.15715">
        <ele>15.2</ele>
        <time>2023-06-28T12:30:43Z</time>
      </trkpt>
      <trkpt lat="49.94245" lon="2.15717">
        <ele>15.2</ele>
        <time>2023-06-28T12:30:44Z</time>
      </trkpt>
      <trkpt lat="49.94245" lon="2.15719">
        <ele>15.2</ele>
        <time>2023-06-28T12:30:45Z</time>
      </trkpt>
      <trkpt lat="49.94245" lon="2.1572">
        <ele>15.2</ele>
        <time>2023-06-28T12:30:47Z</time>
      </trkpt>
      <trkpt lat="49.94245" lon="2.15722">
        <ele>15.2</ele>
        <time>2023-06-28T12:30:48Z</time>
      </trkpt>
      <trkpt lat="49.94245" lon="2.15723">
        <ele>15.2</ele>
        <time>2023-06-28T12:30:49Z</time>
      </trkpt>
      <trkpt lat="49.94246" lon="2.15725">
        <ele>15.2</ele>
        <time>2023-06-28T12:30:50Z</time>
      </trkpt>
      <trkpt lat="49.94246" lon="2.15727">
        <ele>15.2</ele>
        <time>2023-06-28T12:30:51Z</time>
      </trkpt>
      <trkpt lat="49.94246" lon="2.15728">
        <ele>15.2</ele>
        <time>2023-06-28T12:30:52Z</time>
      </trkpt>
      <trkpt lat="49.94247" lon="2.15729">
        <ele>15.2</ele>
        <time>2023-06-28T12:30:53Z</time>
      </trkpt>
      <trkpt lat="49.94247" lon="2.15731">
        <ele>15.2</ele>
        <time>2023-06-28T12:30:55Z</time>
      </trkpt>
      <trkpt lat="49.94248" lon="2.15732">
        <ele>15.2</ele>
        <time>2023-06-28T12:30:56Z</time>
      </trkpt>
      <trkpt lat="49.94249" lon="2.15734">
        <ele>15.2</ele>
        <time>2023-06-28T12:30:58Z</time>
      </trkpt>
      <trkpt lat="49.9425" lon="2.15735">
        <ele>15.2</ele>
        <time>2023-06-28T12:30:59Z</time>
      </trkpt>
      <trkpt lat="49.9425" lon="2.15736">
        <ele>15.2</ele>
        <time>2023-06-28T12:31:00Z</time>
      </trkpt>
      <trkpt lat="49.9425" lon="2.15737">
        <ele>15.2</ele>
        <time>2023-06-28T12:31:01Z</time>
      </trkpt>
      <trkpt lat="49.94251" lon="2.15739">
        <ele>15.2</ele>
        <time>2023-06-28T12:31:03Z</time>
      </trkpt>
      <trkpt lat="49.94252" lon="2.1574">
        <ele>15.2</ele>
        <time>2023-06-28T12:31:05Z</time>
      </trkpt>
      <trkpt lat="49.94252" lon="2.1574">
        <ele>15.2</ele>
        <time>2023-06-28T12:31:06Z</time>
      </trkpt>
      <trkpt lat="49.94252" lon="2.1574">
        <ele>15.2</ele>
        <time>2023-06-28T12:31:08Z</time>
      </trkpt>
      <trkpt lat="49.94252" lon="2.1574">
        <ele>15.2</ele>
        <time>2023-06-28T12:31:09Z</time>
      </trkpt>
      <trkpt lat="49.94253" lon="2.15741">
        <ele>15.2</ele>
        <time>2023-06-28T12:31:11Z</time>
      </trkpt>
      <trkpt lat="49.94253" lon="2.15741">
        <ele>15.3</ele>
        <time>2023-06-28T12:31:12Z</time>
      </trkpt>
      <trkpt lat="49.94253" lon="2.1574">
        <ele>15.3</ele>
        <time>2023-06-28T12:31:13Z</time>
      </trkpt>
      <trkpt lat="49.94253" lon="2.15741">
        <ele>15.3</ele>
        <time>2023-06-28T12:31:15Z</time>
      </trkpt>
      <trkpt lat="49.94253" lon="2.1574">
        <ele>15.3</ele>
        <time>2023-06-28T12:31:16Z</time>
      </trkpt>
      <trkpt lat="49.94253" lon="2.15741">
        <ele>15.3</ele>
        <time>2023-06-28T12:31:18Z</time>
      </trkpt>
      <trkpt lat="49.94254" lon="2.15741">
        <ele>15.3</ele>
        <time>2023-06-28T12:31:19Z</time>
      </trkpt>
      <trkpt lat="49.94254" lon="2.1574">
        <ele>15.3</ele>
        <time>2023-06-28T12:31:21Z</time>
      </trkpt>
      <trkpt lat="49.94254" lon="2.1574">
        <ele>15.3</ele>
        <time>2023-06-28T12:31:22Z</time>
      </trkpt>
      <trkpt lat="49.94254" lon="2.1574">
        <ele>15.3</ele>
        <time>2023-06-28T12:31:24Z</time>
      </trkpt>
      <trkpt lat="49.94254" lon="2.15739">
        <ele>15.3</ele>
        <time>2023-06-28T12:31:25Z</time>
      </trkpt>
      <trkpt lat="49.94255" lon="2.15739">
        <ele>15.3</ele>
        <time>2023-06-28T12:31:27Z</time>
      </trkpt>
      <trkpt lat="49.94255" lon="2.15738">
        <ele>15.3</ele>
        <time>2023-06-28T12:31:28Z</time>
      </trkpt>
      <trkpt lat="49.94255" lon="2.15738">
        <ele>15.3</ele>
        <time>2023-06-28T12:31:29Z</time>
      </trkpt>
      <trkpt lat="49.94255" lon="2.15737">
        <ele>15.3</ele>
        <time>2023-06-28T12:31:31Z</time>
      </trkpt>
      <trkpt lat="49.94255" lon="2.15737">
        <ele>15.3</ele>
        <time>2023-06-28T12:31:32Z</time>
      </trkpt>
      <trkpt lat="49.94256" lon="2.15737">
        <ele>15.3</ele>
        <time>2023-06-28T12:31:34Z</time>
      </trkpt>
      <trkpt lat="49.94256" lon="2.15736">
        <ele>15.3</ele>
        <time>2023-06-28T12:31:35Z</time>
      </trkpt>
      <trkpt lat="49.94257" lon="2.15736">
        <ele>15.3</ele>
        <time>2023-06-28T12:31:36Z</time>
      </trkpt>
      <trkpt lat="49.94257" lon="2.15735">
        <ele>15.3</ele>
        <time>2023-06-28T12:31:37Z</time>
      </trkpt>
      <trkpt lat="49.94258" lon="2.15735">
        <ele>15.3</ele>
        <time>2023-06-28T12:31:39Z</time>
      </trkpt>
      <trkpt lat="49.94258" lon="2.15736">
        <ele>15.3</ele>
        <time>2023-06-28T12:31:40Z</time>
      </trkpt>
      <trkpt lat="49.94258" lon="2.15737">
        <ele>15.3</ele>
        <time>2023-06-28T12:31:41Z</time>
      </trkpt>
      <trkpt lat="49.94258" lon="2.15738">
        <ele>15.3</ele>
        <time>2023-06-28T12:31:42Z</time>
      </trkpt>
      <trkpt lat="49.94257" lon="2.1574">
        <ele>15.3</ele>
        <time>2023-06-28T12:31:43Z</time>
      </trkpt>
      <trkpt lat="49.94257" lon="2.15742">
        <ele>15.3</ele>
        <time>2023-06-28T12:31:44Z</time>
      </trkpt>
      <trkpt lat="49.94257" lon="2.15744">
        <ele>15.3</ele>
        <time>2023-06-28T12:31:46Z</time>
      </trkpt>
      <trkpt lat="49.94258" lon="2.15745">
        <ele>15.4</ele>
        <time>2023-06-28T12:31:47Z</time>
      </trkpt>
      <trkpt lat="49.94259" lon="2.15748">
        <ele>15.4</ele>
        <time>2023-06-28T12:31:48Z</time>
      </trkpt>
      <trkpt lat="49.94259" lon="2.15749">
        <ele>15.4</ele>
        <time>2023-06-28T12:31:49Z</time>
      </trkpt>
      <trkpt lat="49.94259" lon="2.15751">
        <ele>15.4</ele>
        <time>2023-06-28T12:31:50Z</time>
      </trkpt>
      <trkpt lat="49.94259" lon="2.15753">
        <ele>15.4</ele>
        <time>2023-06-28T12:31:51Z</time>
      </trkpt>
      <trkpt lat="49.94259" lon="2.15754">
        <ele>15.4</ele>
        <time>2023-06-28T12:31:52Z</time>
      </trkpt>
      <trkpt lat="49.94259" lon="2.15755">
        <ele>15.4</ele>
        <time>2023-06-28T12:31:54Z</time>
      </trkpt>
      <trkpt lat="49.94258" lon="2.15756">
        <ele>15.4</ele>
        <time>2023-06-28T12:31:55Z</time>
      </trkpt>
      <trkpt lat="49.94258" lon="2.15759">
        <ele>15.4</ele>
        <time>2023-06-28T12:31:57Z</time>
      </trkpt>
      <trkpt lat="49.94258" lon="2.1576">
        <ele>15.4</ele>
        <time>2023-06-28T12:31:58Z</time>
      </trkpt>
      <trkpt lat="49.94258" lon="2.15761">
        <ele>15.4</ele>
        <time>2023-06-28T12:32:00Z</time>
      </trkpt>
      <trkpt lat="49.94258" lon="2.15762">
        <ele>15.4</ele>
        <time>2023-06-28T12:32:01Z</time>
      </trkpt>
      <trkpt lat="49.94258" lon="2.15762">
        <ele>15.4</ele>
        <time>2023-06-28T12:32:02Z</time>
      </trkpt>
      <trkpt lat="49.94258" lon="2.15763">
        <ele>15.4</ele>
        <time>2023-06-28T12:32:04Z</time>
      </trkpt>
      <trkpt lat="49.94258" lon="2.15763">
        <ele>15.4</ele>
        <time>2023-06-28T12:32:05Z</time>
      </trkpt>
      <trkpt lat="49.94258" lon="2.15764">
        <ele>15.4</ele>
        <time>2023-06-28T12:32:07Z</time>
      </trkpt>
      <trkpt lat="49.94258" lon="2.15765">
        <ele>15.4</ele>
        <time>2023-06-28T12:32:08Z</time>
      </trkpt>
      <trkpt lat="49.94258" lon="2.15765">
        <ele>15.4</ele>
        <time>2023-06-28T12:32:09Z</time>
      </trkpt>
      <trkpt lat="49.94258" lon="2.15766">
        <ele>15.4</ele>
        <time>2023-06-28T12:32:11Z</time>
      </trkpt>
      <trkpt lat="49.94258" lon="2.15767">
        <ele>15.4</ele>
        <time>2023-06-28T12:32:12Z</time>
      </trkpt>
      <trkpt lat="49.94258" lon="2.15767">
        <ele>15.4</ele>
        <time>2023-06-28T12:32:14Z</time>
      </trkpt>
      <trkpt lat="49.94258" lon="2.15768">
        <ele>15.4</ele>
        <time>2023-06-28T12:32:15Z</time>
      </trkpt>
      <trkpt lat="49.94257" lon="2.15768">
        <ele>15.4</ele>
        <time>2023-06-28T12:32:16Z</time>
      </trkpt>
      <trkpt lat="49.94257" lon="2.15769">
        <ele>15.4</ele>
        <time>2023-06-28T12:32:17Z</time>
      </trkpt>
      <trkpt lat="49.94257" lon="2.1577">
        <ele>15.4</ele>
        <time>2023-06-28T12:32:19Z</time>
      </trkpt>
      <trkpt lat="49.94257" lon="2.1577">
        <ele>15.4</ele>
        <time>2023-06-28T12:32:20Z</time>
      </trkpt>
      <trkpt lat="49.94257" lon="2.15771">
        <ele>15.4</ele>
        <time>2023-06-28T12:32:21Z</time>
      </trkpt>
      <trkpt lat="49.94257" lon="2.15772">
        <ele>15.4</ele>
        <time>2023-06-28T12:32:22Z</time>
      </trkpt>
      <trkpt lat="49.94258" lon="2.15775">
        <ele>15.5</ele>
        <time>2023-06-28T12:32:23Z</time>
      </trkpt>
      <trkpt lat="49.94258" lon="2.15776">
        <ele>15.5</ele>
        <time>2023-06-28T12:32:24Z</time>
      </trkpt>
      <trkpt lat="49.94258" lon="2.15777">
        <ele>15.5</ele>
        <time>2023-06-28T12:32:25Z</time>
      </trkpt>
      <trkpt lat="49.94259" lon="2.15779">
        <ele>15.5</ele>
        <time>2023-06-28T12:32:27Z</time>
      </trkpt>
      <trkpt lat="49.94259" lon="2.15781">
        <ele>15.5</ele>
        <time>2023-06-28T12:32:28Z</time>
      </trkpt>
      <trkpt lat="49.94259" lon="2.15782">
        <ele>15.5</ele>
        <time>2023-06-28T12:32:29Z</time>
      </trkpt>
      <trkpt lat="49.94259" lon="2.15782">
        <ele>15.5</ele>
        <time>2023-06-28T12:32:30Z</time>
      </trkpt>
      <trkpt lat="49.94259" lon="2.15783">
        <ele>15.5</ele>
        <time>2023-06-28T12:32:31Z</time>
      </trkpt>
      <trkpt lat="49.94258" lon="2.15783">
        <ele>15.5</ele>
        <time>2023-06-28T12:32:32Z</time>
      </trkpt>
      <trkpt lat="49.94257" lon="2.15784">
        <ele>15.5</ele>
        <time>2023-06-28T12:32:33Z</time>
      </trkpt>
      <trkpt lat="49.94257" lon="2.15785">
        <ele>15.5</ele>
        <time>2023-06-28T12:32:35Z</time>
      </trkpt>
      <trkpt lat="49.94258" lon="2.15786">
        <ele>15.5</ele>
        <time>2023-06-28T12:32:37Z</time>
      </trkpt>
      <trkpt lat="49.94258" lon="2.15785">
        <ele>15.5</ele>
        <time>2023-06-28T12:32:38Z</time>
      </trkpt>
      <trkpt lat="49.94258" lon="2.15785">
        <ele>15.5</ele>
        <time>2023-06-28T12:32:40Z</time>
      </trkpt>
      <trkpt lat="49.94258" lon="2.15784">
        <ele>15.5</ele>
        <time>2023-06-28T12:32:41Z</time>
      </trkpt>
      <trkpt lat="49.94258" lon="2.15784">
        <ele>15.5</ele>
        <time>2023-06-28T12:32:43Z</time>
      </trkpt>
      <trkpt lat="49.94258" lon="2.15784">
        <ele>15.5</ele>
        <time>2023-06-28T12:32:44Z</time>
      </trkpt>
      <trkpt lat="49.94258" lon="2.15784">
        <ele>15.5</ele>
        <time>2023-06-28T12:32:45Z</time>
      </trkpt>
      <trkpt lat="49.94258" lon="2.15784">
        <ele>15.5</ele>
        <time>2023-06-28T12:32:47Z</time>
      </trkpt>
      <trkpt lat="49.94258" lon="2.15784">
        <ele>15.5</ele>
        <time>2023-06-28T12:32:48Z</time>
      </trkpt>
      <trkpt lat="49.94258" lon="2.15784">
        <ele>15.5</ele>
        <time>2023-06-28T12:32:50Z</time>
      </trkpt>
      <trkpt lat="49.94258" lon="2.15784">
        <ele>15.5</ele>
        <time>2023-06-28T12:32:51Z</time>
      </trkpt>
      <trkpt lat="49.94258" lon="2.15783">
        <ele>15.5</ele>
        <time>2023-06-28T12:32:52Z</time>
      </trkpt>
      <trkpt lat="49.94258" lon="2.15783">
        <ele>15.5</ele>
        <time>2023-06-28T12:32:53Z</time>
      </trkpt>
      <trkpt lat="49.94258" lon="2.15783">
        <ele>15.5</ele>
        <time>2023-06-28T12:32:54Z</time>
      </trkpt>
      <trkpt lat="49.94258" lon="2.15783">
        <ele>15.5</ele>
        <time>2023-06-28T12:32:55Z</time>
      </trkpt>
      <trkpt lat="49.94258" lon="2.15783">
        <ele>15.5</ele>
        <time>2023-06-28T12:32:56Z</time>
      </trkpt>
      <trkpt lat="49.94258" lon="2.15783">
        <ele>15.5</ele>
        <time>2023-06-28T12:32:57Z</time>
      </trkpt>
      <trkpt lat="49.94258" lon="2.15783">
        <ele>15.5</ele>
        <time>2023-06-28T12:32:58Z</time>
      </trkpt>
      <trkpt lat="49.94258" lon="2.15783">
        <ele>15.5</ele>
        <time>2023-06-28T12:32:59Z</time>
      </trkpt>
      <trkpt lat="49.94258" lon="2.15783">
        <ele>15.5</ele>
        <time>2023-06-28T12:33:00Z</time>
      </trkpt>
      <trkpt lat="49.94258" lon="2.15783">
        <ele>15.5</ele>
        <time>2023-06-28T12:33:01Z</time>
      </trkpt>
      <trkpt lat="49.94258" lon="2.15783">
        <ele>15.5</ele>
        <time>2023-06-28T12:33:02Z</time>
      </trkpt>
      <trkpt lat="49.94258" lon="2.15783">
        <ele>15.5</ele>
        <time>2023-06-28T12:33:03Z</time>
      </trkpt>
      <trkpt lat="49.94258" lon="2.15783">
        <ele>15.5</ele>
        <time>2023-06-28T12:33:04Z</time>
      </trkpt>
      <trkpt lat="49.94258" lon="2.15783">
        <ele>15.5</ele>
        <time>2023-06-28T12:33:05Z</time>
      </trkpt>
      <trkpt lat="49.94258" lon="2.15783">
        <ele>15.5</ele>
        <time>2023-06-28T12:33:06Z</time>
      </trkpt>
      <trkpt lat="49.94258" lon="2.15783">
        <ele>15.5</ele>
        <time>2023-06-28T12:33:07Z</time>
      </trkpt>
      <trkpt lat="49.94258" lon="2.15783">
        <ele>15.5</ele>
        <time>2023-06-28T12:33:08Z</time>
      </trkpt>
      <trkpt lat="49.94258" lon="2.15783">
        <ele>15.5</ele>
        <time>2023-06-28T12:33:09Z</time>
      </trkpt>
      <trkpt lat="49.94258" lon="2.15783">
        <ele>15.5</ele>
        <time>2023-06-28T12:33:10Z</time>
      </trkpt>
      <trkpt lat="49.94258" lon="2.15783">
        <ele>15.5</ele>
        <time>2023-06-28T12:33:11Z</time>
      </trkpt>
      <trkpt lat="49.94258" lon="2.15783">
        <ele>15.5</ele>
        <time>2023-06-28T12:33:12Z</time>
      </trkpt>
      <trkpt lat="49.94258" lon="2.15783">
        <ele>15.5</ele>
        <time>2023-06-28T12:33:13Z</time>
      </trkpt>
      <trkpt lat="49.94258" lon="2.15783">
        <ele>15.5</ele>
        <time>2023-06-28T12:33:14Z</time>
      </trkpt>
      <trkpt lat="49.94258" lon="2.15783">
        <ele>15.5</ele>
        <time>2023-06-28T12:33:15Z</time>
      </trkpt>
      <trkpt lat="49.94258" lon="2.15783">
        <ele>15.5</ele>
        <time>2023-06-28T12:33:16Z</time>
      </trkpt>
      <trkpt lat="49.94258" lon="2.15783">
        <ele>15.5</ele>
        <time>2023-06-28T12:33:17Z</time>
      </trkpt>
      <trkpt lat="49.94258" lon="2.15783">
        <ele>15.5</ele>
        <time>2023-06-28T12:33:18Z</time>
      </trkpt>
      <trkpt lat="49.94258" lon="2.15783">
        <ele>15.5</ele>
        <time>2023-06-28T12:33:19Z</time>
      </trkpt>
      <trkpt lat="49.94258" lon="2.15783">
        <ele>15.5</ele>
        <time>2023-06-28T12:33:20Z</time>
      </trkpt>
      <trkpt lat="49.94258" lon="2.15783">
        <ele>15.5</ele>
        <time>2023-06-28T12:33:21Z</time>
      </trkpt>
      <trkpt lat="49.94258" lon="2.15783">
        <ele>15.5</ele>
        <time>2023-06-28T12:33:22Z</time>
      </trkpt>
      <trkpt lat="49.94258" lon="2.15783">
        <ele>15.5</ele>
        <time>2023-06-28T12:33:23Z</time>
      </trkpt>
      <trkpt lat="49.94258" lon="2.15783">
        <ele>15.5</ele>
        <time>2023-06-28T12:33:24Z</time>
      </trkpt>
      <trkpt lat="49.94258" lon="2.15783">
        <ele>15.5</ele>
        <time>2023-06-28T12:33:25Z</time>
      </trkpt>
      <trkpt lat="49.94258" lon="2.15783">
        <ele>15.5</ele>
        <time>2023-06-28T12:33:26Z</time>
      </trkpt>
      <trkpt lat="49.94258" lon="2.15783">
        <ele>15.5</ele>
        <time>2023-06-28T12:33:27Z</time>
      </trkpt>
      <trkpt lat="49.94258" lon="2.15783">
        <ele>15.5</ele>
        <time>2023-06-28T12:33:28Z</time>
      </trkpt>
      <trkpt lat="49.94258" lon="2.15783">
        <ele>15.5</ele>
        <time>2023-06-28T12:33:29Z</time>
      </trkpt>
      <trkpt lat="49.94258" lon="2.15783">
        <ele>15.5</ele>
        <time>2023-06-28T12:33:30Z</time>
      </trkpt>
      <trkpt lat="49.94258" lon="2.15783">
        <ele>15.5</ele>
        <time>2023-06-28T12:33:31Z</time>
      </trkpt>
      <trkpt lat="49.94258" lon="2.15783">
        <ele>15.5</ele>
        <time>2023-06-28T12:33:32Z</time>
      </trkpt>
      <trkpt lat="49.94258" lon="2.15783">
        <ele>15.5</ele>
        <time>2023-06-28T12:33:33Z</time>
      </trkpt>
      <trkpt lat="49.94258" lon="2.15783">
        <ele>15.5</ele>
        <time>2023-06-28T12:33:34Z</time>
      </trkpt>
      <trkpt lat="49.94258" lon="2.15784">
        <ele>15.5</ele>
        <time>2023-06-28T12:33:35Z</time>
      </trkpt>
      <trkpt lat="49.94258" lon="2.15785">
        <ele>15.5</ele>
        <time>2023-06-28T12:33:36Z</time>
      </trkpt>
      <trkpt lat="49.94258" lon="2.15786">
        <ele>15.5</ele>
        <time>2023-06-28T12:33:37Z</time>
      </trkpt>
      <trkpt lat="49.94258" lon="2.15786">
        <ele>15.5</ele>
        <time>2023-06-28T12:33:38Z</time>
      </trkpt>
      <trkpt lat="49.94258" lon="2.15787">
        <ele>15.5</ele>
        <time>2023-06-28T12:33:39Z</time>
      </trkpt>
      <trkpt lat="49.94258" lon="2.15787">
        <ele>15.5</ele>
        <time>2023-06-28T12:33:40Z</time>
      </trkpt>
      <trkpt lat="49.94259" lon="2.15788">
        <ele>15.5</ele>
        <time>2023-06-28T12:33:41Z</time>
      </trkpt>
      <trkpt lat="49.94259" lon="2.15789">
        <ele>15.5</ele>
        <time>2023-06-28T12:33:42Z</time>
      </trkpt>
      <trkpt lat="49.94259" lon="2.15789">
        <ele>15.5</ele>
        <time>2023-06-28T12:33:43Z</time>
      </trkpt>
      <trkpt lat="49.9426" lon="2.15791">
        <ele>15.5</ele>
        <time>2023-06-28T12:33:45Z</time>
      </trkpt>
      <trkpt lat="49.9426" lon="2.15792">
        <ele>15.5</ele>
        <time>2023-06-28T12:33:46Z</time>
      </trkpt>
      <trkpt lat="49.94261" lon="2.15793">
        <ele>15.5</ele>
        <time>2023-06-28T12:33:47Z</time>
      </trkpt>
      <trkpt lat="49.94261" lon="2.15794">
        <ele>15.5</ele>
        <time>2023-06-28T12:33:48Z</time>
      </trkpt>
      <trkpt lat="49.94261" lon="2.15795">
        <ele>15.5</ele>
        <time>2023-06-28T12:33:49Z</time>
      </trkpt>
      <trkpt lat="49.94261" lon="2.15796">
        <ele>15.5</ele>
        <time>2023-06-28T12:33:50Z</time>
      </trkpt>
      <trkpt lat="49.94261" lon="2.15798">
        <ele>15.5</ele>
        <time>2023-06-28T12:33:52Z</time>
      </trkpt>
      <trkpt lat="49.94261" lon="2.15799">
        <ele>15.5</ele>
        <time>2023-06-28T12:33:53Z</time>
      </trkpt>
      <trkpt lat="49.94261" lon="2.15801">
        <ele>15.5</ele>
        <time>2023-06-28T12:33:54Z</time>
      </trkpt>
      <trkpt lat="49.94262" lon="2.15803">
        <ele>15.5</ele>
        <time>2023-06-28T12:33:55Z</time>
      </trkpt>
      <trkpt lat="49.94262" lon="2.15806">
        <ele>15.5</ele>
        <time>2023-06-28T12:33:56Z</time>
      </trkpt>
      <trkpt lat="49.94262" lon="2.15807">
        <ele>15.5</ele>
        <time>2023-06-28T12:33:58Z</time>
      </trkpt>
      <trkpt lat="49.94262" lon="2.15808">
        <ele>15.5</ele>
        <time>2023-06-28T12:33:59Z</time>
      </trkpt>
      <trkpt lat="49.94262" lon="2.1581">
        <ele>15.5</ele>
        <time>2023-06-28T12:34:00Z</time>
      </trkpt>
      <trkpt lat="49.94262" lon="2.15811">
        <ele>15.5</ele>
        <time>2023-06-28T12:34:01Z</time>
      </trkpt>
      <trkpt lat="49.94262" lon="2.15813">
        <ele>15.5</ele>
        <time>2023-06-28T12:34:02Z</time>
      </trkpt>
      <trkpt lat="49.94262" lon="2.15815">
        <ele>15.5</ele>
        <time>2023-06-28T12:34:04Z</time>
      </trkpt>
      <trkpt lat="49.94262" lon="2.15817">
        <ele>15.5</ele>
        <time>2023-06-28T12:34:05Z</time>
      </trkpt>
      <trkpt lat="49.94261" lon="2.15818">
        <ele>15.5</ele>
        <time>2023-06-28T12:34:06Z</time>
      </trkpt>
      <trkpt lat="49.9426" lon="2.15819">
        <ele>15.5</ele>
        <time>2023-06-28T12:34:07Z</time>
      </trkpt>
      <trkpt lat="49.9426" lon="2.15821">
        <ele>15.5</ele>
        <time>2023-06-28T12:34:08Z</time>
      </trkpt>
      <trkpt lat="49.9426" lon="2.15822">
        <ele>15.5</ele>
        <time>2023-06-28T12:34:09Z</time>
      </trkpt>
      <trkpt lat="49.94259" lon="2.15824">
        <ele>15.5</ele>
        <time>2023-06-28T12:34:11Z</time>
      </trkpt>
      <trkpt lat="49.94259" lon="2.15827">
        <ele>15.5</ele>
        <time>2023-06-28T12:34:12Z</time>
      </trkpt>
      <trkpt lat="49.94259" lon="2.1583">
        <ele>15.5</ele>
        <time>2023-06-28T12:34:13Z</time>
      </trkpt>
      <trkpt lat="49.94259" lon="2.15832">
        <ele>15.5</ele>
        <time>2023-06-28T12:34:14Z</time>
      </trkpt>
      <trkpt lat="49.94259" lon="2.15835">
        <ele>15.5</ele>
        <time>2023-06-28T12:34:15Z</time>
      </trkpt>
      <trkpt lat="49.94259" lon="2.15837">
        <ele>15.5</ele>
        <time>2023-06-28T12:34:16Z</time>
      </trkpt>
      <trkpt lat="49.94259" lon="2.15839">
        <ele>15.5</ele>
        <time>2023-06-28T12:34:18Z</time>
      </trkpt>
      <trkpt lat="49.94259" lon="2.15841">
        <ele>15.5</ele>
        <time>2023-06-28T12:34:19Z</time>
      </trkpt>
      <trkpt lat="49.94259" lon="2.15843">
        <ele>15.5</ele>
        <time>2023-06-28T12:34:20Z</time>
      </trkpt>
      <trkpt lat="49.9426" lon="2.15846">
        <ele>15.5</ele>
        <time>2023-06-28T12:34:22Z</time>
      </trkpt>
      <trkpt lat="49.9426" lon="2.15848">
        <ele>15.5</ele>
        <time>2023-06-28T12:34:23Z</time>
      </trkpt>
      <trkpt lat="49.9426" lon="2.1585">
        <ele>15.5</ele>
        <time>2023-06-28T12:34:24Z</time>
      </trkpt>
      <trkpt lat="49.9426" lon="2.15853">
        <ele>15.5</ele>
        <time>2023-06-28T12:34:25Z</time>
      </trkpt>
      <trkpt lat="49.9426" lon="2.15854">
        <ele>15.5</ele>
        <time>2023-06-28T12:34:27Z</time>
      </trkpt>
      <trkpt lat="49.9426" lon="2.15856">
        <ele>15.5</ele>
        <time>2023-06-28T12:34:28Z</time>
      </trkpt>
      <trkpt lat="49.9426" lon="2.15857">
        <ele>15.5</ele>
        <time>2023-06-28T12:34:29Z</time>
      </trkpt>
      <trkpt lat="49.9426" lon="2.15859">
        <ele>15.5</ele>
        <time>2023-06-28T12:34:30Z</time>
      </trkpt>
      <trkpt lat="49.94261" lon="2.1586">
        <ele>15.5</ele>
        <time>2023-06-28T12:34:31Z</time>
      </trkpt>
      <trkpt lat="49.94261" lon="2.15861">
        <ele>15.5</ele>
        <time>2023-06-28T12:34:32Z</time>
      </trkpt>
      <trkpt lat="49.94261" lon="2.15863">
        <ele>15.5</ele>
        <time>2023-06-28T12:34:33Z</time>
      </trkpt>
      <trkpt lat="49.94261" lon="2.15865">
        <ele>15.5</ele>
        <time>2023-06-28T12:34:35Z</time>
      </trkpt>
      <trkpt lat="49.94261" lon="2.15867">
        <ele>15.5</ele>
        <time>2023-06-28T12:34:36Z</time>
      </trkpt>
      <trkpt lat="49.94261" lon="2.15869">
        <ele>15.5</ele>
        <time>2023-06-28T12:34:37Z</time>
      </trkpt>
      <trkpt lat="49.94261" lon="2.1587">
        <ele>15.5</ele>
        <time>2023-06-28T12:34:38Z</time>
      </trkpt>
      <trkpt lat="49.94261" lon="2.15872">
        <ele>15.5</ele>
        <time>2023-06-28T12:34:39Z</time>
      </trkpt>
      <trkpt lat="49.94261" lon="2.15873">
        <ele>15.5</ele>
        <time>2023-06-28T12:34:40Z</time>
      </trkpt>
      <trkpt lat="49.94261" lon="2.15874">
        <ele>15.5</ele>
        <time>2023-06-28T12:34:41Z</time>
      </trkpt>
      <trkpt lat="49.94261" lon="2.15876">
        <ele>15.5</ele>
        <time>2023-06-28T12:34:42Z</time>
      </trkpt>
      <trkpt lat="49.94261" lon="2.15878">
        <ele>15.5</ele>
        <time>2023-06-28T12:34:44Z</time>
      </trkpt>
      <trkpt lat="49.94261" lon="2.15879">
        <ele>15.5</ele>
        <time>2023-06-28T12:34:45Z</time>
      </trkpt>
      <trkpt lat="49.94261" lon="2.15881">
        <ele>15.5</ele>
        <time>2023-06-28T12:34:46Z</time>
      </trkpt>
      <trkpt lat="49.94261" lon="2.15882">
        <ele>15.5</ele>
        <time>2023-06-28T12:34:47Z</time>
      </trkpt>
      <trkpt lat="49.94261" lon="2.15884">
        <ele>15.5</ele>
        <time>2023-06-28T12:34:48Z</time>
      </trkpt>
      <trkpt lat="49.94261" lon="2.15885">
        <ele>15.5</ele>
        <time>2023-06-28T12:34:50Z</time>
      </trkpt>
      <trkpt lat="49.94261" lon="2.15886">
        <ele>15.5</ele>
        <time>2023-06-28T12:34:51Z</time>
      </trkpt>
      <trkpt lat="49.94261" lon="2.15888">
        <ele>15.5</ele>
        <time>2023-06-28T12:34:52Z</time>
      </trkpt>
      <trkpt lat="49.94261" lon="2.15889">
        <ele>15.5</ele>
        <time>2023-06-28T12:34:53Z</time>
      </trkpt>
      <trkpt lat="49.9426" lon="2.15891">
        <ele>15.5</ele>
        <time>2023-06-28T12:34:54Z</time>
      </trkpt>
      <trkpt lat="49.9426" lon="2.15893">
        <ele>15.5</ele>
        <time>2023-06-28T12:34:55Z</time>
      </trkpt>
      <trkpt lat="49.9426" lon="2.15895">
        <ele>15.5</ele>
        <time>2023-06-28T12:34:57Z</time>
      </trkpt>
      <trkpt lat="49.94259" lon="2.15896">
        <ele>15.5</ele>
        <time>2023-06-28T12:34:58Z</time>
      </trkpt>
      <trkpt lat="49.94259" lon="2.15898">
        <ele>15.5</ele>
        <time>2023-06-28T12:34:59Z</time>
      </trkpt>
      <trkpt lat="49.94258" lon="2.15899">
        <ele>15.5</ele>
        <time>2023-06-28T12:35:00Z</time>
      </trkpt>
      <trkpt lat="49.94258" lon="2.159">
        <ele>15.5</ele>
        <time>2023-06-28T12:35:01Z</time>
      </trkpt>
      <trkpt lat="49.94257" lon="2.15902">
        <ele>15.5</ele>
        <time>2023-06-28T12:35:02Z</time>
      </trkpt>
      <trkpt lat="49.94257" lon="2.15904">
        <ele>15.5</ele>
        <time>2023-06-28T12:35:04Z</time>
      </trkpt>
      <trkpt lat="49.94256" lon="2.15906">
        <ele>15.5</ele>
        <time>2023-06-28T12:35:05Z</time>
      </trkpt>
      <trkpt lat="49.94256" lon="2.15908">
        <ele>15.5</ele>
        <time>2023-06-28T12:35:06Z</time>
      </trkpt>
      <trkpt lat="49.94255" lon="2.15912">
        <ele>15.5</ele>
        <time>2023-06-28T12:35:08Z</time>
      </trkpt>
      <trkpt lat="49.94255" lon="2.15914">
        <ele>15.5</ele>
        <time>2023-06-28T12:35:09Z</time>
      </trkpt>
      <trkpt lat="49.94255" lon="2.15916">
        <ele>15.5</ele>
        <time>2023-06-28T12:35:10Z</time>
      </trkpt>
      <trkpt lat="49.94255" lon="2.15919">
        <ele>15.5</ele>
        <time>2023-06-28T12:35:12Z</time>
      </trkpt>
      <trkpt lat="49.94255" lon="2.15921">
        <ele>15.5</ele>
        <time>2023-06-28T12:35:13Z</time>
      </trkpt>
      <trkpt lat="49.94254" lon="2.15924">
        <ele>15.5</ele>
        <time>2023-06-28T12:35:14Z</time>
      </trkpt>
      <trkpt lat="49.94254" lon="2.15926">
        <ele>15.5</ele>
        <time>2023-06-28T12:35:15Z</time>
      </trkpt>
      <trkpt lat="49.94254" lon="2.15928">
        <ele>15.5</ele>
        <time>2023-06-28T12:35:16Z</time>
      </trkpt>
      <trkpt lat="49.94254" lon="2.1593">
        <ele>15.5</ele>
        <time>2023-06-28T12:35:17Z</time>
      </trkpt>
      <trkpt lat="49.94254" lon="2.15932">
        <ele>15.5</ele>
        <time>2023-06-28T12:35:18Z</time>
      </trkpt>
      <trkpt lat="49.94254" lon="2.15934">
        <ele>15.5</ele>
        <time>2023-06-28T12:35:19Z</time>
      </trkpt>
      <trkpt lat="49.94254" lon="2.15937">
        <ele>15.5</ele>
        <time>2023-06-28T12:35:21Z</time>
      </trkpt>
      <trkpt lat="49.94255" lon="2.15939">
        <ele>15.5</ele>
        <time>2023-06-28T12:35:22Z</time>
      </trkpt>
      <trkpt lat="49.94255" lon="2.15941">
        <ele>15.5</ele>
        <time>2023-06-28T12:35:23Z</time>
      </trkpt>
      <trkpt lat="49.94255" lon="2.15945">
        <ele>15.5</ele>
        <time>2023-06-28T12:35:25Z</time>
      </trkpt>
      <trkpt lat="49.94255" lon="2.15947">
        <ele>15.5</ele>
        <time>2023-06-28T12:35:26Z</time>
      </trkpt>
      <trkpt lat="49.94256" lon="2.15949">
        <ele>15.5</ele>
        <time>2023-06-28T12:35:27Z</time>
      </trkpt>
      <trkpt lat="49.94256" lon="2.1595">
        <ele>15.5</ele>
        <time>2023-06-28T12:35:28Z</time>
      </trkpt>
      <trkpt lat="49.94256" lon="2.15951">
        <ele>15.5</ele>
        <time>2023-06-28T12:35:29Z</time>
      </trkpt>
      <trkpt lat="49.94256" lon="2.15952">
        <ele>15.5</ele>
        <time>2023-06-28T12:35:30Z</time>
      </trkpt>
      <trkpt lat="49.94256" lon="2.15953">
        <ele>15.5</ele>
        <time>2023-06-28T12:35:32Z</time>
      </trkpt>
      <trkpt lat="49.94257" lon="2.15955">
        <ele>15.5</ele>
        <time>2023-06-28T12:35:33Z</time>
      </trkpt>
      <trkpt lat="49.94257" lon="2.15957">
        <ele>15.5</ele>
        <time>2023-06-28T12:35:34Z</time>
      </trkpt>
      <trkpt lat="49.94257" lon="2.15959">
        <ele>15.5</ele>
        <time>2023-06-28T12:35:35Z</time>
      </trkpt>
      <trkpt lat="49.94258" lon="2.15962">
        <ele>15.5</ele>
        <time>2023-06-28T12:35:37Z</time>
      </trkpt>
      <trkpt lat="49.94258" lon="2.15965">
        <ele>15.6</ele>
        <time>2023-06-28T12:35:38Z</time>
      </trkpt>
      <trkpt lat="49.94259" lon="2.15966">
        <ele>15.6</ele>
        <time>2023-06-28T12:35:39Z</time>
      </trkpt>
      <trkpt lat="49.94259" lon="2.15967">
        <ele>15.6</ele>
        <time>2023-06-28T12:35:40Z</time>
      </trkpt>
      <trkpt lat="49.94259" lon="2.15968">
        <ele>15.6</ele>
        <time>2023-06-28T12:35:41Z</time>
      </trkpt>
      <trkpt lat="49.9426" lon="2.1597">
        <ele>15.6</ele>
        <time>2023-06-28T12:35:43Z</time>
      </trkpt>
      <trkpt lat="49.9426" lon="2.15972">
        <ele>15.6</ele>
        <time>2023-06-28T12:35:44Z</time>
      </trkpt>
      <trkpt lat="49.94261" lon="2.15975">
        <ele>15.6</ele>
        <time>2023-06-28T12:35:45Z</time>
      </trkpt>
      <trkpt lat="49.94261" lon="2.15976">
        <ele>15.6</ele>
        <time>2023-06-28T12:35:46Z</time>
      </trkpt>
      <trkpt lat="49.94261" lon="2.15978">
        <ele>15.6</ele>
        <time>2023-06-28T12:35:47Z</time>
      </trkpt>
      <trkpt lat="49.94261" lon="2.1598">
        <ele>15.6</ele>
        <time>2023-06-28T12:35:48Z</time>
      </trkpt>
      <trkpt lat="49.94261" lon="2.15982">
        <ele>15.6</ele>
        <time>2023-06-28T12:35:50Z</time>
      </trkpt>
      <trkpt lat="49.94261" lon="2.15983">
        <ele>15.6</ele>
        <time>2023-06-28T12:35:51Z</time>
      </trkpt>
      <trkpt lat="49.94261" lon="2.15985">
        <ele>15.6</ele>
        <time>2023-06-28T12:35:52Z</time>
      </trkpt>
      <trkpt lat="49.94261" lon="2.15987">
        <ele>15.6</ele>
        <time>2023-06-28T12:35:53Z</time>
      </trkpt>
      <trkpt lat="49.94262" lon="2.15989">
        <ele>15.6</ele>
        <time>2023-06-28T12:35:54Z</time>
      </trkpt>
      <trkpt lat="49.94261" lon="2.15992">
        <ele>15.6</ele>
        <time>2023-06-28T12:35:55Z</time>
      </trkpt>
      <trkpt lat="49.94261" lon="2.15993">
        <ele>15.6</ele>
        <time>2023-06-28T12:35:56Z</time>
      </trkpt>
      <trkpt lat="49.94261" lon="2.15995">
        <ele>15.6</ele>
        <time>2023-06-28T12:35:57Z</time>
      </trkpt>
      <trkpt lat="49.94261" lon="2.15996">
        <ele>15.6</ele>
        <time>2023-06-28T12:35:58Z</time>
      </trkpt>
      <trkpt lat="49.94261" lon="2.15998">
        <ele>15.6</ele>
        <time>2023-06-28T12:36:00Z</time>
      </trkpt>
      <trkpt lat="49.94261" lon="2.16">
        <ele>15.6</ele>
        <time>2023-06-28T12:36:01Z</time>
      </trkpt>
      <trkpt lat="49.94261" lon="2.16003">
        <ele>15.6</ele>
        <time>2023-06-28T12:36:02Z</time>
      </trkpt>
      <trkpt lat="49.94261" lon="2.16005">
        <ele>15.6</ele>
        <time>2023-06-28T12:36:04Z</time>
      </trkpt>
      <trkpt lat="49.94261" lon="2.16007">
        <ele>15.6</ele>
        <time>2023-06-28T12:36:05Z</time>
      </trkpt>
      <trkpt lat="49.94261" lon="2.16009">
        <ele>15.6</ele>
        <time>2023-06-28T12:36:06Z</time>
      </trkpt>
      <trkpt lat="49.94261" lon="2.16011">
        <ele>15.6</ele>
        <time>2023-06-28T12:36:07Z</time>
      </trkpt>
      <trkpt lat="49.94261" lon="2.16013">
        <ele>15.6</ele>
        <time>2023-06-28T12:36:09Z</time>
      </trkpt>
      <trkpt lat="49.94261" lon="2.16015">
        <ele>15.6</ele>
        <time>2023-06-28T12:36:10Z</time>
      </trkpt>
      <trkpt lat="49.94261" lon="2.16018">
        <ele>15.6</ele>
        <time>2023-06-28T12:36:11Z</time>
      </trkpt>
      <trkpt lat="49.94261" lon="2.1602">
        <ele>15.6</ele>
        <time>2023-06-28T12:36:12Z</time>
      </trkpt>
      <trkpt lat="49.94262" lon="2.16021">
        <ele>15.6</ele>
        <time>2023-06-28T12:36:14Z</time>
      </trkpt>
      <trkpt lat="49.94262" lon="2.16023">
        <ele>15.6</ele>
        <time>2023-06-28T12:36:15Z</time>
      </trkpt>
      <trkpt lat="49.94262" lon="2.16024">
        <ele>15.6</ele>
        <time>2023-06-28T12:36:16Z</time>
      </trkpt>
      <trkpt lat="49.94262" lon="2.16026">
        <ele>15.6</ele>
        <time>2023-06-28T12:36:17Z</time>
      </trkpt>
      <trkpt lat="49.94263" lon="2.16028">
        <ele>15.6</ele>
        <time>2023-06-28T12:36:18Z</time>
      </trkpt>
      <trkpt lat="49.94263" lon="2.1603">
        <ele>15.6</ele>
        <time>2023-06-28T12:36:19Z</time>
      </trkpt>
      <trkpt lat="49.94263" lon="2.16032">
        <ele>15.5</ele>
        <time>2023-06-28T12:36:20Z</time>
      </trkpt>
      <trkpt lat="49.94263" lon="2.16035">
        <ele>15.5</ele>
        <time>2023-06-28T12:36:21Z</time>
      </trkpt>
      <trkpt lat="49.94264" lon="2.16038">
        <ele>15.5</ele>
        <time>2023-06-28T12:36:22Z</time>
      </trkpt>
      <trkpt lat="49.94264" lon="2.1604">
        <ele>15.5</ele>
        <time>2023-06-28T12:36:23Z</time>
      </trkpt>
      <trkpt lat="49.94264" lon="2.16041">
        <ele>15.5</ele>
        <time>2023-06-28T12:36:24Z</time>
      </trkpt>
      <trkpt lat="49.94264" lon="2.16045">
        <ele>15.5</ele>
        <time>2023-06-28T12:36:26Z</time>
      </trkpt>
      <trkpt lat="49.94264" lon="2.16046">
        <ele>15.5</ele>
        <time>2023-06-28T12:36:27Z</time>
      </trkpt>
      <trkpt lat="49.94264" lon="2.16047">
        <ele>15.5</ele>
        <time>2023-06-28T12:36:28Z</time>
      </trkpt>
      <trkpt lat="49.94264" lon="2.16049">
        <ele>15.5</ele>
        <time>2023-06-28T12:36:29Z</time>
      </trkpt>
      <trkpt lat="49.94264" lon="2.16052">
        <ele>15.5</ele>
        <time>2023-06-28T12:36:30Z</time>
      </trkpt>
      <trkpt lat="49.94265" lon="2.16054">
        <ele>15.5</ele>
        <time>2023-06-28T12:36:32Z</time>
      </trkpt>
      <trkpt lat="49.94264" lon="2.16056">
        <ele>15.5</ele>
        <time>2023-06-28T12:36:33Z</time>
      </trkpt>
      <trkpt lat="49.94264" lon="2.16058">
        <ele>15.4</ele>
        <time>2023-06-28T12:36:34Z</time>
      </trkpt>
      <trkpt lat="49.94264" lon="2.16059">
        <ele>15.4</ele>
        <time>2023-06-28T12:36:35Z</time>
      </trkpt>
      <trkpt lat="49.94264" lon="2.16061">
        <ele>15.4</ele>
        <time>2023-06-28T12:36:36Z</time>
      </trkpt>
      <trkpt lat="49.94264" lon="2.16065">
        <ele>15.4</ele>
        <time>2023-06-28T12:36:37Z</time>
      </trkpt>
      <trkpt lat="49.94264" lon="2.16066">
        <ele>15.4</ele>
        <time>2023-06-28T12:36:38Z</time>
      </trkpt>
      <trkpt lat="49.94264" lon="2.16067">
        <ele>15.4</ele>
        <time>2023-06-28T12:36:39Z</time>
      </trkpt>
      <trkpt lat="49.94264" lon="2.16069">
        <ele>15.4</ele>
        <time>2023-06-28T12:36:40Z</time>
      </trkpt>
      <trkpt lat="49.94264" lon="2.16071">
        <ele>15.4</ele>
        <time>2023-06-28T12:36:41Z</time>
      </trkpt>
      <trkpt lat="49.94264" lon="2.16073">
        <ele>15.4</ele>
        <time>2023-06-28T12:36:43Z</time>
      </trkpt>
      <trkpt lat="49.94264" lon="2.16075">
        <ele>15.4</ele>
        <time>2023-06-28T12:36:44Z</time>
      </trkpt>
      <trkpt lat="49.94264" lon="2.16077">
        <ele>15.3</ele>
        <time>2023-06-28T12:36:45Z</time>
      </trkpt>
      <trkpt lat="49.94264" lon="2.16079">
        <ele>15.3</ele>
        <time>2023-06-28T12:36:46Z</time>
      </trkpt>
      <trkpt lat="49.94264" lon="2.16081">
        <ele>15.3</ele>
        <time>2023-06-28T12:36:48Z</time>
      </trkpt>
      <trkpt lat="49.94264" lon="2.16083">
        <ele>15.3</ele>
        <time>2023-06-28T12:36:49Z</time>
      </trkpt>
      <trkpt lat="49.94265" lon="2.16086">
        <ele>15.3</ele>
        <time>2023-06-28T12:36:50Z</time>
      </trkpt>
      <trkpt lat="49.94265" lon="2.16088">
        <ele>15.4</ele>
        <time>2023-06-28T12:36:51Z</time>
      </trkpt>
      <trkpt lat="49.94265" lon="2.16089">
        <ele>15.4</ele>
        <time>2023-06-28T12:36:52Z</time>
      </trkpt>
      <trkpt lat="49.94266" lon="2.16091">
        <ele>15.4</ele>
        <time>2023-06-28T12:36:53Z</time>
      </trkpt>
      <trkpt lat="49.94266" lon="2.16093">
        <ele>15.4</ele>
        <time>2023-06-28T12:36:54Z</time>
      </trkpt>
      <trkpt lat="49.94267" lon="2.16094">
        <ele>15.4</ele>
        <time>2023-06-28T12:36:56Z</time>
      </trkpt>
      <trkpt lat="49.94267" lon="2.16097">
        <ele>15.4</ele>
        <time>2023-06-28T12:36:57Z</time>
      </trkpt>
      <trkpt lat="49.94268" lon="2.16099">
        <ele>15.4</ele>
        <time>2023-06-28T12:36:58Z</time>
      </trkpt>
      <trkpt lat="49.94268" lon="2.16101">
        <ele>15.4</ele>
        <time>2023-06-28T12:36:59Z</time>
      </trkpt>
      <trkpt lat="49.94269" lon="2.16103">
        <ele>15.4</ele>
        <time>2023-06-28T12:37:00Z</time>
      </trkpt>
      <trkpt lat="49.9427" lon="2.16106">
        <ele>15.5</ele>
        <time>2023-06-28T12:37:02Z</time>
      </trkpt>
      <trkpt lat="49.9427" lon="2.16107">
        <ele>15.5</ele>
        <time>2023-06-28T12:37:03Z</time>
      </trkpt>
      <trkpt lat="49.94271" lon="2.16111">
        <ele>15.5</ele>
        <time>2023-06-28T12:37:04Z</time>
      </trkpt>
      <trkpt lat="49.94272" lon="2.16113">
        <ele>15.5</ele>
        <time>2023-06-28T12:37:06Z</time>
      </trkpt>
      <trkpt lat="49.94272" lon="2.16115">
        <ele>15.5</ele>
        <time>2023-06-28T12:37:07Z</time>
      </trkpt>
      <trkpt lat="49.94272" lon="2.16116">
        <ele>15.5</ele>
        <time>2023-06-28T12:37:08Z</time>
      </trkpt>
      <trkpt lat="49.94273" lon="2.16118">
        <ele>15.5</ele>
        <time>2023-06-28T12:37:09Z</time>
      </trkpt>
      <trkpt lat="49.94273" lon="2.16122">
        <ele>15.5</ele>
        <time>2023-06-28T12:37:11Z</time>
      </trkpt>
      <trkpt lat="49.94273" lon="2.16123">
        <ele>15.5</ele>
        <time>2023-06-28T12:37:12Z</time>
      </trkpt>
      <trkpt lat="49.94274" lon="2.16124">
        <ele>15.5</ele>
        <time>2023-06-28T12:37:13Z</time>
      </trkpt>
      <trkpt lat="49.94274" lon="2.16129">
        <ele>15.5</ele>
        <time>2023-06-28T12:37:15Z</time>
      </trkpt>
      <trkpt lat="49.94275" lon="2.16131">
        <ele>15.5</ele>
        <time>2023-06-28T12:37:16Z</time>
      </trkpt>
      <trkpt lat="49.94276" lon="2.16133">
        <ele>15.5</ele>
        <time>2023-06-28T12:37:17Z</time>
      </trkpt>
      <trkpt lat="49.94276" lon="2.16136">
        <ele>15.5</ele>
        <time>2023-06-28T12:37:18Z</time>
      </trkpt>
      <trkpt lat="49.94276" lon="2.16138">
        <ele>15.5</ele>
        <time>2023-06-28T12:37:19Z</time>
      </trkpt>
      <trkpt lat="49.94276" lon="2.16139">
        <ele>15.5</ele>
        <time>2023-06-28T12:37:20Z</time>
      </trkpt>
      <trkpt lat="49.94276" lon="2.16141">
        <ele>15.5</ele>
        <time>2023-06-28T12:37:22Z</time>
      </trkpt>
      <trkpt lat="49.94277" lon="2.16143">
        <ele>15.5</ele>
        <time>2023-06-28T12:37:23Z</time>
      </trkpt>
      <trkpt lat="49.94277" lon="2.16145">
        <ele>15.5</ele>
        <time>2023-06-28T12:37:24Z</time>
      </trkpt>
      <trkpt lat="49.94277" lon="2.16146">
        <ele>15.5</ele>
        <time>2023-06-28T12:37:25Z</time>
      </trkpt>
      <trkpt lat="49.94278" lon="2.1615">
        <ele>15.5</ele>
        <time>2023-06-28T12:37:27Z</time>
      </trkpt>
      <trkpt lat="49.94278" lon="2.16152">
        <ele>15.5</ele>
        <time>2023-06-28T12:37:29Z</time>
      </trkpt>
      <trkpt lat="49.94278" lon="2.16154">
        <ele>15.5</ele>
        <time>2023-06-28T12:37:30Z</time>
      </trkpt>
      <trkpt lat="49.94278" lon="2.16156">
        <ele>15.5</ele>
        <time>2023-06-28T12:37:31Z</time>
      </trkpt>
      <trkpt lat="49.94278" lon="2.16158">
        <ele>15.4</ele>
        <time>2023-06-28T12:37:32Z</time>
      </trkpt>
      <trkpt lat="49.94278" lon="2.16161">
        <ele>15.4</ele>
        <time>2023-06-28T12:37:33Z</time>
      </trkpt>
      <trkpt lat="49.94278" lon="2.16163">
        <ele>15.4</ele>
        <time>2023-06-28T12:37:35Z</time>
      </trkpt>
      <trkpt lat="49.94278" lon="2.16164">
        <ele>15.4</ele>
        <time>2023-06-28T12:37:36Z</time>
      </trkpt>
      <trkpt lat="49.94278" lon="2.16166">
        <ele>15.4</ele>
        <time>2023-06-28T12:37:37Z</time>
      </trkpt>
      <trkpt lat="49.94277" lon="2.16168">
        <ele>15.4</ele>
        <time>2023-06-28T12:37:38Z</time>
      </trkpt>
      <trkpt lat="49.94277" lon="2.1617">
        <ele>15.4</ele>
        <time>2023-06-28T12:37:40Z</time>
      </trkpt>
      <trkpt lat="49.94276" lon="2.16172">
        <ele>15.4</ele>
        <time>2023-06-28T12:37:41Z</time>
      </trkpt>
      <trkpt lat="49.94276" lon="2.16174">
        <ele>15.4</ele>
        <time>2023-06-28T12:37:42Z</time>
      </trkpt>
      <trkpt lat="49.94276" lon="2.16176">
        <ele>15.4</ele>
        <time>2023-06-28T12:37:43Z</time>
      </trkpt>
      <trkpt lat="49.94275" lon="2.16181">
        <ele>15.3</ele>
        <time>2023-06-28T12:37:45Z</time>
      </trkpt>
      <trkpt lat="49.94275" lon="2.16182">
        <ele>15.3</ele>
        <time>2023-06-28T12:37:46Z</time>
      </trkpt>
      <trkpt lat="49.94274" lon="2.16184">
        <ele>15.3</ele>
        <time>2023-06-28T12:37:47Z</time>
      </trkpt>
      <trkpt lat="49.94274" lon="2.16187">
        <ele>15.3</ele>
        <time>2023-06-28T12:37:48Z</time>
      </trkpt>
      <trkpt lat="49.94273" lon="2.16189">
        <ele>15.3</ele>
        <time>2023-06-28T12:37:49Z</time>
      </trkpt>
      <trkpt lat="49.94273" lon="2.16191">
        <ele>15.3</ele>
        <time>2023-06-28T12:37:51Z</time>
      </trkpt>
      <trkpt lat="49.94272" lon="2.16193">
        <ele>15.3</ele>
        <time>2023-06-28T12:37:52Z</time>
      </trkpt>
      <trkpt lat="49.94272" lon="2.16195">
        <ele>15.2</ele>
        <time>2023-06-28T12:37:53Z</time>
      </trkpt>
      <trkpt lat="49.94271" lon="2.16198">
        <ele>15.2</ele>
        <time>2023-06-28T12:37:54Z</time>
      </trkpt>
      <trkpt lat="49.94271" lon="2.16201">
        <ele>15.2</ele>
        <time>2023-06-28T12:37:56Z</time>
      </trkpt>
      <trkpt lat="49.94271" lon="2.16203">
        <ele>15.2</ele>
        <time>2023-06-28T12:37:57Z</time>
      </trkpt>
      <trkpt lat="49.94271" lon="2.16205">
        <ele>15.2</ele>
        <time>2023-06-28T12:37:58Z</time>
      </trkpt>
      <trkpt lat="49.9427" lon="2.16209">
        <ele>15.2</ele>
        <time>2023-06-28T12:37:59Z</time>
      </trkpt>
      <trkpt lat="49.9427" lon="2.16211">
        <ele>15.2</ele>
        <time>2023-06-28T12:38:01Z</time>
      </trkpt>
      <trkpt lat="49.9427" lon="2.16213">
        <ele>15.2</ele>
        <time>2023-06-28T12:38:02Z</time>
      </trkpt>
      <trkpt lat="49.9427" lon="2.16214">
        <ele>15.2</ele>
        <time>2023-06-28T12:38:03Z</time>
      </trkpt>
      <trkpt lat="49.9427" lon="2.16216">
        <ele>15.2</ele>
        <time>2023-06-28T12:38:04Z</time>
      </trkpt>
      <trkpt lat="49.94269" lon="2.16218">
        <ele>15.2</ele>
        <time>2023-06-28T12:38:05Z</time>
      </trkpt>
      <trkpt lat="49.94269" lon="2.1622">
        <ele>15.2</ele>
        <time>2023-06-28T12:38:06Z</time>
      </trkpt>
      <trkpt lat="49.94269" lon="2.16221">
        <ele>15.2</ele>
        <time>2023-06-28T12:38:08Z</time>
      </trkpt>
      <trkpt lat="49.94269" lon="2.16223">
        <ele>15.2</ele>
        <time>2023-06-28T12:38:09Z</time>
      </trkpt>
      <trkpt lat="49.94269" lon="2.16225">
        <ele>15.2</ele>
        <time>2023-06-28T12:38:10Z</time>
      </trkpt>
      <trkpt lat="49.94268" lon="2.16227">
        <ele>15.2</ele>
        <time>2023-06-28T12:38:11Z</time>
      </trkpt>
      <trkpt lat="49.94268" lon="2.1623">
        <ele>15.2</ele>
        <time>2023-06-28T12:38:12Z</time>
      </trkpt>
      <trkpt lat="49.94268" lon="2.16231">
        <ele>15.1</ele>
        <time>2023-06-28T12:38:13Z</time>
      </trkpt>
      <trkpt lat="49.94268" lon="2.16232">
        <ele>15.1</ele>
        <time>2023-06-28T12:38:14Z</time>
      </trkpt>
      <trkpt lat="49.94267" lon="2.16235">
        <ele>15.1</ele>
        <time>2023-06-28T12:38:16Z</time>
      </trkpt>
      <trkpt lat="49.94267" lon="2.16236">
        <ele>15.1</ele>
        <time>2023-06-28T12:38:17Z</time>
      </trkpt>
      <trkpt lat="49.94267" lon="2.16238">
        <ele>15.1</ele>
        <time>2023-06-28T12:38:18Z</time>
      </trkpt>
      <trkpt lat="49.94267" lon="2.16239">
        <ele>15.1</ele>
        <time>2023-06-28T12:38:19Z</time>
      </trkpt>
      <trkpt lat="49.94266" lon="2.16241">
        <ele>15.1</ele>
        <time>2023-06-28T12:38:20Z</time>
      </trkpt>
      <trkpt lat="49.94266" lon="2.16244">
        <ele>15.1</ele>
        <time>2023-06-28T12:38:22Z</time>
      </trkpt>
      <trkpt lat="49.94265" lon="2.16245">
        <ele>15.1</ele>
        <time>2023-06-28T12:38:23Z</time>
      </trkpt>
      <trkpt lat="49.94265" lon="2.16247">
        <ele>15.1</ele>
        <time>2023-06-28T12:38:24Z</time>
      </trkpt>
      <trkpt lat="49.94265" lon="2.16249">
        <ele>15.1</ele>
        <time>2023-06-28T12:38:25Z</time>
      </trkpt>
      <trkpt lat="49.94265" lon="2.16252">
        <ele>15.1</ele>
        <time>2023-06-28T12:38:27Z</time>
      </trkpt>
      <trkpt lat="49.94264" lon="2.16254">
        <ele>15.1</ele>
        <time>2023-06-28T12:38:28Z</time>
      </trkpt>
      <trkpt lat="49.94264" lon="2.16257">
        <ele>15</ele>
        <time>2023-06-28T12:38:30Z</time>
      </trkpt>
      <trkpt lat="49.94264" lon="2.16259">
        <ele>15</ele>
        <time>2023-06-28T12:38:32Z</time>
      </trkpt>
      <trkpt lat="49.94264" lon="2.1626">
        <ele>15</ele>
        <time>2023-06-28T12:38:33Z</time>
      </trkpt>
      <trkpt lat="49.94264" lon="2.16261">
        <ele>15</ele>
        <time>2023-06-28T12:38:34Z</time>
      </trkpt>
      <trkpt lat="49.94264" lon="2.16263">
        <ele>15</ele>
        <time>2023-06-28T12:38:35Z</time>
      </trkpt>
      <trkpt lat="49.94263" lon="2.16264">
        <ele>15</ele>
        <time>2023-06-28T12:38:36Z</time>
      </trkpt>
      <trkpt lat="49.94264" lon="2.16264">
        <ele>15</ele>
        <time>2023-06-28T12:38:37Z</time>
      </trkpt>
      <trkpt lat="49.94263" lon="2.16265">
        <ele>15</ele>
        <time>2023-06-28T12:38:39Z</time>
      </trkpt>
      <trkpt lat="49.94263" lon="2.16267">
        <ele>15</ele>
        <time>2023-06-28T12:38:40Z</time>
      </trkpt>
      <trkpt lat="49.94263" lon="2.16269">
        <ele>15</ele>
        <time>2023-06-28T12:38:41Z</time>
      </trkpt>
      <trkpt lat="49.94263" lon="2.16271">
        <ele>15</ele>
        <time>2023-06-28T12:38:42Z</time>
      </trkpt>
      <trkpt lat="49.94263" lon="2.16272">
        <ele>15</ele>
        <time>2023-06-28T12:38:43Z</time>
      </trkpt>
      <trkpt lat="49.94263" lon="2.16274">
        <ele>15</ele>
        <time>2023-06-28T12:38:44Z</time>
      </trkpt>
      <trkpt lat="49.94263" lon="2.16278">
        <ele>15</ele>
        <time>2023-06-28T12:38:46Z</time>
      </trkpt>
      <trkpt lat="49.94263" lon="2.1628">
        <ele>15</ele>
        <time>2023-06-28T12:38:48Z</time>
      </trkpt>
      <trkpt lat="49.94263" lon="2.16281">
        <ele>15</ele>
        <time>2023-06-28T12:38:49Z</time>
      </trkpt>
      <trkpt lat="49.94263" lon="2.16283">
        <ele>14.9</ele>
        <time>2023-06-28T12:38:50Z</time>
      </trkpt>
      <trkpt lat="49.94263" lon="2.16284">
        <ele>14.9</ele>
        <time>2023-06-28T12:38:51Z</time>
      </trkpt>
      <trkpt lat="49.94263" lon="2.16286">
        <ele>14.9</ele>
        <time>2023-06-28T12:38:52Z</time>
      </trkpt>
      <trkpt lat="49.94263" lon="2.16288">
        <ele>14.9</ele>
        <time>2023-06-28T12:38:53Z</time>
      </trkpt>
      <trkpt lat="49.94263" lon="2.16289">
        <ele>14.9</ele>
        <time>2023-06-28T12:38:54Z</time>
      </trkpt>
      <trkpt lat="49.94262" lon="2.16293">
        <ele>14.9</ele>
        <time>2023-06-28T12:38:55Z</time>
      </trkpt>
      <trkpt lat="49.94262" lon="2.16294">
        <ele>14.9</ele>
        <time>2023-06-28T12:38:56Z</time>
      </trkpt>
      <trkpt lat="49.94262" lon="2.16295">
        <ele>14.9</ele>
        <time>2023-06-28T12:38:57Z</time>
      </trkpt>
      <trkpt lat="49.94262" lon="2.16298">
        <ele>14.9</ele>
        <time>2023-06-28T12:38:58Z</time>
      </trkpt>
      <trkpt lat="49.94262" lon="2.163">
        <ele>14.9</ele>
        <time>2023-06-28T12:39:00Z</time>
      </trkpt>
      <trkpt lat="49.94262" lon="2.16301">
        <ele>14.9</ele>
        <time>2023-06-28T12:39:01Z</time>
      </trkpt>
      <trkpt lat="49.94262" lon="2.16304">
        <ele>14.9</ele>
        <time>2023-06-28T12:39:02Z</time>
      </trkpt>
      <trkpt lat="49.94262" lon="2.16306">
        <ele>14.9</ele>
        <time>2023-06-28T12:39:03Z</time>
      </trkpt>
      <trkpt lat="49.94261" lon="2.16307">
        <ele>14.9</ele>
        <time>2023-06-28T12:39:04Z</time>
      </trkpt>
      <trkpt lat="49.94261" lon="2.16309">
        <ele>14.9</ele>
        <time>2023-06-28T12:39:05Z</time>
      </trkpt>
      <trkpt lat="49.94261" lon="2.16311">
        <ele>14.9</ele>
        <time>2023-06-28T12:39:06Z</time>
      </trkpt>
      <trkpt lat="49.94261" lon="2.16313">
        <ele>14.9</ele>
        <time>2023-06-28T12:39:08Z</time>
      </trkpt>
      <trkpt lat="49.9426" lon="2.16315">
        <ele>14.9</ele>
        <time>2023-06-28T12:39:09Z</time>
      </trkpt>
      <trkpt lat="49.9426" lon="2.16317">
        <ele>14.9</ele>
        <time>2023-06-28T12:39:10Z</time>
      </trkpt>
      <trkpt lat="49.94259" lon="2.16322">
        <ele>14.9</ele>
        <time>2023-06-28T12:39:12Z</time>
      </trkpt>
      <trkpt lat="49.94258" lon="2.16323">
        <ele>14.9</ele>
        <time>2023-06-28T12:39:13Z</time>
      </trkpt>
      <trkpt lat="49.94258" lon="2.16325">
        <ele>14.9</ele>
        <time>2023-06-28T12:39:14Z</time>
      </trkpt>
      <trkpt lat="49.94258" lon="2.16327">
        <ele>14.9</ele>
        <time>2023-06-28T12:39:15Z</time>
      </trkpt>
      <trkpt lat="49.94257" lon="2.16331">
        <ele>14.9</ele>
        <time>2023-06-28T12:39:16Z</time>
      </trkpt>
      <trkpt lat="49.94257" lon="2.16333">
        <ele>14.9</ele>
        <time>2023-06-28T12:39:18Z</time>
      </trkpt>
      <trkpt lat="49.94256" lon="2.16334">
        <ele>14.9</ele>
        <time>2023-06-28T12:39:19Z</time>
      </trkpt>
      <trkpt lat="49.94256" lon="2.16336">
        <ele>14.8</ele>
        <time>2023-06-28T12:39:21Z</time>
      </trkpt>
      <trkpt lat="49.94256" lon="2.16338">
        <ele>14.8</ele>
        <time>2023-06-28T12:39:22Z</time>
      </trkpt>
      <trkpt lat="49.94255" lon="2.16339">
        <ele>14.8</ele>
        <time>2023-06-28T12:39:23Z</time>
      </trkpt>
      <trkpt lat="49.94255" lon="2.16341">
        <ele>14.8</ele>
        <time>2023-06-28T12:39:24Z</time>
      </trkpt>
      <trkpt lat="49.94255" lon="2.16343">
        <ele>14.8</ele>
        <time>2023-06-28T12:39:25Z</time>
      </trkpt>
      <trkpt lat="49.94255" lon="2.16346">
        <ele>14.8</ele>
        <time>2023-06-28T12:39:27Z</time>
      </trkpt>
      <trkpt lat="49.94255" lon="2.16347">
        <ele>14.8</ele>
        <time>2023-06-28T12:39:28Z</time>
      </trkpt>
      <trkpt lat="49.94255" lon="2.16351">
        <ele>14.8</ele>
        <time>2023-06-28T12:39:29Z</time>
      </trkpt>
      <trkpt lat="49.94255" lon="2.16352">
        <ele>14.8</ele>
        <time>2023-06-28T12:39:30Z</time>
      </trkpt>
      <trkpt lat="49.94255" lon="2.16353">
        <ele>14.8</ele>
        <time>2023-06-28T12:39:31Z</time>
      </trkpt>
      <trkpt lat="49.94255" lon="2.16355">
        <ele>14.8</ele>
        <time>2023-06-28T12:39:32Z</time>
      </trkpt>
      <trkpt lat="49.94255" lon="2.16357">
        <ele>14.8</ele>
        <time>2023-06-28T12:39:34Z</time>
      </trkpt>
      <trkpt lat="49.94255" lon="2.16358">
        <ele>14.8</ele>
        <time>2023-06-28T12:39:35Z</time>
      </trkpt>
      <trkpt lat="49.94255" lon="2.1636">
        <ele>14.8</ele>
        <time>2023-06-28T12:39:36Z</time>
      </trkpt>
      <trkpt lat="49.94255" lon="2.16362">
        <ele>14.8</ele>
        <time>2023-06-28T12:39:37Z</time>
      </trkpt>
      <trkpt lat="49.94255" lon="2.16365">
        <ele>14.8</ele>
        <time>2023-06-28T12:39:39Z</time>
      </trkpt>
      <trkpt lat="49.94255" lon="2.16367">
        <ele>14.8</ele>
        <time>2023-06-28T12:39:40Z</time>
      </trkpt>
      <trkpt lat="49.94255" lon="2.1637">
        <ele>14.8</ele>
        <time>2023-06-28T12:39:41Z</time>
      </trkpt>
      <trkpt lat="49.94254" lon="2.16372">
        <ele>14.8</ele>
        <time>2023-06-28T12:39:42Z</time>
      </trkpt>
      <trkpt lat="49.94254" lon="2.16374">
        <ele>14.8</ele>
        <time>2023-06-28T12:39:43Z</time>
      </trkpt>
      <trkpt lat="49.94254" lon="2.16376">
        <ele>14.8</ele>
        <time>2023-06-28T12:39:44Z</time>
      </trkpt>
      <trkpt lat="49.94254" lon="2.16378">
        <ele>14.8</ele>
        <time>2023-06-28T12:39:45Z</time>
      </trkpt>
      <trkpt lat="49.94254" lon="2.1638">
        <ele>14.8</ele>
        <time>2023-06-28T12:39:47Z</time>
      </trkpt>
      <trkpt lat="49.94254" lon="2.16382">
        <ele>14.7</ele>
        <time>2023-06-28T12:39:48Z</time>
      </trkpt>
      <trkpt lat="49.94254" lon="2.16384">
        <ele>14.7</ele>
        <time>2023-06-28T12:39:49Z</time>
      </trkpt>
      <trkpt lat="49.94254" lon="2.16387">
        <ele>14.7</ele>
        <time>2023-06-28T12:39:50Z</time>
      </trkpt>
      <trkpt lat="49.94254" lon="2.16389">
        <ele>14.7</ele>
        <time>2023-06-28T12:39:51Z</time>
      </trkpt>
      <trkpt lat="49.94254" lon="2.16392">
        <ele>14.6</ele>
        <time>2023-06-28T12:39:53Z</time>
      </trkpt>
      <trkpt lat="49.94254" lon="2.16394">
        <ele>14.6</ele>
        <time>2023-06-28T12:39:54Z</time>
      </trkpt>
      <trkpt lat="49.94254" lon="2.16396">
        <ele>14.6</ele>
        <time>2023-06-28T12:39:55Z</time>
      </trkpt>
      <trkpt lat="49.94254" lon="2.16398">
        <ele>14.6</ele>
        <time>2023-06-28T12:39:56Z</time>
      </trkpt>
      <trkpt lat="49.94255" lon="2.164">
        <ele>14.6</ele>
        <time>2023-06-28T12:39:57Z</time>
      </trkpt>
      <trkpt lat="49.94255" lon="2.16403">
        <ele>14.6</ele>
        <time>2023-06-28T12:39:58Z</time>
      </trkpt>
      <trkpt lat="49.94254" lon="2.16406">
        <ele>14.6</ele>
        <time>2023-06-28T12:40:00Z</time>
      </trkpt>
      <trkpt lat="49.94254" lon="2.16408">
        <ele>14.6</ele>
        <time>2023-06-28T12:40:01Z</time>
      </trkpt>
      <trkpt lat="49.94254" lon="2.16409">
        <ele>14.6</ele>
        <time>2023-06-28T12:40:02Z</time>
      </trkpt>
      <trkpt lat="49.94254" lon="2.16411">
        <ele>14.6</ele>
        <time>2023-06-28T12:40:03Z</time>
      </trkpt>
      <trkpt lat="49.94254" lon="2.16413">
        <ele>14.6</ele>
        <time>2023-06-28T12:40:04Z</time>
      </trkpt>
      <trkpt lat="49.94254" lon="2.16417">
        <ele>14.6</ele>
        <time>2023-06-28T12:40:05Z</time>
      </trkpt>
      <trkpt lat="49.94254" lon="2.16419">
        <ele>14.6</ele>
        <time>2023-06-28T12:40:07Z</time>
      </trkpt>
      <trkpt lat="49.94253" lon="2.16421">
        <ele>14.6</ele>
        <time>2023-06-28T12:40:08Z</time>
      </trkpt>
      <trkpt lat="49.94253" lon="2.16422">
        <ele>14.6</ele>
        <time>2023-06-28T12:40:09Z</time>
      </trkpt>
      <trkpt lat="49.94253" lon="2.16424">
        <ele>14.6</ele>
        <time>2023-06-28T12:40:10Z</time>
      </trkpt>
      <trkpt lat="49.94252" lon="2.16427">
        <ele>14.5</ele>
        <time>2023-06-28T12:40:11Z</time>
      </trkpt>
      <trkpt lat="49.94252" lon="2.16428">
        <ele>14.5</ele>
        <time>2023-06-28T12:40:12Z</time>
      </trkpt>
      <trkpt lat="49.94251" lon="2.1643">
        <ele>14.5</ele>
        <time>2023-06-28T12:40:13Z</time>
      </trkpt>
      <trkpt lat="49.94251" lon="2.16432">
        <ele>14.5</ele>
        <time>2023-06-28T12:40:14Z</time>
      </trkpt>
      <trkpt lat="49.9425" lon="2.16434">
        <ele>14.5</ele>
        <time>2023-06-28T12:40:16Z</time>
      </trkpt>
      <trkpt lat="49.94249" lon="2.16436">
        <ele>14.5</ele>
        <time>2023-06-28T12:40:17Z</time>
      </trkpt>
      <trkpt lat="49.94248" lon="2.16438">
        <ele>14.5</ele>
        <time>2023-06-28T12:40:18Z</time>
      </trkpt>
      <trkpt lat="49.94248" lon="2.16439">
        <ele>14.4</ele>
        <time>2023-06-28T12:40:19Z</time>
      </trkpt>
      <trkpt lat="49.94247" lon="2.16441">
        <ele>14.4</ele>
        <time>2023-06-28T12:40:20Z</time>
      </trkpt>
      <trkpt lat="49.94246" lon="2.16444">
        <ele>14.4</ele>
        <time>2023-06-28T12:40:22Z</time>
      </trkpt>
      <trkpt lat="49.94246" lon="2.16445">
        <ele>14.4</ele>
        <time>2023-06-28T12:40:23Z</time>
      </trkpt>
      <trkpt lat="49.94245" lon="2.16447">
        <ele>14.4</ele>
        <time>2023-06-28T12:40:24Z</time>
      </trkpt>
      <trkpt lat="49.94245" lon="2.16448">
        <ele>14.4</ele>
        <time>2023-06-28T12:40:25Z</time>
      </trkpt>
      <trkpt lat="49.94244" lon="2.16452">
        <ele>14.4</ele>
        <time>2023-06-28T12:40:26Z</time>
      </trkpt>
      <trkpt lat="49.94243" lon="2.16454">
        <ele>14.4</ele>
        <time>2023-06-28T12:40:28Z</time>
      </trkpt>
      <trkpt lat="49.94243" lon="2.16456">
        <ele>14.4</ele>
        <time>2023-06-28T12:40:30Z</time>
      </trkpt>
      <trkpt lat="49.94242" lon="2.16458">
        <ele>14.4</ele>
        <time>2023-06-28T12:40:31Z</time>
      </trkpt>
      <trkpt lat="49.94242" lon="2.16461">
        <ele>14.4</ele>
        <time>2023-06-28T12:40:32Z</time>
      </trkpt>
      <trkpt lat="49.94242" lon="2.16462">
        <ele>14.4</ele>
        <time>2023-06-28T12:40:33Z</time>
      </trkpt>
      <trkpt lat="49.94241" lon="2.16464">
        <ele>14.4</ele>
        <time>2023-06-28T12:40:34Z</time>
      </trkpt>
      <trkpt lat="49.94241" lon="2.16467">
        <ele>14.4</ele>
        <time>2023-06-28T12:40:35Z</time>
      </trkpt>
      <trkpt lat="49.9424" lon="2.16468">
        <ele>14.4</ele>
        <time>2023-06-28T12:40:36Z</time>
      </trkpt>
      <trkpt lat="49.9424" lon="2.16469">
        <ele>14.4</ele>
        <time>2023-06-28T12:40:37Z</time>
      </trkpt>
      <trkpt lat="49.9424" lon="2.16471">
        <ele>14.4</ele>
        <time>2023-06-28T12:40:39Z</time>
      </trkpt>
      <trkpt lat="49.94239" lon="2.16472">
        <ele>14.4</ele>
        <time>2023-06-28T12:40:40Z</time>
      </trkpt>
      <trkpt lat="49.94239" lon="2.16474">
        <ele>14.5</ele>
        <time>2023-06-28T12:40:41Z</time>
      </trkpt>
      <trkpt lat="49.94238" lon="2.16477">
        <ele>14.5</ele>
        <time>2023-06-28T12:40:42Z</time>
      </trkpt>
      <trkpt lat="49.94238" lon="2.16479">
        <ele>14.5</ele>
        <time>2023-06-28T12:40:43Z</time>
      </trkpt>
      <trkpt lat="49.94237" lon="2.1648">
        <ele>14.5</ele>
        <time>2023-06-28T12:40:44Z</time>
      </trkpt>
      <trkpt lat="49.94237" lon="2.16482">
        <ele>14.5</ele>
        <time>2023-06-28T12:40:46Z</time>
      </trkpt>
      <trkpt lat="49.94236" lon="2.16484">
        <ele>14.5</ele>
        <time>2023-06-28T12:40:47Z</time>
      </trkpt>
      <trkpt lat="49.94235" lon="2.16487">
        <ele>14.5</ele>
        <time>2023-06-28T12:40:48Z</time>
      </trkpt>
      <trkpt lat="49.94235" lon="2.16489">
        <ele>14.5</ele>
        <time>2023-06-28T12:40:49Z</time>
      </trkpt>
      <trkpt lat="49.94235" lon="2.1649">
        <ele>14.5</ele>
        <time>2023-06-28T12:40:50Z</time>
      </trkpt>
      <trkpt lat="49.94234" lon="2.16492">
        <ele>14.5</ele>
        <time>2023-06-28T12:40:51Z</time>
      </trkpt>
      <trkpt lat="49.94234" lon="2.16494">
        <ele>14.5</ele>
        <time>2023-06-28T12:40:52Z</time>
      </trkpt>
      <trkpt lat="49.94233" lon="2.16496">
        <ele>14.5</ele>
        <time>2023-06-28T12:40:54Z</time>
      </trkpt>
      <trkpt lat="49.94232" lon="2.16498">
        <ele>14.5</ele>
        <time>2023-06-28T12:40:55Z</time>
      </trkpt>
      <trkpt lat="49.94232" lon="2.165">
        <ele>14.5</ele>
        <time>2023-06-28T12:40:56Z</time>
      </trkpt>
      <trkpt lat="49.9423" lon="2.16504">
        <ele>14.5</ele>
        <time>2023-06-28T12:40:58Z</time>
      </trkpt>
      <trkpt lat="49.9423" lon="2.16505">
        <ele>14.5</ele>
        <time>2023-06-28T12:40:59Z</time>
      </trkpt>
      <trkpt lat="49.94229" lon="2.16508">
        <ele>14.5</ele>
        <time>2023-06-28T12:41:00Z</time>
      </trkpt>
      <trkpt lat="49.94229" lon="2.16509">
        <ele>14.5</ele>
        <time>2023-06-28T12:41:01Z</time>
      </trkpt>
      <trkpt lat="49.94229" lon="2.1651">
        <ele>14.5</ele>
        <time>2023-06-28T12:41:02Z</time>
      </trkpt>
      <trkpt lat="49.94227" lon="2.16514">
        <ele>14.6</ele>
        <time>2023-06-28T12:41:03Z</time>
      </trkpt>
      <trkpt lat="49.94227" lon="2.16515">
        <ele>14.6</ele>
        <time>2023-06-28T12:41:05Z</time>
      </trkpt>
      <trkpt lat="49.94227" lon="2.16517">
        <ele>14.6</ele>
        <time>2023-06-28T12:41:06Z</time>
      </trkpt>
      <trkpt lat="49.94226" lon="2.16518">
        <ele>14.6</ele>
        <time>2023-06-28T12:41:07Z</time>
      </trkpt>
      <trkpt lat="49.94226" lon="2.1652">
        <ele>14.6</ele>
        <time>2023-06-28T12:41:08Z</time>
      </trkpt>
      <trkpt lat="49.94226" lon="2.16522">
        <ele>14.6</ele>
        <time>2023-06-28T12:41:09Z</time>
      </trkpt>
      <trkpt lat="49.94225" lon="2.16524">
        <ele>14.6</ele>
        <time>2023-06-28T12:41:10Z</time>
      </trkpt>
      <trkpt lat="49.94224" lon="2.16526">
        <ele>14.6</ele>
        <time>2023-06-28T12:41:12Z</time>
      </trkpt>
      <trkpt lat="49.94224" lon="2.16528">
        <ele>14.6</ele>
        <time>2023-06-28T12:41:13Z</time>
      </trkpt>
      <trkpt lat="49.94223" lon="2.1653">
        <ele>14.6</ele>
        <time>2023-06-28T12:41:14Z</time>
      </trkpt>
      <trkpt lat="49.94222" lon="2.16532">
        <ele>14.6</ele>
        <time>2023-06-28T12:41:15Z</time>
      </trkpt>
      <trkpt lat="49.94222" lon="2.16534">
        <ele>14.6</ele>
        <time>2023-06-28T12:41:16Z</time>
      </trkpt>
      <trkpt lat="49.94222" lon="2.16535">
        <ele>14.7</ele>
        <time>2023-06-28T12:41:17Z</time>
      </trkpt>
      <trkpt lat="49.94221" lon="2.16537">
        <ele>14.7</ele>
        <time>2023-06-28T12:41:19Z</time>
      </trkpt>
      <trkpt lat="49.94221" lon="2.16538">
        <ele>14.7</ele>
        <time>2023-06-28T12:41:20Z</time>
      </trkpt>
      <trkpt lat="49.9422" lon="2.1654">
        <ele>14.7</ele>
        <time>2023-06-28T12:41:21Z</time>
      </trkpt>
      <trkpt lat="49.9422" lon="2.16542">
        <ele>14.7</ele>
        <time>2023-06-28T12:41:22Z</time>
      </trkpt>
      <trkpt lat="49.94219" lon="2.16543">
        <ele>14.7</ele>
        <time>2023-06-28T12:41:23Z</time>
      </trkpt>
      <trkpt lat="49.94219" lon="2.16544">
        <ele>14.7</ele>
        <time>2023-06-28T12:41:24Z</time>
      </trkpt>
      <trkpt lat="49.94218" lon="2.16546">
        <ele>14.7</ele>
        <time>2023-06-28T12:41:25Z</time>
      </trkpt>
      <trkpt lat="49.94217" lon="2.16547">
        <ele>14.7</ele>
        <time>2023-06-28T12:41:26Z</time>
      </trkpt>
      <trkpt lat="49.94216" lon="2.16549">
        <ele>14.7</ele>
        <time>2023-06-28T12:41:28Z</time>
      </trkpt>
      <trkpt lat="49.94216" lon="2.1655">
        <ele>14.7</ele>
        <time>2023-06-28T12:41:29Z</time>
      </trkpt>
      <trkpt lat="49.94215" lon="2.16552">
        <ele>14.7</ele>
        <time>2023-06-28T12:41:30Z</time>
      </trkpt>
      <trkpt lat="49.94215" lon="2.16554">
        <ele>14.7</ele>
        <time>2023-06-28T12:41:31Z</time>
      </trkpt>
      <trkpt lat="49.94213" lon="2.16557">
        <ele>14.8</ele>
        <time>2023-06-28T12:41:33Z</time>
      </trkpt>
      <trkpt lat="49.94212" lon="2.1656">
        <ele>14.8</ele>
        <time>2023-06-28T12:41:35Z</time>
      </trkpt>
      <trkpt lat="49.94212" lon="2.16562">
        <ele>14.8</ele>
        <time>2023-06-28T12:41:36Z</time>
      </trkpt>
      <trkpt lat="49.94211" lon="2.16563">
        <ele>14.8</ele>
        <time>2023-06-28T12:41:37Z</time>
      </trkpt>
      <trkpt lat="49.94211" lon="2.16564">
        <ele>14.8</ele>
        <time>2023-06-28T12:41:38Z</time>
      </trkpt>
      <trkpt lat="49.9421" lon="2.16567">
        <ele>14.8</ele>
        <time>2023-06-28T12:41:39Z</time>
      </trkpt>
      <trkpt lat="49.9421" lon="2.16568">
        <ele>14.8</ele>
        <time>2023-06-28T12:41:40Z</time>
      </trkpt>
      <trkpt lat="49.9421" lon="2.1657">
        <ele>14.8</ele>
        <time>2023-06-28T12:41:41Z</time>
      </trkpt>
      <trkpt lat="49.94209" lon="2.16572">
        <ele>14.8</ele>
        <time>2023-06-28T12:41:42Z</time>
      </trkpt>
      <trkpt lat="49.94209" lon="2.16574">
        <ele>14.8</ele>
        <time>2023-06-28T12:41:43Z</time>
      </trkpt>
      <trkpt lat="49.94209" lon="2.16577">
        <ele>14.8</ele>
        <time>2023-06-28T12:41:45Z</time>
      </trkpt>
      <trkpt lat="49.94209" lon="2.16579">
        <ele>14.7</ele>
        <time>2023-06-28T12:41:46Z</time>
      </trkpt>
      <trkpt lat="49.94208" lon="2.16581">
        <ele>14.7</ele>
        <time>2023-06-28T12:41:47Z</time>
      </trkpt>
      <trkpt lat="49.94208" lon="2.16583">
        <ele>14.7</ele>
        <time>2023-06-28T12:41:48Z</time>
      </trkpt>
      <trkpt lat="49.94208" lon="2.16585">
        <ele>14.7</ele>
        <time>2023-06-28T12:41:49Z</time>
      </trkpt>
      <trkpt lat="49.94208" lon="2.16588">
        <ele>14.7</ele>
        <time>2023-06-28T12:41:50Z</time>
      </trkpt>
      <trkpt lat="49.94208" lon="2.16591">
        <ele>14.7</ele>
        <time>2023-06-28T12:41:51Z</time>
      </trkpt>
      <trkpt lat="49.94208" lon="2.16593">
        <ele>14.6</ele>
        <time>2023-06-28T12:41:52Z</time>
      </trkpt>
      <trkpt lat="49.94209" lon="2.16594">
        <ele>14.6</ele>
        <time>2023-06-28T12:41:54Z</time>
      </trkpt>
      <trkpt lat="49.94209" lon="2.16596">
        <ele>14.6</ele>
        <time>2023-06-28T12:41:55Z</time>
      </trkpt>
      <trkpt lat="49.94209" lon="2.16597">
        <ele>14.6</ele>
        <time>2023-06-28T12:41:56Z</time>
      </trkpt>
      <trkpt lat="49.94209" lon="2.16599">
        <ele>14.6</ele>
        <time>2023-06-28T12:41:57Z</time>
      </trkpt>
      <trkpt lat="49.9421" lon="2.166">
        <ele>14.6</ele>
        <time>2023-06-28T12:41:58Z</time>
      </trkpt>
      <trkpt lat="49.9421" lon="2.16601">
        <ele>14.6</ele>
        <time>2023-06-28T12:41:59Z</time>
      </trkpt>
      <trkpt lat="49.9421" lon="2.16603">
        <ele>14.6</ele>
        <time>2023-06-28T12:42:00Z</time>
      </trkpt>
      <trkpt lat="49.9421" lon="2.16604">
        <ele>14.6</ele>
        <time>2023-06-28T12:42:01Z</time>
      </trkpt>
      <trkpt lat="49.9421" lon="2.16607">
        <ele>14.6</ele>
        <time>2023-06-28T12:42:03Z</time>
      </trkpt>
      <trkpt lat="49.94211" lon="2.16609">
        <ele>14.6</ele>
        <time>2023-06-28T12:42:04Z</time>
      </trkpt>
      <trkpt lat="49.94211" lon="2.1661">
        <ele>14.6</ele>
        <time>2023-06-28T12:42:05Z</time>
      </trkpt>
      <trkpt lat="49.94211" lon="2.16612">
        <ele>14.6</ele>
        <time>2023-06-28T12:42:06Z</time>
      </trkpt>
      <trkpt lat="49.94211" lon="2.16615">
        <ele>14.6</ele>
        <time>2023-06-28T12:42:07Z</time>
      </trkpt>
      <trkpt lat="49.94211" lon="2.16616">
        <ele>14.6</ele>
        <time>2023-06-28T12:42:08Z</time>
      </trkpt>
      <trkpt lat="49.94211" lon="2.16618">
        <ele>14.6</ele>
        <time>2023-06-28T12:42:09Z</time>
      </trkpt>
      <trkpt lat="49.94211" lon="2.16621">
        <ele>14.6</ele>
        <time>2023-06-28T12:42:10Z</time>
      </trkpt>
      <trkpt lat="49.94211" lon="2.16623">
        <ele>14.6</ele>
        <time>2023-06-28T12:42:12Z</time>
      </trkpt>
      <trkpt lat="49.94212" lon="2.16624">
        <ele>14.6</ele>
        <time>2023-06-28T12:42:13Z</time>
      </trkpt>
      <trkpt lat="49.94212" lon="2.16626">
        <ele>14.6</ele>
        <time>2023-06-28T12:42:14Z</time>
      </trkpt>
      <trkpt lat="49.94212" lon="2.16628">
        <ele>14.6</ele>
        <time>2023-06-28T12:42:15Z</time>
      </trkpt>
      <trkpt lat="49.94213" lon="2.1663">
        <ele>14.6</ele>
        <time>2023-06-28T12:42:16Z</time>
      </trkpt>
      <trkpt lat="49.94213" lon="2.16632">
        <ele>14.6</ele>
        <time>2023-06-28T12:42:17Z</time>
      </trkpt>
      <trkpt lat="49.94214" lon="2.16633">
        <ele>14.6</ele>
        <time>2023-06-28T12:42:19Z</time>
      </trkpt>
      <trkpt lat="49.94215" lon="2.16637">
        <ele>14.6</ele>
        <time>2023-06-28T12:42:20Z</time>
      </trkpt>
      <trkpt lat="49.94215" lon="2.16638">
        <ele>14.6</ele>
        <time>2023-06-28T12:42:21Z</time>
      </trkpt>
      <trkpt lat="49.94215" lon="2.1664">
        <ele>14.6</ele>
        <time>2023-06-28T12:42:22Z</time>
      </trkpt>
      <trkpt lat="49.94215" lon="2.16642">
        <ele>14.6</ele>
        <time>2023-06-28T12:42:23Z</time>
      </trkpt>
      <trkpt lat="49.94216" lon="2.16644">
        <ele>14.6</ele>
        <time>2023-06-28T12:42:25Z</time>
      </trkpt>
      <trkpt lat="49.94216" lon="2.16646">
        <ele>14.6</ele>
        <time>2023-06-28T12:42:26Z</time>
      </trkpt>
      <trkpt lat="49.94216" lon="2.16649">
        <ele>14.6</ele>
        <time>2023-06-28T12:42:27Z</time>
      </trkpt>
      <trkpt lat="49.94216" lon="2.16651">
        <ele>14.6</ele>
        <time>2023-06-28T12:42:28Z</time>
      </trkpt>
      <trkpt lat="49.94215" lon="2.16653">
        <ele>14.6</ele>
        <time>2023-06-28T12:42:29Z</time>
      </trkpt>
      <trkpt lat="49.94215" lon="2.16654">
        <ele>14.6</ele>
        <time>2023-06-28T12:42:30Z</time>
      </trkpt>
      <trkpt lat="49.94215" lon="2.16656">
        <ele>14.6</ele>
        <time>2023-06-28T12:42:31Z</time>
      </trkpt>
      <trkpt lat="49.94214" lon="2.16658">
        <ele>14.6</ele>
        <time>2023-06-28T12:42:33Z</time>
      </trkpt>
      <trkpt lat="49.94214" lon="2.16661">
        <ele>14.6</ele>
        <time>2023-06-28T12:42:34Z</time>
      </trkpt>
      <trkpt lat="49.94213" lon="2.16663">
        <ele>14.6</ele>
        <time>2023-06-28T12:42:35Z</time>
      </trkpt>
      <trkpt lat="49.94213" lon="2.16664">
        <ele>14.6</ele>
        <time>2023-06-28T12:42:36Z</time>
      </trkpt>
      <trkpt lat="49.94213" lon="2.16666">
        <ele>14.6</ele>
        <time>2023-06-28T12:42:38Z</time>
      </trkpt>
      <trkpt lat="49.94213" lon="2.16668">
        <ele>14.6</ele>
        <time>2023-06-28T12:42:39Z</time>
      </trkpt>
      <trkpt lat="49.94213" lon="2.16669">
        <ele>14.6</ele>
        <time>2023-06-28T12:42:40Z</time>
      </trkpt>
      <trkpt lat="49.94213" lon="2.16672">
        <ele>14.6</ele>
        <time>2023-06-28T12:42:41Z</time>
      </trkpt>
      <trkpt lat="49.94213" lon="2.16674">
        <ele>14.6</ele>
        <time>2023-06-28T12:42:42Z</time>
      </trkpt>
      <trkpt lat="49.94213" lon="2.16675">
        <ele>14.6</ele>
        <time>2023-06-28T12:42:43Z</time>
      </trkpt>
      <trkpt lat="49.94212" lon="2.16678">
        <ele>14.6</ele>
        <time>2023-06-28T12:42:44Z</time>
      </trkpt>
      <trkpt lat="49.94212" lon="2.1668">
        <ele>14.6</ele>
        <time>2023-06-28T12:42:45Z</time>
      </trkpt>
      <trkpt lat="49.94211" lon="2.16683">
        <ele>14.6</ele>
        <time>2023-06-28T12:42:46Z</time>
      </trkpt>
      <trkpt lat="49.94211" lon="2.16685">
        <ele>14.6</ele>
        <time>2023-06-28T12:42:47Z</time>
      </trkpt>
      <trkpt lat="49.94211" lon="2.16688">
        <ele>14.6</ele>
        <time>2023-06-28T12:42:49Z</time>
      </trkpt>
      <trkpt lat="49.9421" lon="2.1669">
        <ele>14.6</ele>
        <time>2023-06-28T12:42:50Z</time>
      </trkpt>
      <trkpt lat="49.9421" lon="2.16692">
        <ele>14.6</ele>
        <time>2023-06-28T12:42:51Z</time>
      </trkpt>
      <trkpt lat="49.9421" lon="2.16694">
        <ele>14.6</ele>
        <time>2023-06-28T12:42:52Z</time>
      </trkpt>
      <trkpt lat="49.9421" lon="2.16698">
        <ele>14.6</ele>
        <time>2023-06-28T12:42:53Z</time>
      </trkpt>
      <trkpt lat="49.9421" lon="2.16699">
        <ele>14.6</ele>
        <time>2023-06-28T12:42:54Z</time>
      </trkpt>
      <trkpt lat="49.9421" lon="2.167">
        <ele>14.6</ele>
        <time>2023-06-28T12:42:55Z</time>
      </trkpt>
      <trkpt lat="49.94211" lon="2.16702">
        <ele>14.6</ele>
        <time>2023-06-28T12:42:56Z</time>
      </trkpt>
      <trkpt lat="49.94211" lon="2.16705">
        <ele>14.6</ele>
        <time>2023-06-28T12:42:58Z</time>
      </trkpt>
      <trkpt lat="49.94211" lon="2.16706">
        <ele>14.6</ele>
        <time>2023-06-28T12:42:59Z</time>
      </trkpt>
      <trkpt lat="49.94211" lon="2.16709">
        <ele>14.6</ele>
        <time>2023-06-28T12:43:01Z</time>
      </trkpt>
      <trkpt lat="49.94211" lon="2.16711">
        <ele>14.6</ele>
        <time>2023-06-28T12:43:02Z</time>
      </trkpt>
      <trkpt lat="49.94211" lon="2.16712">
        <ele>14.6</ele>
        <time>2023-06-28T12:43:03Z</time>
      </trkpt>
      <trkpt lat="49.94212" lon="2.16714">
        <ele>14.5</ele>
        <time>2023-06-28T12:43:04Z</time>
      </trkpt>
      <trkpt lat="49.94212" lon="2.16716">
        <ele>14.5</ele>
        <time>2023-06-28T12:43:05Z</time>
      </trkpt>
      <trkpt lat="49.94213" lon="2.16718">
        <ele>14.5</ele>
        <time>2023-06-28T12:43:06Z</time>
      </trkpt>
      <trkpt lat="49.94214" lon="2.1672">
        <ele>14.5</ele>
        <time>2023-06-28T12:43:08Z</time>
      </trkpt>
      <trkpt lat="49.94214" lon="2.16722">
        <ele>14.5</ele>
        <time>2023-06-28T12:43:09Z</time>
      </trkpt>
      <trkpt lat="49.94215" lon="2.16727">
        <ele>14.5</ele>
        <time>2023-06-28T12:43:11Z</time>
      </trkpt>
      <trkpt lat="49.94215" lon="2.16728">
        <ele>14.5</ele>
        <time>2023-06-28T12:43:12Z</time>
      </trkpt>
      <trkpt lat="49.94215" lon="2.16733">
        <ele>14.5</ele>
        <time>2023-06-28T12:43:13Z</time>
      </trkpt>
      <trkpt lat="49.94215" lon="2.16734">
        <ele>14.5</ele>
        <time>2023-06-28T12:43:14Z</time>
      </trkpt>
      <trkpt lat="49.94216" lon="2.16737">
        <ele>14.5</ele>
        <time>2023-06-28T12:43:16Z</time>
      </trkpt>
      <trkpt lat="49.94216" lon="2.16738">
        <ele>14.5</ele>
        <time>2023-06-28T12:43:17Z</time>
      </trkpt>
      <trkpt lat="49.94216" lon="2.16739">
        <ele>14.5</ele>
        <time>2023-06-28T12:43:18Z</time>
      </trkpt>
      <trkpt lat="49.94216" lon="2.1674">
        <ele>14.6</ele>
        <time>2023-06-28T12:43:19Z</time>
      </trkpt>
      <trkpt lat="49.94216" lon="2.16741">
        <ele>14.6</ele>
        <time>2023-06-28T12:43:20Z</time>
      </trkpt>
      <trkpt lat="49.94216" lon="2.16742">
        <ele>14.6</ele>
        <time>2023-06-28T12:43:22Z</time>
      </trkpt>
      <trkpt lat="49.94216" lon="2.16743">
        <ele>14.6</ele>
        <time>2023-06-28T12:43:23Z</time>
      </trkpt>
      <trkpt lat="49.94216" lon="2.16744">
        <ele>14.6</ele>
        <time>2023-06-28T12:43:24Z</time>
      </trkpt>
      <trkpt lat="49.94216" lon="2.16745">
        <ele>14.6</ele>
        <time>2023-06-28T12:43:25Z</time>
      </trkpt>
      <trkpt lat="49.94215" lon="2.16746">
        <ele>14.6</ele>
        <time>2023-06-28T12:43:27Z</time>
      </trkpt>
      <trkpt lat="49.94214" lon="2.16747">
        <ele>14.6</ele>
        <time>2023-06-28T12:43:28Z</time>
      </trkpt>
      <trkpt lat="49.94213" lon="2.16748">
        <ele>14.6</ele>
        <time>2023-06-28T12:43:30Z</time>
      </trkpt>
      <trkpt lat="49.94213" lon="2.16748">
        <ele>14.6</ele>
        <time>2023-06-28T12:43:31Z</time>
      </trkpt>
      <trkpt lat="49.94213" lon="2.16748">
        <ele>14.6</ele>
        <time>2023-06-28T12:43:32Z</time>
      </trkpt>
      <trkpt lat="49.94213" lon="2.16748">
        <ele>14.6</ele>
        <time>2023-06-28T12:43:34Z</time>
      </trkpt>
      <trkpt lat="49.94213" lon="2.16748">
        <ele>14.6</ele>
        <time>2023-06-28T12:43:35Z</time>
      </trkpt>
      <trkpt lat="49.94212" lon="2.16748">
        <ele>14.6</ele>
        <time>2023-06-28T12:43:37Z</time>
      </trkpt>
      <trkpt lat="49.94212" lon="2.16748">
        <ele>14.6</ele>
        <time>2023-06-28T12:43:38Z</time>
      </trkpt>
      <trkpt lat="49.94213" lon="2.16748">
        <ele>14.6</ele>
        <time>2023-06-28T12:43:40Z</time>
      </trkpt>
      <trkpt lat="49.94212" lon="2.16748">
        <ele>14.6</ele>
        <time>2023-06-28T12:43:41Z</time>
      </trkpt>
      <trkpt lat="49.94212" lon="2.16748">
        <ele>14.6</ele>
        <time>2023-06-28T12:43:42Z</time>
      </trkpt>
      <trkpt lat="49.94212" lon="2.16747">
        <ele>14.6</ele>
        <time>2023-06-28T12:43:44Z</time>
      </trkpt>
      <trkpt lat="49.94212" lon="2.16747">
        <ele>14.6</ele>
        <time>2023-06-28T12:43:45Z</time>
      </trkpt>
      <trkpt lat="49.94212" lon="2.16747">
        <ele>14.6</ele>
        <time>2023-06-28T12:43:46Z</time>
      </trkpt>
      <trkpt lat="49.94212" lon="2.16747">
        <ele>14.6</ele>
        <time>2023-06-28T12:43:48Z</time>
      </trkpt>
      <trkpt lat="49.94211" lon="2.16747">
        <ele>14.6</ele>
        <time>2023-06-28T12:43:49Z</time>
      </trkpt>
      <trkpt lat="49.9421" lon="2.16745">
        <ele>14.6</ele>
        <time>2023-06-28T12:43:51Z</time>
      </trkpt>
      <trkpt lat="49.9421" lon="2.16745">
        <ele>14.7</ele>
        <time>2023-06-28T12:43:52Z</time>
      </trkpt>
      <trkpt lat="49.9421" lon="2.16744">
        <ele>14.7</ele>
        <time>2023-06-28T12:43:54Z</time>
      </trkpt>
      <trkpt lat="49.94209" lon="2.16743">
        <ele>14.7</ele>
        <time>2023-06-28T12:43:55Z</time>
      </trkpt>
      <trkpt lat="49.94209" lon="2.16743">
        <ele>14.7</ele>
        <time>2023-06-28T12:43:57Z</time>
      </trkpt>
      <trkpt lat="49.94209" lon="2.16742">
        <ele>14.7</ele>
        <time>2023-06-28T12:43:58Z</time>
      </trkpt>
      <trkpt lat="49.94209" lon="2.16742">
        <ele>14.7</ele>
        <time>2023-06-28T12:44:00Z</time>
      </trkpt>
      <trkpt lat="49.94209" lon="2.16742">
        <ele>14.7</ele>
        <time>2023-06-28T12:44:01Z</time>
      </trkpt>
      <trkpt lat="49.94209" lon="2.16742">
        <ele>14.7</ele>
        <time>2023-06-28T12:44:02Z</time>
      </trkpt>
      <trkpt lat="49.94208" lon="2.16742">
        <ele>14.7</ele>
        <time>2023-06-28T12:44:04Z</time>
      </trkpt>
      <trkpt lat="49.94208" lon="2.16741">
        <ele>14.7</ele>
        <time>2023-06-28T12:44:05Z</time>
      </trkpt>
      <trkpt lat="49.94208" lon="2.16741">
        <ele>14.7</ele>
        <time>2023-06-28T12:44:07Z</time>
      </trkpt>
      <trkpt lat="49.94208" lon="2.16741">
        <ele>14.7</ele>
        <time>2023-06-28T12:44:08Z</time>
      </trkpt>
      <trkpt lat="49.94209" lon="2.16741">
        <ele>14.7</ele>
        <time>2023-06-28T12:44:09Z</time>
      </trkpt>
      <trkpt lat="49.94209" lon="2.16741">
        <ele>14.7</ele>
        <time>2023-06-28T12:44:10Z</time>
      </trkpt>
      <trkpt lat="49.94209" lon="2.16741">
        <ele>14.7</ele>
        <time>2023-06-28T12:44:11Z</time>
      </trkpt>
      <trkpt lat="49.94209" lon="2.16741">
        <ele>14.7</ele>
        <time>2023-06-28T12:44:12Z</time>
      </trkpt>
      <trkpt lat="49.94209" lon="2.16741">
        <ele>14.7</ele>
        <time>2023-06-28T12:44:13Z</time>
      </trkpt>
      <trkpt lat="49.94209" lon="2.16741">
        <ele>14.7</ele>
        <time>2023-06-28T12:44:14Z</time>
      </trkpt>
      <trkpt lat="49.94209" lon="2.16741">
        <ele>14.7</ele>
        <time>2023-06-28T12:44:15Z</time>
      </trkpt>
      <trkpt lat="49.94209" lon="2.16741">
        <ele>14.7</ele>
        <time>2023-06-28T12:44:16Z</time>
      </trkpt>
      <trkpt lat="49.94209" lon="2.16741">
        <ele>14.7</ele>
        <time>2023-06-28T12:44:17Z</time>
      </trkpt>
      <trkpt lat="49.94209" lon="2.16741">
        <ele>14.7</ele>
        <time>2023-06-28T12:44:18Z</time>
      </trkpt>
      <trkpt lat="49.94209" lon="2.16741">
        <ele>14.7</ele>
        <time>2023-06-28T12:44:19Z</time>
      </trkpt>
      <trkpt lat="49.94209" lon="2.16741">
        <ele>14.7</ele>
        <time>2023-06-28T12:44:20Z</time>
      </trkpt>
      <trkpt lat="49.94209" lon="2.16741">
        <ele>14.7</ele>
        <time>2023-06-28T12:44:21Z</time>
      </trkpt>
      <trkpt lat="49.94209" lon="2.16741">
        <ele>14.7</ele>
        <time>2023-06-28T12:44:22Z</time>
      </trkpt>
      <trkpt lat="49.94209" lon="2.16741">
        <ele>14.7</ele>
        <time>2023-06-28T12:44:23Z</time>
      </trkpt>
      <trkpt lat="49.94209" lon="2.16741">
        <ele>14.7</ele>
        <time>2023-06-28T12:44:24Z</time>
      </trkpt>
      <trkpt lat="49.94209" lon="2.16741">
        <ele>14.7</ele>
        <time>2023-06-28T12:44:25Z</time>
      </trkpt>
      <trkpt lat="49.94209" lon="2.16741">
        <ele>14.7</ele>
        <time>2023-06-28T12:44:26Z</time>
      </trkpt>
      <trkpt lat="49.94209" lon="2.16741">
        <ele>14.7</ele>
        <time>2023-06-28T12:44:27Z</time>
      </trkpt>
      <trkpt lat="49.94209" lon="2.16741">
        <ele>14.7</ele>
        <time>2023-06-28T12:44:28Z</time>
      </trkpt>
      <trkpt lat="49.94209" lon="2.16741">
        <ele>14.7</ele>
        <time>2023-06-28T12:44:29Z</time>
      </trkpt>
      <trkpt lat="49.94209" lon="2.16741">
        <ele>14.7</ele>
        <time>2023-06-28T12:44:30Z</time>
      </trkpt>
      <trkpt lat="49.94209" lon="2.16741">
        <ele>14.7</ele>
        <time>2023-06-28T12:44:31Z</time>
      </trkpt>
      <trkpt lat="49.94209" lon="2.16741">
        <ele>14.7</ele>
        <time>2023-06-28T12:44:32Z</time>
      </trkpt>
      <trkpt lat="49.94209" lon="2.16741">
        <ele>14.7</ele>
        <time>2023-06-28T12:44:33Z</time>
      </trkpt>
      <trkpt lat="49.94209" lon="2.16741">
        <ele>14.7</ele>
        <time>2023-06-28T12:44:34Z</time>
      </trkpt>
      <trkpt lat="49.94209" lon="2.16741">
        <ele>14.7</ele>
        <time>2023-06-28T12:44:35Z</time>
      </trkpt>
      <trkpt lat="49.94209" lon="2.16741">
        <ele>14.7</ele>
        <time>2023-06-28T12:44:36Z</time>
      </trkpt>
      <trkpt lat="49.9421" lon="2.16739">
        <ele>14.7</ele>
        <time>2023-06-28T12:44:37Z</time>
      </trkpt>
      <trkpt lat="49.9421" lon="2.16739">
        <ele>14.7</ele>
        <time>2023-06-28T12:44:38Z</time>
      </trkpt>
      <trkpt lat="49.9421" lon="2.16738">
        <ele>14.7</ele>
        <time>2023-06-28T12:44:39Z</time>
      </trkpt>
      <trkpt lat="49.94211" lon="2.16738">
        <ele>14.7</ele>
        <time>2023-06-28T12:44:40Z</time>
      </trkpt>
      <trkpt lat="49.9421" lon="2.16738">
        <ele>14.7</ele>
        <time>2023-06-28T12:44:41Z</time>
      </trkpt>
      <trkpt lat="49.9421" lon="2.16738">
        <ele>14.7</ele>
        <time>2023-06-28T12:44:42Z</time>
      </trkpt>
      <trkpt lat="49.9421" lon="2.16738">
        <ele>14.7</ele>
        <time>2023-06-28T12:44:43Z</time>
      </trkpt>
      <trkpt lat="49.9421" lon="2.16738">
        <ele>14.7</ele>
        <time>2023-06-28T12:44:44Z</time>
      </trkpt>
      <trkpt lat="49.9421" lon="2.16738">
        <ele>14.7</ele>
        <time>2023-06-28T12:44:45Z</time>
      </trkpt>
      <trkpt lat="49.9421" lon="2.16738">
        <ele>14.7</ele>
        <time>2023-06-28T12:44:46Z</time>
      </trkpt>
      <trkpt lat="49.9421" lon="2.16738">
        <ele>14.7</ele>
        <time>2023-06-28T12:44:47Z</time>
      </trkpt>
      <trkpt lat="49.9421" lon="2.16738">
        <ele>14.7</ele>
        <time>2023-06-28T12:44:48Z</time>
      </trkpt>
      <trkpt lat="49.9421" lon="2.16738">
        <ele>14.7</ele>
        <time>2023-06-28T12:44:49Z</time>
      </trkpt>
      <trkpt lat="49.9421" lon="2.16738">
        <ele>14.7</ele>
        <time>2023-06-28T12:44:50Z</time>
      </trkpt>
      <trkpt lat="49.9421" lon="2.16738">
        <ele>14.7</ele>
        <time>2023-06-28T12:44:51Z</time>
      </trkpt>
      <trkpt lat="49.9421" lon="2.16738">
        <ele>14.7</ele>
        <time>2023-06-28T12:44:52Z</time>
      </trkpt>
      <trkpt lat="49.9421" lon="2.16738">
        <ele>14.7</ele>
        <time>2023-06-28T12:44:53Z</time>
      </trkpt>
      <trkpt lat="49.9421" lon="2.16738">
        <ele>14.7</ele>
        <time>2023-06-28T12:44:54Z</time>
      </trkpt>
      <trkpt lat="49.9421" lon="2.16738">
        <ele>14.7</ele>
        <time>2023-06-28T12:44:55Z</time>
      </trkpt>
      <trkpt lat="49.94211" lon="2.16738">
        <ele>14.7</ele>
        <time>2023-06-28T12:44:57Z</time>
      </trkpt>
      <trkpt lat="49.94211" lon="2.16738">
        <ele>14.7</ele>
        <time>2023-06-28T12:44:58Z</time>
      </trkpt>
      <trkpt lat="49.94212" lon="2.16738">
        <ele>14.7</ele>
        <time>2023-06-28T12:44:59Z</time>
      </trkpt>
      <trkpt lat="49.94212" lon="2.16738">
        <ele>14.7</ele>
        <time>2023-06-28T12:45:00Z</time>
      </trkpt>
      <trkpt lat="49.94213" lon="2.16738">
        <ele>14.7</ele>
        <time>2023-06-28T12:45:01Z</time>
      </trkpt>
      <trkpt lat="49.94213" lon="2.16738">
        <ele>14.7</ele>
        <time>2023-06-28T12:45:02Z</time>
      </trkpt>
      <trkpt lat="49.94213" lon="2.16738">
        <ele>14.7</ele>
        <time>2023-06-28T12:45:03Z</time>
      </trkpt>
      <trkpt lat="49.94213" lon="2.16738">
        <ele>14.8</ele>
        <time>2023-06-28T12:45:04Z</time>
      </trkpt>
      <trkpt lat="49.94212" lon="2.16738">
        <ele>14.8</ele>
        <time>2023-06-28T12:45:05Z</time>
      </trkpt>
      <trkpt lat="49.94212" lon="2.16738">
        <ele>14.8</ele>
        <time>2023-06-28T12:45:06Z</time>
      </trkpt>
      <trkpt lat="49.94212" lon="2.16738">
        <ele>14.8</ele>
        <time>2023-06-28T12:45:07Z</time>
      </trkpt>
      <trkpt lat="49.94212" lon="2.16738">
        <ele>14.8</ele>
        <time>2023-06-28T12:45:08Z</time>
      </trkpt>
      <trkpt lat="49.94212" lon="2.16738">
        <ele>14.8</ele>
        <time>2023-06-28T12:45:09Z</time>
      </trkpt>
      <trkpt lat="49.94212" lon="2.16738">
        <ele>14.8</ele>
        <time>2023-06-28T12:45:10Z</time>
      </trkpt>
      <trkpt lat="49.94213" lon="2.16739">
        <ele>14.8</ele>
        <time>2023-06-28T12:45:12Z</time>
      </trkpt>
      <trkpt lat="49.94213" lon="2.16739">
        <ele>14.8</ele>
        <time>2023-06-28T12:45:13Z</time>
      </trkpt>
      <trkpt lat="49.94213" lon="2.16739">
        <ele>14.8</ele>
        <time>2023-06-28T12:45:14Z</time>
      </trkpt>
      <trkpt lat="49.94212" lon="2.16739">
        <ele>14.8</ele>
        <time>2023-06-28T12:45:16Z</time>
      </trkpt>
      <trkpt lat="49.94212" lon="2.16738">
        <ele>14.8</ele>
        <time>2023-06-28T12:45:17Z</time>
      </trkpt>
      <trkpt lat="49.94212" lon="2.16738">
        <ele>14.8</ele>
        <time>2023-06-28T12:45:18Z</time>
      </trkpt>
      <trkpt lat="49.94212" lon="2.16738">
        <ele>14.8</ele>
        <time>2023-06-28T12:45:19Z</time>
      </trkpt>
      <trkpt lat="49.94212" lon="2.16738">
        <ele>14.8</ele>
        <time>2023-06-28T12:45:20Z</time>
      </trkpt>
      <trkpt lat="49.94212" lon="2.16738">
        <ele>14.8</ele>
        <time>2023-06-28T12:45:21Z</time>
      </trkpt>
      <trkpt lat="49.94212" lon="2.16738">
        <ele>14.8</ele>
        <time>2023-06-28T12:45:22Z</time>
      </trkpt>
      <trkpt lat="49.94212" lon="2.16738">
        <ele>14.8</ele>
        <time>2023-06-28T12:45:23Z</time>
      </trkpt>
      <trkpt lat="49.94212" lon="2.16738">
        <ele>14.8</ele>
        <time>2023-06-28T12:45:24Z</time>
      </trkpt>
      <trkpt lat="49.94212" lon="2.16738">
        <ele>14.8</ele>
        <time>2023-06-28T12:45:25Z</time>
      </trkpt>
      <trkpt lat="49.94212" lon="2.16738">
        <ele>14.8</ele>
        <time>2023-06-28T12:45:26Z</time>
      </trkpt>
      <trkpt lat="49.94212" lon="2.16738">
        <ele>14.8</ele>
        <time>2023-06-28T12:45:27Z</time>
      </trkpt>
      <trkpt lat="49.94212" lon="2.16738">
        <ele>14.8</ele>
        <time>2023-06-28T12:45:28Z</time>
      </trkpt>
      <trkpt lat="49.94212" lon="2.16738">
        <ele>14.8</ele>
        <time>2023-06-28T12:45:29Z</time>
      </trkpt>
      <trkpt lat="49.94212" lon="2.16738">
        <ele>14.8</ele>
        <time>2023-06-28T12:45:30Z</time>
      </trkpt>
      <trkpt lat="49.94212" lon="2.16738">
        <ele>14.8</ele>
        <time>2023-06-28T12:45:31Z</time>
      </trkpt>
      <trkpt lat="49.94212" lon="2.16738">
        <ele>14.8</ele>
        <time>2023-06-28T12:45:32Z</time>
      </trkpt>
      <trkpt lat="49.94212" lon="2.16738">
        <ele>14.8</ele>
        <time>2023-06-28T12:45:33Z</time>
      </trkpt>
      <trkpt lat="49.94212" lon="2.16738">
        <ele>14.8</ele>
        <time>2023-06-28T12:45:34Z</time>
      </trkpt>
      <trkpt lat="49.94212" lon="2.16738">
        <ele>14.8</ele>
        <time>2023-06-28T12:45:35Z</time>
      </trkpt>
      <trkpt lat="49.94212" lon="2.16738">
        <ele>14.8</ele>
        <time>2023-06-28T12:45:36Z</time>
      </trkpt>
      <trkpt lat="49.94212" lon="2.16738">
        <ele>14.8</ele>
        <time>2023-06-28T12:45:37Z</time>
      </trkpt>
      <trkpt lat="49.94212" lon="2.16738">
        <ele>14.8</ele>
        <time>2023-06-28T12:45:38Z</time>
      </trkpt>
      <trkpt lat="49.94212" lon="2.16738">
        <ele>14.8</ele>
        <time>2023-06-28T12:45:39Z</time>
      </trkpt>
      <trkpt lat="49.94212" lon="2.16738">
        <ele>14.8</ele>
        <time>2023-06-28T12:45:40Z</time>
      </trkpt>
      <trkpt lat="49.94212" lon="2.16738">
        <ele>14.8</ele>
        <time>2023-06-28T12:45:41Z</time>
      </trkpt>
      <trkpt lat="49.94212" lon="2.16738">
        <ele>14.8</ele>
        <time>2023-06-28T12:45:42Z</time>
      </trkpt>
      <trkpt lat="49.94212" lon="2.16738">
        <ele>14.8</ele>
        <time>2023-06-28T12:45:43Z</time>
      </trkpt>
      <trkpt lat="49.94212" lon="2.16738">
        <ele>14.8</ele>
        <time>2023-06-28T12:45:44Z</time>
      </trkpt>
      <trkpt lat="49.94212" lon="2.16738">
        <ele>14.8</ele>
        <time>2023-06-28T12:45:45Z</time>
      </trkpt>
      <trkpt lat="49.94212" lon="2.16738">
        <ele>14.8</ele>
        <time>2023-06-28T12:45:46Z</time>
      </trkpt>
      <trkpt lat="49.94212" lon="2.16738">
        <ele>14.8</ele>
        <time>2023-06-28T12:45:47Z</time>
      </trkpt>
      <trkpt lat="49.94212" lon="2.16738">
        <ele>14.8</ele>
        <time>2023-06-28T12:45:48Z</time>
      </trkpt>
      <trkpt lat="49.94212" lon="2.16738">
        <ele>14.8</ele>
        <time>2023-06-28T12:45:49Z</time>
      </trkpt>
      <trkpt lat="49.94212" lon="2.16738">
        <ele>14.8</ele>
        <time>2023-06-28T12:45:50Z</time>
      </trkpt>
      <trkpt lat="49.94212" lon="2.16738">
        <ele>14.8</ele>
        <time>2023-06-28T12:45:51Z</time>
      </trkpt>
      <trkpt lat="49.94212" lon="2.16738">
        <ele>14.8</ele>
        <time>2023-06-28T12:45:52Z</time>
      </trkpt>
      <trkpt lat="49.94212" lon="2.16738">
        <ele>14.8</ele>
        <time>2023-06-28T12:45:53Z</time>
      </trkpt>
      <trkpt lat="49.94212" lon="2.16738">
        <ele>14.8</ele>
        <time>2023-06-28T12:45:54Z</time>
      </trkpt>
      <trkpt lat="49.94212" lon="2.16738">
        <ele>14.8</ele>
        <time>2023-06-28T12:45:55Z</time>
      </trkpt>
      <trkpt lat="49.94212" lon="2.16738">
        <ele>14.8</ele>
        <time>2023-06-28T12:45:56Z</time>
      </trkpt>
      <trkpt lat="49.94212" lon="2.16738">
        <ele>14.8</ele>
        <time>2023-06-28T12:45:57Z</time>
      </trkpt>
      <trkpt lat="49.94212" lon="2.16738">
        <ele>14.8</ele>
        <time>2023-06-28T12:45:58Z</time>
      </trkpt>
      <trkpt lat="49.94212" lon="2.16738">
        <ele>14.8</ele>
        <time>2023-06-28T12:45:59Z</time>
      </trkpt>
      <trkpt lat="49.94212" lon="2.16738">
        <ele>14.8</ele>
        <time>2023-06-28T12:46:00Z</time>
      </trkpt>
      <trkpt lat="49.94212" lon="2.16738">
        <ele>14.8</ele>
        <time>2023-06-28T12:46:01Z</time>
      </trkpt>
      <trkpt lat="49.94212" lon="2.16738">
        <ele>14.8</ele>
        <time>2023-06-28T12:46:02Z</time>
      </trkpt>
      <trkpt lat="49.94212" lon="2.16738">
        <ele>14.8</ele>
        <time>2023-06-28T12:46:03Z</time>
      </trkpt>
      <trkpt lat="49.94212" lon="2.16738">
        <ele>14.8</ele>
        <time>2023-06-28T12:46:04Z</time>
      </trkpt>
      <trkpt lat="49.94212" lon="2.16738">
        <ele>14.8</ele>
        <time>2023-06-28T12:46:05Z</time>
      </trkpt>
      <trkpt lat="49.94212" lon="2.16738">
        <ele>14.8</ele>
        <time>2023-06-28T12:46:06Z</time>
      </trkpt>
      <trkpt lat="49.94212" lon="2.16738">
        <ele>14.8</ele>
        <time>2023-06-28T12:46:07Z</time>
      </trkpt>
      <trkpt lat="49.94212" lon="2.16738">
        <ele>14.8</ele>
        <time>2023-06-28T12:46:08Z</time>
      </trkpt>
      <trkpt lat="49.94212" lon="2.16738">
        <ele>14.8</ele>
        <time>2023-06-28T12:46:09Z</time>
      </trkpt>
      <trkpt lat="49.94212" lon="2.16738">
        <ele>14.8</ele>
        <time>2023-06-28T12:46:10Z</time>
      </trkpt>
      <trkpt lat="49.94212" lon="2.16738">
        <ele>14.8</ele>
        <time>2023-06-28T12:46:11Z</time>
      </trkpt>
      <trkpt lat="49.94212" lon="2.16738">
        <ele>14.8</ele>
        <time>2023-06-28T12:46:12Z</time>
      </trkpt>
      <trkpt lat="49.94212" lon="2.16738">
        <ele>14.8</ele>
        <time>2023-06-28T12:46:13Z</time>
      </trkpt>
      <trkpt lat="49.94212" lon="2.16738">
        <ele>14.8</ele>
        <time>2023-06-28T12:46:15Z</time>
      </trkpt>
      <trkpt lat="49.94213" lon="2.16739">
        <ele>14.8</ele>
        <time>2023-06-28T12:46:16Z</time>
      </trkpt>
      <trkpt lat="49.94214" lon="2.16741">
        <ele>14.8</ele>
        <time>2023-06-28T12:46:17Z</time>
      </trkpt>
      <trkpt lat="49.94215" lon="2.16742">
        <ele>14.8</ele>
        <time>2023-06-28T12:46:19Z</time>
      </trkpt>
      <trkpt lat="49.94215" lon="2.16743">
        <ele>14.8</ele>
        <time>2023-06-28T12:46:20Z</time>
      </trkpt>
      <trkpt lat="49.94216" lon="2.16744">
        <ele>14.8</ele>
        <time>2023-06-28T12:46:21Z</time>
      </trkpt>
      <trkpt lat="49.94217" lon="2.16747">
        <ele>14.8</ele>
        <time>2023-06-28T12:46:22Z</time>
      </trkpt>
      <trkpt lat="49.94217" lon="2.16748">
        <ele>14.9</ele>
        <time>2023-06-28T12:46:24Z</time>
      </trkpt>
      <trkpt lat="49.94218" lon="2.16749">
        <ele>14.9</ele>
        <time>2023-06-28T12:46:25Z</time>
      </trkpt>
      <trkpt lat="49.94218" lon="2.16751">
        <ele>14.9</ele>
        <time>2023-06-28T12:46:26Z</time>
      </trkpt>
      <trkpt lat="49.94218" lon="2.16753">
        <ele>14.9</ele>
        <time>2023-06-28T12:46:27Z</time>
      </trkpt>
      <trkpt lat="49.94218" lon="2.16756">
        <ele>14.9</ele>
        <time>2023-06-28T12:46:29Z</time>
      </trkpt>
      <trkpt lat="49.94218" lon="2.16758">
        <ele>14.9</ele>
        <time>2023-06-28T12:46:30Z</time>
      </trkpt>
      <trkpt lat="49.94218" lon="2.16761">
        <ele>14.9</ele>
        <time>2023-06-28T12:46:31Z</time>
      </trkpt>
      <trkpt lat="49.94219" lon="2.16762">
        <ele>14.9</ele>
        <time>2023-06-28T12:46:33Z</time>
      </trkpt>
      <trkpt lat="49.94219" lon="2.16764">
        <ele>14.9</ele>
        <time>2023-06-28T12:46:34Z</time>
      </trkpt>
      <trkpt lat="49.94219" lon="2.16765">
        <ele>14.9</ele>
        <time>2023-06-28T12:46:35Z</time>
      </trkpt>
      <trkpt lat="49.94219" lon="2.16766">
        <ele>14.9</ele>
        <time>2023-06-28T12:46:36Z</time>
      </trkpt>
      <trkpt lat="49.9422" lon="2.16767">
        <ele>14.9</ele>
        <time>2023-06-28T12:46:37Z</time>
      </trkpt>
      <trkpt lat="49.9422" lon="2.16768">
        <ele>14.9</ele>
        <time>2023-06-28T12:46:38Z</time>
      </trkpt>
      <trkpt lat="49.9422" lon="2.1677">
        <ele>14.9</ele>
        <time>2023-06-28T12:46:39Z</time>
      </trkpt>
      <trkpt lat="49.9422" lon="2.16771">
        <ele>14.9</ele>
        <time>2023-06-28T12:46:41Z</time>
      </trkpt>
      <trkpt lat="49.94221" lon="2.16773">
        <ele>14.9</ele>
        <time>2023-06-28T12:46:42Z</time>
      </trkpt>
      <trkpt lat="49.94221" lon="2.16775">
        <ele>14.8</ele>
        <time>2023-06-28T12:46:43Z</time>
      </trkpt>
      <trkpt lat="49.94222" lon="2.16777">
        <ele>14.8</ele>
        <time>2023-06-28T12:46:44Z</time>
      </trkpt>
      <trkpt lat="49.94224" lon="2.16782">
        <ele>14.8</ele>
        <time>2023-06-28T12:46:46Z</time>
      </trkpt>
      <trkpt lat="49.94224" lon="2.16783">
        <ele>14.8</ele>
        <time>2023-06-28T12:46:47Z</time>
      </trkpt>
      <trkpt lat="49.94226" lon="2.16786">
        <ele>14.8</ele>
        <time>2023-06-28T12:46:48Z</time>
      </trkpt>
      <trkpt lat="49.94226" lon="2.16787">
        <ele>14.7</ele>
        <time>2023-06-28T12:46:49Z</time>
      </trkpt>
      <trkpt lat="49.94228" lon="2.16789">
        <ele>14.7</ele>
        <time>2023-06-28T12:46:50Z</time>
      </trkpt>
      <trkpt lat="49.94229" lon="2.16791">
        <ele>14.7</ele>
        <time>2023-06-28T12:46:51Z</time>
      </trkpt>
      <trkpt lat="49.94231" lon="2.16794">
        <ele>14.7</ele>
        <time>2023-06-28T12:46:52Z</time>
      </trkpt>
      <trkpt lat="49.94232" lon="2.16794">
        <ele>14.7</ele>
        <time>2023-06-28T12:46:53Z</time>
      </trkpt>
      <trkpt lat="49.94234" lon="2.16796">
        <ele>14.7</ele>
        <time>2023-06-28T12:46:55Z</time>
      </trkpt>
      <trkpt lat="49.94235" lon="2.16797">
        <ele>14.6</ele>
        <time>2023-06-28T12:46:56Z</time>
      </trkpt>
      <trkpt lat="49.94236" lon="2.16798">
        <ele>14.6</ele>
        <time>2023-06-28T12:46:57Z</time>
      </trkpt>
      <trkpt lat="49.94237" lon="2.16798">
        <ele>14.6</ele>
        <time>2023-06-28T12:46:58Z</time>
      </trkpt>
      <trkpt lat="49.94238" lon="2.16799">
        <ele>14.6</ele>
        <time>2023-06-28T12:46:59Z</time>
      </trkpt>
      <trkpt lat="49.9424" lon="2.168">
        <ele>14.6</ele>
        <time>2023-06-28T12:47:00Z</time>
      </trkpt>
      <trkpt lat="49.94241" lon="2.168">
        <ele>14.6</ele>
        <time>2023-06-28T12:47:01Z</time>
      </trkpt>
      <trkpt lat="49.94242" lon="2.16801">
        <ele>14.6</ele>
        <time>2023-06-28T12:47:02Z</time>
      </trkpt>
      <trkpt lat="49.94244" lon="2.16803">
        <ele>14.6</ele>
        <time>2023-06-28T12:47:04Z</time>
      </trkpt>
      <trkpt lat="49.94244" lon="2.16804">
        <ele>14.6</ele>
        <time>2023-06-28T12:47:05Z</time>
      </trkpt>
      <trkpt lat="49.94245" lon="2.16804">
        <ele>14.6</ele>
        <time>2023-06-28T12:47:06Z</time>
      </trkpt>
      <trkpt lat="49.94246" lon="2.16805">
        <ele>14.6</ele>
        <time>2023-06-28T12:47:07Z</time>
      </trkpt>
      <trkpt lat="49.94247" lon="2.16805">
        <ele>14.6</ele>
        <time>2023-06-28T12:47:08Z</time>
      </trkpt>
      <trkpt lat="49.94248" lon="2.16806">
        <ele>14.6</ele>
        <time>2023-06-28T12:47:09Z</time>
      </trkpt>
      <trkpt lat="49.9425" lon="2.16808">
        <ele>14.6</ele>
        <time>2023-06-28T12:47:10Z</time>
      </trkpt>
      <trkpt lat="49.94251" lon="2.16808">
        <ele>14.6</ele>
        <time>2023-06-28T12:47:12Z</time>
      </trkpt>
      <trkpt lat="49.94252" lon="2.16809">
        <ele>14.6</ele>
        <time>2023-06-28T12:47:13Z</time>
      </trkpt>
      <trkpt lat="49.94253" lon="2.1681">
        <ele>14.6</ele>
        <time>2023-06-28T12:47:14Z</time>
      </trkpt>
      <trkpt lat="49.94254" lon="2.1681">
        <ele>14.6</ele>
        <time>2023-06-28T12:47:15Z</time>
      </trkpt>
      <trkpt lat="49.94255" lon="2.1681">
        <ele>14.6</ele>
        <time>2023-06-28T12:47:16Z</time>
      </trkpt>
      <trkpt lat="49.94256" lon="2.1681">
        <ele>14.6</ele>
        <time>2023-06-28T12:47:17Z</time>
      </trkpt>
      <trkpt lat="49.94258" lon="2.16811">
        <ele>14.6</ele>
        <time>2023-06-28T12:47:18Z</time>
      </trkpt>
      <trkpt lat="49.94259" lon="2.16811">
        <ele>14.6</ele>
        <time>2023-06-28T12:47:19Z</time>
      </trkpt>
      <trkpt lat="49.9426" lon="2.16812">
        <ele>14.5</ele>
        <time>2023-06-28T12:47:21Z</time>
      </trkpt>
      <trkpt lat="49.94262" lon="2.16813">
        <ele>14.5</ele>
        <time>2023-06-28T12:47:22Z</time>
      </trkpt>
      <trkpt lat="49.94262" lon="2.16813">
        <ele>14.5</ele>
        <time>2023-06-28T12:47:23Z</time>
      </trkpt>
      <trkpt lat="49.94263" lon="2.16813">
        <ele>14.5</ele>
        <time>2023-06-28T12:47:24Z</time>
      </trkpt>
      <trkpt lat="49.94264" lon="2.16814">
        <ele>14.5</ele>
        <time>2023-06-28T12:47:26Z</time>
      </trkpt>
      <trkpt lat="49.94265" lon="2.16814">
        <ele>14.5</ele>
        <time>2023-06-28T12:47:27Z</time>
      </trkpt>
      <trkpt lat="49.94267" lon="2.16815">
        <ele>14.5</ele>
        <time>2023-06-28T12:47:28Z</time>
      </trkpt>
      <trkpt lat="49.94268" lon="2.16815">
        <ele>14.5</ele>
        <time>2023-06-28T12:47:29Z</time>
      </trkpt>
      <trkpt lat="49.94269" lon="2.16816">
        <ele>14.5</ele>
        <time>2023-06-28T12:47:30Z</time>
      </trkpt>
      <trkpt lat="49.94271" lon="2.16817">
        <ele>14.4</ele>
        <time>2023-06-28T12:47:32Z</time>
      </trkpt>
      <trkpt lat="49.94273" lon="2.16818">
        <ele>14.4</ele>
        <time>2023-06-28T12:47:33Z</time>
      </trkpt>
      <trkpt lat="49.94274" lon="2.16819">
        <ele>14.4</ele>
        <time>2023-06-28T12:47:34Z</time>
      </trkpt>
      <trkpt lat="49.94276" lon="2.1682">
        <ele>14.4</ele>
        <time>2023-06-28T12:47:35Z</time>
      </trkpt>
      <trkpt lat="49.94277" lon="2.16821">
        <ele>14.4</ele>
        <time>2023-06-28T12:47:36Z</time>
      </trkpt>
      <trkpt lat="49.94278" lon="2.16821">
        <ele>14.4</ele>
        <time>2023-06-28T12:47:38Z</time>
      </trkpt>
      <trkpt lat="49.94278" lon="2.16822">
        <ele>14.4</ele>
        <time>2023-06-28T12:47:39Z</time>
      </trkpt>
      <trkpt lat="49.94279" lon="2.16823">
        <ele>14.4</ele>
        <time>2023-06-28T12:47:40Z</time>
      </trkpt>
      <trkpt lat="49.9428" lon="2.16825">
        <ele>14.4</ele>
        <time>2023-06-28T12:47:42Z</time>
      </trkpt>
      <trkpt lat="49.94281" lon="2.16825">
        <ele>14.4</ele>
        <time>2023-06-28T12:47:43Z</time>
      </trkpt>
      <trkpt lat="49.94282" lon="2.16826">
        <ele>14.4</ele>
        <time>2023-06-28T12:47:44Z</time>
      </trkpt>
      <trkpt lat="49.94283" lon="2.16827">
        <ele>14.4</ele>
        <time>2023-06-28T12:47:45Z</time>
      </trkpt>
      <trkpt lat="49.94284" lon="2.16828">
        <ele>14.4</ele>
        <time>2023-06-28T12:47:46Z</time>
      </trkpt>
      <trkpt lat="49.94285" lon="2.16829">
        <ele>14.4</ele>
        <time>2023-06-28T12:47:47Z</time>
      </trkpt>
      <trkpt lat="49.94286" lon="2.1683">
        <ele>14.3</ele>
        <time>2023-06-28T12:47:49Z</time>
      </trkpt>
      <trkpt lat="49.94287" lon="2.16831">
        <ele>14.3</ele>
        <time>2023-06-28T12:47:50Z</time>
      </trkpt>
      <trkpt lat="49.94287" lon="2.16833">
        <ele>14.3</ele>
        <time>2023-06-28T12:47:51Z</time>
      </trkpt>
      <trkpt lat="49.94289" lon="2.16835">
        <ele>14.3</ele>
        <time>2023-06-28T12:47:53Z</time>
      </trkpt>
      <trkpt lat="49.9429" lon="2.16837">
        <ele>14.3</ele>
        <time>2023-06-28T12:47:54Z</time>
      </trkpt>
      <trkpt lat="49.94291" lon="2.16838">
        <ele>14.3</ele>
        <time>2023-06-28T12:47:55Z</time>
      </trkpt>
      <trkpt lat="49.94292" lon="2.16839">
        <ele>14.3</ele>
        <time>2023-06-28T12:47:56Z</time>
      </trkpt>
      <trkpt lat="49.94293" lon="2.1684">
        <ele>14.3</ele>
        <time>2023-06-28T12:47:57Z</time>
      </trkpt>
      <trkpt lat="49.94293" lon="2.1684">
        <ele>14.3</ele>
        <time>2023-06-28T12:47:58Z</time>
      </trkpt>
      <trkpt lat="49.94294" lon="2.16841">
        <ele>14.3</ele>
        <time>2023-06-28T12:47:59Z</time>
      </trkpt>
      <trkpt lat="49.94296" lon="2.16842">
        <ele>14.3</ele>
        <time>2023-06-28T12:48:01Z</time>
      </trkpt>
      <trkpt lat="49.94297" lon="2.16842">
        <ele>14.3</ele>
        <time>2023-06-28T12:48:02Z</time>
      </trkpt>
      <trkpt lat="49.94298" lon="2.16842">
        <ele>14.2</ele>
        <time>2023-06-28T12:48:03Z</time>
      </trkpt>
      <trkpt lat="49.94299" lon="2.16843">
        <ele>14.2</ele>
        <time>2023-06-28T12:48:04Z</time>
      </trkpt>
      <trkpt lat="49.943" lon="2.16844">
        <ele>14.2</ele>
        <time>2023-06-28T12:48:05Z</time>
      </trkpt>
      <trkpt lat="49.94302" lon="2.16845">
        <ele>14.2</ele>
        <time>2023-06-28T12:48:07Z</time>
      </trkpt>
      <trkpt lat="49.94304" lon="2.16846">
        <ele>14.2</ele>
        <time>2023-06-28T12:48:08Z</time>
      </trkpt>
      <trkpt lat="49.94305" lon="2.16846">
        <ele>14.2</ele>
        <time>2023-06-28T12:48:09Z</time>
      </trkpt>
      <trkpt lat="49.94307" lon="2.16847">
        <ele>14.1</ele>
        <time>2023-06-28T12:48:10Z</time>
      </trkpt>
      <trkpt lat="49.94308" lon="2.16848">
        <ele>14.1</ele>
        <time>2023-06-28T12:48:11Z</time>
      </trkpt>
      <trkpt lat="49.94309" lon="2.16848">
        <ele>14.1</ele>
        <time>2023-06-28T12:48:12Z</time>
      </trkpt>
      <trkpt lat="49.94311" lon="2.1685">
        <ele>14.1</ele>
        <time>2023-06-28T12:48:14Z</time>
      </trkpt>
      <trkpt lat="49.94312" lon="2.1685">
        <ele>14.1</ele>
        <time>2023-06-28T12:48:15Z</time>
      </trkpt>
      <trkpt lat="49.94312" lon="2.16851">
        <ele>14.1</ele>
        <time>2023-06-28T12:48:16Z</time>
      </trkpt>
      <trkpt lat="49.94314" lon="2.16852">
        <ele>14.1</ele>
        <time>2023-06-28T12:48:17Z</time>
      </trkpt>
      <trkpt lat="49.94315" lon="2.16852">
        <ele>14.1</ele>
        <time>2023-06-28T12:48:18Z</time>
      </trkpt>
      <trkpt lat="49.94316" lon="2.16852">
        <ele>14.1</ele>
        <time>2023-06-28T12:48:19Z</time>
      </trkpt>
      <trkpt lat="49.94317" lon="2.16852">
        <ele>14.1</ele>
        <time>2023-06-28T12:48:20Z</time>
      </trkpt>
      <trkpt lat="49.94318" lon="2.16853">
        <ele>14.1</ele>
        <time>2023-06-28T12:48:21Z</time>
      </trkpt>
      <trkpt lat="49.94319" lon="2.16853">
        <ele>14.1</ele>
        <time>2023-06-28T12:48:22Z</time>
      </trkpt>
      <trkpt lat="49.9432" lon="2.16853">
        <ele>14</ele>
        <time>2023-06-28T12:48:23Z</time>
      </trkpt>
      <trkpt lat="49.94321" lon="2.16854">
        <ele>14</ele>
        <time>2023-06-28T12:48:25Z</time>
      </trkpt>
      <trkpt lat="49.94322" lon="2.16854">
        <ele>14</ele>
        <time>2023-06-28T12:48:26Z</time>
      </trkpt>
      <trkpt lat="49.94324" lon="2.16855">
        <ele>14</ele>
        <time>2023-06-28T12:48:27Z</time>
      </trkpt>
      <trkpt lat="49.94324" lon="2.16856">
        <ele>14</ele>
        <time>2023-06-28T12:48:28Z</time>
      </trkpt>
      <trkpt lat="49.94325" lon="2.16857">
        <ele>14</ele>
        <time>2023-06-28T12:48:29Z</time>
      </trkpt>
      <trkpt lat="49.94327" lon="2.16858">
        <ele>14</ele>
        <time>2023-06-28T12:48:31Z</time>
      </trkpt>
      <trkpt lat="49.94328" lon="2.16859">
        <ele>14</ele>
        <time>2023-06-28T12:48:32Z</time>
      </trkpt>
      <trkpt lat="49.9433" lon="2.16861">
        <ele>14</ele>
        <time>2023-06-28T12:48:33Z</time>
      </trkpt>
      <trkpt lat="49.9433" lon="2.16862">
        <ele>14</ele>
        <time>2023-06-28T12:48:34Z</time>
      </trkpt>
      <trkpt lat="49.94331" lon="2.16862">
        <ele>13.9</ele>
        <time>2023-06-28T12:48:35Z</time>
      </trkpt>
      <trkpt lat="49.94332" lon="2.16863">
        <ele>13.9</ele>
        <time>2023-06-28T12:48:37Z</time>
      </trkpt>
      <trkpt lat="49.94332" lon="2.16865">
        <ele>13.9</ele>
        <time>2023-06-28T12:48:38Z</time>
      </trkpt>
      <trkpt lat="49.94333" lon="2.16866">
        <ele>13.9</ele>
        <time>2023-06-28T12:48:39Z</time>
      </trkpt>
      <trkpt lat="49.94335" lon="2.16868">
        <ele>13.9</ele>
        <time>2023-06-28T12:48:40Z</time>
      </trkpt>
      <trkpt lat="49.94335" lon="2.16869">
        <ele>13.9</ele>
        <time>2023-06-28T12:48:41Z</time>
      </trkpt>
      <trkpt lat="49.94336" lon="2.1687">
        <ele>13.9</ele>
        <time>2023-06-28T12:48:42Z</time>
      </trkpt>
      <trkpt lat="49.94337" lon="2.16872">
        <ele>13.9</ele>
        <time>2023-06-28T12:48:44Z</time>
      </trkpt>
      <trkpt lat="49.94338" lon="2.16874">
        <ele>13.9</ele>
        <time>2023-06-28T12:48:45Z</time>
      </trkpt>
      <trkpt lat="49.94339" lon="2.16875">
        <ele>13.9</ele>
        <time>2023-06-28T12:48:46Z</time>
      </trkpt>
      <trkpt lat="49.9434" lon="2.16877">
        <ele>13.8</ele>
        <time>2023-06-28T12:48:47Z</time>
      </trkpt>
      <trkpt lat="49.9434" lon="2.16877">
        <ele>13.8</ele>
        <time>2023-06-28T12:48:48Z</time>
      </trkpt>
      <trkpt lat="49.94342" lon="2.16879">
        <ele>13.8</ele>
        <time>2023-06-28T12:48:50Z</time>
      </trkpt>
      <trkpt lat="49.94342" lon="2.1688">
        <ele>13.8</ele>
        <time>2023-06-28T12:48:51Z</time>
      </trkpt>
      <trkpt lat="49.94343" lon="2.16882">
        <ele>13.8</ele>
        <time>2023-06-28T12:48:52Z</time>
      </trkpt>
      <trkpt lat="49.94344" lon="2.16883">
        <ele>13.8</ele>
        <time>2023-06-28T12:48:53Z</time>
      </trkpt>
      <trkpt lat="49.94345" lon="2.16884">
        <ele>13.8</ele>
        <time>2023-06-28T12:48:54Z</time>
      </trkpt>
      <trkpt lat="49.94346" lon="2.16885">
        <ele>13.8</ele>
        <time>2023-06-28T12:48:55Z</time>
      </trkpt>
      <trkpt lat="49.94347" lon="2.16886">
        <ele>13.8</ele>
        <time>2023-06-28T12:48:56Z</time>
      </trkpt>
      <trkpt lat="49.94348" lon="2.16888">
        <ele>13.7</ele>
        <time>2023-06-28T12:48:58Z</time>
      </trkpt>
      <trkpt lat="49.94349" lon="2.16889">
        <ele>13.7</ele>
        <time>2023-06-28T12:48:59Z</time>
      </trkpt>
      <trkpt lat="49.9435" lon="2.1689">
        <ele>13.7</ele>
        <time>2023-06-28T12:49:00Z</time>
      </trkpt>
      <trkpt lat="49.94351" lon="2.16891">
        <ele>13.7</ele>
        <time>2023-06-28T12:49:01Z</time>
      </trkpt>
      <trkpt lat="49.94352" lon="2.16892">
        <ele>13.7</ele>
        <time>2023-06-28T12:49:02Z</time>
      </trkpt>
      <trkpt lat="49.94354" lon="2.16893">
        <ele>13.6</ele>
        <time>2023-06-28T12:49:03Z</time>
      </trkpt>
      <trkpt lat="49.94355" lon="2.16894">
        <ele>13.6</ele>
        <time>2023-06-28T12:49:05Z</time>
      </trkpt>
      <trkpt lat="49.94357" lon="2.16895">
        <ele>13.6</ele>
        <time>2023-06-28T12:49:06Z</time>
      </trkpt>
      <trkpt lat="49.94358" lon="2.16896">
        <ele>13.6</ele>
        <time>2023-06-28T12:49:07Z</time>
      </trkpt>
      <trkpt lat="49.9436" lon="2.16898">
        <ele>13.5</ele>
        <time>2023-06-28T12:49:08Z</time>
      </trkpt>
      <trkpt lat="49.94361" lon="2.16899">
        <ele>13.5</ele>
        <time>2023-06-28T12:49:09Z</time>
      </trkpt>
      <trkpt lat="49.94362" lon="2.16901">
        <ele>13.5</ele>
        <time>2023-06-28T12:49:10Z</time>
      </trkpt>
      <trkpt lat="49.94363" lon="2.16903">
        <ele>13.5</ele>
        <time>2023-06-28T12:49:11Z</time>
      </trkpt>
      <trkpt lat="49.94364" lon="2.16904">
        <ele>13.4</ele>
        <time>2023-06-28T12:49:13Z</time>
      </trkpt>
      <trkpt lat="49.94364" lon="2.16905">
        <ele>13.4</ele>
        <time>2023-06-28T12:49:14Z</time>
      </trkpt>
      <trkpt lat="49.94366" lon="2.16908">
        <ele>13.4</ele>
        <time>2023-06-28T12:49:15Z</time>
      </trkpt>
      <trkpt lat="49.94366" lon="2.16909">
        <ele>13.4</ele>
        <time>2023-06-28T12:49:16Z</time>
      </trkpt>
      <trkpt lat="49.94367" lon="2.1691">
        <ele>13.4</ele>
        <time>2023-06-28T12:49:17Z</time>
      </trkpt>
      <trkpt lat="49.94368" lon="2.16912">
        <ele>13.3</ele>
        <time>2023-06-28T12:49:18Z</time>
      </trkpt>
      <trkpt lat="49.94369" lon="2.16913">
        <ele>13.3</ele>
        <time>2023-06-28T12:49:19Z</time>
      </trkpt>
      <trkpt lat="49.94369" lon="2.16915">
        <ele>13.3</ele>
        <time>2023-06-28T12:49:20Z</time>
      </trkpt>
      <trkpt lat="49.9437" lon="2.16917">
        <ele>13.3</ele>
        <time>2023-06-28T12:49:22Z</time>
      </trkpt>
      <trkpt lat="49.94371" lon="2.16919">
        <ele>13.3</ele>
        <time>2023-06-28T12:49:23Z</time>
      </trkpt>
      <trkpt lat="49.94371" lon="2.1692">
        <ele>13.3</ele>
        <time>2023-06-28T12:49:24Z</time>
      </trkpt>
      <trkpt lat="49.94371" lon="2.16922">
        <ele>13.2</ele>
        <time>2023-06-28T12:49:25Z</time>
      </trkpt>
      <trkpt lat="49.94372" lon="2.16924">
        <ele>13.2</ele>
        <time>2023-06-28T12:49:26Z</time>
      </trkpt>
      <trkpt lat="49.94372" lon="2.16925">
        <ele>13.2</ele>
        <time>2023-06-28T12:49:27Z</time>
      </trkpt>
      <trkpt lat="49.94373" lon="2.16926">
        <ele>13.2</ele>
        <time>2023-06-28T12:49:28Z</time>
      </trkpt>
      <trkpt lat="49.94375" lon="2.16929">
        <ele>13.2</ele>
        <time>2023-06-28T12:49:30Z</time>
      </trkpt>
      <trkpt lat="49.94375" lon="2.1693">
        <ele>13.2</ele>
        <time>2023-06-28T12:49:31Z</time>
      </trkpt>
      <trkpt lat="49.94376" lon="2.1693">
        <ele>13.2</ele>
        <time>2023-06-28T12:49:32Z</time>
      </trkpt>
      <trkpt lat="49.94378" lon="2.16933">
        <ele>13.1</ele>
        <time>2023-06-28T12:49:33Z</time>
      </trkpt>
      <trkpt lat="49.94379" lon="2.16935">
        <ele>13.1</ele>
        <time>2023-06-28T12:49:35Z</time>
      </trkpt>
      <trkpt lat="49.94379" lon="2.16936">
        <ele>13.1</ele>
        <time>2023-06-28T12:49:36Z</time>
      </trkpt>
      <trkpt lat="49.9438" lon="2.16937">
        <ele>13.1</ele>
        <time>2023-06-28T12:49:37Z</time>
      </trkpt>
      <trkpt lat="49.94381" lon="2.16938">
        <ele>13.1</ele>
        <time>2023-06-28T12:49:38Z</time>
      </trkpt>
      <trkpt lat="49.94383" lon="2.1694">
        <ele>13.1</ele>
        <time>2023-06-28T12:49:39Z</time>
      </trkpt>
      <trkpt lat="49.94383" lon="2.16941">
        <ele>13</ele>
        <time>2023-06-28T12:49:40Z</time>
      </trkpt>
      <trkpt lat="49.94384" lon="2.16942">
        <ele>13</ele>
        <time>2023-06-28T12:49:41Z</time>
      </trkpt>
      <trkpt lat="49.94385" lon="2.16943">
        <ele>13</ele>
        <time>2023-06-28T12:49:42Z</time>
      </trkpt>
      <trkpt lat="49.94385" lon="2.16944">
        <ele>13</ele>
        <time>2023-06-28T12:49:43Z</time>
      </trkpt>
      <trkpt lat="49.94386" lon="2.16946">
        <ele>13</ele>
        <time>2023-06-28T12:49:44Z</time>
      </trkpt>
      <trkpt lat="49.94388" lon="2.16948">
        <ele>13</ele>
        <time>2023-06-28T12:49:46Z</time>
      </trkpt>
      <trkpt lat="49.94389" lon="2.16949">
        <ele>13</ele>
        <time>2023-06-28T12:49:47Z</time>
      </trkpt>
      <trkpt lat="49.9439" lon="2.1695">
        <ele>13</ele>
        <time>2023-06-28T12:49:48Z</time>
      </trkpt>
      <trkpt lat="49.94391" lon="2.16951">
        <ele>13</ele>
        <time>2023-06-28T12:49:49Z</time>
      </trkpt>
      <trkpt lat="49.94392" lon="2.16952">
        <ele>13</ele>
        <time>2023-06-28T12:49:51Z</time>
      </trkpt>
      <trkpt lat="49.94393" lon="2.16954">
        <ele>12.9</ele>
        <time>2023-06-28T12:49:52Z</time>
      </trkpt>
      <trkpt lat="49.94394" lon="2.16955">
        <ele>12.9</ele>
        <time>2023-06-28T12:49:53Z</time>
      </trkpt>
      <trkpt lat="49.94396" lon="2.16956">
        <ele>12.9</ele>
        <time>2023-06-28T12:49:54Z</time>
      </trkpt>
      <trkpt lat="49.94397" lon="2.16957">
        <ele>12.9</ele>
        <time>2023-06-28T12:49:55Z</time>
      </trkpt>
      <trkpt lat="49.94399" lon="2.16958">
        <ele>12.9</ele>
        <time>2023-06-28T12:49:56Z</time>
      </trkpt>
      <trkpt lat="49.944" lon="2.16959">
        <ele>12.9</ele>
        <time>2023-06-28T12:49:57Z</time>
      </trkpt>
      <trkpt lat="49.94402" lon="2.1696">
        <ele>12.9</ele>
        <time>2023-06-28T12:49:59Z</time>
      </trkpt>
      <trkpt lat="49.94403" lon="2.16961">
        <ele>12.9</ele>
        <time>2023-06-28T12:50:00Z</time>
      </trkpt>
      <trkpt lat="49.94404" lon="2.16962">
        <ele>12.9</ele>
        <time>2023-06-28T12:50:01Z</time>
      </trkpt>
      <trkpt lat="49.94406" lon="2.16962">
        <ele>12.9</ele>
        <time>2023-06-28T12:50:02Z</time>
      </trkpt>
      <trkpt lat="49.94408" lon="2.16963">
        <ele>12.9</ele>
        <time>2023-06-28T12:50:04Z</time>
      </trkpt>
      <trkpt lat="49.94409" lon="2.16964">
        <ele>12.8</ele>
        <time>2023-06-28T12:50:05Z</time>
      </trkpt>
      <trkpt lat="49.9441" lon="2.16965">
        <ele>12.8</ele>
        <time>2023-06-28T12:50:06Z</time>
      </trkpt>
      <trkpt lat="49.94411" lon="2.16965">
        <ele>12.8</ele>
        <time>2023-06-28T12:50:07Z</time>
      </trkpt>
      <trkpt lat="49.94412" lon="2.16966">
        <ele>12.8</ele>
        <time>2023-06-28T12:50:08Z</time>
      </trkpt>
      <trkpt lat="49.94413" lon="2.16967">
        <ele>12.8</ele>
        <time>2023-06-28T12:50:10Z</time>
      </trkpt>
      <trkpt lat="49.94413" lon="2.16969">
        <ele>12.9</ele>
        <time>2023-06-28T12:50:11Z</time>
      </trkpt>
      <trkpt lat="49.94414" lon="2.1697">
        <ele>12.9</ele>
        <time>2023-06-28T12:50:12Z</time>
      </trkpt>
      <trkpt lat="49.94415" lon="2.16971">
        <ele>12.9</ele>
        <time>2023-06-28T12:50:13Z</time>
      </trkpt>
      <trkpt lat="49.94415" lon="2.16972">
        <ele>13</ele>
        <time>2023-06-28T12:50:14Z</time>
      </trkpt>
      <trkpt lat="49.94416" lon="2.16974">
        <ele>13</ele>
        <time>2023-06-28T12:50:15Z</time>
      </trkpt>
      <trkpt lat="49.94417" lon="2.16975">
        <ele>13</ele>
        <time>2023-06-28T12:50:16Z</time>
      </trkpt>
      <trkpt lat="49.94418" lon="2.16977">
        <ele>13.1</ele>
        <time>2023-06-28T12:50:17Z</time>
      </trkpt>
      <trkpt lat="49.94418" lon="2.16978">
        <ele>13.1</ele>
        <time>2023-06-28T12:50:18Z</time>
      </trkpt>
      <trkpt lat="49.94419" lon="2.16979">
        <ele>13.1</ele>
        <time>2023-06-28T12:50:19Z</time>
      </trkpt>
      <trkpt lat="49.9442" lon="2.16981">
        <ele>13.2</ele>
        <time>2023-06-28T12:50:21Z</time>
      </trkpt>
      <trkpt lat="49.9442" lon="2.16982">
        <ele>13.2</ele>
        <time>2023-06-28T12:50:22Z</time>
      </trkpt>
      <trkpt lat="49.94421" lon="2.16983">
        <ele>13.1</ele>
        <time>2023-06-28T12:50:23Z</time>
      </trkpt>
      <trkpt lat="49.94422" lon="2.16985">
        <ele>13.3</ele>
        <time>2023-06-28T12:50:25Z</time>
      </trkpt>
      <trkpt lat="49.94424" lon="2.16986">
        <ele>13.2</ele>
        <time>2023-06-28T12:50:26Z</time>
      </trkpt>
      <trkpt lat="49.94425" lon="2.16987">
        <ele>13.2</ele>
        <time>2023-06-28T12:50:27Z</time>
      </trkpt>
      <trkpt lat="49.94426" lon="2.16988">
        <ele>13.2</ele>
        <time>2023-06-28T12:50:28Z</time>
      </trkpt>
      <trkpt lat="49.94427" lon="2.16989">
        <ele>13.3</ele>
        <time>2023-06-28T12:50:29Z</time>
      </trkpt>
      <trkpt lat="49.94429" lon="2.1699">
        <ele>13.3</ele>
        <time>2023-06-28T12:50:30Z</time>
      </trkpt>
      <trkpt lat="49.9443" lon="2.16991">
        <ele>13.3</ele>
        <time>2023-06-28T12:50:32Z</time>
      </trkpt>
      <trkpt lat="49.94431" lon="2.16991">
        <ele>13.3</ele>
        <time>2023-06-28T12:50:33Z</time>
      </trkpt>
      <trkpt lat="49.94432" lon="2.16992">
        <ele>13.2</ele>
        <time>2023-06-28T12:50:34Z</time>
      </trkpt>
      <trkpt lat="49.94433" lon="2.16992">
        <ele>13.2</ele>
        <time>2023-06-28T12:50:35Z</time>
      </trkpt>
      <trkpt lat="49.94435" lon="2.16994">
        <ele>13.3</ele>
        <time>2023-06-28T12:50:36Z</time>
      </trkpt>
      <trkpt lat="49.94436" lon="2.16994">
        <ele>13.3</ele>
        <time>2023-06-28T12:50:37Z</time>
      </trkpt>
      <trkpt lat="49.94437" lon="2.16995">
        <ele>13.3</ele>
        <time>2023-06-28T12:50:38Z</time>
      </trkpt>
      <trkpt lat="49.94438" lon="2.16996">
        <ele>13.2</ele>
        <time>2023-06-28T12:50:40Z</time>
      </trkpt>
      <trkpt lat="49.9444" lon="2.16996">
        <ele>13.2</ele>
        <time>2023-06-28T12:50:41Z</time>
      </trkpt>
      <trkpt lat="49.94441" lon="2.16997">
        <ele>13.2</ele>
        <time>2023-06-28T12:50:42Z</time>
      </trkpt>
      <trkpt lat="49.94443" lon="2.16997">
        <ele>13.2</ele>
        <time>2023-06-28T12:50:43Z</time>
      </trkpt>
      <trkpt lat="49.94444" lon="2.16998">
        <ele>13.2</ele>
        <time>2023-06-28T12:50:44Z</time>
      </trkpt>
      <trkpt lat="49.94445" lon="2.16998">
        <ele>13.2</ele>
        <time>2023-06-28T12:50:46Z</time>
      </trkpt>
      <trkpt lat="49.94447" lon="2.16998">
        <ele>13.2</ele>
        <time>2023-06-28T12:50:47Z</time>
      </trkpt>
      <trkpt lat="49.94448" lon="2.16998">
        <ele>13.2</ele>
        <time>2023-06-28T12:50:48Z</time>
      </trkpt>
      <trkpt lat="49.94449" lon="2.16999">
        <ele>13.1</ele>
        <time>2023-06-28T12:50:49Z</time>
      </trkpt>
      <trkpt lat="49.9445" lon="2.16999">
        <ele>13.1</ele>
        <time>2023-06-28T12:50:51Z</time>
      </trkpt>
      <trkpt lat="49.9445" lon="2.16999">
        <ele>13.1</ele>
        <time>2023-06-28T12:50:53Z</time>
      </trkpt>
      <trkpt lat="49.94451" lon="2.16999">
        <ele>13.1</ele>
        <time>2023-06-28T12:50:54Z</time>
      </trkpt>
      <trkpt lat="49.94451" lon="2.16999">
        <ele>13.1</ele>
        <time>2023-06-28T12:50:55Z</time>
      </trkpt>
      <trkpt lat="49.94452" lon="2.16998">
        <ele>13.1</ele>
        <time>2023-06-28T12:50:56Z</time>
      </trkpt>
      <trkpt lat="49.94452" lon="2.16997">
        <ele>13.1</ele>
        <time>2023-06-28T12:50:57Z</time>
      </trkpt>
      <trkpt lat="49.94452" lon="2.16996">
        <ele>13</ele>
        <time>2023-06-28T12:50:59Z</time>
      </trkpt>
      <trkpt lat="49.94451" lon="2.16995">
        <ele>13</ele>
        <time>2023-06-28T12:51:00Z</time>
      </trkpt>
      <trkpt lat="49.9445" lon="2.16993">
        <ele>13.1</ele>
        <time>2023-06-28T12:51:02Z</time>
      </trkpt>
      <trkpt lat="49.94449" lon="2.16993">
        <ele>13</ele>
        <time>2023-06-28T12:51:03Z</time>
      </trkpt>
      <trkpt lat="49.94448" lon="2.16993">
        <ele>13.1</ele>
        <time>2023-06-28T12:51:05Z</time>
      </trkpt>
      <trkpt lat="49.94447" lon="2.16994">
        <ele>13.1</ele>
        <time>2023-06-28T12:51:06Z</time>
      </trkpt>
      <trkpt lat="49.94447" lon="2.16995">
        <ele>13.1</ele>
        <time>2023-06-28T12:51:07Z</time>
      </trkpt>
      <trkpt lat="49.94447" lon="2.16995">
        <ele>13.1</ele>
        <time>2023-06-28T12:51:09Z</time>
      </trkpt>
      <trkpt lat="49.94447" lon="2.16996">
        <ele>13.1</ele>
        <time>2023-06-28T12:51:10Z</time>
      </trkpt>
      <trkpt lat="49.94447" lon="2.16996">
        <ele>13.1</ele>
        <time>2023-06-28T12:51:12Z</time>
      </trkpt>
      <trkpt lat="49.94447" lon="2.16997">
        <ele>13.1</ele>
        <time>2023-06-28T12:51:13Z</time>
      </trkpt>
      <trkpt lat="49.94447" lon="2.16997">
        <ele>13.1</ele>
        <time>2023-06-28T12:51:14Z</time>
      </trkpt>
      <trkpt lat="49.94447" lon="2.16997">
        <ele>13.1</ele>
        <time>2023-06-28T12:51:16Z</time>
      </trkpt>
      <trkpt lat="49.94447" lon="2.16997">
        <ele>13.1</ele>
        <time>2023-06-28T12:51:17Z</time>
      </trkpt>
      <trkpt lat="49.94447" lon="2.16997">
        <ele>13.1</ele>
        <time>2023-06-28T12:51:19Z</time>
      </trkpt>
      <trkpt lat="49.94447" lon="2.16997">
        <ele>13.1</ele>
        <time>2023-06-28T12:51:20Z</time>
      </trkpt>
      <trkpt lat="49.94448" lon="2.16997">
        <ele>13.1</ele>
        <time>2023-06-28T12:51:22Z</time>
      </trkpt>
      <trkpt lat="49.94448" lon="2.16998">
        <ele>13.2</ele>
        <time>2023-06-28T12:51:23Z</time>
      </trkpt>
      <trkpt lat="49.94448" lon="2.16998">
        <ele>13.2</ele>
        <time>2023-06-28T12:51:24Z</time>
      </trkpt>
      <trkpt lat="49.94448" lon="2.16998">
        <ele>13.1</ele>
        <time>2023-06-28T12:51:25Z</time>
      </trkpt>
      <trkpt lat="49.94448" lon="2.16998">
        <ele>13.1</ele>
        <time>2023-06-28T12:51:26Z</time>
      </trkpt>
      <trkpt lat="49.94448" lon="2.16998">
        <ele>13.1</ele>
        <time>2023-06-28T12:51:27Z</time>
      </trkpt>
      <trkpt lat="49.94449" lon="2.16998">
        <ele>13.1</ele>
        <time>2023-06-28T12:51:29Z</time>
      </trkpt>
      <trkpt lat="49.94449" lon="2.16997">
        <ele>13.1</ele>
        <time>2023-06-28T12:51:30Z</time>
      </trkpt>
      <trkpt lat="49.94449" lon="2.16997">
        <ele>13.1</ele>
        <time>2023-06-28T12:51:31Z</time>
      </trkpt>
      <trkpt lat="49.94449" lon="2.16997">
        <ele>13.1</ele>
        <time>2023-06-28T12:51:32Z</time>
      </trkpt>
      <trkpt lat="49.94449" lon="2.16997">
        <ele>13.1</ele>
        <time>2023-06-28T12:51:33Z</time>
      </trkpt>
      <trkpt lat="49.94449" lon="2.16997">
        <ele>13.1</ele>
        <time>2023-06-28T12:51:34Z</time>
      </trkpt>
      <trkpt lat="49.94449" lon="2.16997">
        <ele>13.1</ele>
        <time>2023-06-28T12:51:35Z</time>
      </trkpt>
      <trkpt lat="49.94449" lon="2.16997">
        <ele>13</ele>
        <time>2023-06-28T12:51:36Z</time>
      </trkpt>
      <trkpt lat="49.94449" lon="2.16997">
        <ele>13</ele>
        <time>2023-06-28T12:51:37Z</time>
      </trkpt>
      <trkpt lat="49.94449" lon="2.16997">
        <ele>13</ele>
        <time>2023-06-28T12:51:38Z</time>
      </trkpt>
      <trkpt lat="49.94449" lon="2.16997">
        <ele>13</ele>
        <time>2023-06-28T12:51:39Z</time>
      </trkpt>
      <trkpt lat="49.94449" lon="2.16997">
        <ele>13</ele>
        <time>2023-06-28T12:51:40Z</time>
      </trkpt>
      <trkpt lat="49.94449" lon="2.16997">
        <ele>13</ele>
        <time>2023-06-28T12:51:41Z</time>
      </trkpt>
      <trkpt lat="49.94449" lon="2.16997">
        <ele>13</ele>
        <time>2023-06-28T12:51:42Z</time>
      </trkpt>
      <trkpt lat="49.94449" lon="2.16997">
        <ele>13</ele>
        <time>2023-06-28T12:51:43Z</time>
      </trkpt>
      <trkpt lat="49.94449" lon="2.16997">
        <ele>13</ele>
        <time>2023-06-28T12:51:44Z</time>
      </trkpt>
      <trkpt lat="49.94449" lon="2.16997">
        <ele>13</ele>
        <time>2023-06-28T12:51:45Z</time>
      </trkpt>
      <trkpt lat="49.94449" lon="2.16997">
        <ele>13</ele>
        <time>2023-06-28T12:51:46Z</time>
      </trkpt>
      <trkpt lat="49.94449" lon="2.16997">
        <ele>13</ele>
        <time>2023-06-28T12:51:47Z</time>
      </trkpt>
      <trkpt lat="49.94449" lon="2.16997">
        <ele>13</ele>
        <time>2023-06-28T12:51:48Z</time>
      </trkpt>
      <trkpt lat="49.94449" lon="2.16997">
        <ele>13</ele>
        <time>2023-06-28T12:51:49Z</time>
      </trkpt>
      <trkpt lat="49.94449" lon="2.16997">
        <ele>13</ele>
        <time>2023-06-28T12:51:50Z</time>
      </trkpt>
      <trkpt lat="49.94449" lon="2.16997">
        <ele>13</ele>
        <time>2023-06-28T12:51:51Z</time>
      </trkpt>
      <trkpt lat="49.94449" lon="2.16997">
        <ele>13</ele>
        <time>2023-06-28T12:51:52Z</time>
      </trkpt>
      <trkpt lat="49.94449" lon="2.16997">
        <ele>13</ele>
        <time>2023-06-28T12:51:53Z</time>
      </trkpt>
      <trkpt lat="49.94449" lon="2.16997">
        <ele>13</ele>
        <time>2023-06-28T12:51:54Z</time>
      </trkpt>
      <trkpt lat="49.94449" lon="2.16997">
        <ele>13</ele>
        <time>2023-06-28T12:51:55Z</time>
      </trkpt>
      <trkpt lat="49.94449" lon="2.16997">
        <ele>13</ele>
        <time>2023-06-28T12:51:56Z</time>
      </trkpt>
      <trkpt lat="49.94448" lon="2.16999">
        <ele>13.1</ele>
        <time>2023-06-28T12:51:57Z</time>
      </trkpt>
      <trkpt lat="49.94449" lon="2.17">
        <ele>13.1</ele>
        <time>2023-06-28T12:51:59Z</time>
      </trkpt>
      <trkpt lat="49.94449" lon="2.17001">
        <ele>13.1</ele>
        <time>2023-06-28T12:52:00Z</time>
      </trkpt>
      <trkpt lat="49.9445" lon="2.17003">
        <ele>13.2</ele>
        <time>2023-06-28T12:52:01Z</time>
      </trkpt>
      <trkpt lat="49.94451" lon="2.17004">
        <ele>13.2</ele>
        <time>2023-06-28T12:52:02Z</time>
      </trkpt>
      <trkpt lat="49.94452" lon="2.17007">
        <ele>13.2</ele>
        <time>2023-06-28T12:52:03Z</time>
      </trkpt>
      <trkpt lat="49.94452" lon="2.17008">
        <ele>13.2</ele>
        <time>2023-06-28T12:52:05Z</time>
      </trkpt>
      <trkpt lat="49.94453" lon="2.1701">
        <ele>13.2</ele>
        <time>2023-06-28T12:52:06Z</time>
      </trkpt>
      <trkpt lat="49.94453" lon="2.17011">
        <ele>13.3</ele>
        <time>2023-06-28T12:52:07Z</time>
      </trkpt>
      <trkpt lat="49.94454" lon="2.17012">
        <ele>13.3</ele>
        <time>2023-06-28T12:52:08Z</time>
      </trkpt>
      <trkpt lat="49.94454" lon="2.17014">
        <ele>13.3</ele>
        <time>2023-06-28T12:52:09Z</time>
      </trkpt>
      <trkpt lat="49.94455" lon="2.17016">
        <ele>13.3</ele>
        <time>2023-06-28T12:52:10Z</time>
      </trkpt>
      <trkpt lat="49.94456" lon="2.17017">
        <ele>13.3</ele>
        <time>2023-06-28T12:52:11Z</time>
      </trkpt>
      <trkpt lat="49.94456" lon="2.17019">
        <ele>13.4</ele>
        <time>2023-06-28T12:52:13Z</time>
      </trkpt>
      <trkpt lat="49.94457" lon="2.17021">
        <ele>13.4</ele>
        <time>2023-06-28T12:52:14Z</time>
      </trkpt>
      <trkpt lat="49.94457" lon="2.17022">
        <ele>13.4</ele>
        <time>2023-06-28T12:52:15Z</time>
      </trkpt>
      <trkpt lat="49.94458" lon="2.17023">
        <ele>13.4</ele>
        <time>2023-06-28T12:52:16Z</time>
      </trkpt>
      <trkpt lat="49.94459" lon="2.17025">
        <ele>13.4</ele>
        <time>2023-06-28T12:52:18Z</time>
      </trkpt>
      <trkpt lat="49.9446" lon="2.17027">
        <ele>13.4</ele>
        <time>2023-06-28T12:52:19Z</time>
      </trkpt>
      <trkpt lat="49.94461" lon="2.17027">
        <ele>13.4</ele>
        <time>2023-06-28T12:52:20Z</time>
      </trkpt>
      <trkpt lat="49.94461" lon="2.17028">
        <ele>13.4</ele>
        <time>2023-06-28T12:52:21Z</time>
      </trkpt>
      <trkpt lat="49.94462" lon="2.17029">
        <ele>13.4</ele>
        <time>2023-06-28T12:52:22Z</time>
      </trkpt>
      <trkpt lat="49.94463" lon="2.1703">
        <ele>13.4</ele>
        <time>2023-06-28T12:52:24Z</time>
      </trkpt>
      <trkpt lat="49.94465" lon="2.17032">
        <ele>13.5</ele>
        <time>2023-06-28T12:52:25Z</time>
      </trkpt>
      <trkpt lat="49.94466" lon="2.17033">
        <ele>13.4</ele>
        <time>2023-06-28T12:52:26Z</time>
      </trkpt>
      <trkpt lat="49.94467" lon="2.17034">
        <ele>13.4</ele>
        <time>2023-06-28T12:52:27Z</time>
      </trkpt>
      <trkpt lat="49.94469" lon="2.17037">
        <ele>13.4</ele>
        <time>2023-06-28T12:52:28Z</time>
      </trkpt>
      <trkpt lat="49.9447" lon="2.17038">
        <ele>13.4</ele>
        <time>2023-06-28T12:52:30Z</time>
      </trkpt>
      <trkpt lat="49.9447" lon="2.17039">
        <ele>13.4</ele>
        <time>2023-06-28T12:52:31Z</time>
      </trkpt>
      <trkpt lat="49.94471" lon="2.1704">
        <ele>13.5</ele>
        <time>2023-06-28T12:52:32Z</time>
      </trkpt>
      <trkpt lat="49.94472" lon="2.17041">
        <ele>13.5</ele>
        <time>2023-06-28T12:52:33Z</time>
      </trkpt>
      <trkpt lat="49.94473" lon="2.17043">
        <ele>13.4</ele>
        <time>2023-06-28T12:52:34Z</time>
      </trkpt>
      <trkpt lat="49.94474" lon="2.17043">
        <ele>13.4</ele>
        <time>2023-06-28T12:52:35Z</time>
      </trkpt>
      <trkpt lat="49.94475" lon="2.17044">
        <ele>13.4</ele>
        <time>2023-06-28T12:52:37Z</time>
      </trkpt>
      <trkpt lat="49.94476" lon="2.17044">
        <ele>13.4</ele>
        <time>2023-06-28T12:52:38Z</time>
      </trkpt>
      <trkpt lat="49.94476" lon="2.17044">
        <ele>13.5</ele>
        <time>2023-06-28T12:52:39Z</time>
      </trkpt>
      <trkpt lat="49.94477" lon="2.17045">
        <ele>13.5</ele>
        <time>2023-06-28T12:52:40Z</time>
      </trkpt>
      <trkpt lat="49.94478" lon="2.17045">
        <ele>13.5</ele>
        <time>2023-06-28T12:52:41Z</time>
      </trkpt>
      <trkpt lat="49.94479" lon="2.17046">
        <ele>13.5</ele>
        <time>2023-06-28T12:52:42Z</time>
      </trkpt>
      <trkpt lat="49.9448" lon="2.17046">
        <ele>13.5</ele>
        <time>2023-06-28T12:52:43Z</time>
      </trkpt>
      <trkpt lat="49.94481" lon="2.17048">
        <ele>13.5</ele>
        <time>2023-06-28T12:52:45Z</time>
      </trkpt>
      <trkpt lat="49.94481" lon="2.17049">
        <ele>13.5</ele>
        <time>2023-06-28T12:52:46Z</time>
      </trkpt>
      <trkpt lat="49.94482" lon="2.17051">
        <ele>13.5</ele>
        <time>2023-06-28T12:52:47Z</time>
      </trkpt>
      <trkpt lat="49.94482" lon="2.17053">
        <ele>13.5</ele>
        <time>2023-06-28T12:52:48Z</time>
      </trkpt>
      <trkpt lat="49.94482" lon="2.17055">
        <ele>13.6</ele>
        <time>2023-06-28T12:52:49Z</time>
      </trkpt>
      <trkpt lat="49.94482" lon="2.17056">
        <ele>13.6</ele>
        <time>2023-06-28T12:52:50Z</time>
      </trkpt>
      <trkpt lat="49.94483" lon="2.17057">
        <ele>13.6</ele>
        <time>2023-06-28T12:52:51Z</time>
      </trkpt>
      <trkpt lat="49.94484" lon="2.17058">
        <ele>13.6</ele>
        <time>2023-06-28T12:52:52Z</time>
      </trkpt>
      <trkpt lat="49.94485" lon="2.17058">
        <ele>13.6</ele>
        <time>2023-06-28T12:52:53Z</time>
      </trkpt>
      <trkpt lat="49.94486" lon="2.17058">
        <ele>13.6</ele>
        <time>2023-06-28T12:52:54Z</time>
      </trkpt>
      <trkpt lat="49.94486" lon="2.17058">
        <ele>13.6</ele>
        <time>2023-06-28T12:52:56Z</time>
      </trkpt>
      <trkpt lat="49.94487" lon="2.17057">
        <ele>13.6</ele>
        <time>2023-06-28T12:52:57Z</time>
      </trkpt>
      <trkpt lat="49.94489" lon="2.17057">
        <ele>13.6</ele>
        <time>2023-06-28T12:52:58Z</time>
      </trkpt>
      <trkpt lat="49.9449" lon="2.17057">
        <ele>13.6</ele>
        <time>2023-06-28T12:52:59Z</time>
      </trkpt>
      <trkpt lat="49.94491" lon="2.17057">
        <ele>13.6</ele>
        <time>2023-06-28T12:53:00Z</time>
      </trkpt>
      <trkpt lat="49.94492" lon="2.17057">
        <ele>13.6</ele>
        <time>2023-06-28T12:53:01Z</time>
      </trkpt>
      <trkpt lat="49.94494" lon="2.17056">
        <ele>13.6</ele>
        <time>2023-06-28T12:53:02Z</time>
      </trkpt>
      <trkpt lat="49.94494" lon="2.17055">
        <ele>13.6</ele>
        <time>2023-06-28T12:53:03Z</time>
      </trkpt>
      <trkpt lat="49.94495" lon="2.17054">
        <ele>13.6</ele>
        <time>2023-06-28T12:53:05Z</time>
      </trkpt>
      <trkpt lat="49.94496" lon="2.17053">
        <ele>13.5</ele>
        <time>2023-06-28T12:53:06Z</time>
      </trkpt>
      <trkpt lat="49.94497" lon="2.17052">
        <ele>13.5</ele>
        <time>2023-06-28T12:53:07Z</time>
      </trkpt>
      <trkpt lat="49.94498" lon="2.17051">
        <ele>13.5</ele>
        <time>2023-06-28T12:53:08Z</time>
      </trkpt>
      <trkpt lat="49.94499" lon="2.1705">
        <ele>13.6</ele>
        <time>2023-06-28T12:53:09Z</time>
      </trkpt>
      <trkpt lat="49.945" lon="2.17051">
        <ele>13.6</ele>
        <time>2023-06-28T12:53:11Z</time>
      </trkpt>
      <trkpt lat="49.945" lon="2.17051">
        <ele>13.6</ele>
        <time>2023-06-28T12:53:12Z</time>
      </trkpt>
      <trkpt lat="49.94501" lon="2.17052">
        <ele>13.6</ele>
        <time>2023-06-28T12:53:13Z</time>
      </trkpt>
      <trkpt lat="49.94501" lon="2.17052">
        <ele>13.6</ele>
        <time>2023-06-28T12:53:14Z</time>
      </trkpt>
      <trkpt lat="49.94502" lon="2.17053">
        <ele>13.6</ele>
        <time>2023-06-28T12:53:15Z</time>
      </trkpt>
      <trkpt lat="49.94503" lon="2.17053">
        <ele>13.6</ele>
        <time>2023-06-28T12:53:16Z</time>
      </trkpt>
      <trkpt lat="49.94504" lon="2.17053">
        <ele>13.6</ele>
        <time>2023-06-28T12:53:17Z</time>
      </trkpt>
      <trkpt lat="49.94506" lon="2.17052">
        <ele>13.6</ele>
        <time>2023-06-28T12:53:18Z</time>
      </trkpt>
      <trkpt lat="49.94507" lon="2.17052">
        <ele>13.7</ele>
        <time>2023-06-28T12:53:20Z</time>
      </trkpt>
      <trkpt lat="49.94507" lon="2.17052">
        <ele>13.7</ele>
        <time>2023-06-28T12:53:21Z</time>
      </trkpt>
      <trkpt lat="49.94509" lon="2.17052">
        <ele>13.7</ele>
        <time>2023-06-28T12:53:22Z</time>
      </trkpt>
      <trkpt lat="49.9451" lon="2.17052">
        <ele>13.7</ele>
        <time>2023-06-28T12:53:23Z</time>
      </trkpt>
      <trkpt lat="49.94511" lon="2.17052">
        <ele>13.7</ele>
        <time>2023-06-28T12:53:24Z</time>
      </trkpt>
      <trkpt lat="49.94512" lon="2.17052">
        <ele>13.7</ele>
        <time>2023-06-28T12:53:26Z</time>
      </trkpt>
      <trkpt lat="49.94513" lon="2.17051">
        <ele>13.7</ele>
        <time>2023-06-28T12:53:27Z</time>
      </trkpt>
      <trkpt lat="49.94514" lon="2.1705">
        <ele>13.7</ele>
        <time>2023-06-28T12:53:28Z</time>
      </trkpt>
      <trkpt lat="49.94515" lon="2.17049">
        <ele>13.7</ele>
        <time>2023-06-28T12:53:29Z</time>
      </trkpt>
      <trkpt lat="49.94516" lon="2.17046">
        <ele>13.7</ele>
        <time>2023-06-28T12:53:31Z</time>
      </trkpt>
      <trkpt lat="49.94517" lon="2.17044">
        <ele>13.6</ele>
        <time>2023-06-28T12:53:32Z</time>
      </trkpt>
      <trkpt lat="49.94518" lon="2.17042">
        <ele>13.7</ele>
        <time>2023-06-28T12:53:33Z</time>
      </trkpt>
      <trkpt lat="49.94519" lon="2.17039">
        <ele>13.6</ele>
        <time>2023-06-28T12:53:35Z</time>
      </trkpt>
      <trkpt lat="49.94519" lon="2.17038">
        <ele>13.6</ele>
        <time>2023-06-28T12:53:36Z</time>
      </trkpt>
      <trkpt lat="49.9452" lon="2.17037">
        <ele>13.6</ele>
        <time>2023-06-28T12:53:37Z</time>
      </trkpt>
      <trkpt lat="49.94521" lon="2.17035">
        <ele>13.5</ele>
        <time>2023-06-28T12:53:38Z</time>
      </trkpt>
      <trkpt lat="49.94522" lon="2.17034">
        <ele>13.5</ele>
        <time>2023-06-28T12:53:39Z</time>
      </trkpt>
      <trkpt lat="49.94523" lon="2.17033">
        <ele>13.6</ele>
        <time>2023-06-28T12:53:40Z</time>
      </trkpt>
      <trkpt lat="49.94524" lon="2.17032">
        <ele>13.6</ele>
        <time>2023-06-28T12:53:41Z</time>
      </trkpt>
      <trkpt lat="49.94525" lon="2.17032">
        <ele>13.6</ele>
        <time>2023-06-28T12:53:43Z</time>
      </trkpt>
      <trkpt lat="49.94526" lon="2.17032">
        <ele>13.6</ele>
        <time>2023-06-28T12:53:44Z</time>
      </trkpt>
      <trkpt lat="49.94527" lon="2.17033">
        <ele>13.6</ele>
        <time>2023-06-28T12:53:45Z</time>
      </trkpt>
      <trkpt lat="49.94528" lon="2.17033">
        <ele>13.6</ele>
        <time>2023-06-28T12:53:46Z</time>
      </trkpt>
      <trkpt lat="49.94529" lon="2.17034">
        <ele>13.7</ele>
        <time>2023-06-28T12:53:47Z</time>
      </trkpt>
      <trkpt lat="49.94532" lon="2.17035">
        <ele>13.7</ele>
        <time>2023-06-28T12:53:48Z</time>
      </trkpt>
      <trkpt lat="49.94533" lon="2.17036">
        <ele>13.8</ele>
        <time>2023-06-28T12:53:50Z</time>
      </trkpt>
      <trkpt lat="49.94534" lon="2.17037">
        <ele>13.8</ele>
        <time>2023-06-28T12:53:51Z</time>
      </trkpt>
      <trkpt lat="49.94534" lon="2.17037">
        <ele>13.9</ele>
        <time>2023-06-28T12:53:52Z</time>
      </trkpt>
      <trkpt lat="49.94535" lon="2.17038">
        <ele>13.9</ele>
        <time>2023-06-28T12:53:53Z</time>
      </trkpt>
      <trkpt lat="49.94536" lon="2.17039">
        <ele>13.9</ele>
        <time>2023-06-28T12:53:54Z</time>
      </trkpt>
      <trkpt lat="49.94537" lon="2.17039">
        <ele>13.9</ele>
        <time>2023-06-28T12:53:55Z</time>
      </trkpt>
      <trkpt lat="49.94539" lon="2.1704">
        <ele>13.9</ele>
        <time>2023-06-28T12:53:57Z</time>
      </trkpt>
      <trkpt lat="49.9454" lon="2.1704">
        <ele>14.1</ele>
        <time>2023-06-28T12:53:59Z</time>
      </trkpt>
      <trkpt lat="49.94541" lon="2.17041">
        <ele>14.1</ele>
        <time>2023-06-28T12:54:00Z</time>
      </trkpt>
      <trkpt lat="49.94543" lon="2.17041">
        <ele>14.1</ele>
        <time>2023-06-28T12:54:01Z</time>
      </trkpt>
      <trkpt lat="49.94544" lon="2.17042">
        <ele>14.1</ele>
        <time>2023-06-28T12:54:02Z</time>
      </trkpt>
      <trkpt lat="49.94545" lon="2.17042">
        <ele>14.1</ele>
        <time>2023-06-28T12:54:03Z</time>
      </trkpt>
      <trkpt lat="49.94546" lon="2.17043">
        <ele>14.2</ele>
        <time>2023-06-28T12:54:04Z</time>
      </trkpt>
      <trkpt lat="49.94547" lon="2.17043">
        <ele>14.2</ele>
        <time>2023-06-28T12:54:05Z</time>
      </trkpt>
      <trkpt lat="49.94548" lon="2.17043">
        <ele>14.2</ele>
        <time>2023-06-28T12:54:07Z</time>
      </trkpt>
      <trkpt lat="49.94549" lon="2.17044">
        <ele>14.2</ele>
        <time>2023-06-28T12:54:08Z</time>
      </trkpt>
      <trkpt lat="49.9455" lon="2.17044">
        <ele>14.2</ele>
        <time>2023-06-28T12:54:09Z</time>
      </trkpt>
      <trkpt lat="49.94551" lon="2.17044">
        <ele>14.3</ele>
        <time>2023-06-28T12:54:10Z</time>
      </trkpt>
      <trkpt lat="49.94553" lon="2.17044">
        <ele>14.3</ele>
        <time>2023-06-28T12:54:11Z</time>
      </trkpt>
      <trkpt lat="49.94554" lon="2.17044">
        <ele>14.3</ele>
        <time>2023-06-28T12:54:13Z</time>
      </trkpt>
      <trkpt lat="49.94555" lon="2.17044">
        <ele>14.3</ele>
        <time>2023-06-28T12:54:14Z</time>
      </trkpt>
      <trkpt lat="49.94556" lon="2.17044">
        <ele>14.4</ele>
        <time>2023-06-28T12:54:16Z</time>
      </trkpt>
      <trkpt lat="49.94558" lon="2.17044">
        <ele>14.5</ele>
        <time>2023-06-28T12:54:17Z</time>
      </trkpt>
      <trkpt lat="49.94559" lon="2.17045">
        <ele>14.5</ele>
        <time>2023-06-28T12:54:18Z</time>
      </trkpt>
      <trkpt lat="49.9456" lon="2.17045">
        <ele>14.6</ele>
        <time>2023-06-28T12:54:19Z</time>
      </trkpt>
      <trkpt lat="49.94561" lon="2.17045">
        <ele>14.6</ele>
        <time>2023-06-28T12:54:20Z</time>
      </trkpt>
      <trkpt lat="49.94562" lon="2.17045">
        <ele>14.6</ele>
        <time>2023-06-28T12:54:22Z</time>
      </trkpt>
      <trkpt lat="49.94563" lon="2.17046">
        <ele>14.6</ele>
        <time>2023-06-28T12:54:23Z</time>
      </trkpt>
      <trkpt lat="49.94564" lon="2.17046">
        <ele>14.6</ele>
        <time>2023-06-28T12:54:24Z</time>
      </trkpt>
      <trkpt lat="49.94565" lon="2.17046">
        <ele>14.7</ele>
        <time>2023-06-28T12:54:25Z</time>
      </trkpt>
      <trkpt lat="49.94566" lon="2.17046">
        <ele>14.7</ele>
        <time>2023-06-28T12:54:26Z</time>
      </trkpt>
      <trkpt lat="49.94567" lon="2.17045">
        <ele>14.7</ele>
        <time>2023-06-28T12:54:27Z</time>
      </trkpt>
      <trkpt lat="49.94569" lon="2.17045">
        <ele>14.7</ele>
        <time>2023-06-28T12:54:29Z</time>
      </trkpt>
      <trkpt lat="49.9457" lon="2.17044">
        <ele>14.7</ele>
        <time>2023-06-28T12:54:30Z</time>
      </trkpt>
      <trkpt lat="49.94572" lon="2.17043">
        <ele>14.7</ele>
        <time>2023-06-28T12:54:31Z</time>
      </trkpt>
      <trkpt lat="49.94573" lon="2.17042">
        <ele>14.7</ele>
        <time>2023-06-28T12:54:32Z</time>
      </trkpt>
      <trkpt lat="49.94573" lon="2.17041">
        <ele>14.7</ele>
        <time>2023-06-28T12:54:33Z</time>
      </trkpt>
      <trkpt lat="49.94574" lon="2.1704">
        <ele>14.6</ele>
        <time>2023-06-28T12:54:34Z</time>
      </trkpt>
      <trkpt lat="49.94575" lon="2.17039">
        <ele>14.7</ele>
        <time>2023-06-28T12:54:35Z</time>
      </trkpt>
      <trkpt lat="49.94576" lon="2.17038">
        <ele>14.7</ele>
        <time>2023-06-28T12:54:36Z</time>
      </trkpt>
      <trkpt lat="49.94578" lon="2.17037">
        <ele>14.7</ele>
        <time>2023-06-28T12:54:38Z</time>
      </trkpt>
      <trkpt lat="49.94579" lon="2.17037">
        <ele>14.7</ele>
        <time>2023-06-28T12:54:39Z</time>
      </trkpt>
      <trkpt lat="49.9458" lon="2.17035">
        <ele>14.6</ele>
        <time>2023-06-28T12:54:40Z</time>
      </trkpt>
      <trkpt lat="49.94581" lon="2.17034">
        <ele>14.6</ele>
        <time>2023-06-28T12:54:41Z</time>
      </trkpt>
      <trkpt lat="49.94582" lon="2.17034">
        <ele>14.6</ele>
        <time>2023-06-28T12:54:42Z</time>
      </trkpt>
      <trkpt lat="49.94583" lon="2.17033">
        <ele>14.6</ele>
        <time>2023-06-28T12:54:43Z</time>
      </trkpt>
      <trkpt lat="49.94584" lon="2.17032">
        <ele>14.7</ele>
        <time>2023-06-28T12:54:44Z</time>
      </trkpt>
      <trkpt lat="49.94586" lon="2.17031">
        <ele>14.6</ele>
        <time>2023-06-28T12:54:46Z</time>
      </trkpt>
      <trkpt lat="49.94587" lon="2.1703">
        <ele>14.6</ele>
        <time>2023-06-28T12:54:47Z</time>
      </trkpt>
      <trkpt lat="49.94589" lon="2.17029">
        <ele>14.6</ele>
        <time>2023-06-28T12:54:49Z</time>
      </trkpt>
      <trkpt lat="49.9459" lon="2.17029">
        <ele>14.7</ele>
        <time>2023-06-28T12:54:50Z</time>
      </trkpt>
      <trkpt lat="49.9459" lon="2.17028">
        <ele>14.7</ele>
        <time>2023-06-28T12:54:51Z</time>
      </trkpt>
      <trkpt lat="49.94591" lon="2.17027">
        <ele>14.6</ele>
        <time>2023-06-28T12:54:52Z</time>
      </trkpt>
      <trkpt lat="49.94593" lon="2.17025">
        <ele>14.6</ele>
        <time>2023-06-28T12:54:53Z</time>
      </trkpt>
      <trkpt lat="49.94594" lon="2.17024">
        <ele>14.6</ele>
        <time>2023-06-28T12:54:54Z</time>
      </trkpt>
      <trkpt lat="49.94594" lon="2.17023">
        <ele>14.6</ele>
        <time>2023-06-28T12:54:55Z</time>
      </trkpt>
      <trkpt lat="49.94595" lon="2.17022">
        <ele>14.5</ele>
        <time>2023-06-28T12:54:57Z</time>
      </trkpt>
      <trkpt lat="49.94596" lon="2.17021">
        <ele>14.5</ele>
        <time>2023-06-28T12:54:58Z</time>
      </trkpt>
      <trkpt lat="49.94596" lon="2.1702">
        <ele>14.5</ele>
        <time>2023-06-28T12:54:59Z</time>
      </trkpt>
      <trkpt lat="49.94598" lon="2.17018">
        <ele>14.5</ele>
        <time>2023-06-28T12:55:00Z</time>
      </trkpt>
      <trkpt lat="49.94599" lon="2.17017">
        <ele>14.5</ele>
        <time>2023-06-28T12:55:01Z</time>
      </trkpt>
      <trkpt lat="49.94599" lon="2.17016">
        <ele>14.5</ele>
        <time>2023-06-28T12:55:02Z</time>
      </trkpt>
      <trkpt lat="49.94601" lon="2.17014">
        <ele>14.4</ele>
        <time>2023-06-28T12:55:03Z</time>
      </trkpt>
      <trkpt lat="49.94602" lon="2.17013">
        <ele>14.4</ele>
        <time>2023-06-28T12:55:05Z</time>
      </trkpt>
      <trkpt lat="49.94603" lon="2.17012">
        <ele>14.5</ele>
        <time>2023-06-28T12:55:06Z</time>
      </trkpt>
      <trkpt lat="49.94604" lon="2.17011">
        <ele>14.5</ele>
        <time>2023-06-28T12:55:07Z</time>
      </trkpt>
      <trkpt lat="49.94605" lon="2.1701">
        <ele>14.5</ele>
        <time>2023-06-28T12:55:08Z</time>
      </trkpt>
      <trkpt lat="49.94606" lon="2.17009">
        <ele>14.5</ele>
        <time>2023-06-28T12:55:10Z</time>
      </trkpt>
      <trkpt lat="49.94608" lon="2.17008">
        <ele>14.5</ele>
        <time>2023-06-28T12:55:11Z</time>
      </trkpt>
      <trkpt lat="49.94609" lon="2.17007">
        <ele>14.5</ele>
        <time>2023-06-28T12:55:12Z</time>
      </trkpt>
      <trkpt lat="49.94611" lon="2.17006">
        <ele>14.5</ele>
        <time>2023-06-28T12:55:13Z</time>
      </trkpt>
      <trkpt lat="49.94613" lon="2.17005">
        <ele>14.5</ele>
        <time>2023-06-28T12:55:15Z</time>
      </trkpt>
      <trkpt lat="49.94614" lon="2.17005">
        <ele>14.5</ele>
        <time>2023-06-28T12:55:16Z</time>
      </trkpt>
      <trkpt lat="49.94614" lon="2.17004">
        <ele>14.5</ele>
        <time>2023-06-28T12:55:17Z</time>
      </trkpt>
      <trkpt lat="49.94615" lon="2.17004">
        <ele>14.5</ele>
        <time>2023-06-28T12:55:18Z</time>
      </trkpt>
      <trkpt lat="49.94616" lon="2.17003">
        <ele>14.5</ele>
        <time>2023-06-28T12:55:19Z</time>
      </trkpt>
      <trkpt lat="49.94617" lon="2.17003">
        <ele>14.6</ele>
        <time>2023-06-28T12:55:20Z</time>
      </trkpt>
      <trkpt lat="49.94618" lon="2.17002">
        <ele>14.6</ele>
        <time>2023-06-28T12:55:21Z</time>
      </trkpt>
      <trkpt lat="49.94619" lon="2.17002">
        <ele>14.6</ele>
        <time>2023-06-28T12:55:23Z</time>
      </trkpt>
      <trkpt lat="49.9462" lon="2.17001">
        <ele>14.6</ele>
        <time>2023-06-28T12:55:24Z</time>
      </trkpt>
      <trkpt lat="49.94621" lon="2.16999">
        <ele>14.6</ele>
        <time>2023-06-28T12:55:25Z</time>
      </trkpt>
      <trkpt lat="49.94622" lon="2.16997">
        <ele>14.6</ele>
        <time>2023-06-28T12:55:26Z</time>
      </trkpt>
      <trkpt lat="49.94622" lon="2.16996">
        <ele>14.5</ele>
        <time>2023-06-28T12:55:27Z</time>
      </trkpt>
      <trkpt lat="49.94623" lon="2.16994">
        <ele>14.5</ele>
        <time>2023-06-28T12:55:28Z</time>
      </trkpt>
      <trkpt lat="49.94625" lon="2.16992">
        <ele>14.4</ele>
        <time>2023-06-28T12:55:30Z</time>
      </trkpt>
      <trkpt lat="49.94625" lon="2.16991">
        <ele>14.5</ele>
        <time>2023-06-28T12:55:31Z</time>
      </trkpt>
      <trkpt lat="49.94627" lon="2.16989">
        <ele>14.5</ele>
        <time>2023-06-28T12:55:32Z</time>
      </trkpt>
      <trkpt lat="49.94628" lon="2.16988">
        <ele>14.4</ele>
        <time>2023-06-28T12:55:33Z</time>
      </trkpt>
      <trkpt lat="49.94629" lon="2.16988">
        <ele>14.4</ele>
        <time>2023-06-28T12:55:34Z</time>
      </trkpt>
      <trkpt lat="49.9463" lon="2.16987">
        <ele>14.4</ele>
        <time>2023-06-28T12:55:35Z</time>
      </trkpt>
      <trkpt lat="49.94631" lon="2.16987">
        <ele>14.5</ele>
        <time>2023-06-28T12:55:36Z</time>
      </trkpt>
      <trkpt lat="49.94632" lon="2.16986">
        <ele>14.5</ele>
        <time>2023-06-28T12:55:37Z</time>
      </trkpt>
      <trkpt lat="49.94633" lon="2.16986">
        <ele>14.5</ele>
        <time>2023-06-28T12:55:39Z</time>
      </trkpt>
      <trkpt lat="49.94634" lon="2.16986">
        <ele>14.6</ele>
        <time>2023-06-28T12:55:40Z</time>
      </trkpt>
      <trkpt lat="49.94635" lon="2.16985">
        <ele>14.6</ele>
        <time>2023-06-28T12:55:41Z</time>
      </trkpt>
      <trkpt lat="49.94636" lon="2.16984">
        <ele>14.6</ele>
        <time>2023-06-28T12:55:42Z</time>
      </trkpt>
      <trkpt lat="49.94638" lon="2.16984">
        <ele>14.5</ele>
        <time>2023-06-28T12:55:43Z</time>
      </trkpt>
      <trkpt lat="49.94639" lon="2.16983">
        <ele>14.5</ele>
        <time>2023-06-28T12:55:44Z</time>
      </trkpt>
      <trkpt lat="49.9464" lon="2.16983">
        <ele>14.6</ele>
        <time>2023-06-28T12:55:45Z</time>
      </trkpt>
      <trkpt lat="49.94641" lon="2.16983">
        <ele>14.6</ele>
        <time>2023-06-28T12:55:47Z</time>
      </trkpt>
      <trkpt lat="49.94642" lon="2.16982">
        <ele>14.6</ele>
        <time>2023-06-28T12:55:48Z</time>
      </trkpt>
      <trkpt lat="49.94643" lon="2.16982">
        <ele>14.6</ele>
        <time>2023-06-28T12:55:49Z</time>
      </trkpt>
      <trkpt lat="49.94644" lon="2.16982">
        <ele>14.6</ele>
        <time>2023-06-28T12:55:50Z</time>
      </trkpt>
      <trkpt lat="49.94645" lon="2.16981">
        <ele>14.7</ele>
        <time>2023-06-28T12:55:51Z</time>
      </trkpt>
      <trkpt lat="49.94648" lon="2.16981">
        <ele>14.8</ele>
        <time>2023-06-28T12:55:53Z</time>
      </trkpt>
      <trkpt lat="49.94649" lon="2.1698">
        <ele>14.8</ele>
        <time>2023-06-28T12:55:55Z</time>
      </trkpt>
      <trkpt lat="49.9465" lon="2.1698">
        <ele>14.7</ele>
        <time>2023-06-28T12:55:56Z</time>
      </trkpt>
      <trkpt lat="49.9465" lon="2.16979">
        <ele>14.7</ele>
        <time>2023-06-28T12:55:57Z</time>
      </trkpt>
      <trkpt lat="49.94651" lon="2.16978">
        <ele>14.7</ele>
        <time>2023-06-28T12:55:58Z</time>
      </trkpt>
      <trkpt lat="49.94652" lon="2.16978">
        <ele>14.7</ele>
        <time>2023-06-28T12:55:59Z</time>
      </trkpt>
      <trkpt lat="49.94653" lon="2.16977">
        <ele>14.8</ele>
        <time>2023-06-28T12:56:00Z</time>
      </trkpt>
      <trkpt lat="49.94653" lon="2.16977">
        <ele>14.8</ele>
        <time>2023-06-28T12:56:01Z</time>
      </trkpt>
      <trkpt lat="49.94655" lon="2.16976">
        <ele>14.7</ele>
        <time>2023-06-28T12:56:03Z</time>
      </trkpt>
      <trkpt lat="49.94655" lon="2.16975">
        <ele>14.7</ele>
        <time>2023-06-28T12:56:05Z</time>
      </trkpt>
      <trkpt lat="49.94656" lon="2.16974">
        <ele>14.7</ele>
        <time>2023-06-28T12:56:06Z</time>
      </trkpt>
      <trkpt lat="49.94656" lon="2.16974">
        <ele>14.7</ele>
        <time>2023-06-28T12:56:07Z</time>
      </trkpt>
      <trkpt lat="49.94657" lon="2.16973">
        <ele>14.7</ele>
        <time>2023-06-28T12:56:08Z</time>
      </trkpt>
      <trkpt lat="49.94658" lon="2.16972">
        <ele>14.7</ele>
        <time>2023-06-28T12:56:10Z</time>
      </trkpt>
      <trkpt lat="49.94659" lon="2.16971">
        <ele>14.7</ele>
        <time>2023-06-28T12:56:11Z</time>
      </trkpt>
      <trkpt lat="49.94659" lon="2.1697">
        <ele>14.7</ele>
        <time>2023-06-28T12:56:12Z</time>
      </trkpt>
      <trkpt lat="49.9466" lon="2.16969">
        <ele>14.7</ele>
        <time>2023-06-28T12:56:13Z</time>
      </trkpt>
      <trkpt lat="49.94661" lon="2.16968">
        <ele>14.8</ele>
        <time>2023-06-28T12:56:14Z</time>
      </trkpt>
      <trkpt lat="49.94662" lon="2.16967">
        <ele>14.8</ele>
        <time>2023-06-28T12:56:15Z</time>
      </trkpt>
      <trkpt lat="49.94663" lon="2.16967">
        <ele>14.7</ele>
        <time>2023-06-28T12:56:16Z</time>
      </trkpt>
      <trkpt lat="49.94665" lon="2.16965">
        <ele>14.7</ele>
        <time>2023-06-28T12:56:17Z</time>
      </trkpt>
      <trkpt lat="49.94665" lon="2.16964">
        <ele>14.7</ele>
        <time>2023-06-28T12:56:19Z</time>
      </trkpt>
      <trkpt lat="49.94666" lon="2.16963">
        <ele>14.7</ele>
        <time>2023-06-28T12:56:20Z</time>
      </trkpt>
      <trkpt lat="49.94667" lon="2.16962">
        <ele>14.7</ele>
        <time>2023-06-28T12:56:21Z</time>
      </trkpt>
      <trkpt lat="49.94668" lon="2.16961">
        <ele>14.7</ele>
        <time>2023-06-28T12:56:22Z</time>
      </trkpt>
      <trkpt lat="49.9467" lon="2.16958">
        <ele>14.7</ele>
        <time>2023-06-28T12:56:23Z</time>
      </trkpt>
      <trkpt lat="49.94671" lon="2.16958">
        <ele>14.7</ele>
        <time>2023-06-28T12:56:25Z</time>
      </trkpt>
      <trkpt lat="49.94671" lon="2.16957">
        <ele>14.7</ele>
        <time>2023-06-28T12:56:26Z</time>
      </trkpt>
      <trkpt lat="49.94672" lon="2.16955">
        <ele>14.7</ele>
        <time>2023-06-28T12:56:27Z</time>
      </trkpt>
      <trkpt lat="49.94673" lon="2.16953">
        <ele>14.6</ele>
        <time>2023-06-28T12:56:28Z</time>
      </trkpt>
      <trkpt lat="49.94674" lon="2.16951">
        <ele>14.6</ele>
        <time>2023-06-28T12:56:30Z</time>
      </trkpt>
      <trkpt lat="49.94675" lon="2.1695">
        <ele>14.7</ele>
        <time>2023-06-28T12:56:31Z</time>
      </trkpt>
      <trkpt lat="49.94676" lon="2.16949">
        <ele>14.6</ele>
        <time>2023-06-28T12:56:32Z</time>
      </trkpt>
      <trkpt lat="49.94678" lon="2.16947">
        <ele>14.7</ele>
        <time>2023-06-28T12:56:33Z</time>
      </trkpt>
      <trkpt lat="49.94678" lon="2.16947">
        <ele>14.7</ele>
        <time>2023-06-28T12:56:34Z</time>
      </trkpt>
      <trkpt lat="49.94679" lon="2.16946">
        <ele>14.7</ele>
        <time>2023-06-28T12:56:35Z</time>
      </trkpt>
      <trkpt lat="49.9468" lon="2.16945">
        <ele>14.7</ele>
        <time>2023-06-28T12:56:36Z</time>
      </trkpt>
      <trkpt lat="49.94682" lon="2.16944">
        <ele>14.7</ele>
        <time>2023-06-28T12:56:37Z</time>
      </trkpt>
      <trkpt lat="49.94683" lon="2.16944">
        <ele>14.7</ele>
        <time>2023-06-28T12:56:39Z</time>
      </trkpt>
      <trkpt lat="49.94684" lon="2.16942">
        <ele>14.7</ele>
        <time>2023-06-28T12:56:40Z</time>
      </trkpt>
      <trkpt lat="49.94686" lon="2.16942">
        <ele>14.8</ele>
        <time>2023-06-28T12:56:41Z</time>
      </trkpt>
      <trkpt lat="49.94687" lon="2.16941">
        <ele>14.7</ele>
        <time>2023-06-28T12:56:42Z</time>
      </trkpt>
      <trkpt lat="49.94689" lon="2.16939">
        <ele>14.8</ele>
        <time>2023-06-28T12:56:43Z</time>
      </trkpt>
      <trkpt lat="49.9469" lon="2.16938">
        <ele>14.8</ele>
        <time>2023-06-28T12:56:44Z</time>
      </trkpt>
      <trkpt lat="49.94693" lon="2.16935">
        <ele>14.8</ele>
        <time>2023-06-28T12:56:46Z</time>
      </trkpt>
      <trkpt lat="49.94693" lon="2.16934">
        <ele>14.8</ele>
        <time>2023-06-28T12:56:48Z</time>
      </trkpt>
      <trkpt lat="49.94694" lon="2.16933">
        <ele>14.8</ele>
        <time>2023-06-28T12:56:49Z</time>
      </trkpt>
      <trkpt lat="49.94695" lon="2.16932">
        <ele>14.8</ele>
        <time>2023-06-28T12:56:50Z</time>
      </trkpt>
      <trkpt lat="49.94696" lon="2.16931">
        <ele>14.8</ele>
        <time>2023-06-28T12:56:51Z</time>
      </trkpt>
      <trkpt lat="49.94697" lon="2.16929">
        <ele>14.8</ele>
        <time>2023-06-28T12:56:52Z</time>
      </trkpt>
      <trkpt lat="49.94698" lon="2.16928">
        <ele>14.8</ele>
        <time>2023-06-28T12:56:53Z</time>
      </trkpt>
      <trkpt lat="49.94699" lon="2.16925">
        <ele>14.8</ele>
        <time>2023-06-28T12:56:54Z</time>
      </trkpt>
      <trkpt lat="49.947" lon="2.16924">
        <ele>14.8</ele>
        <time>2023-06-28T12:56:56Z</time>
      </trkpt>
      <trkpt lat="49.94701" lon="2.16923">
        <ele>14.8</ele>
        <time>2023-06-28T12:56:57Z</time>
      </trkpt>
      <trkpt lat="49.94702" lon="2.16922">
        <ele>14.8</ele>
        <time>2023-06-28T12:56:58Z</time>
      </trkpt>
      <trkpt lat="49.94703" lon="2.1692">
        <ele>14.8</ele>
        <time>2023-06-28T12:56:59Z</time>
      </trkpt>
      <trkpt lat="49.94704" lon="2.16919">
        <ele>14.8</ele>
        <time>2023-06-28T12:57:00Z</time>
      </trkpt>
      <trkpt lat="49.94705" lon="2.16917">
        <ele>14.8</ele>
        <time>2023-06-28T12:57:02Z</time>
      </trkpt>
      <trkpt lat="49.94706" lon="2.16915">
        <ele>14.8</ele>
        <time>2023-06-28T12:57:03Z</time>
      </trkpt>
      <trkpt lat="49.94707" lon="2.16914">
        <ele>14.8</ele>
        <time>2023-06-28T12:57:04Z</time>
      </trkpt>
      <trkpt lat="49.94708" lon="2.16912">
        <ele>14.8</ele>
        <time>2023-06-28T12:57:05Z</time>
      </trkpt>
      <trkpt lat="49.94709" lon="2.1691">
        <ele>14.8</ele>
        <time>2023-06-28T12:57:06Z</time>
      </trkpt>
      <trkpt lat="49.9471" lon="2.16907">
        <ele>14.8</ele>
        <time>2023-06-28T12:57:08Z</time>
      </trkpt>
      <trkpt lat="49.94711" lon="2.16906">
        <ele>14.8</ele>
        <time>2023-06-28T12:57:10Z</time>
      </trkpt>
      <trkpt lat="49.94712" lon="2.16903">
        <ele>14.8</ele>
        <time>2023-06-28T12:57:11Z</time>
      </trkpt>
      <trkpt lat="49.94713" lon="2.16902">
        <ele>14.8</ele>
        <time>2023-06-28T12:57:12Z</time>
      </trkpt>
      <trkpt lat="49.94714" lon="2.16901">
        <ele>14.8</ele>
        <time>2023-06-28T12:57:13Z</time>
      </trkpt>
      <trkpt lat="49.94715" lon="2.16898">
        <ele>14.8</ele>
        <time>2023-06-28T12:57:15Z</time>
      </trkpt>
      <trkpt lat="49.94715" lon="2.16897">
        <ele>14.8</ele>
        <time>2023-06-28T12:57:16Z</time>
      </trkpt>
      <trkpt lat="49.94716" lon="2.16896">
        <ele>14.8</ele>
        <time>2023-06-28T12:57:17Z</time>
      </trkpt>
      <trkpt lat="49.94716" lon="2.16893">
        <ele>14.8</ele>
        <time>2023-06-28T12:57:18Z</time>
      </trkpt>
      <trkpt lat="49.94717" lon="2.16891">
        <ele>14.8</ele>
        <time>2023-06-28T12:57:19Z</time>
      </trkpt>
      <trkpt lat="49.94717" lon="2.16889">
        <ele>14.8</ele>
        <time>2023-06-28T12:57:20Z</time>
      </trkpt>
      <trkpt lat="49.94717" lon="2.16887">
        <ele>14.8</ele>
        <time>2023-06-28T12:57:21Z</time>
      </trkpt>
      <trkpt lat="49.94717" lon="2.16885">
        <ele>14.7</ele>
        <time>2023-06-28T12:57:23Z</time>
      </trkpt>
      <trkpt lat="49.94717" lon="2.16882">
        <ele>14.7</ele>
        <time>2023-06-28T12:57:24Z</time>
      </trkpt>
      <trkpt lat="49.94716" lon="2.1688">
        <ele>14.7</ele>
        <time>2023-06-28T12:57:25Z</time>
      </trkpt>
      <trkpt lat="49.94716" lon="2.16879">
        <ele>14.7</ele>
        <time>2023-06-28T12:57:26Z</time>
      </trkpt>
      <trkpt lat="49.94716" lon="2.16877">
        <ele>14.6</ele>
        <time>2023-06-28T12:57:27Z</time>
      </trkpt>
      <trkpt lat="49.94715" lon="2.16874">
        <ele>14.6</ele>
        <time>2023-06-28T12:57:28Z</time>
      </trkpt>
      <trkpt lat="49.94715" lon="2.16872">
        <ele>14.6</ele>
        <time>2023-06-28T12:57:29Z</time>
      </trkpt>
      <trkpt lat="49.94714" lon="2.1687">
        <ele>14.6</ele>
        <time>2023-06-28T12:57:31Z</time>
      </trkpt>
      <trkpt lat="49.94713" lon="2.16868">
        <ele>14.5</ele>
        <time>2023-06-28T12:57:32Z</time>
      </trkpt>
      <trkpt lat="49.94712" lon="2.16865">
        <ele>14.5</ele>
        <time>2023-06-28T12:57:33Z</time>
      </trkpt>
      <trkpt lat="49.94712" lon="2.16862">
        <ele>14.4</ele>
        <time>2023-06-28T12:57:35Z</time>
      </trkpt>
      <trkpt lat="49.94711" lon="2.1686">
        <ele>14.4</ele>
        <time>2023-06-28T12:57:36Z</time>
      </trkpt>
      <trkpt lat="49.9471" lon="2.16856">
        <ele>14.3</ele>
        <time>2023-06-28T12:57:37Z</time>
      </trkpt>
      <trkpt lat="49.9471" lon="2.16854">
        <ele>14.3</ele>
        <time>2023-06-28T12:57:38Z</time>
      </trkpt>
      <trkpt lat="49.94709" lon="2.16852">
        <ele>14.3</ele>
        <time>2023-06-28T12:57:39Z</time>
      </trkpt>
      <trkpt lat="49.94708" lon="2.1685">
        <ele>14.3</ele>
        <time>2023-06-28T12:57:41Z</time>
      </trkpt>
      <trkpt lat="49.94708" lon="2.16848">
        <ele>14.3</ele>
        <time>2023-06-28T12:57:42Z</time>
      </trkpt>
      <trkpt lat="49.94707" lon="2.16846">
        <ele>14.2</ele>
        <time>2023-06-28T12:57:43Z</time>
      </trkpt>
      <trkpt lat="49.94706" lon="2.16844">
        <ele>14.2</ele>
        <time>2023-06-28T12:57:44Z</time>
      </trkpt>
      <trkpt lat="49.94705" lon="2.16841">
        <ele>14.2</ele>
        <time>2023-06-28T12:57:46Z</time>
      </trkpt>
      <trkpt lat="49.94704" lon="2.16839">
        <ele>14.2</ele>
        <time>2023-06-28T12:57:47Z</time>
      </trkpt>
      <trkpt lat="49.94704" lon="2.16838">
        <ele>14.2</ele>
        <time>2023-06-28T12:57:48Z</time>
      </trkpt>
      <trkpt lat="49.94703" lon="2.16836">
        <ele>14.2</ele>
        <time>2023-06-28T12:57:49Z</time>
      </trkpt>
      <trkpt lat="49.94702" lon="2.16833">
        <ele>14.1</ele>
        <time>2023-06-28T12:57:50Z</time>
      </trkpt>
      <trkpt lat="49.94702" lon="2.16832">
        <ele>14.1</ele>
        <time>2023-06-28T12:57:51Z</time>
      </trkpt>
      <trkpt lat="49.94701" lon="2.1683">
        <ele>14.1</ele>
        <time>2023-06-28T12:57:53Z</time>
      </trkpt>
      <trkpt lat="49.94701" lon="2.16829">
        <ele>14.1</ele>
        <time>2023-06-28T12:57:54Z</time>
      </trkpt>
      <trkpt lat="49.947" lon="2.16828">
        <ele>14.1</ele>
        <time>2023-06-28T12:57:55Z</time>
      </trkpt>
      <trkpt lat="49.947" lon="2.16826">
        <ele>14.1</ele>
        <time>2023-06-28T12:57:56Z</time>
      </trkpt>
      <trkpt lat="49.94699" lon="2.16823">
        <ele>14.1</ele>
        <time>2023-06-28T12:57:57Z</time>
      </trkpt>
      <trkpt lat="49.94699" lon="2.16822">
        <ele>14.1</ele>
        <time>2023-06-28T12:57:58Z</time>
      </trkpt>
      <trkpt lat="49.94699" lon="2.16821">
        <ele>14.1</ele>
        <time>2023-06-28T12:57:59Z</time>
      </trkpt>
      <trkpt lat="49.94699" lon="2.16819">
        <ele>14.1</ele>
        <time>2023-06-28T12:58:01Z</time>
      </trkpt>
      <trkpt lat="49.94699" lon="2.16818">
        <ele>14.1</ele>
        <time>2023-06-28T12:58:02Z</time>
      </trkpt>
      <trkpt lat="49.94699" lon="2.16816">
        <ele>14.1</ele>
        <time>2023-06-28T12:58:03Z</time>
      </trkpt>
      <trkpt lat="49.94699" lon="2.16815">
        <ele>14.1</ele>
        <time>2023-06-28T12:58:04Z</time>
      </trkpt>
      <trkpt lat="49.94699" lon="2.16813">
        <ele>14.1</ele>
        <time>2023-06-28T12:58:05Z</time>
      </trkpt>
      <trkpt lat="49.947" lon="2.16811">
        <ele>14.1</ele>
        <time>2023-06-28T12:58:06Z</time>
      </trkpt>
      <trkpt lat="49.947" lon="2.1681">
        <ele>14.1</ele>
        <time>2023-06-28T12:58:07Z</time>
      </trkpt>
      <trkpt lat="49.947" lon="2.16808">
        <ele>14.1</ele>
        <time>2023-06-28T12:58:08Z</time>
      </trkpt>
      <trkpt lat="49.947" lon="2.16807">
        <ele>14.1</ele>
        <time>2023-06-28T12:58:10Z</time>
      </trkpt>
      <trkpt lat="49.947" lon="2.16807">
        <ele>14.1</ele>
        <time>2023-06-28T12:58:11Z</time>
      </trkpt>
      <trkpt lat="49.94701" lon="2.16806">
        <ele>14.1</ele>
        <time>2023-06-28T12:58:12Z</time>
      </trkpt>
      <trkpt lat="49.947" lon="2.16805">
        <ele>14.1</ele>
        <time>2023-06-28T12:58:13Z</time>
      </trkpt>
      <trkpt lat="49.947" lon="2.16805">
        <ele>14.1</ele>
        <time>2023-06-28T12:58:14Z</time>
      </trkpt>
      <trkpt lat="49.947" lon="2.16804">
        <ele>14</ele>
        <time>2023-06-28T12:58:15Z</time>
      </trkpt>
      <trkpt lat="49.94699" lon="2.16802">
        <ele>14</ele>
        <time>2023-06-28T12:58:16Z</time>
      </trkpt>
      <trkpt lat="49.94699" lon="2.16801">
        <ele>14</ele>
        <time>2023-06-28T12:58:18Z</time>
      </trkpt>
      <trkpt lat="49.94699" lon="2.168">
        <ele>14</ele>
        <time>2023-06-28T12:58:19Z</time>
      </trkpt>
      <trkpt lat="49.94698" lon="2.16798">
        <ele>14</ele>
        <time>2023-06-28T12:58:20Z</time>
      </trkpt>
      <trkpt lat="49.94697" lon="2.16797">
        <ele>14</ele>
        <time>2023-06-28T12:58:21Z</time>
      </trkpt>
      <trkpt lat="49.94697" lon="2.16795">
        <ele>14</ele>
        <time>2023-06-28T12:58:22Z</time>
      </trkpt>
      <trkpt lat="49.94696" lon="2.16795">
        <ele>14</ele>
        <time>2023-06-28T12:58:24Z</time>
      </trkpt>
      <trkpt lat="49.94696" lon="2.16794">
        <ele>14</ele>
        <time>2023-06-28T12:58:25Z</time>
      </trkpt>
      <trkpt lat="49.94694" lon="2.16792">
        <ele>14</ele>
        <time>2023-06-28T12:58:26Z</time>
      </trkpt>
      <trkpt lat="49.94693" lon="2.16792">
        <ele>14</ele>
        <time>2023-06-28T12:58:27Z</time>
      </trkpt>
      <trkpt lat="49.94693" lon="2.16791">
        <ele>14</ele>
        <time>2023-06-28T12:58:28Z</time>
      </trkpt>
      <trkpt lat="49.94691" lon="2.1679">
        <ele>14</ele>
        <time>2023-06-28T12:58:29Z</time>
      </trkpt>
      <trkpt lat="49.9469" lon="2.16789">
        <ele>14</ele>
        <time>2023-06-28T12:58:30Z</time>
      </trkpt>
      <trkpt lat="49.94689" lon="2.16787">
        <ele>14</ele>
        <time>2023-06-28T12:58:32Z</time>
      </trkpt>
      <trkpt lat="49.94688" lon="2.16786">
        <ele>14</ele>
        <time>2023-06-28T12:58:33Z</time>
      </trkpt>
      <trkpt lat="49.94687" lon="2.16785">
        <ele>14</ele>
        <time>2023-06-28T12:58:34Z</time>
      </trkpt>
      <trkpt lat="49.94686" lon="2.16785">
        <ele>14</ele>
        <time>2023-06-28T12:58:35Z</time>
      </trkpt>
      <trkpt lat="49.94685" lon="2.16784">
        <ele>14.1</ele>
        <time>2023-06-28T12:58:36Z</time>
      </trkpt>
      <trkpt lat="49.94684" lon="2.16782">
        <ele>14.1</ele>
        <time>2023-06-28T12:58:38Z</time>
      </trkpt>
      <trkpt lat="49.94683" lon="2.16781">
        <ele>14.1</ele>
        <time>2023-06-28T12:58:39Z</time>
      </trkpt>
      <trkpt lat="49.94682" lon="2.1678">
        <ele>14.1</ele>
        <time>2023-06-28T12:58:40Z</time>
      </trkpt>
      <trkpt lat="49.94681" lon="2.16779">
        <ele>14.1</ele>
        <time>2023-06-28T12:58:41Z</time>
      </trkpt>
      <trkpt lat="49.9468" lon="2.16778">
        <ele>14.1</ele>
        <time>2023-06-28T12:58:43Z</time>
      </trkpt>
      <trkpt lat="49.94679" lon="2.16777">
        <ele>14.1</ele>
        <time>2023-06-28T12:58:44Z</time>
      </trkpt>
      <trkpt lat="49.94678" lon="2.16776">
        <ele>14.1</ele>
        <time>2023-06-28T12:58:45Z</time>
      </trkpt>
      <trkpt lat="49.94676" lon="2.16774">
        <ele>14.1</ele>
        <time>2023-06-28T12:58:46Z</time>
      </trkpt>
      <trkpt lat="49.94675" lon="2.16773">
        <ele>14.1</ele>
        <time>2023-06-28T12:58:47Z</time>
      </trkpt>
      <trkpt lat="49.94675" lon="2.16772">
        <ele>14.1</ele>
        <time>2023-06-28T12:58:48Z</time>
      </trkpt>
      <trkpt lat="49.94673" lon="2.1677">
        <ele>14.1</ele>
        <time>2023-06-28T12:58:50Z</time>
      </trkpt>
      <trkpt lat="49.94672" lon="2.1677">
        <ele>14.1</ele>
        <time>2023-06-28T12:58:51Z</time>
      </trkpt>
      <trkpt lat="49.94672" lon="2.16769">
        <ele>14.1</ele>
        <time>2023-06-28T12:58:52Z</time>
      </trkpt>
      <trkpt lat="49.94671" lon="2.16768">
        <ele>14.1</ele>
        <time>2023-06-28T12:58:53Z</time>
      </trkpt>
      <trkpt lat="49.9467" lon="2.16767">
        <ele>14.1</ele>
        <time>2023-06-28T12:58:54Z</time>
      </trkpt>
      <trkpt lat="49.94669" lon="2.16767">
        <ele>14.1</ele>
        <time>2023-06-28T12:58:55Z</time>
      </trkpt>
      <trkpt lat="49.94667" lon="2.16766">
        <ele>14.1</ele>
        <time>2023-06-28T12:58:56Z</time>
      </trkpt>
      <trkpt lat="49.94666" lon="2.16765">
        <ele>14.1</ele>
        <time>2023-06-28T12:58:57Z</time>
      </trkpt>
      <trkpt lat="49.94665" lon="2.16764">
        <ele>14.1</ele>
        <time>2023-06-28T12:58:58Z</time>
      </trkpt>
      <trkpt lat="49.94663" lon="2.16764">
        <ele>14.2</ele>
        <time>2023-06-28T12:58:59Z</time>
      </trkpt>
      <trkpt lat="49.94662" lon="2.16764">
        <ele>14.2</ele>
        <time>2023-06-28T12:59:01Z</time>
      </trkpt>
      <trkpt lat="49.9466" lon="2.16763">
        <ele>14.2</ele>
        <time>2023-06-28T12:59:02Z</time>
      </trkpt>
      <trkpt lat="49.94658" lon="2.16763">
        <ele>14.2</ele>
        <time>2023-06-28T12:59:03Z</time>
      </trkpt>
      <trkpt lat="49.94658" lon="2.16762">
        <ele>14.2</ele>
        <time>2023-06-28T12:59:04Z</time>
      </trkpt>
      <trkpt lat="49.94657" lon="2.16762">
        <ele>14.2</ele>
        <time>2023-06-28T12:59:05Z</time>
      </trkpt>
      <trkpt lat="49.94656" lon="2.16761">
        <ele>14.2</ele>
        <time>2023-06-28T12:59:06Z</time>
      </trkpt>
      <trkpt lat="49.94655" lon="2.1676">
        <ele>14.2</ele>
        <time>2023-06-28T12:59:07Z</time>
      </trkpt>
      <trkpt lat="49.94654" lon="2.16759">
        <ele>14.2</ele>
        <time>2023-06-28T12:59:09Z</time>
      </trkpt>
      <trkpt lat="49.94652" lon="2.16759">
        <ele>14.2</ele>
        <time>2023-06-28T12:59:10Z</time>
      </trkpt>
      <trkpt lat="49.94651" lon="2.16758">
        <ele>14.2</ele>
        <time>2023-06-28T12:59:11Z</time>
      </trkpt>
      <trkpt lat="49.9465" lon="2.16757">
        <ele>14.2</ele>
        <time>2023-06-28T12:59:12Z</time>
      </trkpt>
      <trkpt lat="49.94649" lon="2.16757">
        <ele>14.2</ele>
        <time>2023-06-28T12:59:13Z</time>
      </trkpt>
      <trkpt lat="49.94648" lon="2.16756">
        <ele>14.2</ele>
        <time>2023-06-28T12:59:14Z</time>
      </trkpt>
      <trkpt lat="49.94647" lon="2.16755">
        <ele>14.2</ele>
        <time>2023-06-28T12:59:15Z</time>
      </trkpt>
      <trkpt lat="49.94646" lon="2.16755">
        <ele>14.2</ele>
        <time>2023-06-28T12:59:16Z</time>
      </trkpt>
      <trkpt lat="49.94646" lon="2.16754">
        <ele>14.2</ele>
        <time>2023-06-28T12:59:17Z</time>
      </trkpt>
      <trkpt lat="49.94645" lon="2.16753">
        <ele>14.2</ele>
        <time>2023-06-28T12:59:19Z</time>
      </trkpt>
      <trkpt lat="49.94644" lon="2.16752">
        <ele>14.2</ele>
        <time>2023-06-28T12:59:20Z</time>
      </trkpt>
      <trkpt lat="49.94642" lon="2.16751">
        <ele>14.2</ele>
        <time>2023-06-28T12:59:21Z</time>
      </trkpt>
      <trkpt lat="49.94641" lon="2.16751">
        <ele>14.2</ele>
        <time>2023-06-28T12:59:22Z</time>
      </trkpt>
      <trkpt lat="49.9464" lon="2.1675">
        <ele>14.2</ele>
        <time>2023-06-28T12:59:23Z</time>
      </trkpt>
      <trkpt lat="49.94639" lon="2.16749">
        <ele>14.2</ele>
        <time>2023-06-28T12:59:24Z</time>
      </trkpt>
      <trkpt lat="49.94638" lon="2.16748">
        <ele>14.2</ele>
        <time>2023-06-28T12:59:25Z</time>
      </trkpt>
      <trkpt lat="49.94638" lon="2.16746">
        <ele>14.2</ele>
        <time>2023-06-28T12:59:26Z</time>
      </trkpt>
      <trkpt lat="49.94637" lon="2.16745">
        <ele>14.2</ele>
        <time>2023-06-28T12:59:27Z</time>
      </trkpt>
      <trkpt lat="49.94636" lon="2.16743">
        <ele>14.2</ele>
        <time>2023-06-28T12:59:29Z</time>
      </trkpt>
      <trkpt lat="49.94635" lon="2.16742">
        <ele>14.2</ele>
        <time>2023-06-28T12:59:30Z</time>
      </trkpt>
      <trkpt lat="49.94635" lon="2.16741">
        <ele>14.2</ele>
        <time>2023-06-28T12:59:31Z</time>
      </trkpt>
      <trkpt lat="49.94633" lon="2.16739">
        <ele>14.1</ele>
        <time>2023-06-28T12:59:33Z</time>
      </trkpt>
      <trkpt lat="49.94632" lon="2.16737">
        <ele>14.1</ele>
        <time>2023-06-28T12:59:34Z</time>
      </trkpt>
      <trkpt lat="49.94631" lon="2.16736">
        <ele>14.1</ele>
        <time>2023-06-28T12:59:35Z</time>
      </trkpt>
      <trkpt lat="49.9463" lon="2.16735">
        <ele>14.1</ele>
        <time>2023-06-28T12:59:36Z</time>
      </trkpt>
      <trkpt lat="49.94629" lon="2.16734">
        <ele>14.1</ele>
        <time>2023-06-28T12:59:38Z</time>
      </trkpt>
      <trkpt lat="49.94629" lon="2.16733">
        <ele>14.1</ele>
        <time>2023-06-28T12:59:39Z</time>
      </trkpt>
      <trkpt lat="49.94628" lon="2.16732">
        <ele>14.1</ele>
        <time>2023-06-28T12:59:40Z</time>
      </trkpt>
      <trkpt lat="49.94626" lon="2.1673">
        <ele>14.1</ele>
        <time>2023-06-28T12:59:41Z</time>
      </trkpt>
      <trkpt lat="49.94625" lon="2.16729">
        <ele>14.1</ele>
        <time>2023-06-28T12:59:42Z</time>
      </trkpt>
      <trkpt lat="49.94624" lon="2.16728">
        <ele>14.1</ele>
        <time>2023-06-28T12:59:43Z</time>
      </trkpt>
      <trkpt lat="49.94623" lon="2.16727">
        <ele>14.1</ele>
        <time>2023-06-28T12:59:44Z</time>
      </trkpt>
      <trkpt lat="49.94622" lon="2.16726">
        <ele>14</ele>
        <time>2023-06-28T12:59:45Z</time>
      </trkpt>
      <trkpt lat="49.94621" lon="2.16726">
        <ele>14</ele>
        <time>2023-06-28T12:59:47Z</time>
      </trkpt>
      <trkpt lat="49.9462" lon="2.16724">
        <ele>14</ele>
        <time>2023-06-28T12:59:48Z</time>
      </trkpt>
      <trkpt lat="49.94619" lon="2.16723">
        <ele>14</ele>
        <time>2023-06-28T12:59:49Z</time>
      </trkpt>
      <trkpt lat="49.94617" lon="2.16722">
        <ele>14</ele>
        <time>2023-06-28T12:59:50Z</time>
      </trkpt>
      <trkpt lat="49.94616" lon="2.16721">
        <ele>14</ele>
        <time>2023-06-28T12:59:51Z</time>
      </trkpt>
      <trkpt lat="49.94615" lon="2.1672">
        <ele>14</ele>
        <time>2023-06-28T12:59:52Z</time>
      </trkpt>
      <trkpt lat="49.94614" lon="2.16718">
        <ele>14</ele>
        <time>2023-06-28T12:59:53Z</time>
      </trkpt>
      <trkpt lat="49.94612" lon="2.16717">
        <ele>13.9</ele>
        <time>2023-06-28T12:59:55Z</time>
      </trkpt>
      <trkpt lat="49.94611" lon="2.16716">
        <ele>13.9</ele>
        <time>2023-06-28T12:59:56Z</time>
      </trkpt>
      <trkpt lat="49.9461" lon="2.16715">
        <ele>13.9</ele>
        <time>2023-06-28T12:59:57Z</time>
      </trkpt>
      <trkpt lat="49.94609" lon="2.16713">
        <ele>13.9</ele>
        <time>2023-06-28T12:59:59Z</time>
      </trkpt>
      <trkpt lat="49.94607" lon="2.16712">
        <ele>13.9</ele>
        <time>2023-06-28T13:00:00Z</time>
      </trkpt>
      <trkpt lat="49.94607" lon="2.16712">
        <ele>13.9</ele>
        <time>2023-06-28T13:00:01Z</time>
      </trkpt>
      <trkpt lat="49.94606" lon="2.16711">
        <ele>13.9</ele>
        <time>2023-06-28T13:00:02Z</time>
      </trkpt>
      <trkpt lat="49.94605" lon="2.16711">
        <ele>13.9</ele>
        <time>2023-06-28T13:00:03Z</time>
      </trkpt>
      <trkpt lat="49.94603" lon="2.16709">
        <ele>13.9</ele>
        <time>2023-06-28T13:00:05Z</time>
      </trkpt>
      <trkpt lat="49.94602" lon="2.16709">
        <ele>13.9</ele>
        <time>2023-06-28T13:00:06Z</time>
      </trkpt>
      <trkpt lat="49.94601" lon="2.16708">
        <ele>13.9</ele>
        <time>2023-06-28T13:00:07Z</time>
      </trkpt>
      <trkpt lat="49.94599" lon="2.16707">
        <ele>13.9</ele>
        <time>2023-06-28T13:00:08Z</time>
      </trkpt>
      <trkpt lat="49.94598" lon="2.16707">
        <ele>13.9</ele>
        <time>2023-06-28T13:00:09Z</time>
      </trkpt>
      <trkpt lat="49.94597" lon="2.16707">
        <ele>13.9</ele>
        <time>2023-06-28T13:00:10Z</time>
      </trkpt>
      <trkpt lat="49.94596" lon="2.16706">
        <ele>13.9</ele>
        <time>2023-06-28T13:00:11Z</time>
      </trkpt>
      <trkpt lat="49.94596" lon="2.16706">
        <ele>13.9</ele>
        <time>2023-06-28T13:00:12Z</time>
      </trkpt>
      <trkpt lat="49.94595" lon="2.16705">
        <ele>13.8</ele>
        <time>2023-06-28T13:00:14Z</time>
      </trkpt>
      <trkpt lat="49.94594" lon="2.16705">
        <ele>13.8</ele>
        <time>2023-06-28T13:00:15Z</time>
      </trkpt>
      <trkpt lat="49.94593" lon="2.16703">
        <ele>13.8</ele>
        <time>2023-06-28T13:00:17Z</time>
      </trkpt>
      <trkpt lat="49.94592" lon="2.16703">
        <ele>13.8</ele>
        <time>2023-06-28T13:00:18Z</time>
      </trkpt>
      <trkpt lat="49.94591" lon="2.16702">
        <ele>13.8</ele>
        <time>2023-06-28T13:00:19Z</time>
      </trkpt>
      <trkpt lat="49.9459" lon="2.16701">
        <ele>13.8</ele>
        <time>2023-06-28T13:00:20Z</time>
      </trkpt>
      <trkpt lat="49.94589" lon="2.16701">
        <ele>13.8</ele>
        <time>2023-06-28T13:00:21Z</time>
      </trkpt>
      <trkpt lat="49.94588" lon="2.167">
        <ele>13.8</ele>
        <time>2023-06-28T13:00:22Z</time>
      </trkpt>
      <trkpt lat="49.94587" lon="2.16699">
        <ele>13.8</ele>
        <time>2023-06-28T13:00:23Z</time>
      </trkpt>
      <trkpt lat="49.94585" lon="2.16697">
        <ele>13.8</ele>
        <time>2023-06-28T13:00:25Z</time>
      </trkpt>
      <trkpt lat="49.94584" lon="2.16694">
        <ele>13.8</ele>
        <time>2023-06-28T13:00:26Z</time>
      </trkpt>
      <trkpt lat="49.94584" lon="2.16693">
        <ele>13.8</ele>
        <time>2023-06-28T13:00:27Z</time>
      </trkpt>
      <trkpt lat="49.94583" lon="2.16692">
        <ele>13.8</ele>
        <time>2023-06-28T13:00:28Z</time>
      </trkpt>
      <trkpt lat="49.94582" lon="2.1669">
        <ele>13.8</ele>
        <time>2023-06-28T13:00:30Z</time>
      </trkpt>
      <trkpt lat="49.94582" lon="2.16689">
        <ele>13.8</ele>
        <time>2023-06-28T13:00:31Z</time>
      </trkpt>
      <trkpt lat="49.94582" lon="2.16687">
        <ele>13.8</ele>
        <time>2023-06-28T13:00:32Z</time>
      </trkpt>
      <trkpt lat="49.94582" lon="2.16684">
        <ele>13.8</ele>
        <time>2023-06-28T13:00:33Z</time>
      </trkpt>
      <trkpt lat="49.94582" lon="2.16683">
        <ele>13.8</ele>
        <time>2023-06-28T13:00:34Z</time>
      </trkpt>
      <trkpt lat="49.94582" lon="2.16681">
        <ele>13.8</ele>
        <time>2023-06-28T13:00:35Z</time>
      </trkpt>
      <trkpt lat="49.94581" lon="2.16679">
        <ele>13.8</ele>
        <time>2023-06-28T13:00:37Z</time>
      </trkpt>
      <trkpt lat="49.94582" lon="2.16678">
        <ele>13.8</ele>
        <time>2023-06-28T13:00:38Z</time>
      </trkpt>
      <trkpt lat="49.94582" lon="2.16676">
        <ele>13.8</ele>
        <time>2023-06-28T13:00:39Z</time>
      </trkpt>
      <trkpt lat="49.94582" lon="2.16675">
        <ele>13.8</ele>
        <time>2023-06-28T13:00:40Z</time>
      </trkpt>
      <trkpt lat="49.94583" lon="2.16672">
        <ele>13.8</ele>
        <time>2023-06-28T13:00:42Z</time>
      </trkpt>
      <trkpt lat="49.94583" lon="2.16672">
        <ele>13.8</ele>
        <time>2023-06-28T13:00:43Z</time>
      </trkpt>
      <trkpt lat="49.94583" lon="2.16671">
        <ele>13.9</ele>
        <time>2023-06-28T13:00:44Z</time>
      </trkpt>
      <trkpt lat="49.94584" lon="2.16669">
        <ele>13.9</ele>
        <time>2023-06-28T13:00:45Z</time>
      </trkpt>
      <trkpt lat="49.94584" lon="2.16665">
        <ele>13.9</ele>
        <time>2023-06-28T13:00:47Z</time>
      </trkpt>
      <trkpt lat="49.94584" lon="2.16662">
        <ele>14</ele>
        <time>2023-06-28T13:00:48Z</time>
      </trkpt>
      <trkpt lat="49.94584" lon="2.16661">
        <ele>14</ele>
        <time>2023-06-28T13:00:49Z</time>
      </trkpt>
      <trkpt lat="49.94584" lon="2.1666">
        <ele>14</ele>
        <time>2023-06-28T13:00:50Z</time>
      </trkpt>
      <trkpt lat="49.94584" lon="2.16658">
        <ele>14</ele>
        <time>2023-06-28T13:00:51Z</time>
      </trkpt>
      <trkpt lat="49.94584" lon="2.16656">
        <ele>14</ele>
        <time>2023-06-28T13:00:52Z</time>
      </trkpt>
      <trkpt lat="49.94584" lon="2.16654">
        <ele>14</ele>
        <time>2023-06-28T13:00:54Z</time>
      </trkpt>
      <trkpt lat="49.94585" lon="2.16651">
        <ele>14.1</ele>
        <time>2023-06-28T13:00:55Z</time>
      </trkpt>
      <trkpt lat="49.94585" lon="2.1665">
        <ele>14.2</ele>
        <time>2023-06-28T13:00:56Z</time>
      </trkpt>
      <trkpt lat="49.94585" lon="2.16648">
        <ele>14.2</ele>
        <time>2023-06-28T13:00:57Z</time>
      </trkpt>
      <trkpt lat="49.94586" lon="2.16646">
        <ele>14.2</ele>
        <time>2023-06-28T13:00:58Z</time>
      </trkpt>
      <trkpt lat="49.94586" lon="2.16644">
        <ele>14.2</ele>
        <time>2023-06-28T13:00:59Z</time>
      </trkpt>
      <trkpt lat="49.94586" lon="2.16642">
        <ele>14.2</ele>
        <time>2023-06-28T13:01:00Z</time>
      </trkpt>
      <trkpt lat="49.94587" lon="2.1664">
        <ele>14.3</ele>
        <time>2023-06-28T13:01:02Z</time>
      </trkpt>
      <trkpt lat="49.94587" lon="2.16639">
        <ele>14.3</ele>
        <time>2023-06-28T13:01:03Z</time>
      </trkpt>
      <trkpt lat="49.94588" lon="2.16637">
        <ele>14.3</ele>
        <time>2023-06-28T13:01:04Z</time>
      </trkpt>
      <trkpt lat="49.94588" lon="2.16635">
        <ele>14.4</ele>
        <time>2023-06-28T13:01:05Z</time>
      </trkpt>
      <trkpt lat="49.94588" lon="2.16634">
        <ele>14.4</ele>
        <time>2023-06-28T13:01:06Z</time>
      </trkpt>
      <trkpt lat="49.94589" lon="2.16632">
        <ele>14.5</ele>
        <time>2023-06-28T13:01:07Z</time>
      </trkpt>
      <trkpt lat="49.94589" lon="2.16631">
        <ele>14.5</ele>
        <time>2023-06-28T13:01:08Z</time>
      </trkpt>
      <trkpt lat="49.94589" lon="2.16629">
        <ele>14.5</ele>
        <time>2023-06-28T13:01:09Z</time>
      </trkpt>
      <trkpt lat="49.94589" lon="2.16625">
        <ele>14.5</ele>
        <time>2023-06-28T13:01:11Z</time>
      </trkpt>
      <trkpt lat="49.9459" lon="2.16624">
        <ele>14.5</ele>
        <time>2023-06-28T13:01:12Z</time>
      </trkpt>
      <trkpt lat="49.9459" lon="2.16623">
        <ele>14.6</ele>
        <time>2023-06-28T13:01:13Z</time>
      </trkpt>
      <trkpt lat="49.9459" lon="2.16621">
        <ele>14.6</ele>
        <time>2023-06-28T13:01:14Z</time>
      </trkpt>
      <trkpt lat="49.94589" lon="2.16619">
        <ele>14.7</ele>
        <time>2023-06-28T13:01:15Z</time>
      </trkpt>
      <trkpt lat="49.94589" lon="2.16617">
        <ele>14.7</ele>
        <time>2023-06-28T13:01:16Z</time>
      </trkpt>
      <trkpt lat="49.9459" lon="2.16615">
        <ele>14.7</ele>
        <time>2023-06-28T13:01:18Z</time>
      </trkpt>
      <trkpt lat="49.9459" lon="2.16614">
        <ele>14.7</ele>
        <time>2023-06-28T13:01:19Z</time>
      </trkpt>
      <trkpt lat="49.9459" lon="2.16612">
        <ele>14.7</ele>
        <time>2023-06-28T13:01:20Z</time>
      </trkpt>
      <trkpt lat="49.9459" lon="2.1661">
        <ele>14.7</ele>
        <time>2023-06-28T13:01:21Z</time>
      </trkpt>
      <trkpt lat="49.9459" lon="2.16609">
        <ele>14.7</ele>
        <time>2023-06-28T13:01:22Z</time>
      </trkpt>
      <trkpt lat="49.9459" lon="2.16607">
        <ele>14.7</ele>
        <time>2023-06-28T13:01:23Z</time>
      </trkpt>
      <trkpt lat="49.9459" lon="2.16606">
        <ele>14.8</ele>
        <time>2023-06-28T13:01:24Z</time>
      </trkpt>
      <trkpt lat="49.94591" lon="2.16604">
        <ele>14.8</ele>
        <time>2023-06-28T13:01:25Z</time>
      </trkpt>
      <trkpt lat="49.94591" lon="2.16602">
        <ele>14.8</ele>
        <time>2023-06-28T13:01:27Z</time>
      </trkpt>
      <trkpt lat="49.94591" lon="2.16601">
        <ele>14.8</ele>
        <time>2023-06-28T13:01:28Z</time>
      </trkpt>
      <trkpt lat="49.94592" lon="2.166">
        <ele>14.8</ele>
        <time>2023-06-28T13:01:29Z</time>
      </trkpt>
      <trkpt lat="49.94592" lon="2.16598">
        <ele>14.8</ele>
        <time>2023-06-28T13:01:30Z</time>
      </trkpt>
      <trkpt lat="49.94593" lon="2.16596">
        <ele>14.8</ele>
        <time>2023-06-28T13:01:32Z</time>
      </trkpt>
      <trkpt lat="49.94594" lon="2.16593">
        <ele>14.8</ele>
        <time>2023-06-28T13:01:33Z</time>
      </trkpt>
      <trkpt lat="49.94594" lon="2.16591">
        <ele>14.8</ele>
        <time>2023-06-28T13:01:34Z</time>
      </trkpt>
      <trkpt lat="49.94595" lon="2.16589">
        <ele>14.8</ele>
        <time>2023-06-28T13:01:36Z</time>
      </trkpt>
      <trkpt lat="49.94595" lon="2.16587">
        <ele>14.8</ele>
        <time>2023-06-28T13:01:37Z</time>
      </trkpt>
      <trkpt lat="49.94596" lon="2.16586">
        <ele>14.8</ele>
        <time>2023-06-28T13:01:38Z</time>
      </trkpt>
      <trkpt lat="49.94597" lon="2.16584">
        <ele>14.8</ele>
        <time>2023-06-28T13:01:39Z</time>
      </trkpt>
      <trkpt lat="49.94597" lon="2.16583">
        <ele>14.8</ele>
        <time>2023-06-28T13:01:40Z</time>
      </trkpt>
      <trkpt lat="49.94598" lon="2.16581">
        <ele>14.8</ele>
        <time>2023-06-28T13:01:41Z</time>
      </trkpt>
      <trkpt lat="49.94598" lon="2.1658">
        <ele>14.8</ele>
        <time>2023-06-28T13:01:42Z</time>
      </trkpt>
      <trkpt lat="49.94599" lon="2.16577">
        <ele>14.8</ele>
        <time>2023-06-28T13:01:44Z</time>
      </trkpt>
      <trkpt lat="49.946" lon="2.16575">
        <ele>14.7</ele>
        <time>2023-06-28T13:01:45Z</time>
      </trkpt>
      <trkpt lat="49.94601" lon="2.16573">
        <ele>14.7</ele>
        <time>2023-06-28T13:01:46Z</time>
      </trkpt>
      <trkpt lat="49.94601" lon="2.16571">
        <ele>14.7</ele>
        <time>2023-06-28T13:01:48Z</time>
      </trkpt>
      <trkpt lat="49.94602" lon="2.16569">
        <ele>14.7</ele>
        <time>2023-06-28T13:01:49Z</time>
      </trkpt>
      <trkpt lat="49.94603" lon="2.16566">
        <ele>14.6</ele>
        <time>2023-06-28T13:01:50Z</time>
      </trkpt>
      <trkpt lat="49.94603" lon="2.16565">
        <ele>14.6</ele>
        <time>2023-06-28T13:01:51Z</time>
      </trkpt>
      <trkpt lat="49.94604" lon="2.16563">
        <ele>14.6</ele>
        <time>2023-06-28T13:01:52Z</time>
      </trkpt>
      <trkpt lat="49.94604" lon="2.16561">
        <ele>14.6</ele>
        <time>2023-06-28T13:01:53Z</time>
      </trkpt>
      <trkpt lat="49.94604" lon="2.1656">
        <ele>14.6</ele>
        <time>2023-06-28T13:01:54Z</time>
      </trkpt>
      <trkpt lat="49.94605" lon="2.16558">
        <ele>14.6</ele>
        <time>2023-06-28T13:01:55Z</time>
      </trkpt>
      <trkpt lat="49.94605" lon="2.16557">
        <ele>14.6</ele>
        <time>2023-06-28T13:01:57Z</time>
      </trkpt>
      <trkpt lat="49.94605" lon="2.16555">
        <ele>14.6</ele>
        <time>2023-06-28T13:01:58Z</time>
      </trkpt>
      <trkpt lat="49.94606" lon="2.16554">
        <ele>14.5</ele>
        <time>2023-06-28T13:01:59Z</time>
      </trkpt>
      <trkpt lat="49.94606" lon="2.16553">
        <ele>14.5</ele>
        <time>2023-06-28T13:02:00Z</time>
      </trkpt>
      <trkpt lat="49.94607" lon="2.16551">
        <ele>14.5</ele>
        <time>2023-06-28T13:02:01Z</time>
      </trkpt>
      <trkpt lat="49.94607" lon="2.1655">
        <ele>14.4</ele>
        <time>2023-06-28T13:02:02Z</time>
      </trkpt>
      <trkpt lat="49.94608" lon="2.16547">
        <ele>14.4</ele>
        <time>2023-06-28T13:02:03Z</time>
      </trkpt>
      <trkpt lat="49.94609" lon="2.16546">
        <ele>14.3</ele>
        <time>2023-06-28T13:02:04Z</time>
      </trkpt>
      <trkpt lat="49.94609" lon="2.16544">
        <ele>14.3</ele>
        <time>2023-06-28T13:02:06Z</time>
      </trkpt>
      <trkpt lat="49.94609" lon="2.16543">
        <ele>14.3</ele>
        <time>2023-06-28T13:02:07Z</time>
      </trkpt>
      <trkpt lat="49.9461" lon="2.16542">
        <ele>14.3</ele>
        <time>2023-06-28T13:02:08Z</time>
      </trkpt>
      <trkpt lat="49.9461" lon="2.1654">
        <ele>14.3</ele>
        <time>2023-06-28T13:02:09Z</time>
      </trkpt>
      <trkpt lat="49.94611" lon="2.16538">
        <ele>14.2</ele>
        <time>2023-06-28T13:02:11Z</time>
      </trkpt>
      <trkpt lat="49.94611" lon="2.16535">
        <ele>14.2</ele>
        <time>2023-06-28T13:02:12Z</time>
      </trkpt>
      <trkpt lat="49.94611" lon="2.16534">
        <ele>14.2</ele>
        <time>2023-06-28T13:02:13Z</time>
      </trkpt>
      <trkpt lat="49.94612" lon="2.16532">
        <ele>14.1</ele>
        <time>2023-06-28T13:02:15Z</time>
      </trkpt>
      <trkpt lat="49.94612" lon="2.16531">
        <ele>14.1</ele>
        <time>2023-06-28T13:02:16Z</time>
      </trkpt>
      <trkpt lat="49.94613" lon="2.16528">
        <ele>14.1</ele>
        <time>2023-06-28T13:02:17Z</time>
      </trkpt>
      <trkpt lat="49.94613" lon="2.16527">
        <ele>14.1</ele>
        <time>2023-06-28T13:02:18Z</time>
      </trkpt>
      <trkpt lat="49.94614" lon="2.16526">
        <ele>14.1</ele>
        <time>2023-06-28T13:02:19Z</time>
      </trkpt>
      <trkpt lat="49.94614" lon="2.16524">
        <ele>14</ele>
        <time>2023-06-28T13:02:20Z</time>
      </trkpt>
      <trkpt lat="49.94614" lon="2.16523">
        <ele>14</ele>
        <time>2023-06-28T13:02:22Z</time>
      </trkpt>
      <trkpt lat="49.94615" lon="2.16521">
        <ele>14</ele>
        <time>2023-06-28T13:02:23Z</time>
      </trkpt>
      <trkpt lat="49.94616" lon="2.16519">
        <ele>13.9</ele>
        <time>2023-06-28T13:02:24Z</time>
      </trkpt>
      <trkpt lat="49.94616" lon="2.16518">
        <ele>13.9</ele>
        <time>2023-06-28T13:02:25Z</time>
      </trkpt>
      <trkpt lat="49.94617" lon="2.16516">
        <ele>13.8</ele>
        <time>2023-06-28T13:02:26Z</time>
      </trkpt>
      <trkpt lat="49.94617" lon="2.16515">
        <ele>13.8</ele>
        <time>2023-06-28T13:02:27Z</time>
      </trkpt>
      <trkpt lat="49.94617" lon="2.16513">
        <ele>13.8</ele>
        <time>2023-06-28T13:02:28Z</time>
      </trkpt>
      <trkpt lat="49.94618" lon="2.16512">
        <ele>13.7</ele>
        <time>2023-06-28T13:02:29Z</time>
      </trkpt>
      <trkpt lat="49.94618" lon="2.1651">
        <ele>13.7</ele>
        <time>2023-06-28T13:02:31Z</time>
      </trkpt>
      <trkpt lat="49.94619" lon="2.16508">
        <ele>13.7</ele>
        <time>2023-06-28T13:02:32Z</time>
      </trkpt>
      <trkpt lat="49.94619" lon="2.16507">
        <ele>13.6</ele>
        <time>2023-06-28T13:02:33Z</time>
      </trkpt>
      <trkpt lat="49.9462" lon="2.16504">
        <ele>13.5</ele>
        <time>2023-06-28T13:02:34Z</time>
      </trkpt>
      <trkpt lat="49.94621" lon="2.16502">
        <ele>13.5</ele>
        <time>2023-06-28T13:02:35Z</time>
      </trkpt>
      <trkpt lat="49.94621" lon="2.165">
        <ele>13.5</ele>
        <time>2023-06-28T13:02:36Z</time>
      </trkpt>
      <trkpt lat="49.94622" lon="2.16496">
        <ele>13.4</ele>
        <time>2023-06-28T13:02:38Z</time>
      </trkpt>
      <trkpt lat="49.94622" lon="2.16495">
        <ele>13.3</ele>
        <time>2023-06-28T13:02:39Z</time>
      </trkpt>
      <trkpt lat="49.94623" lon="2.16493">
        <ele>13.3</ele>
        <time>2023-06-28T13:02:40Z</time>
      </trkpt>
      <trkpt lat="49.94624" lon="2.16491">
        <ele>13.2</ele>
        <time>2023-06-28T13:02:41Z</time>
      </trkpt>
      <trkpt lat="49.94626" lon="2.16486">
        <ele>13.1</ele>
        <time>2023-06-28T13:02:43Z</time>
      </trkpt>
      <trkpt lat="49.94626" lon="2.16485">
        <ele>13.1</ele>
        <time>2023-06-28T13:02:44Z</time>
      </trkpt>
      <trkpt lat="49.94626" lon="2.16483">
        <ele>13.1</ele>
        <time>2023-06-28T13:02:45Z</time>
      </trkpt>
      <trkpt lat="49.94626" lon="2.16481">
        <ele>13</ele>
        <time>2023-06-28T13:02:46Z</time>
      </trkpt>
      <trkpt lat="49.94627" lon="2.1648">
        <ele>13</ele>
        <time>2023-06-28T13:02:48Z</time>
      </trkpt>
      <trkpt lat="49.94627" lon="2.16478">
        <ele>13</ele>
        <time>2023-06-28T13:02:49Z</time>
      </trkpt>
      <trkpt lat="49.94627" lon="2.16477">
        <ele>13</ele>
        <time>2023-06-28T13:02:50Z</time>
      </trkpt>
      <trkpt lat="49.94627" lon="2.16475">
        <ele>13</ele>
        <time>2023-06-28T13:02:51Z</time>
      </trkpt>
      <trkpt lat="49.94627" lon="2.16472">
        <ele>13</ele>
        <time>2023-06-28T13:02:52Z</time>
      </trkpt>
      <trkpt lat="49.94628" lon="2.16471">
        <ele>13</ele>
        <time>2023-06-28T13:02:53Z</time>
      </trkpt>
      <trkpt lat="49.94628" lon="2.16469">
        <ele>13</ele>
        <time>2023-06-28T13:02:54Z</time>
      </trkpt>
      <trkpt lat="49.94627" lon="2.16467">
        <ele>13</ele>
        <time>2023-06-28T13:02:56Z</time>
      </trkpt>
      <trkpt lat="49.94627" lon="2.16465">
        <ele>13</ele>
        <time>2023-06-28T13:02:57Z</time>
      </trkpt>
      <trkpt lat="49.94627" lon="2.16463">
        <ele>13</ele>
        <time>2023-06-28T13:02:58Z</time>
      </trkpt>
      <trkpt lat="49.94627" lon="2.16461">
        <ele>13</ele>
        <time>2023-06-28T13:02:59Z</time>
      </trkpt>
      <trkpt lat="49.94627" lon="2.16458">
        <ele>13</ele>
        <time>2023-06-28T13:03:00Z</time>
      </trkpt>
      <trkpt lat="49.94628" lon="2.16456">
        <ele>13</ele>
        <time>2023-06-28T13:03:01Z</time>
      </trkpt>
      <trkpt lat="49.94628" lon="2.16454">
        <ele>13</ele>
        <time>2023-06-28T13:03:03Z</time>
      </trkpt>
      <trkpt lat="49.94628" lon="2.16453">
        <ele>13</ele>
        <time>2023-06-28T13:03:04Z</time>
      </trkpt>
      <trkpt lat="49.94629" lon="2.16451">
        <ele>13</ele>
        <time>2023-06-28T13:03:05Z</time>
      </trkpt>
      <trkpt lat="49.94629" lon="2.1645">
        <ele>13</ele>
        <time>2023-06-28T13:03:06Z</time>
      </trkpt>
      <trkpt lat="49.94629" lon="2.16448">
        <ele>13</ele>
        <time>2023-06-28T13:03:07Z</time>
      </trkpt>
      <trkpt lat="49.9463" lon="2.16446">
        <ele>13</ele>
        <time>2023-06-28T13:03:08Z</time>
      </trkpt>
      <trkpt lat="49.9463" lon="2.16445">
        <ele>13</ele>
        <time>2023-06-28T13:03:09Z</time>
      </trkpt>
      <trkpt lat="49.94631" lon="2.16444">
        <ele>13</ele>
        <time>2023-06-28T13:03:11Z</time>
      </trkpt>
      <trkpt lat="49.94631" lon="2.16442">
        <ele>13</ele>
        <time>2023-06-28T13:03:12Z</time>
      </trkpt>
      <trkpt lat="49.94631" lon="2.16442">
        <ele>13</ele>
        <time>2023-06-28T13:03:13Z</time>
      </trkpt>
      <trkpt lat="49.94632" lon="2.1644">
        <ele>13</ele>
        <time>2023-06-28T13:03:14Z</time>
      </trkpt>
      <trkpt lat="49.94632" lon="2.16439">
        <ele>13</ele>
        <time>2023-06-28T13:03:15Z</time>
      </trkpt>
      <trkpt lat="49.94632" lon="2.16438">
        <ele>13</ele>
        <time>2023-06-28T13:03:17Z</time>
      </trkpt>
      <trkpt lat="49.94632" lon="2.16437">
        <ele>13</ele>
        <time>2023-06-28T13:03:18Z</time>
      </trkpt>
      <trkpt lat="49.94633" lon="2.16435">
        <ele>13</ele>
        <time>2023-06-28T13:03:19Z</time>
      </trkpt>
      <trkpt lat="49.94633" lon="2.16434">
        <ele>13</ele>
        <time>2023-06-28T13:03:20Z</time>
      </trkpt>
      <trkpt lat="49.94633" lon="2.16432">
        <ele>13</ele>
        <time>2023-06-28T13:03:22Z</time>
      </trkpt>
      <trkpt lat="49.94634" lon="2.16431">
        <ele>13</ele>
        <time>2023-06-28T13:03:23Z</time>
      </trkpt>
      <trkpt lat="49.94634" lon="2.1643">
        <ele>13</ele>
        <time>2023-06-28T13:03:25Z</time>
      </trkpt>
      <trkpt lat="49.94634" lon="2.1643">
        <ele>13</ele>
        <time>2023-06-28T13:03:26Z</time>
      </trkpt>
      <trkpt lat="49.94634" lon="2.16431">
        <ele>13</ele>
        <time>2023-06-28T13:03:28Z</time>
      </trkpt>
      <trkpt lat="49.94634" lon="2.16431">
        <ele>13</ele>
        <time>2023-06-28T13:03:29Z</time>
      </trkpt>
      <trkpt lat="49.94634" lon="2.16431">
        <ele>13</ele>
        <time>2023-06-28T13:03:31Z</time>
      </trkpt>
      <trkpt lat="49.94634" lon="2.16431">
        <ele>13</ele>
        <time>2023-06-28T13:03:32Z</time>
      </trkpt>
      <trkpt lat="49.94634" lon="2.16431">
        <ele>13</ele>
        <time>2023-06-28T13:03:33Z</time>
      </trkpt>
      <trkpt lat="49.94634" lon="2.16431">
        <ele>13</ele>
        <time>2023-06-28T13:03:35Z</time>
      </trkpt>
      <trkpt lat="49.94634" lon="2.16431">
        <ele>13</ele>
        <time>2023-06-28T13:03:36Z</time>
      </trkpt>
      <trkpt lat="49.94635" lon="2.16431">
        <ele>13</ele>
        <time>2023-06-28T13:03:38Z</time>
      </trkpt>
      <trkpt lat="49.94635" lon="2.16432">
        <ele>13</ele>
        <time>2023-06-28T13:03:39Z</time>
      </trkpt>
      <trkpt lat="49.94635" lon="2.16432">
        <ele>13</ele>
        <time>2023-06-28T13:03:41Z</time>
      </trkpt>
      <trkpt lat="49.94636" lon="2.16434">
        <ele>13</ele>
        <time>2023-06-28T13:03:42Z</time>
      </trkpt>
      <trkpt lat="49.94636" lon="2.16435">
        <ele>13</ele>
        <time>2023-06-28T13:03:43Z</time>
      </trkpt>
      <trkpt lat="49.94636" lon="2.16436">
        <ele>13.1</ele>
        <time>2023-06-28T13:03:44Z</time>
      </trkpt>
      <trkpt lat="49.94636" lon="2.16437">
        <ele>13.1</ele>
        <time>2023-06-28T13:03:45Z</time>
      </trkpt>
      <trkpt lat="49.94636" lon="2.16436">
        <ele>13.1</ele>
        <time>2023-06-28T13:03:46Z</time>
      </trkpt>
      <trkpt lat="49.94636" lon="2.16437">
        <ele>13.1</ele>
        <time>2023-06-28T13:03:48Z</time>
      </trkpt>
      <trkpt lat="49.94636" lon="2.16437">
        <ele>13.1</ele>
        <time>2023-06-28T13:03:49Z</time>
      </trkpt>
      <trkpt lat="49.94636" lon="2.16437">
        <ele>13.1</ele>
        <time>2023-06-28T13:03:51Z</time>
      </trkpt>
      <trkpt lat="49.94636" lon="2.16438">
        <ele>13.1</ele>
        <time>2023-06-28T13:03:52Z</time>
      </trkpt>
      <trkpt lat="49.94636" lon="2.16438">
        <ele>13.1</ele>
        <time>2023-06-28T13:03:53Z</time>
      </trkpt>
      <trkpt lat="49.94636" lon="2.16438">
        <ele>13.1</ele>
        <time>2023-06-28T13:03:54Z</time>
      </trkpt>
      <trkpt lat="49.94636" lon="2.16438">
        <ele>13.1</ele>
        <time>2023-06-28T13:03:55Z</time>
      </trkpt>
      <trkpt lat="49.94636" lon="2.16439">
        <ele>13.1</ele>
        <time>2023-06-28T13:03:56Z</time>
      </trkpt>
      <trkpt lat="49.94636" lon="2.16439">
        <ele>13.1</ele>
        <time>2023-06-28T13:03:57Z</time>
      </trkpt>
      <trkpt lat="49.94636" lon="2.16439">
        <ele>13.1</ele>
        <time>2023-06-28T13:03:58Z</time>
      </trkpt>
      <trkpt lat="49.94636" lon="2.16439">
        <ele>13.1</ele>
        <time>2023-06-28T13:03:59Z</time>
      </trkpt>
      <trkpt lat="49.94636" lon="2.16439">
        <ele>13.1</ele>
        <time>2023-06-28T13:04:00Z</time>
      </trkpt>
      <trkpt lat="49.94636" lon="2.16439">
        <ele>13.1</ele>
        <time>2023-06-28T13:04:01Z</time>
      </trkpt>
      <trkpt lat="49.94636" lon="2.16439">
        <ele>13.1</ele>
        <time>2023-06-28T13:04:02Z</time>
      </trkpt>
      <trkpt lat="49.94636" lon="2.16439">
        <ele>13.1</ele>
        <time>2023-06-28T13:04:03Z</time>
      </trkpt>
      <trkpt lat="49.94636" lon="2.16439">
        <ele>13.1</ele>
        <time>2023-06-28T13:04:04Z</time>
      </trkpt>
      <trkpt lat="49.94636" lon="2.16439">
        <ele>13.1</ele>
        <time>2023-06-28T13:04:05Z</time>
      </trkpt>
      <trkpt lat="49.94636" lon="2.16439">
        <ele>13.1</ele>
        <time>2023-06-28T13:04:06Z</time>
      </trkpt>
      <trkpt lat="49.94636" lon="2.16439">
        <ele>13.1</ele>
        <time>2023-06-28T13:04:07Z</time>
      </trkpt>
      <trkpt lat="49.94636" lon="2.16439">
        <ele>13.1</ele>
        <time>2023-06-28T13:04:08Z</time>
      </trkpt>
      <trkpt lat="49.94636" lon="2.16439">
        <ele>13.1</ele>
        <time>2023-06-28T13:04:09Z</time>
      </trkpt>
      <trkpt lat="49.94636" lon="2.16439">
        <ele>13.1</ele>
        <time>2023-06-28T13:04:10Z</time>
      </trkpt>
      <trkpt lat="49.94636" lon="2.16439">
        <ele>13.1</ele>
        <time>2023-06-28T13:04:11Z</time>
      </trkpt>
      <trkpt lat="49.94636" lon="2.16439">
        <ele>13.1</ele>
        <time>2023-06-28T13:04:12Z</time>
      </trkpt>
      <trkpt lat="49.94636" lon="2.16439">
        <ele>13.1</ele>
        <time>2023-06-28T13:04:13Z</time>
      </trkpt>
      <trkpt lat="49.94636" lon="2.16439">
        <ele>13.1</ele>
        <time>2023-06-28T13:04:14Z</time>
      </trkpt>
      <trkpt lat="49.94636" lon="2.16439">
        <ele>13.1</ele>
        <time>2023-06-28T13:04:15Z</time>
      </trkpt>
      <trkpt lat="49.94636" lon="2.16439">
        <ele>13.1</ele>
        <time>2023-06-28T13:04:16Z</time>
      </trkpt>
      <trkpt lat="49.94636" lon="2.16439">
        <ele>13.1</ele>
        <time>2023-06-28T13:04:17Z</time>
      </trkpt>
      <trkpt lat="49.94636" lon="2.16439">
        <ele>13.1</ele>
        <time>2023-06-28T13:04:18Z</time>
      </trkpt>
      <trkpt lat="49.94636" lon="2.16439">
        <ele>13.1</ele>
        <time>2023-06-28T13:04:19Z</time>
      </trkpt>
      <trkpt lat="49.94636" lon="2.16439">
        <ele>13.1</ele>
        <time>2023-06-28T13:04:20Z</time>
      </trkpt>
      <trkpt lat="49.94636" lon="2.16439">
        <ele>13.1</ele>
        <time>2023-06-28T13:04:21Z</time>
      </trkpt>
      <trkpt lat="49.94636" lon="2.16439">
        <ele>13.1</ele>
        <time>2023-06-28T13:04:22Z</time>
      </trkpt>
      <trkpt lat="49.94636" lon="2.16439">
        <ele>13.1</ele>
        <time>2023-06-28T13:04:23Z</time>
      </trkpt>
      <trkpt lat="49.94636" lon="2.16439">
        <ele>13.1</ele>
        <time>2023-06-28T13:04:24Z</time>
      </trkpt>
      <trkpt lat="49.94636" lon="2.16439">
        <ele>13.1</ele>
        <time>2023-06-28T13:04:25Z</time>
      </trkpt>
      <trkpt lat="49.94636" lon="2.16439">
        <ele>13.1</ele>
        <time>2023-06-28T13:04:26Z</time>
      </trkpt>
      <trkpt lat="49.94636" lon="2.16439">
        <ele>13.1</ele>
        <time>2023-06-28T13:04:27Z</time>
      </trkpt>
      <trkpt lat="49.94636" lon="2.16439">
        <ele>13.1</ele>
        <time>2023-06-28T13:04:28Z</time>
      </trkpt>
      <trkpt lat="49.94636" lon="2.16439">
        <ele>13.1</ele>
        <time>2023-06-28T13:04:29Z</time>
      </trkpt>
      <trkpt lat="49.94636" lon="2.16439">
        <ele>13.1</ele>
        <time>2023-06-28T13:04:30Z</time>
      </trkpt>
      <trkpt lat="49.94636" lon="2.16439">
        <ele>13.1</ele>
        <time>2023-06-28T13:04:31Z</time>
      </trkpt>
      <trkpt lat="49.94636" lon="2.16439">
        <ele>13.1</ele>
        <time>2023-06-28T13:04:32Z</time>
      </trkpt>
      <trkpt lat="49.94636" lon="2.16439">
        <ele>13.1</ele>
        <time>2023-06-28T13:04:33Z</time>
      </trkpt>
      <trkpt lat="49.94633" lon="2.16439">
        <ele>13.1</ele>
        <time>2023-06-28T13:04:34Z</time>
      </trkpt>
      <trkpt lat="49.94633" lon="2.16439">
        <ele>13.1</ele>
        <time>2023-06-28T13:04:35Z</time>
      </trkpt>
      <trkpt lat="49.94633" lon="2.16439">
        <ele>13.1</ele>
        <time>2023-06-28T13:04:36Z</time>
      </trkpt>
      <trkpt lat="49.94633" lon="2.16438">
        <ele>13.1</ele>
        <time>2023-06-28T13:04:37Z</time>
      </trkpt>
      <trkpt lat="49.94633" lon="2.16438">
        <ele>13.1</ele>
        <time>2023-06-28T13:04:38Z</time>
      </trkpt>
      <trkpt lat="49.94633" lon="2.16438">
        <ele>13.1</ele>
        <time>2023-06-28T13:04:39Z</time>
      </trkpt>
      <trkpt lat="49.94633" lon="2.16437">
        <ele>13.1</ele>
        <time>2023-06-28T13:04:40Z</time>
      </trkpt>
      <trkpt lat="49.94632" lon="2.16437">
        <ele>13.1</ele>
        <time>2023-06-28T13:04:41Z</time>
      </trkpt>
      <trkpt lat="49.94632" lon="2.16437">
        <ele>13.1</ele>
        <time>2023-06-28T13:04:42Z</time>
      </trkpt>
      <trkpt lat="49.94632" lon="2.16436">
        <ele>13.1</ele>
        <time>2023-06-28T13:04:43Z</time>
      </trkpt>
      <trkpt lat="49.94632" lon="2.16436">
        <ele>13.1</ele>
        <time>2023-06-28T13:04:44Z</time>
      </trkpt>
      <trkpt lat="49.94632" lon="2.16436">
        <ele>13.1</ele>
        <time>2023-06-28T13:04:45Z</time>
      </trkpt>
      <trkpt lat="49.94632" lon="2.16435">
        <ele>13.1</ele>
        <time>2023-06-28T13:04:46Z</time>
      </trkpt>
      <trkpt lat="49.94632" lon="2.16435">
        <ele>13.1</ele>
        <time>2023-06-28T13:04:47Z</time>
      </trkpt>
      <trkpt lat="49.94632" lon="2.16435">
        <ele>13.2</ele>
        <time>2023-06-28T13:04:48Z</time>
      </trkpt>
      <trkpt lat="49.94632" lon="2.16434">
        <ele>13.2</ele>
        <time>2023-06-28T13:04:49Z</time>
      </trkpt>
      <trkpt lat="49.94632" lon="2.16434">
        <ele>13.2</ele>
        <time>2023-06-28T13:04:50Z</time>
      </trkpt>
      <trkpt lat="49.94632" lon="2.16434">
        <ele>13.2</ele>
        <time>2023-06-28T13:04:51Z</time>
      </trkpt>
      <trkpt lat="49.94632" lon="2.16433">
        <ele>13.2</ele>
        <time>2023-06-28T13:04:52Z</time>
      </trkpt>
      <trkpt lat="49.94631" lon="2.16433">
        <ele>13.2</ele>
        <time>2023-06-28T13:04:53Z</time>
      </trkpt>
      <trkpt lat="49.94631" lon="2.16433">
        <ele>13.2</ele>
        <time>2023-06-28T13:04:55Z</time>
      </trkpt>
      <trkpt lat="49.94631" lon="2.16432">
        <ele>13.2</ele>
        <time>2023-06-28T13:04:57Z</time>
      </trkpt>
      <trkpt lat="49.94631" lon="2.16432">
        <ele>13.2</ele>
        <time>2023-06-28T13:04:58Z</time>
      </trkpt>
      <trkpt lat="49.94631" lon="2.16432">
        <ele>13.2</ele>
        <time>2023-06-28T13:04:59Z</time>
      </trkpt>
      <trkpt lat="49.94631" lon="2.16431">
        <ele>13.2</ele>
        <time>2023-06-28T13:05:00Z</time>
      </trkpt>
      <trkpt lat="49.94631" lon="2.16431">
        <ele>13.2</ele>
        <time>2023-06-28T13:05:01Z</time>
      </trkpt>
      <trkpt lat="49.94631" lon="2.16431">
        <ele>13.2</ele>
        <time>2023-06-28T13:05:03Z</time>
      </trkpt>
      <trkpt lat="49.94631" lon="2.1643">
        <ele>13.2</ele>
        <time>2023-06-28T13:05:04Z</time>
      </trkpt>
      <trkpt lat="49.94631" lon="2.1643">
        <ele>13.2</ele>
        <time>2023-06-28T13:05:05Z</time>
      </trkpt>
      <trkpt lat="49.94631" lon="2.1643">
        <ele>13.2</ele>
        <time>2023-06-28T13:05:06Z</time>
      </trkpt>
      <trkpt lat="49.9463" lon="2.16428">
        <ele>13.2</ele>
        <time>2023-06-28T13:05:07Z</time>
      </trkpt>
      <trkpt lat="49.9463" lon="2.16426">
        <ele>13.3</ele>
        <time>2023-06-28T13:05:09Z</time>
      </trkpt>
      <trkpt lat="49.9463" lon="2.16428">
        <ele>13.3</ele>
        <time>2023-06-28T13:05:10Z</time>
      </trkpt>
      <trkpt lat="49.94631" lon="2.16431">
        <ele>13.3</ele>
        <time>2023-06-28T13:05:12Z</time>
      </trkpt>
      <trkpt lat="49.94631" lon="2.16431">
        <ele>13.3</ele>
        <time>2023-06-28T13:05:13Z</time>
      </trkpt>
      <trkpt lat="49.94631" lon="2.1643">
        <ele>13.3</ele>
        <time>2023-06-28T13:05:15Z</time>
      </trkpt>
      <trkpt lat="49.94632" lon="2.1643">
        <ele>13.3</ele>
        <time>2023-06-28T13:05:16Z</time>
      </trkpt>
      <trkpt lat="49.94632" lon="2.1643">
        <ele>13.4</ele>
        <time>2023-06-28T13:05:17Z</time>
      </trkpt>
      <trkpt lat="49.94632" lon="2.16429">
        <ele>13.4</ele>
        <time>2023-06-28T13:05:18Z</time>
      </trkpt>
      <trkpt lat="49.94632" lon="2.16428">
        <ele>13.4</ele>
        <time>2023-06-28T13:05:19Z</time>
      </trkpt>
      <trkpt lat="49.94632" lon="2.16427">
        <ele>13.4</ele>
        <time>2023-06-28T13:05:21Z</time>
      </trkpt>
      <trkpt lat="49.94632" lon="2.16425">
        <ele>13.4</ele>
        <time>2023-06-28T13:05:22Z</time>
      </trkpt>
      <trkpt lat="49.94632" lon="2.16423">
        <ele>13.4</ele>
        <time>2023-06-28T13:05:23Z</time>
      </trkpt>
      <trkpt lat="49.94633" lon="2.16421">
        <ele>13.4</ele>
        <time>2023-06-28T13:05:24Z</time>
      </trkpt>
      <trkpt lat="49.94635" lon="2.16417">
        <ele>13.5</ele>
        <time>2023-06-28T13:05:25Z</time>
      </trkpt>
      <trkpt lat="49.94635" lon="2.16416">
        <ele>13.5</ele>
        <time>2023-06-28T13:05:26Z</time>
      </trkpt>
      <trkpt lat="49.94635" lon="2.16414">
        <ele>13.5</ele>
        <time>2023-06-28T13:05:27Z</time>
      </trkpt>
      <trkpt lat="49.94636" lon="2.16412">
        <ele>13.5</ele>
        <time>2023-06-28T13:05:29Z</time>
      </trkpt>
      <trkpt lat="49.94637" lon="2.1641">
        <ele>13.5</ele>
        <time>2023-06-28T13:05:30Z</time>
      </trkpt>
      <trkpt lat="49.94637" lon="2.16409">
        <ele>13.5</ele>
        <time>2023-06-28T13:05:31Z</time>
      </trkpt>
      <trkpt lat="49.94637" lon="2.16408">
        <ele>13.5</ele>
        <time>2023-06-28T13:05:32Z</time>
      </trkpt>
      <trkpt lat="49.94638" lon="2.16406">
        <ele>13.5</ele>
        <time>2023-06-28T13:05:33Z</time>
      </trkpt>
      <trkpt lat="49.94638" lon="2.16404">
        <ele>13.5</ele>
        <time>2023-06-28T13:05:34Z</time>
      </trkpt>
      <trkpt lat="49.94639" lon="2.16401">
        <ele>13.5</ele>
        <time>2023-06-28T13:05:35Z</time>
      </trkpt>
      <trkpt lat="49.94639" lon="2.16399">
        <ele>13.6</ele>
        <time>2023-06-28T13:05:37Z</time>
      </trkpt>
      <trkpt lat="49.9464" lon="2.16397">
        <ele>13.6</ele>
        <time>2023-06-28T13:05:38Z</time>
      </trkpt>
      <trkpt lat="49.9464" lon="2.16394">
        <ele>13.6</ele>
        <time>2023-06-28T13:05:39Z</time>
      </trkpt>
      <trkpt lat="49.94641" lon="2.16392">
        <ele>13.6</ele>
        <time>2023-06-28T13:05:40Z</time>
      </trkpt>
      <trkpt lat="49.94641" lon="2.16388">
        <ele>13.6</ele>
        <time>2023-06-28T13:05:42Z</time>
      </trkpt>
      <trkpt lat="49.94642" lon="2.16386">
        <ele>13.6</ele>
        <time>2023-06-28T13:05:43Z</time>
      </trkpt>
      <trkpt lat="49.94641" lon="2.16384">
        <ele>13.6</ele>
        <time>2023-06-28T13:05:44Z</time>
      </trkpt>
      <trkpt lat="49.94641" lon="2.16382">
        <ele>13.6</ele>
        <time>2023-06-28T13:05:45Z</time>
      </trkpt>
      <trkpt lat="49.94641" lon="2.1638">
        <ele>13.6</ele>
        <time>2023-06-28T13:05:46Z</time>
      </trkpt>
      <trkpt lat="49.94642" lon="2.16379">
        <ele>13.6</ele>
        <time>2023-06-28T13:05:48Z</time>
      </trkpt>
      <trkpt lat="49.94642" lon="2.16377">
        <ele>13.6</ele>
        <time>2023-06-28T13:05:49Z</time>
      </trkpt>
      <trkpt lat="49.94642" lon="2.16375">
        <ele>13.6</ele>
        <time>2023-06-28T13:05:50Z</time>
      </trkpt>
      <trkpt lat="49.94643" lon="2.16374">
        <ele>13.6</ele>
        <time>2023-06-28T13:05:51Z</time>
      </trkpt>
      <trkpt lat="49.94643" lon="2.16372">
        <ele>13.6</ele>
        <time>2023-06-28T13:05:52Z</time>
      </trkpt>
      <trkpt lat="49.94644" lon="2.16369">
        <ele>13.6</ele>
        <time>2023-06-28T13:05:54Z</time>
      </trkpt>
      <trkpt lat="49.94645" lon="2.16367">
        <ele>13.6</ele>
        <time>2023-06-28T13:05:55Z</time>
      </trkpt>
      <trkpt lat="49.94646" lon="2.16365">
        <ele>13.6</ele>
        <time>2023-06-28T13:05:56Z</time>
      </trkpt>
      <trkpt lat="49.94646" lon="2.16363">
        <ele>13.6</ele>
        <time>2023-06-28T13:05:57Z</time>
      </trkpt>
      <trkpt lat="49.94647" lon="2.16361">
        <ele>13.6</ele>
        <time>2023-06-28T13:05:58Z</time>
      </trkpt>
      <trkpt lat="49.94647" lon="2.16358">
        <ele>13.6</ele>
        <time>2023-06-28T13:05:59Z</time>
      </trkpt>
      <trkpt lat="49.94648" lon="2.16356">
        <ele>13.6</ele>
        <time>2023-06-28T13:06:00Z</time>
      </trkpt>
      <trkpt lat="49.94649" lon="2.16355">
        <ele>13.6</ele>
        <time>2023-06-28T13:06:01Z</time>
      </trkpt>
      <trkpt lat="49.94649" lon="2.16353">
        <ele>13.6</ele>
        <time>2023-06-28T13:06:03Z</time>
      </trkpt>
      <trkpt lat="49.9465" lon="2.16351">
        <ele>13.6</ele>
        <time>2023-06-28T13:06:04Z</time>
      </trkpt>
      <trkpt lat="49.9465" lon="2.1635">
        <ele>13.6</ele>
        <time>2023-06-28T13:06:05Z</time>
      </trkpt>
      <trkpt lat="49.9465" lon="2.16349">
        <ele>13.6</ele>
        <time>2023-06-28T13:06:06Z</time>
      </trkpt>
      <trkpt lat="49.9465" lon="2.16348">
        <ele>13.6</ele>
        <time>2023-06-28T13:06:07Z</time>
      </trkpt>
      <trkpt lat="49.9465" lon="2.16346">
        <ele>13.6</ele>
        <time>2023-06-28T13:06:09Z</time>
      </trkpt>
      <trkpt lat="49.9465" lon="2.16345">
        <ele>13.6</ele>
        <time>2023-06-28T13:06:10Z</time>
      </trkpt>
      <trkpt lat="49.94651" lon="2.16343">
        <ele>13.6</ele>
        <time>2023-06-28T13:06:11Z</time>
      </trkpt>
      <trkpt lat="49.94651" lon="2.16341">
        <ele>13.6</ele>
        <time>2023-06-28T13:06:12Z</time>
      </trkpt>
      <trkpt lat="49.94652" lon="2.16339">
        <ele>13.6</ele>
        <time>2023-06-28T13:06:14Z</time>
      </trkpt>
      <trkpt lat="49.94652" lon="2.16338">
        <ele>13.6</ele>
        <time>2023-06-28T13:06:15Z</time>
      </trkpt>
      <trkpt lat="49.94652" lon="2.16336">
        <ele>13.6</ele>
        <time>2023-06-28T13:06:16Z</time>
      </trkpt>
      <trkpt lat="49.94653" lon="2.16335">
        <ele>13.6</ele>
        <time>2023-06-28T13:06:17Z</time>
      </trkpt>
      <trkpt lat="49.94653" lon="2.16333">
        <ele>13.6</ele>
        <time>2023-06-28T13:06:19Z</time>
      </trkpt>
      <trkpt lat="49.94654" lon="2.16332">
        <ele>13.6</ele>
        <time>2023-06-28T13:06:20Z</time>
      </trkpt>
      <trkpt lat="49.94654" lon="2.1633">
        <ele>13.6</ele>
        <time>2023-06-28T13:06:21Z</time>
      </trkpt>
      <trkpt lat="49.94655" lon="2.16329">
        <ele>13.6</ele>
        <time>2023-06-28T13:06:22Z</time>
      </trkpt>
      <trkpt lat="49.94655" lon="2.16327">
        <ele>13.6</ele>
        <time>2023-06-28T13:06:23Z</time>
      </trkpt>
      <trkpt lat="49.94656" lon="2.16324">
        <ele>13.6</ele>
        <time>2023-06-28T13:06:24Z</time>
      </trkpt>
      <trkpt lat="49.94656" lon="2.16323">
        <ele>13.6</ele>
        <time>2023-06-28T13:06:25Z</time>
      </trkpt>
      <trkpt lat="49.94656" lon="2.16321">
        <ele>13.6</ele>
        <time>2023-06-28T13:06:27Z</time>
      </trkpt>
      <trkpt lat="49.94657" lon="2.1632">
        <ele>13.6</ele>
        <time>2023-06-28T13:06:28Z</time>
      </trkpt>
      <trkpt lat="49.94657" lon="2.16318">
        <ele>13.6</ele>
        <time>2023-06-28T13:06:29Z</time>
      </trkpt>
      <trkpt lat="49.94657" lon="2.16317">
        <ele>13.6</ele>
        <time>2023-06-28T13:06:30Z</time>
      </trkpt>
      <trkpt lat="49.94657" lon="2.16314">
        <ele>13.6</ele>
        <time>2023-06-28T13:06:32Z</time>
      </trkpt>
      <trkpt lat="49.94657" lon="2.16312">
        <ele>13.6</ele>
        <time>2023-06-28T13:06:33Z</time>
      </trkpt>
      <trkpt lat="49.94658" lon="2.1631">
        <ele>13.6</ele>
        <time>2023-06-28T13:06:34Z</time>
      </trkpt>
      <trkpt lat="49.94658" lon="2.16308">
        <ele>13.6</ele>
        <time>2023-06-28T13:06:35Z</time>
      </trkpt>
      <trkpt lat="49.94658" lon="2.16306">
        <ele>13.6</ele>
        <time>2023-06-28T13:06:36Z</time>
      </trkpt>
      <trkpt lat="49.94658" lon="2.16304">
        <ele>13.6</ele>
        <time>2023-06-28T13:06:37Z</time>
      </trkpt>
      <trkpt lat="49.94659" lon="2.16303">
        <ele>13.6</ele>
        <time>2023-06-28T13:06:39Z</time>
      </trkpt>
      <trkpt lat="49.94659" lon="2.16301">
        <ele>13.6</ele>
        <time>2023-06-28T13:06:40Z</time>
      </trkpt>
      <trkpt lat="49.94659" lon="2.16298">
        <ele>13.6</ele>
        <time>2023-06-28T13:06:41Z</time>
      </trkpt>
      <trkpt lat="49.94659" lon="2.16296">
        <ele>13.6</ele>
        <time>2023-06-28T13:06:42Z</time>
      </trkpt>
      <trkpt lat="49.94659" lon="2.16294">
        <ele>13.6</ele>
        <time>2023-06-28T13:06:43Z</time>
      </trkpt>
      <trkpt lat="49.9466" lon="2.16291">
        <ele>13.7</ele>
        <time>2023-06-28T13:06:44Z</time>
      </trkpt>
      <trkpt lat="49.9466" lon="2.16289">
        <ele>13.7</ele>
        <time>2023-06-28T13:06:46Z</time>
      </trkpt>
      <trkpt lat="49.94661" lon="2.16288">
        <ele>13.7</ele>
        <time>2023-06-28T13:06:47Z</time>
      </trkpt>
      <trkpt lat="49.94661" lon="2.16286">
        <ele>13.7</ele>
        <time>2023-06-28T13:06:48Z</time>
      </trkpt>
      <trkpt lat="49.94661" lon="2.16284">
        <ele>13.7</ele>
        <time>2023-06-28T13:06:49Z</time>
      </trkpt>
      <trkpt lat="49.94662" lon="2.16282">
        <ele>13.7</ele>
        <time>2023-06-28T13:06:50Z</time>
      </trkpt>
      <trkpt lat="49.94663" lon="2.1628">
        <ele>13.7</ele>
        <time>2023-06-28T13:06:51Z</time>
      </trkpt>
      <trkpt lat="49.94663" lon="2.16278">
        <ele>13.7</ele>
        <time>2023-06-28T13:06:52Z</time>
      </trkpt>
      <trkpt lat="49.94664" lon="2.16275">
        <ele>13.7</ele>
        <time>2023-06-28T13:06:54Z</time>
      </trkpt>
      <trkpt lat="49.94664" lon="2.16274">
        <ele>13.7</ele>
        <time>2023-06-28T13:06:55Z</time>
      </trkpt>
      <trkpt lat="49.94665" lon="2.16273">
        <ele>13.7</ele>
        <time>2023-06-28T13:06:56Z</time>
      </trkpt>
      <trkpt lat="49.94665" lon="2.16271">
        <ele>13.7</ele>
        <time>2023-06-28T13:06:57Z</time>
      </trkpt>
      <trkpt lat="49.94666" lon="2.1627">
        <ele>13.7</ele>
        <time>2023-06-28T13:06:58Z</time>
      </trkpt>
      <trkpt lat="49.94666" lon="2.16268">
        <ele>13.7</ele>
        <time>2023-06-28T13:06:59Z</time>
      </trkpt>
      <trkpt lat="49.94667" lon="2.16265">
        <ele>13.8</ele>
        <time>2023-06-28T13:07:01Z</time>
      </trkpt>
      <trkpt lat="49.94667" lon="2.16264">
        <ele>13.8</ele>
        <time>2023-06-28T13:07:02Z</time>
      </trkpt>
      <trkpt lat="49.94668" lon="2.16264">
        <ele>13.8</ele>
        <time>2023-06-28T13:07:03Z</time>
      </trkpt>
      <trkpt lat="49.94668" lon="2.16262">
        <ele>13.8</ele>
        <time>2023-06-28T13:07:04Z</time>
      </trkpt>
      <trkpt lat="49.94669" lon="2.16259">
        <ele>13.8</ele>
        <time>2023-06-28T13:07:06Z</time>
      </trkpt>
      <trkpt lat="49.9467" lon="2.16257">
        <ele>13.8</ele>
        <time>2023-06-28T13:07:07Z</time>
      </trkpt>
      <trkpt lat="49.9467" lon="2.16255">
        <ele>13.8</ele>
        <time>2023-06-28T13:07:08Z</time>
      </trkpt>
      <trkpt lat="49.9467" lon="2.16254">
        <ele>13.8</ele>
        <time>2023-06-28T13:07:09Z</time>
      </trkpt>
      <trkpt lat="49.94671" lon="2.16252">
        <ele>13.8</ele>
        <time>2023-06-28T13:07:10Z</time>
      </trkpt>
      <trkpt lat="49.94671" lon="2.1625">
        <ele>13.8</ele>
        <time>2023-06-28T13:07:11Z</time>
      </trkpt>
      <trkpt lat="49.94671" lon="2.16247">
        <ele>13.8</ele>
        <time>2023-06-28T13:07:13Z</time>
      </trkpt>
      <trkpt lat="49.94672" lon="2.16245">
        <ele>13.8</ele>
        <time>2023-06-28T13:07:14Z</time>
      </trkpt>
      <trkpt lat="49.94672" lon="2.16244">
        <ele>13.8</ele>
        <time>2023-06-28T13:07:15Z</time>
      </trkpt>
      <trkpt lat="49.94672" lon="2.16241">
        <ele>13.8</ele>
        <time>2023-06-28T13:07:16Z</time>
      </trkpt>
      <trkpt lat="49.94672" lon="2.16239">
        <ele>13.8</ele>
        <time>2023-06-28T13:07:17Z</time>
      </trkpt>
      <trkpt lat="49.94672" lon="2.16238">
        <ele>13.8</ele>
        <time>2023-06-28T13:07:18Z</time>
      </trkpt>
      <trkpt lat="49.94672" lon="2.16235">
        <ele>13.8</ele>
        <time>2023-06-28T13:07:19Z</time>
      </trkpt>
      <trkpt lat="49.94673" lon="2.16234">
        <ele>13.8</ele>
        <time>2023-06-28T13:07:20Z</time>
      </trkpt>
      <trkpt lat="49.94673" lon="2.16233">
        <ele>13.8</ele>
        <time>2023-06-28T13:07:21Z</time>
      </trkpt>
      <trkpt lat="49.94673" lon="2.16231">
        <ele>13.8</ele>
        <time>2023-06-28T13:07:22Z</time>
      </trkpt>
      <trkpt lat="49.94674" lon="2.16229">
        <ele>13.8</ele>
        <time>2023-06-28T13:07:24Z</time>
      </trkpt>
      <trkpt lat="49.94675" lon="2.16227">
        <ele>13.8</ele>
        <time>2023-06-28T13:07:25Z</time>
      </trkpt>
      <trkpt lat="49.94676" lon="2.16226">
        <ele>13.8</ele>
        <time>2023-06-28T13:07:26Z</time>
      </trkpt>
      <trkpt lat="49.94676" lon="2.16225">
        <ele>13.8</ele>
        <time>2023-06-28T13:07:27Z</time>
      </trkpt>
      <trkpt lat="49.94677" lon="2.16222">
        <ele>13.8</ele>
        <time>2023-06-28T13:07:29Z</time>
      </trkpt>
      <trkpt lat="49.94677" lon="2.16221">
        <ele>13.8</ele>
        <time>2023-06-28T13:07:30Z</time>
      </trkpt>
      <trkpt lat="49.94677" lon="2.16218">
        <ele>13.8</ele>
        <time>2023-06-28T13:07:31Z</time>
      </trkpt>
      <trkpt lat="49.94678" lon="2.16216">
        <ele>13.8</ele>
        <time>2023-06-28T13:07:32Z</time>
      </trkpt>
      <trkpt lat="49.94678" lon="2.16215">
        <ele>13.8</ele>
        <time>2023-06-28T13:07:33Z</time>
      </trkpt>
      <trkpt lat="49.94678" lon="2.16212">
        <ele>13.8</ele>
        <time>2023-06-28T13:07:34Z</time>
      </trkpt>
      <trkpt lat="49.94678" lon="2.16211">
        <ele>13.8</ele>
        <time>2023-06-28T13:07:35Z</time>
      </trkpt>
      <trkpt lat="49.94678" lon="2.16209">
        <ele>13.8</ele>
        <time>2023-06-28T13:07:36Z</time>
      </trkpt>
      <trkpt lat="49.94678" lon="2.16208">
        <ele>13.8</ele>
        <time>2023-06-28T13:07:37Z</time>
      </trkpt>
      <trkpt lat="49.94679" lon="2.16206">
        <ele>13.8</ele>
        <time>2023-06-28T13:07:38Z</time>
      </trkpt>
      <trkpt lat="49.94679" lon="2.16204">
        <ele>13.8</ele>
        <time>2023-06-28T13:07:39Z</time>
      </trkpt>
      <trkpt lat="49.9468" lon="2.16201">
        <ele>13.8</ele>
        <time>2023-06-28T13:07:40Z</time>
      </trkpt>
      <trkpt lat="49.9468" lon="2.162">
        <ele>13.8</ele>
        <time>2023-06-28T13:07:42Z</time>
      </trkpt>
      <trkpt lat="49.9468" lon="2.16199">
        <ele>13.8</ele>
        <time>2023-06-28T13:07:43Z</time>
      </trkpt>
      <trkpt lat="49.94681" lon="2.16196">
        <ele>13.8</ele>
        <time>2023-06-28T13:07:44Z</time>
      </trkpt>
      <trkpt lat="49.94681" lon="2.16194">
        <ele>13.8</ele>
        <time>2023-06-28T13:07:45Z</time>
      </trkpt>
      <trkpt lat="49.94682" lon="2.16193">
        <ele>13.8</ele>
        <time>2023-06-28T13:07:46Z</time>
      </trkpt>
      <trkpt lat="49.94682" lon="2.16191">
        <ele>13.8</ele>
        <time>2023-06-28T13:07:47Z</time>
      </trkpt>
      <trkpt lat="49.94683" lon="2.1619">
        <ele>13.8</ele>
        <time>2023-06-28T13:07:49Z</time>
      </trkpt>
      <trkpt lat="49.94683" lon="2.16188">
        <ele>13.8</ele>
        <time>2023-06-28T13:07:50Z</time>
      </trkpt>
      <trkpt lat="49.94683" lon="2.16186">
        <ele>13.7</ele>
        <time>2023-06-28T13:07:51Z</time>
      </trkpt>
      <trkpt lat="49.94683" lon="2.16184">
        <ele>13.7</ele>
        <time>2023-06-28T13:07:52Z</time>
      </trkpt>
      <trkpt lat="49.94684" lon="2.16182">
        <ele>13.7</ele>
        <time>2023-06-28T13:07:54Z</time>
      </trkpt>
      <trkpt lat="49.94683" lon="2.16181">
        <ele>13.7</ele>
        <time>2023-06-28T13:07:55Z</time>
      </trkpt>
      <trkpt lat="49.94684" lon="2.16179">
        <ele>13.7</ele>
        <time>2023-06-28T13:07:56Z</time>
      </trkpt>
      <trkpt lat="49.94684" lon="2.16177">
        <ele>13.7</ele>
        <time>2023-06-28T13:07:57Z</time>
      </trkpt>
      <trkpt lat="49.94684" lon="2.16175">
        <ele>13.7</ele>
        <time>2023-06-28T13:07:59Z</time>
      </trkpt>
      <trkpt lat="49.94684" lon="2.16172">
        <ele>13.7</ele>
        <time>2023-06-28T13:08:00Z</time>
      </trkpt>
      <trkpt lat="49.94684" lon="2.1617">
        <ele>13.7</ele>
        <time>2023-06-28T13:08:01Z</time>
      </trkpt>
      <trkpt lat="49.94684" lon="2.16168">
        <ele>13.7</ele>
        <time>2023-06-28T13:08:02Z</time>
      </trkpt>
      <trkpt lat="49.94685" lon="2.16165">
        <ele>13.7</ele>
        <time>2023-06-28T13:08:03Z</time>
      </trkpt>
      <trkpt lat="49.94685" lon="2.16164">
        <ele>13.7</ele>
        <time>2023-06-28T13:08:04Z</time>
      </trkpt>
      <trkpt lat="49.94686" lon="2.16161">
        <ele>13.7</ele>
        <time>2023-06-28T13:08:05Z</time>
      </trkpt>
      <trkpt lat="49.94686" lon="2.1616">
        <ele>13.7</ele>
        <time>2023-06-28T13:08:07Z</time>
      </trkpt>
      <trkpt lat="49.94686" lon="2.16158">
        <ele>13.7</ele>
        <time>2023-06-28T13:08:08Z</time>
      </trkpt>
      <trkpt lat="49.94687" lon="2.16155">
        <ele>13.8</ele>
        <time>2023-06-28T13:08:09Z</time>
      </trkpt>
      <trkpt lat="49.94687" lon="2.16154">
        <ele>13.8</ele>
        <time>2023-06-28T13:08:10Z</time>
      </trkpt>
      <trkpt lat="49.94687" lon="2.16152">
        <ele>13.8</ele>
        <time>2023-06-28T13:08:11Z</time>
      </trkpt>
      <trkpt lat="49.94688" lon="2.16149">
        <ele>13.8</ele>
        <time>2023-06-28T13:08:12Z</time>
      </trkpt>
      <trkpt lat="49.94688" lon="2.16148">
        <ele>13.8</ele>
        <time>2023-06-28T13:08:13Z</time>
      </trkpt>
      <trkpt lat="49.94688" lon="2.16147">
        <ele>13.8</ele>
        <time>2023-06-28T13:08:14Z</time>
      </trkpt>
      <trkpt lat="49.94689" lon="2.16145">
        <ele>13.8</ele>
        <time>2023-06-28T13:08:16Z</time>
      </trkpt>
      <trkpt lat="49.94689" lon="2.16143">
        <ele>13.9</ele>
        <time>2023-06-28T13:08:17Z</time>
      </trkpt>
      <trkpt lat="49.9469" lon="2.16142">
        <ele>13.9</ele>
        <time>2023-06-28T13:08:18Z</time>
      </trkpt>
      <trkpt lat="49.94691" lon="2.1614">
        <ele>13.9</ele>
        <time>2023-06-28T13:08:19Z</time>
      </trkpt>
      <trkpt lat="49.94691" lon="2.16138">
        <ele>13.9</ele>
        <time>2023-06-28T13:08:20Z</time>
      </trkpt>
      <trkpt lat="49.94692" lon="2.16136">
        <ele>13.9</ele>
        <time>2023-06-28T13:08:22Z</time>
      </trkpt>
      <trkpt lat="49.94692" lon="2.16135">
        <ele>13.9</ele>
        <time>2023-06-28T13:08:23Z</time>
      </trkpt>
      <trkpt lat="49.94692" lon="2.16134">
        <ele>13.9</ele>
        <time>2023-06-28T13:08:24Z</time>
      </trkpt>
      <trkpt lat="49.94693" lon="2.16132">
        <ele>13.9</ele>
        <time>2023-06-28T13:08:25Z</time>
      </trkpt>
      <trkpt lat="49.94693" lon="2.1613">
        <ele>13.9</ele>
        <time>2023-06-28T13:08:26Z</time>
      </trkpt>
      <trkpt lat="49.94694" lon="2.16128">
        <ele>13.9</ele>
        <time>2023-06-28T13:08:27Z</time>
      </trkpt>
      <trkpt lat="49.94694" lon="2.16126">
        <ele>14</ele>
        <time>2023-06-28T13:08:29Z</time>
      </trkpt>
      <trkpt lat="49.94695" lon="2.16124">
        <ele>14</ele>
        <time>2023-06-28T13:08:30Z</time>
      </trkpt>
      <trkpt lat="49.94695" lon="2.16122">
        <ele>14</ele>
        <time>2023-06-28T13:08:31Z</time>
      </trkpt>
      <trkpt lat="49.94696" lon="2.1612">
        <ele>14</ele>
        <time>2023-06-28T13:08:32Z</time>
      </trkpt>
      <trkpt lat="49.94697" lon="2.16118">
        <ele>14</ele>
        <time>2023-06-28T13:08:33Z</time>
      </trkpt>
      <trkpt lat="49.94698" lon="2.16116">
        <ele>14</ele>
        <time>2023-06-28T13:08:34Z</time>
      </trkpt>
      <trkpt lat="49.94699" lon="2.16113">
        <ele>14</ele>
        <time>2023-06-28T13:08:36Z</time>
      </trkpt>
      <trkpt lat="49.94699" lon="2.16111">
        <ele>14</ele>
        <time>2023-06-28T13:08:37Z</time>
      </trkpt>
      <trkpt lat="49.947" lon="2.16109">
        <ele>14</ele>
        <time>2023-06-28T13:08:38Z</time>
      </trkpt>
      <trkpt lat="49.947" lon="2.16107">
        <ele>14</ele>
        <time>2023-06-28T13:08:39Z</time>
      </trkpt>
      <trkpt lat="49.947" lon="2.16106">
        <ele>14</ele>
        <time>2023-06-28T13:08:40Z</time>
      </trkpt>
      <trkpt lat="49.94701" lon="2.16105">
        <ele>14</ele>
        <time>2023-06-28T13:08:41Z</time>
      </trkpt>
      <trkpt lat="49.94701" lon="2.16103">
        <ele>14</ele>
        <time>2023-06-28T13:08:42Z</time>
      </trkpt>
      <trkpt lat="49.94702" lon="2.16101">
        <ele>14</ele>
        <time>2023-06-28T13:08:43Z</time>
      </trkpt>
      <trkpt lat="49.94702" lon="2.161">
        <ele>14.1</ele>
        <time>2023-06-28T13:08:45Z</time>
      </trkpt>
      <trkpt lat="49.94703" lon="2.16098">
        <ele>14.1</ele>
        <time>2023-06-28T13:08:46Z</time>
      </trkpt>
      <trkpt lat="49.94703" lon="2.16097">
        <ele>14.1</ele>
        <time>2023-06-28T13:08:47Z</time>
      </trkpt>
      <trkpt lat="49.94704" lon="2.16095">
        <ele>14.1</ele>
        <time>2023-06-28T13:08:48Z</time>
      </trkpt>
      <trkpt lat="49.94705" lon="2.16093">
        <ele>14.1</ele>
        <time>2023-06-28T13:08:49Z</time>
      </trkpt>
      <trkpt lat="49.94706" lon="2.16091">
        <ele>14.1</ele>
        <time>2023-06-28T13:08:51Z</time>
      </trkpt>
      <trkpt lat="49.94707" lon="2.16089">
        <ele>14.1</ele>
        <time>2023-06-28T13:08:52Z</time>
      </trkpt>
      <trkpt lat="49.94707" lon="2.16088">
        <ele>14.1</ele>
        <time>2023-06-28T13:08:53Z</time>
      </trkpt>
      <trkpt lat="49.94708" lon="2.16086">
        <ele>14.1</ele>
        <time>2023-06-28T13:08:54Z</time>
      </trkpt>
      <trkpt lat="49.94709" lon="2.16085">
        <ele>14.1</ele>
        <time>2023-06-28T13:08:55Z</time>
      </trkpt>
      <trkpt lat="49.94709" lon="2.16084">
        <ele>14.1</ele>
        <time>2023-06-28T13:08:56Z</time>
      </trkpt>
      <trkpt lat="49.9471" lon="2.16082">
        <ele>14.1</ele>
        <time>2023-06-28T13:08:58Z</time>
      </trkpt>
      <trkpt lat="49.9471" lon="2.16081">
        <ele>14.1</ele>
        <time>2023-06-28T13:08:59Z</time>
      </trkpt>
      <trkpt lat="49.94711" lon="2.1608">
        <ele>14.1</ele>
        <time>2023-06-28T13:09:00Z</time>
      </trkpt>
      <trkpt lat="49.94711" lon="2.16078">
        <ele>14.1</ele>
        <time>2023-06-28T13:09:01Z</time>
      </trkpt>
      <trkpt lat="49.94712" lon="2.16076">
        <ele>14.1</ele>
        <time>2023-06-28T13:09:02Z</time>
      </trkpt>
      <trkpt lat="49.94713" lon="2.16074">
        <ele>14.1</ele>
        <time>2023-06-28T13:09:03Z</time>
      </trkpt>
      <trkpt lat="49.94714" lon="2.16073">
        <ele>14.1</ele>
        <time>2023-06-28T13:09:05Z</time>
      </trkpt>
      <trkpt lat="49.94715" lon="2.1607">
        <ele>14.1</ele>
        <time>2023-06-28T13:09:06Z</time>
      </trkpt>
      <trkpt lat="49.94716" lon="2.16069">
        <ele>14.1</ele>
        <time>2023-06-28T13:09:07Z</time>
      </trkpt>
      <trkpt lat="49.94716" lon="2.16068">
        <ele>14.1</ele>
        <time>2023-06-28T13:09:08Z</time>
      </trkpt>
      <trkpt lat="49.94717" lon="2.16067">
        <ele>14.1</ele>
        <time>2023-06-28T13:09:09Z</time>
      </trkpt>
      <trkpt lat="49.94717" lon="2.16066">
        <ele>14.1</ele>
        <time>2023-06-28T13:09:10Z</time>
      </trkpt>
      <trkpt lat="49.94718" lon="2.16063">
        <ele>14</ele>
        <time>2023-06-28T13:09:12Z</time>
      </trkpt>
      <trkpt lat="49.94719" lon="2.16061">
        <ele>14</ele>
        <time>2023-06-28T13:09:13Z</time>
      </trkpt>
      <trkpt lat="49.94719" lon="2.16059">
        <ele>14</ele>
        <time>2023-06-28T13:09:14Z</time>
      </trkpt>
      <trkpt lat="49.9472" lon="2.16057">
        <ele>14</ele>
        <time>2023-06-28T13:09:15Z</time>
      </trkpt>
      <trkpt lat="49.94721" lon="2.16055">
        <ele>14</ele>
        <time>2023-06-28T13:09:16Z</time>
      </trkpt>
      <trkpt lat="49.94722" lon="2.16053">
        <ele>14</ele>
        <time>2023-06-28T13:09:17Z</time>
      </trkpt>
      <trkpt lat="49.94722" lon="2.16052">
        <ele>14</ele>
        <time>2023-06-28T13:09:18Z</time>
      </trkpt>
      <trkpt lat="49.94723" lon="2.16051">
        <ele>14</ele>
        <time>2023-06-28T13:09:19Z</time>
      </trkpt>
      <trkpt lat="49.94723" lon="2.16048">
        <ele>14</ele>
        <time>2023-06-28T13:09:21Z</time>
      </trkpt>
      <trkpt lat="49.94724" lon="2.16047">
        <ele>14.1</ele>
        <time>2023-06-28T13:09:22Z</time>
      </trkpt>
      <trkpt lat="49.94724" lon="2.16046">
        <ele>14.1</ele>
        <time>2023-06-28T13:09:23Z</time>
      </trkpt>
      <trkpt lat="49.94725" lon="2.16045">
        <ele>14.1</ele>
        <time>2023-06-28T13:09:24Z</time>
      </trkpt>
      <trkpt lat="49.94725" lon="2.16044">
        <ele>14.1</ele>
        <time>2023-06-28T13:09:25Z</time>
      </trkpt>
      <trkpt lat="49.94726" lon="2.16042">
        <ele>14.1</ele>
        <time>2023-06-28T13:09:26Z</time>
      </trkpt>
      <trkpt lat="49.94727" lon="2.1604">
        <ele>14.1</ele>
        <time>2023-06-28T13:09:27Z</time>
      </trkpt>
      <trkpt lat="49.94728" lon="2.16039">
        <ele>14.1</ele>
        <time>2023-06-28T13:09:28Z</time>
      </trkpt>
      <trkpt lat="49.94728" lon="2.16038">
        <ele>14.1</ele>
        <time>2023-06-28T13:09:30Z</time>
      </trkpt>
      <trkpt lat="49.94729" lon="2.16036">
        <ele>14.1</ele>
        <time>2023-06-28T13:09:31Z</time>
      </trkpt>
      <trkpt lat="49.94731" lon="2.16034">
        <ele>14.1</ele>
        <time>2023-06-28T13:09:32Z</time>
      </trkpt>
      <trkpt lat="49.94731" lon="2.16032">
        <ele>14.1</ele>
        <time>2023-06-28T13:09:34Z</time>
      </trkpt>
      <trkpt lat="49.94732" lon="2.16031">
        <ele>14.1</ele>
        <time>2023-06-28T13:09:35Z</time>
      </trkpt>
      <trkpt lat="49.94734" lon="2.16028">
        <ele>14.2</ele>
        <time>2023-06-28T13:09:36Z</time>
      </trkpt>
      <trkpt lat="49.94734" lon="2.16027">
        <ele>14.2</ele>
        <time>2023-06-28T13:09:37Z</time>
      </trkpt>
      <trkpt lat="49.94735" lon="2.16026">
        <ele>14.2</ele>
        <time>2023-06-28T13:09:38Z</time>
      </trkpt>
      <trkpt lat="49.94736" lon="2.16025">
        <ele>14.2</ele>
        <time>2023-06-28T13:09:39Z</time>
      </trkpt>
      <trkpt lat="49.94737" lon="2.16023">
        <ele>14.2</ele>
        <time>2023-06-28T13:09:41Z</time>
      </trkpt>
      <trkpt lat="49.94737" lon="2.16021">
        <ele>14.2</ele>
        <time>2023-06-28T13:09:42Z</time>
      </trkpt>
      <trkpt lat="49.94738" lon="2.16019">
        <ele>14.2</ele>
        <time>2023-06-28T13:09:43Z</time>
      </trkpt>
      <trkpt lat="49.94739" lon="2.16017">
        <ele>14.2</ele>
        <time>2023-06-28T13:09:44Z</time>
      </trkpt>
      <trkpt lat="49.94739" lon="2.16015">
        <ele>14.2</ele>
        <time>2023-06-28T13:09:45Z</time>
      </trkpt>
      <trkpt lat="49.9474" lon="2.16012">
        <ele>14.3</ele>
        <time>2023-06-28T13:09:47Z</time>
      </trkpt>
      <trkpt lat="49.9474" lon="2.1601">
        <ele>14.3</ele>
        <time>2023-06-28T13:09:48Z</time>
      </trkpt>
      <trkpt lat="49.94741" lon="2.16009">
        <ele>14.3</ele>
        <time>2023-06-28T13:09:49Z</time>
      </trkpt>
      <trkpt lat="49.94741" lon="2.16007">
        <ele>14.3</ele>
        <time>2023-06-28T13:09:50Z</time>
      </trkpt>
      <trkpt lat="49.94742" lon="2.16006">
        <ele>14.3</ele>
        <time>2023-06-28T13:09:51Z</time>
      </trkpt>
      <trkpt lat="49.94743" lon="2.16002">
        <ele>14.3</ele>
        <time>2023-06-28T13:09:52Z</time>
      </trkpt>
      <trkpt lat="49.94743" lon="2.16001">
        <ele>14.3</ele>
        <time>2023-06-28T13:09:54Z</time>
      </trkpt>
      <trkpt lat="49.94743" lon="2.15999">
        <ele>14.3</ele>
        <time>2023-06-28T13:09:55Z</time>
      </trkpt>
      <trkpt lat="49.94744" lon="2.15998">
        <ele>14.3</ele>
        <time>2023-06-28T13:09:56Z</time>
      </trkpt>
      <trkpt lat="49.94744" lon="2.15996">
        <ele>14.3</ele>
        <time>2023-06-28T13:09:57Z</time>
      </trkpt>
      <trkpt lat="49.94745" lon="2.15994">
        <ele>14.3</ele>
        <time>2023-06-28T13:09:58Z</time>
      </trkpt>
      <trkpt lat="49.94746" lon="2.15991">
        <ele>14.3</ele>
        <time>2023-06-28T13:10:00Z</time>
      </trkpt>
      <trkpt lat="49.94746" lon="2.1599">
        <ele>14.3</ele>
        <time>2023-06-28T13:10:01Z</time>
      </trkpt>
      <trkpt lat="49.94747" lon="2.15989">
        <ele>14.3</ele>
        <time>2023-06-28T13:10:02Z</time>
      </trkpt>
      <trkpt lat="49.94747" lon="2.15987">
        <ele>14.3</ele>
        <time>2023-06-28T13:10:03Z</time>
      </trkpt>
      <trkpt lat="49.94748" lon="2.15986">
        <ele>14.4</ele>
        <time>2023-06-28T13:10:04Z</time>
      </trkpt>
      <trkpt lat="49.94749" lon="2.15984">
        <ele>14.4</ele>
        <time>2023-06-28T13:10:05Z</time>
      </trkpt>
      <trkpt lat="49.9475" lon="2.15983">
        <ele>14.4</ele>
        <time>2023-06-28T13:10:07Z</time>
      </trkpt>
      <trkpt lat="49.9475" lon="2.15982">
        <ele>14.4</ele>
        <time>2023-06-28T13:10:08Z</time>
      </trkpt>
      <trkpt lat="49.94751" lon="2.1598">
        <ele>14.4</ele>
        <time>2023-06-28T13:10:09Z</time>
      </trkpt>
      <trkpt lat="49.94752" lon="2.15979">
        <ele>14.4</ele>
        <time>2023-06-28T13:10:10Z</time>
      </trkpt>
      <trkpt lat="49.94752" lon="2.15977">
        <ele>14.4</ele>
        <time>2023-06-28T13:10:11Z</time>
      </trkpt>
      <trkpt lat="49.94753" lon="2.15976">
        <ele>14.4</ele>
        <time>2023-06-28T13:10:12Z</time>
      </trkpt>
      <trkpt lat="49.94753" lon="2.15975">
        <ele>14.4</ele>
        <time>2023-06-28T13:10:13Z</time>
      </trkpt>
      <trkpt lat="49.94754" lon="2.15972">
        <ele>14.4</ele>
        <time>2023-06-28T13:10:15Z</time>
      </trkpt>
      <trkpt lat="49.94755" lon="2.1597">
        <ele>14.4</ele>
        <time>2023-06-28T13:10:17Z</time>
      </trkpt>
      <trkpt lat="49.94756" lon="2.15969">
        <ele>14.4</ele>
        <time>2023-06-28T13:10:18Z</time>
      </trkpt>
      <trkpt lat="49.94756" lon="2.15967">
        <ele>14.4</ele>
        <time>2023-06-28T13:10:19Z</time>
      </trkpt>
      <trkpt lat="49.94757" lon="2.15966">
        <ele>14.4</ele>
        <time>2023-06-28T13:10:20Z</time>
      </trkpt>
      <trkpt lat="49.94758" lon="2.15964">
        <ele>14.4</ele>
        <time>2023-06-28T13:10:21Z</time>
      </trkpt>
      <trkpt lat="49.94759" lon="2.15962">
        <ele>14.4</ele>
        <time>2023-06-28T13:10:22Z</time>
      </trkpt>
      <trkpt lat="49.9476" lon="2.15959">
        <ele>14.4</ele>
        <time>2023-06-28T13:10:23Z</time>
      </trkpt>
      <trkpt lat="49.94761" lon="2.15958">
        <ele>14.4</ele>
        <time>2023-06-28T13:10:25Z</time>
      </trkpt>
      <trkpt lat="49.94761" lon="2.15957">
        <ele>14.4</ele>
        <time>2023-06-28T13:10:26Z</time>
      </trkpt>
      <trkpt lat="49.94762" lon="2.15955">
        <ele>14.4</ele>
        <time>2023-06-28T13:10:27Z</time>
      </trkpt>
      <trkpt lat="49.94763" lon="2.15952">
        <ele>14.3</ele>
        <time>2023-06-28T13:10:29Z</time>
      </trkpt>
      <trkpt lat="49.94763" lon="2.1595">
        <ele>14.3</ele>
        <time>2023-06-28T13:10:31Z</time>
      </trkpt>
      <trkpt lat="49.94764" lon="2.15948">
        <ele>14.3</ele>
        <time>2023-06-28T13:10:32Z</time>
      </trkpt>
      <trkpt lat="49.94764" lon="2.15947">
        <ele>14.3</ele>
        <time>2023-06-28T13:10:33Z</time>
      </trkpt>
      <trkpt lat="49.94765" lon="2.15946">
        <ele>14.3</ele>
        <time>2023-06-28T13:10:34Z</time>
      </trkpt>
      <trkpt lat="49.94766" lon="2.15944">
        <ele>14.3</ele>
        <time>2023-06-28T13:10:35Z</time>
      </trkpt>
      <trkpt lat="49.94766" lon="2.15943">
        <ele>14.3</ele>
        <time>2023-06-28T13:10:36Z</time>
      </trkpt>
      <trkpt lat="49.94767" lon="2.15941">
        <ele>14.4</ele>
        <time>2023-06-28T13:10:37Z</time>
      </trkpt>
      <trkpt lat="49.94768" lon="2.1594">
        <ele>14.4</ele>
        <time>2023-06-28T13:10:39Z</time>
      </trkpt>
      <trkpt lat="49.94768" lon="2.15939">
        <ele>14.4</ele>
        <time>2023-06-28T13:10:40Z</time>
      </trkpt>
      <trkpt lat="49.94769" lon="2.15938">
        <ele>14.4</ele>
        <time>2023-06-28T13:10:41Z</time>
      </trkpt>
      <trkpt lat="49.9477" lon="2.15936">
        <ele>14.4</ele>
        <time>2023-06-28T13:10:42Z</time>
      </trkpt>
      <trkpt lat="49.94771" lon="2.15934">
        <ele>14.4</ele>
        <time>2023-06-28T13:10:43Z</time>
      </trkpt>
      <trkpt lat="49.94772" lon="2.15933">
        <ele>14.4</ele>
        <time>2023-06-28T13:10:44Z</time>
      </trkpt>
      <trkpt lat="49.94772" lon="2.15932">
        <ele>14.4</ele>
        <time>2023-06-28T13:10:45Z</time>
      </trkpt>
      <trkpt lat="49.94774" lon="2.15929">
        <ele>14.4</ele>
        <time>2023-06-28T13:10:47Z</time>
      </trkpt>
      <trkpt lat="49.94774" lon="2.15928">
        <ele>14.4</ele>
        <time>2023-06-28T13:10:48Z</time>
      </trkpt>
      <trkpt lat="49.94775" lon="2.15927">
        <ele>14.4</ele>
        <time>2023-06-28T13:10:49Z</time>
      </trkpt>
      <trkpt lat="49.94776" lon="2.15925">
        <ele>14.5</ele>
        <time>2023-06-28T13:10:50Z</time>
      </trkpt>
      <trkpt lat="49.94777" lon="2.15923">
        <ele>14.5</ele>
        <time>2023-06-28T13:10:51Z</time>
      </trkpt>
      <trkpt lat="49.94777" lon="2.15921">
        <ele>14.5</ele>
        <time>2023-06-28T13:10:53Z</time>
      </trkpt>
      <trkpt lat="49.94778" lon="2.1592">
        <ele>14.5</ele>
        <time>2023-06-28T13:10:54Z</time>
      </trkpt>
      <trkpt lat="49.94779" lon="2.15917">
        <ele>14.5</ele>
        <time>2023-06-28T13:10:55Z</time>
      </trkpt>
      <trkpt lat="49.9478" lon="2.15915">
        <ele>14.5</ele>
        <time>2023-06-28T13:10:56Z</time>
      </trkpt>
      <trkpt lat="49.9478" lon="2.15914">
        <ele>14.5</ele>
        <time>2023-06-28T13:10:57Z</time>
      </trkpt>
      <trkpt lat="49.94781" lon="2.15912">
        <ele>14.5</ele>
        <time>2023-06-28T13:10:58Z</time>
      </trkpt>
      <trkpt lat="49.94782" lon="2.1591">
        <ele>14.5</ele>
        <time>2023-06-28T13:10:59Z</time>
      </trkpt>
      <trkpt lat="49.94782" lon="2.15909">
        <ele>14.5</ele>
        <time>2023-06-28T13:11:00Z</time>
      </trkpt>
      <trkpt lat="49.94783" lon="2.15907">
        <ele>14.5</ele>
        <time>2023-06-28T13:11:02Z</time>
      </trkpt>
      <trkpt lat="49.94784" lon="2.15905">
        <ele>14.5</ele>
        <time>2023-06-28T13:11:03Z</time>
      </trkpt>
      <trkpt lat="49.94785" lon="2.15902">
        <ele>14.5</ele>
        <time>2023-06-28T13:11:04Z</time>
      </trkpt>
      <trkpt lat="49.94785" lon="2.15901">
        <ele>14.5</ele>
        <time>2023-06-28T13:11:05Z</time>
      </trkpt>
      <trkpt lat="49.94785" lon="2.159">
        <ele>14.5</ele>
        <time>2023-06-28T13:11:06Z</time>
      </trkpt>
      <trkpt lat="49.94786" lon="2.15898">
        <ele>14.5</ele>
        <time>2023-06-28T13:11:07Z</time>
      </trkpt>
      <trkpt lat="49.94786" lon="2.15897">
        <ele>14.5</ele>
        <time>2023-06-28T13:11:08Z</time>
      </trkpt>
      <trkpt lat="49.94787" lon="2.15896">
        <ele>14.5</ele>
        <time>2023-06-28T13:11:09Z</time>
      </trkpt>
      <trkpt lat="49.94788" lon="2.15893">
        <ele>14.5</ele>
        <time>2023-06-28T13:11:10Z</time>
      </trkpt>
      <trkpt lat="49.94789" lon="2.15892">
        <ele>14.5</ele>
        <time>2023-06-28T13:11:12Z</time>
      </trkpt>
      <trkpt lat="49.94789" lon="2.1589">
        <ele>14.5</ele>
        <time>2023-06-28T13:11:13Z</time>
      </trkpt>
      <trkpt lat="49.9479" lon="2.15888">
        <ele>14.5</ele>
        <time>2023-06-28T13:11:14Z</time>
      </trkpt>
      <trkpt lat="49.94791" lon="2.15887">
        <ele>14.5</ele>
        <time>2023-06-28T13:11:15Z</time>
      </trkpt>
      <trkpt lat="49.94791" lon="2.15885">
        <ele>14.5</ele>
        <time>2023-06-28T13:11:16Z</time>
      </trkpt>
      <trkpt lat="49.94792" lon="2.15882">
        <ele>14.5</ele>
        <time>2023-06-28T13:11:18Z</time>
      </trkpt>
      <trkpt lat="49.94793" lon="2.1588">
        <ele>14.5</ele>
        <time>2023-06-28T13:11:19Z</time>
      </trkpt>
      <trkpt lat="49.94793" lon="2.15879">
        <ele>14.5</ele>
        <time>2023-06-28T13:11:20Z</time>
      </trkpt>
      <trkpt lat="49.94793" lon="2.15877">
        <ele>14.5</ele>
        <time>2023-06-28T13:11:21Z</time>
      </trkpt>
      <trkpt lat="49.94794" lon="2.15873">
        <ele>14.5</ele>
        <time>2023-06-28T13:11:23Z</time>
      </trkpt>
      <trkpt lat="49.94794" lon="2.15872">
        <ele>14.5</ele>
        <time>2023-06-28T13:11:24Z</time>
      </trkpt>
      <trkpt lat="49.94795" lon="2.15868">
        <ele>14.5</ele>
        <time>2023-06-28T13:11:25Z</time>
      </trkpt>
      <trkpt lat="49.94795" lon="2.15867">
        <ele>14.5</ele>
        <time>2023-06-28T13:11:27Z</time>
      </trkpt>
      <trkpt lat="49.94795" lon="2.15866">
        <ele>14.5</ele>
        <time>2023-06-28T13:11:28Z</time>
      </trkpt>
      <trkpt lat="49.94795" lon="2.15862">
        <ele>14.5</ele>
        <time>2023-06-28T13:11:29Z</time>
      </trkpt>
      <trkpt lat="49.94795" lon="2.15861">
        <ele>14.5</ele>
        <time>2023-06-28T13:11:30Z</time>
      </trkpt>
      <trkpt lat="49.94794" lon="2.1586">
        <ele>14.5</ele>
        <time>2023-06-28T13:11:31Z</time>
      </trkpt>
      <trkpt lat="49.94794" lon="2.15857">
        <ele>14.5</ele>
        <time>2023-06-28T13:11:32Z</time>
      </trkpt>
      <trkpt lat="49.94794" lon="2.15856">
        <ele>14.5</ele>
        <time>2023-06-28T13:11:34Z</time>
      </trkpt>
      <trkpt lat="49.94793" lon="2.15854">
        <ele>14.5</ele>
        <time>2023-06-28T13:11:35Z</time>
      </trkpt>
      <trkpt lat="49.94793" lon="2.15852">
        <ele>14.5</ele>
        <time>2023-06-28T13:11:37Z</time>
      </trkpt>
      <trkpt lat="49.94793" lon="2.15851">
        <ele>14.5</ele>
        <time>2023-06-28T13:11:38Z</time>
      </trkpt>
      <trkpt lat="49.94795" lon="2.1585">
        <ele>14.5</ele>
        <time>2023-06-28T13:11:40Z</time>
      </trkpt>
      <trkpt lat="49.94795" lon="2.1585">
        <ele>14.5</ele>
        <time>2023-06-28T13:11:41Z</time>
      </trkpt>
      <trkpt lat="49.94796" lon="2.1585">
        <ele>14.5</ele>
        <time>2023-06-28T13:11:42Z</time>
      </trkpt>
      <trkpt lat="49.94796" lon="2.15851">
        <ele>14.5</ele>
        <time>2023-06-28T13:11:43Z</time>
      </trkpt>
      <trkpt lat="49.94796" lon="2.15852">
        <ele>14.5</ele>
        <time>2023-06-28T13:11:45Z</time>
      </trkpt>
      <trkpt lat="49.94797" lon="2.15853">
        <ele>14.5</ele>
        <time>2023-06-28T13:11:47Z</time>
      </trkpt>
      <trkpt lat="49.94797" lon="2.15853">
        <ele>14.5</ele>
        <time>2023-06-28T13:11:48Z</time>
      </trkpt>
      <trkpt lat="49.94798" lon="2.15855">
        <ele>14.5</ele>
        <time>2023-06-28T13:11:50Z</time>
      </trkpt>
      <trkpt lat="49.94798" lon="2.15855">
        <ele>14.5</ele>
        <time>2023-06-28T13:11:51Z</time>
      </trkpt>
      <trkpt lat="49.94798" lon="2.15856">
        <ele>14.5</ele>
        <time>2023-06-28T13:11:52Z</time>
      </trkpt>
      <trkpt lat="49.94798" lon="2.15856">
        <ele>14.5</ele>
        <time>2023-06-28T13:11:54Z</time>
      </trkpt>
      <trkpt lat="49.94799" lon="2.15857">
        <ele>14.5</ele>
        <time>2023-06-28T13:11:55Z</time>
      </trkpt>
      <trkpt lat="49.94798" lon="2.15857">
        <ele>14.5</ele>
        <time>2023-06-28T13:11:57Z</time>
      </trkpt>
      <trkpt lat="49.94798" lon="2.15857">
        <ele>14.5</ele>
        <time>2023-06-28T13:11:58Z</time>
      </trkpt>
      <trkpt lat="49.94798" lon="2.15857">
        <ele>14.5</ele>
        <time>2023-06-28T13:12:00Z</time>
      </trkpt>
      <trkpt lat="49.94798" lon="2.15857">
        <ele>14.5</ele>
        <time>2023-06-28T13:12:01Z</time>
      </trkpt>
      <trkpt lat="49.94798" lon="2.15857">
        <ele>14.5</ele>
        <time>2023-06-28T13:12:02Z</time>
      </trkpt>
      <trkpt lat="49.94798" lon="2.15857">
        <ele>14.5</ele>
        <time>2023-06-28T13:12:04Z</time>
      </trkpt>
      <trkpt lat="49.94798" lon="2.15857">
        <ele>14.5</ele>
        <time>2023-06-28T13:12:05Z</time>
      </trkpt>
      <trkpt lat="49.94796" lon="2.15858">
        <ele>14.5</ele>
        <time>2023-06-28T13:12:07Z</time>
      </trkpt>
      <trkpt lat="49.94794" lon="2.15858">
        <ele>14.5</ele>
        <time>2023-06-28T13:12:08Z</time>
      </trkpt>
      <trkpt lat="49.94794" lon="2.15859">
        <ele>14.5</ele>
        <time>2023-06-28T13:12:09Z</time>
      </trkpt>
      <trkpt lat="49.94793" lon="2.15859">
        <ele>14.5</ele>
        <time>2023-06-28T13:12:10Z</time>
      </trkpt>
      <trkpt lat="49.94793" lon="2.15859">
        <ele>14.5</ele>
        <time>2023-06-28T13:12:11Z</time>
      </trkpt>
      <trkpt lat="49.94793" lon="2.15859">
        <ele>14.5</ele>
        <time>2023-06-28T13:12:12Z</time>
      </trkpt>
      <trkpt lat="49.94793" lon="2.15859">
        <ele>14.5</ele>
        <time>2023-06-28T13:12:13Z</time>
      </trkpt>
      <trkpt lat="49.94793" lon="2.15859">
        <ele>14.5</ele>
        <time>2023-06-28T13:12:14Z</time>
      </trkpt>
      <trkpt lat="49.94793" lon="2.15859">
        <ele>14.5</ele>
        <time>2023-06-28T13:12:15Z</time>
      </trkpt>
      <trkpt lat="49.94793" lon="2.15859">
        <ele>14.5</ele>
        <time>2023-06-28T13:12:16Z</time>
      </trkpt>
      <trkpt lat="49.94793" lon="2.15859">
        <ele>14.5</ele>
        <time>2023-06-28T13:12:17Z</time>
      </trkpt>
      <trkpt lat="49.94793" lon="2.15859">
        <ele>14.5</ele>
        <time>2023-06-28T13:12:18Z</time>
      </trkpt>
      <trkpt lat="49.94793" lon="2.15859">
        <ele>14.5</ele>
        <time>2023-06-28T13:12:19Z</time>
      </trkpt>
      <trkpt lat="49.94793" lon="2.15859">
        <ele>14.5</ele>
        <time>2023-06-28T13:12:20Z</time>
      </trkpt>
      <trkpt lat="49.94793" lon="2.15859">
        <ele>14.5</ele>
        <time>2023-06-28T13:12:21Z</time>
      </trkpt>
      <trkpt lat="49.94793" lon="2.15859">
        <ele>14.5</ele>
        <time>2023-06-28T13:12:22Z</time>
      </trkpt>
      <trkpt lat="49.94793" lon="2.15859">
        <ele>14.5</ele>
        <time>2023-06-28T13:12:23Z</time>
      </trkpt>
      <trkpt lat="49.94793" lon="2.15859">
        <ele>14.5</ele>
        <time>2023-06-28T13:12:24Z</time>
      </trkpt>
      <trkpt lat="49.94793" lon="2.15859">
        <ele>14.5</ele>
        <time>2023-06-28T13:12:25Z</time>
      </trkpt>
      <trkpt lat="49.94793" lon="2.15859">
        <ele>14.5</ele>
        <time>2023-06-28T13:12:26Z</time>
      </trkpt>
      <trkpt lat="49.94793" lon="2.15859">
        <ele>14.5</ele>
        <time>2023-06-28T13:12:27Z</time>
      </trkpt>
      <trkpt lat="49.94793" lon="2.15859">
        <ele>14.5</ele>
        <time>2023-06-28T13:12:28Z</time>
      </trkpt>
      <trkpt lat="49.94793" lon="2.15858">
        <ele>14.5</ele>
        <time>2023-06-28T13:12:29Z</time>
      </trkpt>
      <trkpt lat="49.94792" lon="2.15857">
        <ele>14.5</ele>
        <time>2023-06-28T13:12:30Z</time>
      </trkpt>
      <trkpt lat="49.94792" lon="2.15855">
        <ele>14.5</ele>
        <time>2023-06-28T13:12:31Z</time>
      </trkpt>
      <trkpt lat="49.94792" lon="2.15855">
        <ele>14.5</ele>
        <time>2023-06-28T13:12:32Z</time>
      </trkpt>
      <trkpt lat="49.94792" lon="2.15854">
        <ele>14.5</ele>
        <time>2023-06-28T13:12:33Z</time>
      </trkpt>
      <trkpt lat="49.94791" lon="2.15852">
        <ele>14.5</ele>
        <time>2023-06-28T13:12:34Z</time>
      </trkpt>
      <trkpt lat="49.94791" lon="2.1585">
        <ele>14.5</ele>
        <time>2023-06-28T13:12:36Z</time>
      </trkpt>
      <trkpt lat="49.9479" lon="2.15848">
        <ele>14.5</ele>
        <time>2023-06-28T13:12:37Z</time>
      </trkpt>
      <trkpt lat="49.94789" lon="2.15846">
        <ele>14.5</ele>
        <time>2023-06-28T13:12:38Z</time>
      </trkpt>
      <trkpt lat="49.94789" lon="2.15844">
        <ele>14.5</ele>
        <time>2023-06-28T13:12:39Z</time>
      </trkpt>
      <trkpt lat="49.94787" lon="2.1584">
        <ele>14.5</ele>
        <time>2023-06-28T13:12:40Z</time>
      </trkpt>
      <trkpt lat="49.94786" lon="2.15839">
        <ele>14.5</ele>
        <time>2023-06-28T13:12:42Z</time>
      </trkpt>
      <trkpt lat="49.94786" lon="2.15838">
        <ele>14.5</ele>
        <time>2023-06-28T13:12:43Z</time>
      </trkpt>
      <trkpt lat="49.94785" lon="2.15837">
        <ele>14.5</ele>
        <time>2023-06-28T13:12:44Z</time>
      </trkpt>
      <trkpt lat="49.94784" lon="2.15835">
        <ele>14.5</ele>
        <time>2023-06-28T13:12:45Z</time>
      </trkpt>
      <trkpt lat="49.94783" lon="2.15834">
        <ele>14.5</ele>
        <time>2023-06-28T13:12:46Z</time>
      </trkpt>
      <trkpt lat="49.94783" lon="2.15833">
        <ele>14.5</ele>
        <time>2023-06-28T13:12:47Z</time>
      </trkpt>
      <trkpt lat="49.94781" lon="2.1583">
        <ele>14.4</ele>
        <time>2023-06-28T13:12:49Z</time>
      </trkpt>
      <trkpt lat="49.94781" lon="2.15828">
        <ele>14.4</ele>
        <time>2023-06-28T13:12:51Z</time>
      </trkpt>
      <trkpt lat="49.9478" lon="2.15827">
        <ele>14.4</ele>
        <time>2023-06-28T13:12:52Z</time>
      </trkpt>
      <trkpt lat="49.94779" lon="2.15824">
        <ele>14.4</ele>
        <time>2023-06-28T13:12:53Z</time>
      </trkpt>
      <trkpt lat="49.94778" lon="2.15823">
        <ele>14.4</ele>
        <time>2023-06-28T13:12:54Z</time>
      </trkpt>
      <trkpt lat="49.94777" lon="2.15821">
        <ele>14.4</ele>
        <time>2023-06-28T13:12:56Z</time>
      </trkpt>
      <trkpt lat="49.94777" lon="2.1582">
        <ele>14.4</ele>
        <time>2023-06-28T13:12:57Z</time>
      </trkpt>
      <trkpt lat="49.94776" lon="2.15819">
        <ele>14.3</ele>
        <time>2023-06-28T13:12:58Z</time>
      </trkpt>
      <trkpt lat="49.94775" lon="2.15817">
        <ele>14.3</ele>
        <time>2023-06-28T13:12:59Z</time>
      </trkpt>
      <trkpt lat="49.94774" lon="2.15815">
        <ele>14.3</ele>
        <time>2023-06-28T13:13:01Z</time>
      </trkpt>
      <trkpt lat="49.94773" lon="2.15814">
        <ele>14.3</ele>
        <time>2023-06-28T13:13:02Z</time>
      </trkpt>
      <trkpt lat="49.94772" lon="2.15811">
        <ele>14.3</ele>
        <time>2023-06-28T13:13:03Z</time>
      </trkpt>
      <trkpt lat="49.94772" lon="2.1581">
        <ele>14.3</ele>
        <time>2023-06-28T13:13:04Z</time>
      </trkpt>
      <trkpt lat="49.94771" lon="2.15809">
        <ele>14.2</ele>
        <time>2023-06-28T13:13:05Z</time>
      </trkpt>
      <trkpt lat="49.9477" lon="2.15806">
        <ele>14.2</ele>
        <time>2023-06-28T13:13:06Z</time>
      </trkpt>
      <trkpt lat="49.9477" lon="2.15804">
        <ele>14.2</ele>
        <time>2023-06-28T13:13:08Z</time>
      </trkpt>
      <trkpt lat="49.9477" lon="2.15803">
        <ele>14.2</ele>
        <time>2023-06-28T13:13:09Z</time>
      </trkpt>
      <trkpt lat="49.94769" lon="2.15801">
        <ele>14.2</ele>
        <time>2023-06-28T13:13:10Z</time>
      </trkpt>
      <trkpt lat="49.94769" lon="2.15799">
        <ele>14.1</ele>
        <time>2023-06-28T13:13:11Z</time>
      </trkpt>
      <trkpt lat="49.94769" lon="2.15798">
        <ele>14.1</ele>
        <time>2023-06-28T13:13:12Z</time>
      </trkpt>
      <trkpt lat="49.94768" lon="2.15797">
        <ele>14.1</ele>
        <time>2023-06-28T13:13:14Z</time>
      </trkpt>
      <trkpt lat="49.94768" lon="2.15795">
        <ele>14.1</ele>
        <time>2023-06-28T13:13:15Z</time>
      </trkpt>
      <trkpt lat="49.94768" lon="2.15794">
        <ele>14.1</ele>
        <time>2023-06-28T13:13:16Z</time>
      </trkpt>
      <trkpt lat="49.94767" lon="2.15793">
        <ele>14.1</ele>
        <time>2023-06-28T13:13:17Z</time>
      </trkpt>
      <trkpt lat="49.94767" lon="2.15792">
        <ele>14.1</ele>
        <time>2023-06-28T13:13:18Z</time>
      </trkpt>
      <trkpt lat="49.94767" lon="2.1579">
        <ele>14.1</ele>
        <time>2023-06-28T13:13:19Z</time>
      </trkpt>
      <trkpt lat="49.94767" lon="2.15788">
        <ele>14.1</ele>
        <time>2023-06-28T13:13:21Z</time>
      </trkpt>
      <trkpt lat="49.94766" lon="2.15787">
        <ele>14.1</ele>
        <time>2023-06-28T13:13:22Z</time>
      </trkpt>
      <trkpt lat="49.94766" lon="2.15785">
        <ele>14</ele>
        <time>2023-06-28T13:13:23Z</time>
      </trkpt>
      <trkpt lat="49.94766" lon="2.15783">
        <ele>14</ele>
        <time>2023-06-28T13:13:24Z</time>
      </trkpt>
      <trkpt lat="49.94765" lon="2.15782">
        <ele>14</ele>
        <time>2023-06-28T13:13:25Z</time>
      </trkpt>
      <trkpt lat="49.94765" lon="2.1578">
        <ele>14</ele>
        <time>2023-06-28T13:13:26Z</time>
      </trkpt>
      <trkpt lat="49.94764" lon="2.15779">
        <ele>14</ele>
        <time>2023-06-28T13:13:27Z</time>
      </trkpt>
      <trkpt lat="49.94763" lon="2.15777">
        <ele>14</ele>
        <time>2023-06-28T13:13:28Z</time>
      </trkpt>
      <trkpt lat="49.94763" lon="2.15775">
        <ele>14</ele>
        <time>2023-06-28T13:13:30Z</time>
      </trkpt>
      <trkpt lat="49.94763" lon="2.15774">
        <ele>14</ele>
        <time>2023-06-28T13:13:31Z</time>
      </trkpt>
      <trkpt lat="49.94763" lon="2.15772">
        <ele>14</ele>
        <time>2023-06-28T13:13:32Z</time>
      </trkpt>
      <trkpt lat="49.94762" lon="2.1577">
        <ele>14</ele>
        <time>2023-06-28T13:13:33Z</time>
      </trkpt>
      <trkpt lat="49.94762" lon="2.15768">
        <ele>14</ele>
        <time>2023-06-28T13:13:34Z</time>
      </trkpt>
      <trkpt lat="49.94762" lon="2.15765">
        <ele>14.1</ele>
        <time>2023-06-28T13:13:35Z</time>
      </trkpt>
      <trkpt lat="49.94762" lon="2.15763">
        <ele>14.1</ele>
        <time>2023-06-28T13:13:37Z</time>
      </trkpt>
      <trkpt lat="49.94762" lon="2.1576">
        <ele>14.1</ele>
        <time>2023-06-28T13:13:38Z</time>
      </trkpt>
      <trkpt lat="49.94762" lon="2.15757">
        <ele>14.1</ele>
        <time>2023-06-28T13:13:39Z</time>
      </trkpt>
      <trkpt lat="49.94762" lon="2.15755">
        <ele>14.1</ele>
        <time>2023-06-28T13:13:41Z</time>
      </trkpt>
      <trkpt lat="49.94762" lon="2.15754">
        <ele>14.1</ele>
        <time>2023-06-28T13:13:42Z</time>
      </trkpt>
      <trkpt lat="49.94762" lon="2.1575">
        <ele>14.2</ele>
        <time>2023-06-28T13:13:43Z</time>
      </trkpt>
      <trkpt lat="49.94762" lon="2.15749">
        <ele>14.2</ele>
        <time>2023-06-28T13:13:44Z</time>
      </trkpt>
      <trkpt lat="49.94763" lon="2.15748">
        <ele>14.2</ele>
        <time>2023-06-28T13:13:45Z</time>
      </trkpt>
      <trkpt lat="49.94763" lon="2.15746">
        <ele>14.2</ele>
        <time>2023-06-28T13:13:46Z</time>
      </trkpt>
      <trkpt lat="49.94764" lon="2.15744">
        <ele>14.2</ele>
        <time>2023-06-28T13:13:48Z</time>
      </trkpt>
      <trkpt lat="49.94764" lon="2.15742">
        <ele>14.3</ele>
        <time>2023-06-28T13:13:49Z</time>
      </trkpt>
      <trkpt lat="49.94765" lon="2.15739">
        <ele>14.3</ele>
        <time>2023-06-28T13:13:50Z</time>
      </trkpt>
      <trkpt lat="49.94765" lon="2.15737">
        <ele>14.3</ele>
        <time>2023-06-28T13:13:51Z</time>
      </trkpt>
      <trkpt lat="49.94765" lon="2.15734">
        <ele>14.3</ele>
        <time>2023-06-28T13:13:53Z</time>
      </trkpt>
      <trkpt lat="49.94766" lon="2.15732">
        <ele>14.3</ele>
        <time>2023-06-28T13:13:54Z</time>
      </trkpt>
      <trkpt lat="49.94766" lon="2.15731">
        <ele>14.4</ele>
        <time>2023-06-28T13:13:55Z</time>
      </trkpt>
      <trkpt lat="49.94767" lon="2.1573">
        <ele>14.4</ele>
        <time>2023-06-28T13:13:56Z</time>
      </trkpt>
      <trkpt lat="49.94767" lon="2.15728">
        <ele>14.4</ele>
        <time>2023-06-28T13:13:57Z</time>
      </trkpt>
      <trkpt lat="49.94768" lon="2.15727">
        <ele>14.4</ele>
        <time>2023-06-28T13:13:58Z</time>
      </trkpt>
      <trkpt lat="49.94768" lon="2.15725">
        <ele>14.4</ele>
        <time>2023-06-28T13:13:59Z</time>
      </trkpt>
      <trkpt lat="49.94769" lon="2.15723">
        <ele>14.4</ele>
        <time>2023-06-28T13:14:01Z</time>
      </trkpt>
      <trkpt lat="49.94769" lon="2.15722">
        <ele>14.3</ele>
        <time>2023-06-28T13:14:02Z</time>
      </trkpt>
      <trkpt lat="49.9477" lon="2.15719">
        <ele>14.3</ele>
        <time>2023-06-28T13:14:04Z</time>
      </trkpt>
      <trkpt lat="49.9477" lon="2.15718">
        <ele>14.3</ele>
        <time>2023-06-28T13:14:05Z</time>
      </trkpt>
      <trkpt lat="49.94771" lon="2.15716">
        <ele>14.3</ele>
        <time>2023-06-28T13:14:06Z</time>
      </trkpt>
      <trkpt lat="49.94772" lon="2.15715">
        <ele>14.3</ele>
        <time>2023-06-28T13:14:07Z</time>
      </trkpt>
      <trkpt lat="49.94772" lon="2.15713">
        <ele>14.3</ele>
        <time>2023-06-28T13:14:08Z</time>
      </trkpt>
      <trkpt lat="49.94773" lon="2.15712">
        <ele>14.2</ele>
        <time>2023-06-28T13:14:09Z</time>
      </trkpt>
      <trkpt lat="49.94773" lon="2.1571">
        <ele>14.2</ele>
        <time>2023-06-28T13:14:10Z</time>
      </trkpt>
      <trkpt lat="49.94774" lon="2.15708">
        <ele>14.2</ele>
        <time>2023-06-28T13:14:11Z</time>
      </trkpt>
      <trkpt lat="49.94775" lon="2.15706">
        <ele>14.1</ele>
        <time>2023-06-28T13:14:12Z</time>
      </trkpt>
      <trkpt lat="49.94775" lon="2.15704">
        <ele>14.1</ele>
        <time>2023-06-28T13:14:14Z</time>
      </trkpt>
      <trkpt lat="49.94776" lon="2.15702">
        <ele>14.1</ele>
        <time>2023-06-28T13:14:15Z</time>
      </trkpt>
      <trkpt lat="49.94777" lon="2.157">
        <ele>14</ele>
        <time>2023-06-28T13:14:16Z</time>
      </trkpt>
      <trkpt lat="49.94778" lon="2.15698">
        <ele>13.9</ele>
        <time>2023-06-28T13:14:17Z</time>
      </trkpt>
      <trkpt lat="49.94778" lon="2.15696">
        <ele>13.9</ele>
        <time>2023-06-28T13:14:18Z</time>
      </trkpt>
      <trkpt lat="49.94779" lon="2.15695">
        <ele>13.9</ele>
        <time>2023-06-28T13:14:19Z</time>
      </trkpt>
      <trkpt lat="49.94779" lon="2.15693">
        <ele>13.8</ele>
        <time>2023-06-28T13:14:20Z</time>
      </trkpt>
      <trkpt lat="49.9478" lon="2.1569">
        <ele>13.8</ele>
        <time>2023-06-28T13:14:22Z</time>
      </trkpt>
      <trkpt lat="49.9478" lon="2.15689">
        <ele>13.8</ele>
        <time>2023-06-28T13:14:23Z</time>
      </trkpt>
      <trkpt lat="49.94781" lon="2.15688">
        <ele>13.7</ele>
        <time>2023-06-28T13:14:24Z</time>
      </trkpt>
      <trkpt lat="49.94782" lon="2.15684">
        <ele>13.7</ele>
        <time>2023-06-28T13:14:26Z</time>
      </trkpt>
      <trkpt lat="49.94783" lon="2.15683">
        <ele>13.7</ele>
        <time>2023-06-28T13:14:27Z</time>
      </trkpt>
      <trkpt lat="49.94783" lon="2.15681">
        <ele>13.7</ele>
        <time>2023-06-28T13:14:28Z</time>
      </trkpt>
      <trkpt lat="49.94784" lon="2.15679">
        <ele>13.7</ele>
        <time>2023-06-28T13:14:29Z</time>
      </trkpt>
      <trkpt lat="49.94785" lon="2.15676">
        <ele>13.7</ele>
        <time>2023-06-28T13:14:31Z</time>
      </trkpt>
      <trkpt lat="49.94786" lon="2.15675">
        <ele>13.7</ele>
        <time>2023-06-28T13:14:32Z</time>
      </trkpt>
      <trkpt lat="49.94786" lon="2.15674">
        <ele>13.7</ele>
        <time>2023-06-28T13:14:33Z</time>
      </trkpt>
      <trkpt lat="49.94786" lon="2.15673">
        <ele>13.7</ele>
        <time>2023-06-28T13:14:34Z</time>
      </trkpt>
      <trkpt lat="49.94787" lon="2.15671">
        <ele>13.7</ele>
        <time>2023-06-28T13:14:35Z</time>
      </trkpt>
      <trkpt lat="49.94787" lon="2.15669">
        <ele>13.7</ele>
        <time>2023-06-28T13:14:36Z</time>
      </trkpt>
      <trkpt lat="49.94788" lon="2.15667">
        <ele>13.7</ele>
        <time>2023-06-28T13:14:37Z</time>
      </trkpt>
      <trkpt lat="49.94788" lon="2.15666">
        <ele>13.7</ele>
        <time>2023-06-28T13:14:39Z</time>
      </trkpt>
      <trkpt lat="49.94789" lon="2.15665">
        <ele>13.7</ele>
        <time>2023-06-28T13:14:40Z</time>
      </trkpt>
      <trkpt lat="49.94789" lon="2.15663">
        <ele>13.7</ele>
        <time>2023-06-28T13:14:41Z</time>
      </trkpt>
      <trkpt lat="49.94789" lon="2.15662">
        <ele>13.7</ele>
        <time>2023-06-28T13:14:42Z</time>
      </trkpt>
      <trkpt lat="49.94789" lon="2.1566">
        <ele>13.7</ele>
        <time>2023-06-28T13:14:43Z</time>
      </trkpt>
      <trkpt lat="49.9479" lon="2.15657">
        <ele>13.7</ele>
        <time>2023-06-28T13:14:44Z</time>
      </trkpt>
      <trkpt lat="49.94791" lon="2.15656">
        <ele>13.7</ele>
        <time>2023-06-28T13:14:46Z</time>
      </trkpt>
      <trkpt lat="49.94791" lon="2.15654">
        <ele>13.7</ele>
        <time>2023-06-28T13:14:47Z</time>
      </trkpt>
      <trkpt lat="49.94791" lon="2.15653">
        <ele>13.7</ele>
        <time>2023-06-28T13:14:48Z</time>
      </trkpt>
      <trkpt lat="49.94792" lon="2.15651">
        <ele>13.7</ele>
        <time>2023-06-28T13:14:49Z</time>
      </trkpt>
      <trkpt lat="49.94792" lon="2.1565">
        <ele>13.7</ele>
        <time>2023-06-28T13:14:50Z</time>
      </trkpt>
      <trkpt lat="49.94793" lon="2.15647">
        <ele>13.7</ele>
        <time>2023-06-28T13:14:51Z</time>
      </trkpt>
      <trkpt lat="49.94794" lon="2.15646">
        <ele>13.7</ele>
        <time>2023-06-28T13:14:53Z</time>
      </trkpt>
      <trkpt lat="49.94794" lon="2.15645">
        <ele>13.7</ele>
        <time>2023-06-28T13:14:54Z</time>
      </trkpt>
      <trkpt lat="49.94794" lon="2.15643">
        <ele>13.7</ele>
        <time>2023-06-28T13:14:55Z</time>
      </trkpt>
      <trkpt lat="49.94795" lon="2.15641">
        <ele>13.7</ele>
        <time>2023-06-28T13:14:56Z</time>
      </trkpt>
      <trkpt lat="49.94796" lon="2.15638">
        <ele>13.7</ele>
        <time>2023-06-28T13:14:58Z</time>
      </trkpt>
      <trkpt lat="49.94796" lon="2.15636">
        <ele>13.7</ele>
        <time>2023-06-28T13:14:59Z</time>
      </trkpt>
      <trkpt lat="49.94797" lon="2.15633">
        <ele>13.7</ele>
        <time>2023-06-28T13:15:01Z</time>
      </trkpt>
      <trkpt lat="49.94797" lon="2.15631">
        <ele>13.7</ele>
        <time>2023-06-28T13:15:02Z</time>
      </trkpt>
      <trkpt lat="49.94798" lon="2.15629">
        <ele>13.6</ele>
        <time>2023-06-28T13:15:03Z</time>
      </trkpt>
      <trkpt lat="49.94798" lon="2.15626">
        <ele>13.6</ele>
        <time>2023-06-28T13:15:04Z</time>
      </trkpt>
      <trkpt lat="49.94798" lon="2.15624">
        <ele>13.6</ele>
        <time>2023-06-28T13:15:05Z</time>
      </trkpt>
      <trkpt lat="49.94799" lon="2.15622">
        <ele>13.6</ele>
        <time>2023-06-28T13:15:06Z</time>
      </trkpt>
      <trkpt lat="49.94799" lon="2.15621">
        <ele>13.6</ele>
        <time>2023-06-28T13:15:07Z</time>
      </trkpt>
      <trkpt lat="49.948" lon="2.15618">
        <ele>13.6</ele>
        <time>2023-06-28T13:15:09Z</time>
      </trkpt>
      <trkpt lat="49.948" lon="2.15616">
        <ele>13.6</ele>
        <time>2023-06-28T13:15:10Z</time>
      </trkpt>
      <trkpt lat="49.94801" lon="2.15613">
        <ele>13.6</ele>
        <time>2023-06-28T13:15:12Z</time>
      </trkpt>
      <trkpt lat="49.94802" lon="2.15611">
        <ele>13.6</ele>
        <time>2023-06-28T13:15:13Z</time>
      </trkpt>
      <trkpt lat="49.94802" lon="2.15609">
        <ele>13.6</ele>
        <time>2023-06-28T13:15:14Z</time>
      </trkpt>
      <trkpt lat="49.94803" lon="2.15607">
        <ele>13.6</ele>
        <time>2023-06-28T13:15:15Z</time>
      </trkpt>
      <trkpt lat="49.94803" lon="2.15604">
        <ele>13.5</ele>
        <time>2023-06-28T13:15:16Z</time>
      </trkpt>
      <trkpt lat="49.94804" lon="2.15602">
        <ele>13.5</ele>
        <time>2023-06-28T13:15:17Z</time>
      </trkpt>
      <trkpt lat="49.94804" lon="2.156">
        <ele>13.5</ele>
        <time>2023-06-28T13:15:19Z</time>
      </trkpt>
      <trkpt lat="49.94805" lon="2.15597">
        <ele>13.5</ele>
        <time>2023-06-28T13:15:20Z</time>
      </trkpt>
      <trkpt lat="49.94805" lon="2.15595">
        <ele>13.5</ele>
        <time>2023-06-28T13:15:21Z</time>
      </trkpt>
      <trkpt lat="49.94805" lon="2.15594">
        <ele>13.5</ele>
        <time>2023-06-28T13:15:22Z</time>
      </trkpt>
      <trkpt lat="49.94805" lon="2.15592">
        <ele>13.5</ele>
        <time>2023-06-28T13:15:23Z</time>
      </trkpt>
      <trkpt lat="49.94806" lon="2.1559">
        <ele>13.5</ele>
        <time>2023-06-28T13:15:24Z</time>
      </trkpt>
      <trkpt lat="49.94806" lon="2.15589">
        <ele>13.5</ele>
        <time>2023-06-28T13:15:25Z</time>
      </trkpt>
      <trkpt lat="49.94807" lon="2.15586">
        <ele>13.5</ele>
        <time>2023-06-28T13:15:27Z</time>
      </trkpt>
      <trkpt lat="49.94807" lon="2.15583">
        <ele>13.5</ele>
        <time>2023-06-28T13:15:28Z</time>
      </trkpt>
      <trkpt lat="49.94807" lon="2.15582">
        <ele>13.5</ele>
        <time>2023-06-28T13:15:29Z</time>
      </trkpt>
      <trkpt lat="49.94807" lon="2.1558">
        <ele>13.5</ele>
        <time>2023-06-28T13:15:31Z</time>
      </trkpt>
      <trkpt lat="49.94807" lon="2.15578">
        <ele>13.5</ele>
        <time>2023-06-28T13:15:32Z</time>
      </trkpt>
      <trkpt lat="49.94807" lon="2.15575">
        <ele>13.5</ele>
        <time>2023-06-28T13:15:33Z</time>
      </trkpt>
      <trkpt lat="49.94808" lon="2.15572">
        <ele>13.5</ele>
        <time>2023-06-28T13:15:34Z</time>
      </trkpt>
      <trkpt lat="49.94808" lon="2.1557">
        <ele>13.5</ele>
        <time>2023-06-28T13:15:35Z</time>
      </trkpt>
      <trkpt lat="49.94808" lon="2.15567">
        <ele>13.5</ele>
        <time>2023-06-28T13:15:37Z</time>
      </trkpt>
      <trkpt lat="49.94808" lon="2.15565">
        <ele>13.5</ele>
        <time>2023-06-28T13:15:38Z</time>
      </trkpt>
      <trkpt lat="49.94809" lon="2.15563">
        <ele>13.5</ele>
        <time>2023-06-28T13:15:39Z</time>
      </trkpt>
      <trkpt lat="49.94809" lon="2.15561">
        <ele>13.5</ele>
        <time>2023-06-28T13:15:40Z</time>
      </trkpt>
      <trkpt lat="49.94809" lon="2.15559">
        <ele>13.5</ele>
        <time>2023-06-28T13:15:41Z</time>
      </trkpt>
      <trkpt lat="49.94809" lon="2.15557">
        <ele>13.5</ele>
        <time>2023-06-28T13:15:42Z</time>
      </trkpt>
      <trkpt lat="49.94809" lon="2.15555">
        <ele>13.4</ele>
        <time>2023-06-28T13:15:43Z</time>
      </trkpt>
      <trkpt lat="49.94809" lon="2.15553">
        <ele>13.4</ele>
        <time>2023-06-28T13:15:44Z</time>
      </trkpt>
      <trkpt lat="49.94809" lon="2.15552">
        <ele>13.4</ele>
        <time>2023-06-28T13:15:45Z</time>
      </trkpt>
      <trkpt lat="49.94809" lon="2.1555">
        <ele>13.4</ele>
        <time>2023-06-28T13:15:47Z</time>
      </trkpt>
      <trkpt lat="49.94809" lon="2.15548">
        <ele>13.4</ele>
        <time>2023-06-28T13:15:48Z</time>
      </trkpt>
      <trkpt lat="49.94809" lon="2.15547">
        <ele>13.4</ele>
        <time>2023-06-28T13:15:49Z</time>
      </trkpt>
      <trkpt lat="49.94808" lon="2.15544">
        <ele>13.4</ele>
        <time>2023-06-28T13:15:50Z</time>
      </trkpt>
      <trkpt lat="49.94808" lon="2.15542">
        <ele>13.4</ele>
        <time>2023-06-28T13:15:51Z</time>
      </trkpt>
      <trkpt lat="49.94808" lon="2.15541">
        <ele>13.4</ele>
        <time>2023-06-28T13:15:52Z</time>
      </trkpt>
      <trkpt lat="49.94807" lon="2.15539">
        <ele>13.4</ele>
        <time>2023-06-28T13:15:54Z</time>
      </trkpt>
      <trkpt lat="49.94807" lon="2.15538">
        <ele>13.4</ele>
        <time>2023-06-28T13:15:55Z</time>
      </trkpt>
      <trkpt lat="49.94806" lon="2.15537">
        <ele>13.4</ele>
        <time>2023-06-28T13:15:56Z</time>
      </trkpt>
      <trkpt lat="49.94806" lon="2.15535">
        <ele>13.4</ele>
        <time>2023-06-28T13:15:57Z</time>
      </trkpt>
      <trkpt lat="49.94805" lon="2.15533">
        <ele>13.4</ele>
        <time>2023-06-28T13:15:58Z</time>
      </trkpt>
      <trkpt lat="49.94805" lon="2.15532">
        <ele>13.4</ele>
        <time>2023-06-28T13:15:59Z</time>
      </trkpt>
      <trkpt lat="49.94804" lon="2.1553">
        <ele>13.4</ele>
        <time>2023-06-28T13:16:01Z</time>
      </trkpt>
      <trkpt lat="49.94803" lon="2.15528">
        <ele>13.4</ele>
        <time>2023-06-28T13:16:02Z</time>
      </trkpt>
      <trkpt lat="49.94803" lon="2.15526">
        <ele>13.4</ele>
        <time>2023-06-28T13:16:03Z</time>
      </trkpt>
      <trkpt lat="49.94802" lon="2.15525">
        <ele>13.4</ele>
        <time>2023-06-28T13:16:04Z</time>
      </trkpt>
      <trkpt lat="49.94802" lon="2.15523">
        <ele>13.4</ele>
        <time>2023-06-28T13:16:05Z</time>
      </trkpt>
      <trkpt lat="49.94801" lon="2.15521">
        <ele>13.4</ele>
        <time>2023-06-28T13:16:06Z</time>
      </trkpt>
      <trkpt lat="49.948" lon="2.15518">
        <ele>13.4</ele>
        <time>2023-06-28T13:16:08Z</time>
      </trkpt>
      <trkpt lat="49.94799" lon="2.15516">
        <ele>13.4</ele>
        <time>2023-06-28T13:16:09Z</time>
      </trkpt>
      <trkpt lat="49.94798" lon="2.15514">
        <ele>13.4</ele>
        <time>2023-06-28T13:16:10Z</time>
      </trkpt>
      <trkpt lat="49.94798" lon="2.15511">
        <ele>13.4</ele>
        <time>2023-06-28T13:16:11Z</time>
      </trkpt>
      <trkpt lat="49.94797" lon="2.15509">
        <ele>13.4</ele>
        <time>2023-06-28T13:16:12Z</time>
      </trkpt>
      <trkpt lat="49.94795" lon="2.15506">
        <ele>13.4</ele>
        <time>2023-06-28T13:16:14Z</time>
      </trkpt>
      <trkpt lat="49.94794" lon="2.15505">
        <ele>13.4</ele>
        <time>2023-06-28T13:16:15Z</time>
      </trkpt>
      <trkpt lat="49.94793" lon="2.15504">
        <ele>13.4</ele>
        <time>2023-06-28T13:16:16Z</time>
      </trkpt>
      <trkpt lat="49.94792" lon="2.15503">
        <ele>13.4</ele>
        <time>2023-06-28T13:16:17Z</time>
      </trkpt>
      <trkpt lat="49.94792" lon="2.15503">
        <ele>13.4</ele>
        <time>2023-06-28T13:16:18Z</time>
      </trkpt>
      <trkpt lat="49.94791" lon="2.15502">
        <ele>13.4</ele>
        <time>2023-06-28T13:16:20Z</time>
      </trkpt>
      <trkpt lat="49.94791" lon="2.15501">
        <ele>13.4</ele>
        <time>2023-06-28T13:16:21Z</time>
      </trkpt>
      <trkpt lat="49.9479" lon="2.155">
        <ele>13.4</ele>
        <time>2023-06-28T13:16:22Z</time>
      </trkpt>
      <trkpt lat="49.94789" lon="2.15499">
        <ele>13.4</ele>
        <time>2023-06-28T13:16:23Z</time>
      </trkpt>
      <trkpt lat="49.94788" lon="2.15498">
        <ele>13.4</ele>
        <time>2023-06-28T13:16:24Z</time>
      </trkpt>
      <trkpt lat="49.94787" lon="2.15497">
        <ele>13.4</ele>
        <time>2023-06-28T13:16:25Z</time>
      </trkpt>
      <trkpt lat="49.94786" lon="2.15496">
        <ele>13.4</ele>
        <time>2023-06-28T13:16:26Z</time>
      </trkpt>
      <trkpt lat="49.94785" lon="2.15495">
        <ele>13.4</ele>
        <time>2023-06-28T13:16:28Z</time>
      </trkpt>
      <trkpt lat="49.94785" lon="2.15494">
        <ele>13.4</ele>
        <time>2023-06-28T13:16:29Z</time>
      </trkpt>
      <trkpt lat="49.94784" lon="2.15494">
        <ele>13.4</ele>
        <time>2023-06-28T13:16:30Z</time>
      </trkpt>
      <trkpt lat="49.94783" lon="2.15493">
        <ele>13.4</ele>
        <time>2023-06-28T13:16:31Z</time>
      </trkpt>
      <trkpt lat="49.94782" lon="2.15493">
        <ele>13.4</ele>
        <time>2023-06-28T13:16:32Z</time>
      </trkpt>
      <trkpt lat="49.94781" lon="2.15492">
        <ele>13.4</ele>
        <time>2023-06-28T13:16:33Z</time>
      </trkpt>
      <trkpt lat="49.9478" lon="2.15491">
        <ele>13.4</ele>
        <time>2023-06-28T13:16:34Z</time>
      </trkpt>
      <trkpt lat="49.94779" lon="2.15489">
        <ele>13.4</ele>
        <time>2023-06-28T13:16:36Z</time>
      </trkpt>
      <trkpt lat="49.94779" lon="2.15488">
        <ele>13.4</ele>
        <time>2023-06-28T13:16:37Z</time>
      </trkpt>
      <trkpt lat="49.94777" lon="2.15486">
        <ele>13.4</ele>
        <time>2023-06-28T13:16:38Z</time>
      </trkpt>
      <trkpt lat="49.94777" lon="2.15485">
        <ele>13.4</ele>
        <time>2023-06-28T13:16:39Z</time>
      </trkpt>
      <trkpt lat="49.94776" lon="2.15484">
        <ele>13.4</ele>
        <time>2023-06-28T13:16:40Z</time>
      </trkpt>
      <trkpt lat="49.94775" lon="2.15483">
        <ele>13.4</ele>
        <time>2023-06-28T13:16:42Z</time>
      </trkpt>
      <trkpt lat="49.94774" lon="2.15482">
        <ele>13.4</ele>
        <time>2023-06-28T13:16:43Z</time>
      </trkpt>
      <trkpt lat="49.94773" lon="2.1548">
        <ele>13.4</ele>
        <time>2023-06-28T13:16:44Z</time>
      </trkpt>
      <trkpt lat="49.94772" lon="2.15479">
        <ele>13.4</ele>
        <time>2023-06-28T13:16:45Z</time>
      </trkpt>
      <trkpt lat="49.94771" lon="2.15478">
        <ele>13.4</ele>
        <time>2023-06-28T13:16:46Z</time>
      </trkpt>
      <trkpt lat="49.9477" lon="2.15477">
        <ele>13.4</ele>
        <time>2023-06-28T13:16:47Z</time>
      </trkpt>
      <trkpt lat="49.94769" lon="2.15476">
        <ele>13.3</ele>
        <time>2023-06-28T13:16:48Z</time>
      </trkpt>
      <trkpt lat="49.94768" lon="2.15475">
        <ele>13.3</ele>
        <time>2023-06-28T13:16:50Z</time>
      </trkpt>
      <trkpt lat="49.94767" lon="2.15474">
        <ele>13.3</ele>
        <time>2023-06-28T13:16:51Z</time>
      </trkpt>
      <trkpt lat="49.94766" lon="2.15474">
        <ele>13.3</ele>
        <time>2023-06-28T13:16:52Z</time>
      </trkpt>
      <trkpt lat="49.94765" lon="2.15473">
        <ele>13.3</ele>
        <time>2023-06-28T13:16:53Z</time>
      </trkpt>
      <trkpt lat="49.94763" lon="2.15471">
        <ele>13.3</ele>
        <time>2023-06-28T13:16:55Z</time>
      </trkpt>
      <trkpt lat="49.94761" lon="2.15471">
        <ele>13.3</ele>
        <time>2023-06-28T13:16:56Z</time>
      </trkpt>
      <trkpt lat="49.9476" lon="2.1547">
        <ele>13.3</ele>
        <time>2023-06-28T13:16:57Z</time>
      </trkpt>
      <trkpt lat="49.94759" lon="2.15469">
        <ele>13.3</ele>
        <time>2023-06-28T13:16:58Z</time>
      </trkpt>
      <trkpt lat="49.94757" lon="2.15468">
        <ele>13.3</ele>
        <time>2023-06-28T13:16:59Z</time>
      </trkpt>
      <trkpt lat="49.94756" lon="2.15468">
        <ele>13.3</ele>
        <time>2023-06-28T13:17:00Z</time>
      </trkpt>
      <trkpt lat="49.94755" lon="2.15467">
        <ele>13.3</ele>
        <time>2023-06-28T13:17:02Z</time>
      </trkpt>
      <trkpt lat="49.94754" lon="2.15467">
        <ele>13.3</ele>
        <time>2023-06-28T13:17:03Z</time>
      </trkpt>
      <trkpt lat="49.94753" lon="2.15467">
        <ele>13.3</ele>
        <time>2023-06-28T13:17:04Z</time>
      </trkpt>
      <trkpt lat="49.94752" lon="2.15466">
        <ele>13.2</ele>
        <time>2023-06-28T13:17:05Z</time>
      </trkpt>
      <trkpt lat="49.94751" lon="2.15465">
        <ele>13.2</ele>
        <time>2023-06-28T13:17:07Z</time>
      </trkpt>
      <trkpt lat="49.9475" lon="2.15465">
        <ele>13.2</ele>
        <time>2023-06-28T13:17:08Z</time>
      </trkpt>
      <trkpt lat="49.94749" lon="2.15463">
        <ele>13.2</ele>
        <time>2023-06-28T13:17:09Z</time>
      </trkpt>
      <trkpt lat="49.94747" lon="2.15462">
        <ele>13.2</ele>
        <time>2023-06-28T13:17:10Z</time>
      </trkpt>
      <trkpt lat="49.94746" lon="2.15461">
        <ele>13.2</ele>
        <time>2023-06-28T13:17:11Z</time>
      </trkpt>
      <trkpt lat="49.94744" lon="2.15459">
        <ele>13.2</ele>
        <time>2023-06-28T13:17:12Z</time>
      </trkpt>
      <trkpt lat="49.94744" lon="2.15459">
        <ele>13.2</ele>
        <time>2023-06-28T13:17:13Z</time>
      </trkpt>
      <trkpt lat="49.94743" lon="2.15458">
        <ele>13.2</ele>
        <time>2023-06-28T13:17:14Z</time>
      </trkpt>
      <trkpt lat="49.94742" lon="2.15457">
        <ele>13.2</ele>
        <time>2023-06-28T13:17:15Z</time>
      </trkpt>
      <trkpt lat="49.94741" lon="2.15456">
        <ele>13.3</ele>
        <time>2023-06-28T13:17:17Z</time>
      </trkpt>
      <trkpt lat="49.9474" lon="2.15455">
        <ele>13.3</ele>
        <time>2023-06-28T13:17:18Z</time>
      </trkpt>
      <trkpt lat="49.94739" lon="2.15454">
        <ele>13.3</ele>
        <time>2023-06-28T13:17:19Z</time>
      </trkpt>
      <trkpt lat="49.94738" lon="2.15453">
        <ele>13.3</ele>
        <time>2023-06-28T13:17:20Z</time>
      </trkpt>
      <trkpt lat="49.94736" lon="2.15451">
        <ele>13.3</ele>
        <time>2023-06-28T13:17:21Z</time>
      </trkpt>
      <trkpt lat="49.94735" lon="2.1545">
        <ele>13.3</ele>
        <time>2023-06-28T13:17:22Z</time>
      </trkpt>
      <trkpt lat="49.94735" lon="2.15449">
        <ele>13.3</ele>
        <time>2023-06-28T13:17:23Z</time>
      </trkpt>
      <trkpt lat="49.94733" lon="2.15447">
        <ele>13.3</ele>
        <time>2023-06-28T13:17:25Z</time>
      </trkpt>
      <trkpt lat="49.94732" lon="2.15447">
        <ele>13.3</ele>
        <time>2023-06-28T13:17:26Z</time>
      </trkpt>
      <trkpt lat="49.94732" lon="2.15446">
        <ele>13.3</ele>
        <time>2023-06-28T13:17:27Z</time>
      </trkpt>
      <trkpt lat="49.94731" lon="2.15445">
        <ele>13.3</ele>
        <time>2023-06-28T13:17:28Z</time>
      </trkpt>
      <trkpt lat="49.94729" lon="2.15444">
        <ele>13.3</ele>
        <time>2023-06-28T13:17:30Z</time>
      </trkpt>
      <trkpt lat="49.94728" lon="2.15443">
        <ele>13.3</ele>
        <time>2023-06-28T13:17:31Z</time>
      </trkpt>
      <trkpt lat="49.94727" lon="2.15442">
        <ele>13.3</ele>
        <time>2023-06-28T13:17:32Z</time>
      </trkpt>
      <trkpt lat="49.94726" lon="2.15442">
        <ele>13.3</ele>
        <time>2023-06-28T13:17:33Z</time>
      </trkpt>
      <trkpt lat="49.94725" lon="2.15441">
        <ele>13.3</ele>
        <time>2023-06-28T13:17:34Z</time>
      </trkpt>
      <trkpt lat="49.94724" lon="2.15441">
        <ele>13.3</ele>
        <time>2023-06-28T13:17:35Z</time>
      </trkpt>
      <trkpt lat="49.94723" lon="2.15442">
        <ele>13.3</ele>
        <time>2023-06-28T13:17:36Z</time>
      </trkpt>
      <trkpt lat="49.94721" lon="2.15442">
        <ele>13.3</ele>
        <time>2023-06-28T13:17:38Z</time>
      </trkpt>
      <trkpt lat="49.9472" lon="2.15442">
        <ele>13.3</ele>
        <time>2023-06-28T13:17:39Z</time>
      </trkpt>
      <trkpt lat="49.94719" lon="2.15441">
        <ele>13.3</ele>
        <time>2023-06-28T13:17:40Z</time>
      </trkpt>
      <trkpt lat="49.94718" lon="2.15441">
        <ele>13.3</ele>
        <time>2023-06-28T13:17:41Z</time>
      </trkpt>
      <trkpt lat="49.94717" lon="2.1544">
        <ele>13.3</ele>
        <time>2023-06-28T13:17:42Z</time>
      </trkpt>
      <trkpt lat="49.94715" lon="2.15439">
        <ele>13.3</ele>
        <time>2023-06-28T13:17:43Z</time>
      </trkpt>
      <trkpt lat="49.94714" lon="2.15438">
        <ele>13.3</ele>
        <time>2023-06-28T13:17:44Z</time>
      </trkpt>
      <trkpt lat="49.94713" lon="2.15436">
        <ele>13.3</ele>
        <time>2023-06-28T13:17:45Z</time>
      </trkpt>
      <trkpt lat="49.94712" lon="2.15435">
        <ele>13.3</ele>
        <time>2023-06-28T13:17:46Z</time>
      </trkpt>
      <trkpt lat="49.94711" lon="2.15435">
        <ele>13.3</ele>
        <time>2023-06-28T13:17:47Z</time>
      </trkpt>
      <trkpt lat="49.9471" lon="2.15433">
        <ele>13.3</ele>
        <time>2023-06-28T13:17:49Z</time>
      </trkpt>
      <trkpt lat="49.9471" lon="2.15433">
        <ele>13.3</ele>
        <time>2023-06-28T13:17:50Z</time>
      </trkpt>
      <trkpt lat="49.94709" lon="2.15432">
        <ele>13.3</ele>
        <time>2023-06-28T13:17:51Z</time>
      </trkpt>
      <trkpt lat="49.94708" lon="2.15431">
        <ele>13.3</ele>
        <time>2023-06-28T13:17:52Z</time>
      </trkpt>
      <trkpt lat="49.94707" lon="2.1543">
        <ele>13.3</ele>
        <time>2023-06-28T13:17:53Z</time>
      </trkpt>
      <trkpt lat="49.94706" lon="2.15429">
        <ele>13.3</ele>
        <time>2023-06-28T13:17:54Z</time>
      </trkpt>
      <trkpt lat="49.94705" lon="2.15429">
        <ele>13.3</ele>
        <time>2023-06-28T13:17:55Z</time>
      </trkpt>
      <trkpt lat="49.94704" lon="2.15428">
        <ele>13.3</ele>
        <time>2023-06-28T13:17:56Z</time>
      </trkpt>
      <trkpt lat="49.94702" lon="2.15426">
        <ele>13.3</ele>
        <time>2023-06-28T13:17:57Z</time>
      </trkpt>
      <trkpt lat="49.94701" lon="2.15425">
        <ele>13.3</ele>
        <time>2023-06-28T13:17:58Z</time>
      </trkpt>
      <trkpt lat="49.94698" lon="2.15424">
        <ele>13.3</ele>
        <time>2023-06-28T13:18:00Z</time>
      </trkpt>
      <trkpt lat="49.94697" lon="2.15423">
        <ele>13.3</ele>
        <time>2023-06-28T13:18:01Z</time>
      </trkpt>
      <trkpt lat="49.94696" lon="2.15422">
        <ele>13.3</ele>
        <time>2023-06-28T13:18:02Z</time>
      </trkpt>
      <trkpt lat="49.94694" lon="2.15421">
        <ele>13.3</ele>
        <time>2023-06-28T13:18:03Z</time>
      </trkpt>
      <trkpt lat="49.94693" lon="2.1542">
        <ele>13.3</ele>
        <time>2023-06-28T13:18:04Z</time>
      </trkpt>
      <trkpt lat="49.94691" lon="2.15419">
        <ele>13.3</ele>
        <time>2023-06-28T13:18:05Z</time>
      </trkpt>
      <trkpt lat="49.94689" lon="2.15418">
        <ele>13.3</ele>
        <time>2023-06-28T13:18:06Z</time>
      </trkpt>
      <trkpt lat="49.94688" lon="2.15417">
        <ele>13.3</ele>
        <time>2023-06-28T13:18:08Z</time>
      </trkpt>
      <trkpt lat="49.94687" lon="2.15416">
        <ele>13.3</ele>
        <time>2023-06-28T13:18:09Z</time>
      </trkpt>
      <trkpt lat="49.94686" lon="2.15415">
        <ele>13.3</ele>
        <time>2023-06-28T13:18:10Z</time>
      </trkpt>
      <trkpt lat="49.94684" lon="2.15414">
        <ele>13.3</ele>
        <time>2023-06-28T13:18:11Z</time>
      </trkpt>
      <trkpt lat="49.94683" lon="2.15413">
        <ele>13.3</ele>
        <time>2023-06-28T13:18:12Z</time>
      </trkpt>
      <trkpt lat="49.94682" lon="2.15412">
        <ele>13.3</ele>
        <time>2023-06-28T13:18:14Z</time>
      </trkpt>
      <trkpt lat="49.9468" lon="2.1541">
        <ele>13.3</ele>
        <time>2023-06-28T13:18:15Z</time>
      </trkpt>
      <trkpt lat="49.94679" lon="2.1541">
        <ele>13.3</ele>
        <time>2023-06-28T13:18:16Z</time>
      </trkpt>
      <trkpt lat="49.94678" lon="2.15408">
        <ele>13.3</ele>
        <time>2023-06-28T13:18:18Z</time>
      </trkpt>
      <trkpt lat="49.94677" lon="2.15407">
        <ele>13.3</ele>
        <time>2023-06-28T13:18:19Z</time>
      </trkpt>
      <trkpt lat="49.94677" lon="2.15407">
        <ele>13.3</ele>
        <time>2023-06-28T13:18:20Z</time>
      </trkpt>
      <trkpt lat="49.94676" lon="2.15406">
        <ele>13.3</ele>
        <time>2023-06-28T13:18:21Z</time>
      </trkpt>
      <trkpt lat="49.94676" lon="2.15405">
        <ele>13.3</ele>
        <time>2023-06-28T13:18:22Z</time>
      </trkpt>
      <trkpt lat="49.94675" lon="2.15404">
        <ele>13.3</ele>
        <time>2023-06-28T13:18:23Z</time>
      </trkpt>
      <trkpt lat="49.94674" lon="2.15402">
        <ele>13.2</ele>
        <time>2023-06-28T13:18:25Z</time>
      </trkpt>
      <trkpt lat="49.94673" lon="2.15401">
        <ele>13.2</ele>
        <time>2023-06-28T13:18:26Z</time>
      </trkpt>
      <trkpt lat="49.94673" lon="2.15401">
        <ele>13.2</ele>
        <time>2023-06-28T13:18:27Z</time>
      </trkpt>
      <trkpt lat="49.94672" lon="2.15399">
        <ele>13.2</ele>
        <time>2023-06-28T13:18:28Z</time>
      </trkpt>
      <trkpt lat="49.94671" lon="2.15398">
        <ele>13.2</ele>
        <time>2023-06-28T13:18:29Z</time>
      </trkpt>
      <trkpt lat="49.94669" lon="2.15396">
        <ele>13.2</ele>
        <time>2023-06-28T13:18:30Z</time>
      </trkpt>
      <trkpt lat="49.94668" lon="2.15393">
        <ele>13.2</ele>
        <time>2023-06-28T13:18:31Z</time>
      </trkpt>
      <trkpt lat="49.94667" lon="2.15392">
        <ele>13.2</ele>
        <time>2023-06-28T13:18:33Z</time>
      </trkpt>
      <trkpt lat="49.94667" lon="2.1539">
        <ele>13.2</ele>
        <time>2023-06-28T13:18:34Z</time>
      </trkpt>
      <trkpt lat="49.94665" lon="2.15389">
        <ele>13.2</ele>
        <time>2023-06-28T13:18:36Z</time>
      </trkpt>
      <trkpt lat="49.94665" lon="2.15388">
        <ele>13.2</ele>
        <time>2023-06-28T13:18:37Z</time>
      </trkpt>
      <trkpt lat="49.94664" lon="2.15387">
        <ele>13.2</ele>
        <time>2023-06-28T13:18:38Z</time>
      </trkpt>
      <trkpt lat="49.94663" lon="2.15385">
        <ele>13.2</ele>
        <time>2023-06-28T13:18:39Z</time>
      </trkpt>
      <trkpt lat="49.94662" lon="2.15383">
        <ele>13.2</ele>
        <time>2023-06-28T13:18:40Z</time>
      </trkpt>
      <trkpt lat="49.94661" lon="2.15381">
        <ele>13.2</ele>
        <time>2023-06-28T13:18:41Z</time>
      </trkpt>
      <trkpt lat="49.9466" lon="2.15379">
        <ele>13.2</ele>
        <time>2023-06-28T13:18:43Z</time>
      </trkpt>
      <trkpt lat="49.94659" lon="2.15377">
        <ele>13.2</ele>
        <time>2023-06-28T13:18:44Z</time>
      </trkpt>
      <trkpt lat="49.94658" lon="2.15375">
        <ele>13.2</ele>
        <time>2023-06-28T13:18:45Z</time>
      </trkpt>
      <trkpt lat="49.94657" lon="2.15373">
        <ele>13.2</ele>
        <time>2023-06-28T13:18:47Z</time>
      </trkpt>
      <trkpt lat="49.94656" lon="2.15371">
        <ele>13.2</ele>
        <time>2023-06-28T13:18:48Z</time>
      </trkpt>
      <trkpt lat="49.94655" lon="2.15368">
        <ele>13.2</ele>
        <time>2023-06-28T13:18:49Z</time>
      </trkpt>
      <trkpt lat="49.94654" lon="2.15366">
        <ele>13.3</ele>
        <time>2023-06-28T13:18:50Z</time>
      </trkpt>
      <trkpt lat="49.94653" lon="2.15364">
        <ele>13.3</ele>
        <time>2023-06-28T13:18:52Z</time>
      </trkpt>
      <trkpt lat="49.94653" lon="2.15363">
        <ele>13.3</ele>
        <time>2023-06-28T13:18:53Z</time>
      </trkpt>
      <trkpt lat="49.94652" lon="2.15362">
        <ele>13.3</ele>
        <time>2023-06-28T13:18:54Z</time>
      </trkpt>
      <trkpt lat="49.94651" lon="2.15361">
        <ele>13.3</ele>
        <time>2023-06-28T13:18:55Z</time>
      </trkpt>
      <trkpt lat="49.9465" lon="2.15359">
        <ele>13.3</ele>
        <time>2023-06-28T13:18:56Z</time>
      </trkpt>
      <trkpt lat="49.94649" lon="2.15357">
        <ele>13.3</ele>
        <time>2023-06-28T13:18:58Z</time>
      </trkpt>
      <trkpt lat="49.94648" lon="2.15355">
        <ele>13.2</ele>
        <time>2023-06-28T13:18:59Z</time>
      </trkpt>
      <trkpt lat="49.94647" lon="2.15354">
        <ele>13.2</ele>
        <time>2023-06-28T13:19:00Z</time>
      </trkpt>
      <trkpt lat="49.94646" lon="2.15353">
        <ele>13.2</ele>
        <time>2023-06-28T13:19:01Z</time>
      </trkpt>
      <trkpt lat="49.94646" lon="2.15352">
        <ele>13.2</ele>
        <time>2023-06-28T13:19:02Z</time>
      </trkpt>
      <trkpt lat="49.94645" lon="2.15351">
        <ele>13.2</ele>
        <time>2023-06-28T13:19:04Z</time>
      </trkpt>
      <trkpt lat="49.94645" lon="2.15351">
        <ele>13.2</ele>
        <time>2023-06-28T13:19:05Z</time>
      </trkpt>
      <trkpt lat="49.94644" lon="2.1535">
        <ele>13.2</ele>
        <time>2023-06-28T13:19:06Z</time>
      </trkpt>
      <trkpt lat="49.94643" lon="2.15349">
        <ele>13.2</ele>
        <time>2023-06-28T13:19:07Z</time>
      </trkpt>
      <trkpt lat="49.94643" lon="2.15348">
        <ele>13.2</ele>
        <time>2023-06-28T13:19:08Z</time>
      </trkpt>
      <trkpt lat="49.94642" lon="2.15347">
        <ele>13.2</ele>
        <time>2023-06-28T13:19:09Z</time>
      </trkpt>
      <trkpt lat="49.94641" lon="2.15346">
        <ele>13.2</ele>
        <time>2023-06-28T13:19:10Z</time>
      </trkpt>
      <trkpt lat="49.9464" lon="2.15344">
        <ele>13.2</ele>
        <time>2023-06-28T13:19:11Z</time>
      </trkpt>
      <trkpt lat="49.94639" lon="2.15343">
        <ele>13.2</ele>
        <time>2023-06-28T13:19:13Z</time>
      </trkpt>
      <trkpt lat="49.94639" lon="2.15342">
        <ele>13.2</ele>
        <time>2023-06-28T13:19:14Z</time>
      </trkpt>
      <trkpt lat="49.94638" lon="2.1534">
        <ele>13.2</ele>
        <time>2023-06-28T13:19:15Z</time>
      </trkpt>
      <trkpt lat="49.94638" lon="2.15337">
        <ele>13.2</ele>
        <time>2023-06-28T13:19:17Z</time>
      </trkpt>
      <trkpt lat="49.94638" lon="2.15336">
        <ele>13.2</ele>
        <time>2023-06-28T13:19:18Z</time>
      </trkpt>
      <trkpt lat="49.94638" lon="2.15334">
        <ele>13.2</ele>
        <time>2023-06-28T13:19:19Z</time>
      </trkpt>
      <trkpt lat="49.94638" lon="2.15333">
        <ele>13.2</ele>
        <time>2023-06-28T13:19:20Z</time>
      </trkpt>
      <trkpt lat="49.94638" lon="2.15332">
        <ele>13.2</ele>
        <time>2023-06-28T13:19:22Z</time>
      </trkpt>
      <trkpt lat="49.94638" lon="2.15331">
        <ele>13.2</ele>
        <time>2023-06-28T13:19:24Z</time>
      </trkpt>
      <trkpt lat="49.94637" lon="2.1533">
        <ele>13.2</ele>
        <time>2023-06-28T13:19:25Z</time>
      </trkpt>
      <trkpt lat="49.94636" lon="2.15328">
        <ele>13.2</ele>
        <time>2023-06-28T13:19:27Z</time>
      </trkpt>
      <trkpt lat="49.94635" lon="2.15326">
        <ele>13.2</ele>
        <time>2023-06-28T13:19:28Z</time>
      </trkpt>
      <trkpt lat="49.94634" lon="2.15325">
        <ele>13.2</ele>
        <time>2023-06-28T13:19:29Z</time>
      </trkpt>
      <trkpt lat="49.94634" lon="2.15324">
        <ele>13.2</ele>
        <time>2023-06-28T13:19:30Z</time>
      </trkpt>
      <trkpt lat="49.94633" lon="2.15321">
        <ele>13.2</ele>
        <time>2023-06-28T13:19:32Z</time>
      </trkpt>
      <trkpt lat="49.94632" lon="2.15319">
        <ele>13.2</ele>
        <time>2023-06-28T13:19:33Z</time>
      </trkpt>
      <trkpt lat="49.94632" lon="2.15317">
        <ele>13.2</ele>
        <time>2023-06-28T13:19:34Z</time>
      </trkpt>
      <trkpt lat="49.94631" lon="2.15317">
        <ele>13.2</ele>
        <time>2023-06-28T13:19:35Z</time>
      </trkpt>
      <trkpt lat="49.9463" lon="2.15315">
        <ele>13.2</ele>
        <time>2023-06-28T13:19:36Z</time>
      </trkpt>
      <trkpt lat="49.94629" lon="2.15314">
        <ele>13.2</ele>
        <time>2023-06-28T13:19:37Z</time>
      </trkpt>
      <trkpt lat="49.94628" lon="2.15313">
        <ele>13.2</ele>
        <time>2023-06-28T13:19:39Z</time>
      </trkpt>
      <trkpt lat="49.94627" lon="2.15312">
        <ele>13.2</ele>
        <time>2023-06-28T13:19:40Z</time>
      </trkpt>
      <trkpt lat="49.94626" lon="2.15311">
        <ele>13.2</ele>
        <time>2023-06-28T13:19:41Z</time>
      </trkpt>
      <trkpt lat="49.94625" lon="2.15311">
        <ele>13.2</ele>
        <time>2023-06-28T13:19:42Z</time>
      </trkpt>
      <trkpt lat="49.94624" lon="2.1531">
        <ele>13.2</ele>
        <time>2023-06-28T13:19:43Z</time>
      </trkpt>
      <trkpt lat="49.94623" lon="2.15309">
        <ele>13.2</ele>
        <time>2023-06-28T13:19:44Z</time>
      </trkpt>
      <trkpt lat="49.94622" lon="2.15308">
        <ele>13.2</ele>
        <time>2023-06-28T13:19:45Z</time>
      </trkpt>
      <trkpt lat="49.94622" lon="2.15308">
        <ele>13.2</ele>
        <time>2023-06-28T13:19:46Z</time>
      </trkpt>
      <trkpt lat="49.94621" lon="2.15307">
        <ele>13.2</ele>
        <time>2023-06-28T13:19:47Z</time>
      </trkpt>
      <trkpt lat="49.9462" lon="2.15307">
        <ele>13.2</ele>
        <time>2023-06-28T13:19:49Z</time>
      </trkpt>
      <trkpt lat="49.9462" lon="2.15306">
        <ele>13.2</ele>
        <time>2023-06-28T13:19:50Z</time>
      </trkpt>
      <trkpt lat="49.94619" lon="2.15305">
        <ele>13.2</ele>
        <time>2023-06-28T13:19:51Z</time>
      </trkpt>
      <trkpt lat="49.94619" lon="2.15305">
        <ele>13.2</ele>
        <time>2023-06-28T13:19:52Z</time>
      </trkpt>
      <trkpt lat="49.94618" lon="2.15304">
        <ele>13.2</ele>
        <time>2023-06-28T13:19:53Z</time>
      </trkpt>
      <trkpt lat="49.94617" lon="2.15304">
        <ele>13.2</ele>
        <time>2023-06-28T13:19:55Z</time>
      </trkpt>
      <trkpt lat="49.94616" lon="2.15303">
        <ele>13.2</ele>
        <time>2023-06-28T13:19:56Z</time>
      </trkpt>
      <trkpt lat="49.94615" lon="2.15302">
        <ele>13.2</ele>
        <time>2023-06-28T13:19:57Z</time>
      </trkpt>
      <trkpt lat="49.94614" lon="2.15301">
        <ele>13.2</ele>
        <time>2023-06-28T13:19:58Z</time>
      </trkpt>
      <trkpt lat="49.94613" lon="2.153">
        <ele>13.2</ele>
        <time>2023-06-28T13:20:00Z</time>
      </trkpt>
      <trkpt lat="49.94612" lon="2.15299">
        <ele>13.2</ele>
        <time>2023-06-28T13:20:01Z</time>
      </trkpt>
      <trkpt lat="49.94612" lon="2.15298">
        <ele>13.2</ele>
        <time>2023-06-28T13:20:02Z</time>
      </trkpt>
      <trkpt lat="49.9461" lon="2.15297">
        <ele>13.2</ele>
        <time>2023-06-28T13:20:03Z</time>
      </trkpt>
      <trkpt lat="49.94609" lon="2.15296">
        <ele>13.2</ele>
        <time>2023-06-28T13:20:04Z</time>
      </trkpt>
      <trkpt lat="49.94608" lon="2.15295">
        <ele>13.2</ele>
        <time>2023-06-28T13:20:05Z</time>
      </trkpt>
      <trkpt lat="49.94607" lon="2.15294">
        <ele>13.2</ele>
        <time>2023-06-28T13:20:06Z</time>
      </trkpt>
      <trkpt lat="49.94606" lon="2.15293">
        <ele>13.2</ele>
        <time>2023-06-28T13:20:08Z</time>
      </trkpt>
      <trkpt lat="49.94605" lon="2.15292">
        <ele>13.2</ele>
        <time>2023-06-28T13:20:09Z</time>
      </trkpt>
      <trkpt lat="49.94604" lon="2.15291">
        <ele>13.2</ele>
        <time>2023-06-28T13:20:10Z</time>
      </trkpt>
      <trkpt lat="49.94603" lon="2.1529">
        <ele>13.2</ele>
        <time>2023-06-28T13:20:11Z</time>
      </trkpt>
      <trkpt lat="49.94602" lon="2.15288">
        <ele>13.2</ele>
        <time>2023-06-28T13:20:13Z</time>
      </trkpt>
      <trkpt lat="49.946" lon="2.15287">
        <ele>13.2</ele>
        <time>2023-06-28T13:20:14Z</time>
      </trkpt>
      <trkpt lat="49.94599" lon="2.15286">
        <ele>13.2</ele>
        <time>2023-06-28T13:20:15Z</time>
      </trkpt>
      <trkpt lat="49.94598" lon="2.15285">
        <ele>13.2</ele>
        <time>2023-06-28T13:20:16Z</time>
      </trkpt>
      <trkpt lat="49.94597" lon="2.15284">
        <ele>13.2</ele>
        <time>2023-06-28T13:20:17Z</time>
      </trkpt>
      <trkpt lat="49.94596" lon="2.15283">
        <ele>13.1</ele>
        <time>2023-06-28T13:20:18Z</time>
      </trkpt>
      <trkpt lat="49.94594" lon="2.15281">
        <ele>13.1</ele>
        <time>2023-06-28T13:20:20Z</time>
      </trkpt>
      <trkpt lat="49.94593" lon="2.1528">
        <ele>13.1</ele>
        <time>2023-06-28T13:20:21Z</time>
      </trkpt>
      <trkpt lat="49.94593" lon="2.15279">
        <ele>13.1</ele>
        <time>2023-06-28T13:20:22Z</time>
      </trkpt>
      <trkpt lat="49.94591" lon="2.15277">
        <ele>13.1</ele>
        <time>2023-06-28T13:20:23Z</time>
      </trkpt>
      <trkpt lat="49.94591" lon="2.15275">
        <ele>13.1</ele>
        <time>2023-06-28T13:20:25Z</time>
      </trkpt>
      <trkpt lat="49.9459" lon="2.15274">
        <ele>13.1</ele>
        <time>2023-06-28T13:20:26Z</time>
      </trkpt>
      <trkpt lat="49.94589" lon="2.15273">
        <ele>13.1</ele>
        <time>2023-06-28T13:20:27Z</time>
      </trkpt>
      <trkpt lat="49.94588" lon="2.15272">
        <ele>13.1</ele>
        <time>2023-06-28T13:20:28Z</time>
      </trkpt>
      <trkpt lat="49.94587" lon="2.1527">
        <ele>13.1</ele>
        <time>2023-06-28T13:20:29Z</time>
      </trkpt>
      <trkpt lat="49.94586" lon="2.15269">
        <ele>13.1</ele>
        <time>2023-06-28T13:20:30Z</time>
      </trkpt>
      <trkpt lat="49.94585" lon="2.15268">
        <ele>13.1</ele>
        <time>2023-06-28T13:20:32Z</time>
      </trkpt>
      <trkpt lat="49.94585" lon="2.15266">
        <ele>13.1</ele>
        <time>2023-06-28T13:20:33Z</time>
      </trkpt>
      <trkpt lat="49.94583" lon="2.15264">
        <ele>13.1</ele>
        <time>2023-06-28T13:20:35Z</time>
      </trkpt>
      <trkpt lat="49.94582" lon="2.15263">
        <ele>13.1</ele>
        <time>2023-06-28T13:20:36Z</time>
      </trkpt>
      <trkpt lat="49.94582" lon="2.15263">
        <ele>13.1</ele>
        <time>2023-06-28T13:20:37Z</time>
      </trkpt>
      <trkpt lat="49.94581" lon="2.15262">
        <ele>13.1</ele>
        <time>2023-06-28T13:20:38Z</time>
      </trkpt>
      <trkpt lat="49.9458" lon="2.15261">
        <ele>13.1</ele>
        <time>2023-06-28T13:20:39Z</time>
      </trkpt>
      <trkpt lat="49.94579" lon="2.1526">
        <ele>13.1</ele>
        <time>2023-06-28T13:20:40Z</time>
      </trkpt>
      <trkpt lat="49.94577" lon="2.15259">
        <ele>13.1</ele>
        <time>2023-06-28T13:20:41Z</time>
      </trkpt>
      <trkpt lat="49.94575" lon="2.15257">
        <ele>13.1</ele>
        <time>2023-06-28T13:20:42Z</time>
      </trkpt>
      <trkpt lat="49.94574" lon="2.15256">
        <ele>13.1</ele>
        <time>2023-06-28T13:20:44Z</time>
      </trkpt>
      <trkpt lat="49.94573" lon="2.15255">
        <ele>13.1</ele>
        <time>2023-06-28T13:20:46Z</time>
      </trkpt>
      <trkpt lat="49.94572" lon="2.15253">
        <ele>13.1</ele>
        <time>2023-06-28T13:20:47Z</time>
      </trkpt>
      <trkpt lat="49.94571" lon="2.15252">
        <ele>13.1</ele>
        <time>2023-06-28T13:20:48Z</time>
      </trkpt>
      <trkpt lat="49.94569" lon="2.15251">
        <ele>13.1</ele>
        <time>2023-06-28T13:20:49Z</time>
      </trkpt>
      <trkpt lat="49.94568" lon="2.15249">
        <ele>13.1</ele>
        <time>2023-06-28T13:20:51Z</time>
      </trkpt>
      <trkpt lat="49.94567" lon="2.15248">
        <ele>13.1</ele>
        <time>2023-06-28T13:20:52Z</time>
      </trkpt>
      <trkpt lat="49.94566" lon="2.15248">
        <ele>13.1</ele>
        <time>2023-06-28T13:20:53Z</time>
      </trkpt>
      <trkpt lat="49.94565" lon="2.15247">
        <ele>13.1</ele>
        <time>2023-06-28T13:20:54Z</time>
      </trkpt>
      <trkpt lat="49.94564" lon="2.15246">
        <ele>13.1</ele>
        <time>2023-06-28T13:20:55Z</time>
      </trkpt>
      <trkpt lat="49.94563" lon="2.15244">
        <ele>13.1</ele>
        <time>2023-06-28T13:20:57Z</time>
      </trkpt>
      <trkpt lat="49.94562" lon="2.15242">
        <ele>13.1</ele>
        <time>2023-06-28T13:20:58Z</time>
      </trkpt>
      <trkpt lat="49.94561" lon="2.15241">
        <ele>13.1</ele>
        <time>2023-06-28T13:20:59Z</time>
      </trkpt>
      <trkpt lat="49.9456" lon="2.15239">
        <ele>13.1</ele>
        <time>2023-06-28T13:21:00Z</time>
      </trkpt>
      <trkpt lat="49.94559" lon="2.15238">
        <ele>13.1</ele>
        <time>2023-06-28T13:21:02Z</time>
      </trkpt>
      <trkpt lat="49.94557" lon="2.15235">
        <ele>13.1</ele>
        <time>2023-06-28T13:21:03Z</time>
      </trkpt>
      <trkpt lat="49.94557" lon="2.15234">
        <ele>13.1</ele>
        <time>2023-06-28T13:21:04Z</time>
      </trkpt>
      <trkpt lat="49.94556" lon="2.15233">
        <ele>13.1</ele>
        <time>2023-06-28T13:21:05Z</time>
      </trkpt>
      <trkpt lat="49.94554" lon="2.15231">
        <ele>13.1</ele>
        <time>2023-06-28T13:21:07Z</time>
      </trkpt>
      <trkpt lat="49.94553" lon="2.15229">
        <ele>13.1</ele>
        <time>2023-06-28T13:21:09Z</time>
      </trkpt>
      <trkpt lat="49.94553" lon="2.15228">
        <ele>13.1</ele>
        <time>2023-06-28T13:21:10Z</time>
      </trkpt>
      <trkpt lat="49.94553" lon="2.15227">
        <ele>13.1</ele>
        <time>2023-06-28T13:21:11Z</time>
      </trkpt>
      <trkpt lat="49.94553" lon="2.15225">
        <ele>13.1</ele>
        <time>2023-06-28T13:21:12Z</time>
      </trkpt>
      <trkpt lat="49.94553" lon="2.15223">
        <ele>13.1</ele>
        <time>2023-06-28T13:21:13Z</time>
      </trkpt>
      <trkpt lat="49.94553" lon="2.15223">
        <ele>13.1</ele>
        <time>2023-06-28T13:21:15Z</time>
      </trkpt>
      <trkpt lat="49.94553" lon="2.15223">
        <ele>13.1</ele>
        <time>2023-06-28T13:21:16Z</time>
      </trkpt>
      <trkpt lat="49.94553" lon="2.15223">
        <ele>13.1</ele>
        <time>2023-06-28T13:21:17Z</time>
      </trkpt>
      <trkpt lat="49.94553" lon="2.15223">
        <ele>13.1</ele>
        <time>2023-06-28T13:21:19Z</time>
      </trkpt>
      <trkpt lat="49.94553" lon="2.15224">
        <ele>13.1</ele>
        <time>2023-06-28T13:21:20Z</time>
      </trkpt>
      <trkpt lat="49.94553" lon="2.15224">
        <ele>13.1</ele>
        <time>2023-06-28T13:21:21Z</time>
      </trkpt>
      <trkpt lat="49.94553" lon="2.15224">
        <ele>13.2</ele>
        <time>2023-06-28T13:21:23Z</time>
      </trkpt>
      <trkpt lat="49.94553" lon="2.15224">
        <ele>13.2</ele>
        <time>2023-06-28T13:21:24Z</time>
      </trkpt>
      <trkpt lat="49.94554" lon="2.15224">
        <ele>13.2</ele>
        <time>2023-06-28T13:21:26Z</time>
      </trkpt>
      <trkpt lat="49.94554" lon="2.15225">
        <ele>13.2</ele>
        <time>2023-06-28T13:21:27Z</time>
      </trkpt>
      <trkpt lat="49.94554" lon="2.15225">
        <ele>13.2</ele>
        <time>2023-06-28T13:21:29Z</time>
      </trkpt>
      <trkpt lat="49.94554" lon="2.15225">
        <ele>13.2</ele>
        <time>2023-06-28T13:21:30Z</time>
      </trkpt>
      <trkpt lat="49.94554" lon="2.15225">
        <ele>13.2</ele>
        <time>2023-06-28T13:21:32Z</time>
      </trkpt>
      <trkpt lat="49.94554" lon="2.15225">
        <ele>13.2</ele>
        <time>2023-06-28T13:21:33Z</time>
      </trkpt>
      <trkpt lat="49.94554" lon="2.15225">
        <ele>13.3</ele>
        <time>2023-06-28T13:21:34Z</time>
      </trkpt>
      <trkpt lat="49.94554" lon="2.15226">
        <ele>13.3</ele>
        <time>2023-06-28T13:21:35Z</time>
      </trkpt>
      <trkpt lat="49.94554" lon="2.15226">
        <ele>13.3</ele>
        <time>2023-06-28T13:21:36Z</time>
      </trkpt>
      <trkpt lat="49.94554" lon="2.15226">
        <ele>13.3</ele>
        <time>2023-06-28T13:21:37Z</time>
      </trkpt>
      <trkpt lat="49.94554" lon="2.15226">
        <ele>13.3</ele>
        <time>2023-06-28T13:21:38Z</time>
      </trkpt>
      <trkpt lat="49.94554" lon="2.15226">
        <ele>13.3</ele>
        <time>2023-06-28T13:21:39Z</time>
      </trkpt>
      <trkpt lat="49.94554" lon="2.15226">
        <ele>13.3</ele>
        <time>2023-06-28T13:21:40Z</time>
      </trkpt>
      <trkpt lat="49.94554" lon="2.15227">
        <ele>13.3</ele>
        <time>2023-06-28T13:21:41Z</time>
      </trkpt>
      <trkpt lat="49.94554" lon="2.15227">
        <ele>13.3</ele>
        <time>2023-06-28T13:21:42Z</time>
      </trkpt>
      <trkpt lat="49.94554" lon="2.15227">
        <ele>13.3</ele>
        <time>2023-06-28T13:21:43Z</time>
      </trkpt>
      <trkpt lat="49.94555" lon="2.15227">
        <ele>13.4</ele>
        <time>2023-06-28T13:21:44Z</time>
      </trkpt>
      <trkpt lat="49.94555" lon="2.15227">
        <ele>13.4</ele>
        <time>2023-06-28T13:21:45Z</time>
      </trkpt>
      <trkpt lat="49.94555" lon="2.15227">
        <ele>13.4</ele>
        <time>2023-06-28T13:21:46Z</time>
      </trkpt>
      <trkpt lat="49.94555" lon="2.15228">
        <ele>13.4</ele>
        <time>2023-06-28T13:21:47Z</time>
      </trkpt>
      <trkpt lat="49.94555" lon="2.15228">
        <ele>13.4</ele>
        <time>2023-06-28T13:21:48Z</time>
      </trkpt>
      <trkpt lat="49.94555" lon="2.15228">
        <ele>13.4</ele>
        <time>2023-06-28T13:21:49Z</time>
      </trkpt>
      <trkpt lat="49.94555" lon="2.15228">
        <ele>13.4</ele>
        <time>2023-06-28T13:21:50Z</time>
      </trkpt>
      <trkpt lat="49.94555" lon="2.15228">
        <ele>13.4</ele>
        <time>2023-06-28T13:21:51Z</time>
      </trkpt>
      <trkpt lat="49.94555" lon="2.15229">
        <ele>13.4</ele>
        <time>2023-06-28T13:21:52Z</time>
      </trkpt>
      <trkpt lat="49.94555" lon="2.15229">
        <ele>13.4</ele>
        <time>2023-06-28T13:21:53Z</time>
      </trkpt>
      <trkpt lat="49.94555" lon="2.15229">
        <ele>13.4</ele>
        <time>2023-06-28T13:21:54Z</time>
      </trkpt>
      <trkpt lat="49.94555" lon="2.15229">
        <ele>13.5</ele>
        <time>2023-06-28T13:21:55Z</time>
      </trkpt>
      <trkpt lat="49.94555" lon="2.15229">
        <ele>13.5</ele>
        <time>2023-06-28T13:21:56Z</time>
      </trkpt>
      <trkpt lat="49.94555" lon="2.15229">
        <ele>13.5</ele>
        <time>2023-06-28T13:21:57Z</time>
      </trkpt>
      <trkpt lat="49.94555" lon="2.1523">
        <ele>13.5</ele>
        <time>2023-06-28T13:21:58Z</time>
      </trkpt>
      <trkpt lat="49.94556" lon="2.1523">
        <ele>13.5</ele>
        <time>2023-06-28T13:21:59Z</time>
      </trkpt>
      <trkpt lat="49.94556" lon="2.1523">
        <ele>13.5</ele>
        <time>2023-06-28T13:22:00Z</time>
      </trkpt>
      <trkpt lat="49.94556" lon="2.1523">
        <ele>13.5</ele>
        <time>2023-06-28T13:22:01Z</time>
      </trkpt>
      <trkpt lat="49.94556" lon="2.1523">
        <ele>13.5</ele>
        <time>2023-06-28T13:22:02Z</time>
      </trkpt>
      <trkpt lat="49.94556" lon="2.1523">
        <ele>13.6</ele>
        <time>2023-06-28T13:22:03Z</time>
      </trkpt>
      <trkpt lat="49.94556" lon="2.15231">
        <ele>13.6</ele>
        <time>2023-06-28T13:22:04Z</time>
      </trkpt>
      <trkpt lat="49.94556" lon="2.15231">
        <ele>13.6</ele>
        <time>2023-06-28T13:22:05Z</time>
      </trkpt>
      <trkpt lat="49.94556" lon="2.15231">
        <ele>13.6</ele>
        <time>2023-06-28T13:22:06Z</time>
      </trkpt>
      <trkpt lat="49.94556" lon="2.15231">
        <ele>13.6</ele>
        <time>2023-06-28T13:22:07Z</time>
      </trkpt>
      <trkpt lat="49.94556" lon="2.15231">
        <ele>13.6</ele>
        <time>2023-06-28T13:22:08Z</time>
      </trkpt>
      <trkpt lat="49.94556" lon="2.15231">
        <ele>13.6</ele>
        <time>2023-06-28T13:22:09Z</time>
      </trkpt>
      <trkpt lat="49.94556" lon="2.15232">
        <ele>13.6</ele>
        <time>2023-06-28T13:22:10Z</time>
      </trkpt>
      <trkpt lat="49.94556" lon="2.15232">
        <ele>13.7</ele>
        <time>2023-06-28T13:22:11Z</time>
      </trkpt>
      <trkpt lat="49.94556" lon="2.15232">
        <ele>13.7</ele>
        <time>2023-06-28T13:22:12Z</time>
      </trkpt>
      <trkpt lat="49.94556" lon="2.15232">
        <ele>13.7</ele>
        <time>2023-06-28T13:22:13Z</time>
      </trkpt>
      <trkpt lat="49.94556" lon="2.15232">
        <ele>13.7</ele>
        <time>2023-06-28T13:22:14Z</time>
      </trkpt>
      <trkpt lat="49.94557" lon="2.15233">
        <ele>13.7</ele>
        <time>2023-06-28T13:22:15Z</time>
      </trkpt>
      <trkpt lat="49.94557" lon="2.15233">
        <ele>13.7</ele>
        <time>2023-06-28T13:22:16Z</time>
      </trkpt>
      <trkpt lat="49.94557" lon="2.15233">
        <ele>13.7</ele>
        <time>2023-06-28T13:22:17Z</time>
      </trkpt>
      <trkpt lat="49.94557" lon="2.15233">
        <ele>13.7</ele>
        <time>2023-06-28T13:22:18Z</time>
      </trkpt>
      <trkpt lat="49.94558" lon="2.15237">
        <ele>13.8</ele>
        <time>2023-06-28T13:22:19Z</time>
      </trkpt>
      <trkpt lat="49.94558" lon="2.15238">
        <ele>13.8</ele>
        <time>2023-06-28T13:22:20Z</time>
      </trkpt>
      <trkpt lat="49.94558" lon="2.15238">
        <ele>13.8</ele>
        <time>2023-06-28T13:22:21Z</time>
      </trkpt>
      <trkpt lat="49.94558" lon="2.15239">
        <ele>13.8</ele>
        <time>2023-06-28T13:22:22Z</time>
      </trkpt>
      <trkpt lat="49.94558" lon="2.15239">
        <ele>13.8</ele>
        <time>2023-06-28T13:22:23Z</time>
      </trkpt>
      <trkpt lat="49.94558" lon="2.15239">
        <ele>13.8</ele>
        <time>2023-06-28T13:22:24Z</time>
      </trkpt>
      <trkpt lat="49.94558" lon="2.15239">
        <ele>13.8</ele>
        <time>2023-06-28T13:22:25Z</time>
      </trkpt>
      <trkpt lat="49.94558" lon="2.15239">
        <ele>13.9</ele>
        <time>2023-06-28T13:22:26Z</time>
      </trkpt>
      <trkpt lat="49.94558" lon="2.15239">
        <ele>13.9</ele>
        <time>2023-06-28T13:22:27Z</time>
      </trkpt>
      <trkpt lat="49.94558" lon="2.15239">
        <ele>13.9</ele>
        <time>2023-06-28T13:22:28Z</time>
      </trkpt>
      <trkpt lat="49.94558" lon="2.15239">
        <ele>13.9</ele>
        <time>2023-06-28T13:22:29Z</time>
      </trkpt>
      <trkpt lat="49.94558" lon="2.15239">
        <ele>13.9</ele>
        <time>2023-06-28T13:22:30Z</time>
      </trkpt>
      <trkpt lat="49.94558" lon="2.15239">
        <ele>13.9</ele>
        <time>2023-06-28T13:22:31Z</time>
      </trkpt>
      <trkpt lat="49.94558" lon="2.15239">
        <ele>13.9</ele>
        <time>2023-06-28T13:22:32Z</time>
      </trkpt>
      <trkpt lat="49.94558" lon="2.15239">
        <ele>13.9</ele>
        <time>2023-06-28T13:22:33Z</time>
      </trkpt>
      <trkpt lat="49.94558" lon="2.15239">
        <ele>13.9</ele>
        <time>2023-06-28T13:22:34Z</time>
      </trkpt>
      <trkpt lat="49.94558" lon="2.15239">
        <ele>13.9</ele>
        <time>2023-06-28T13:22:35Z</time>
      </trkpt>
      <trkpt lat="49.94558" lon="2.15239">
        <ele>13.9</ele>
        <time>2023-06-28T13:22:36Z</time>
      </trkpt>
      <trkpt lat="49.94558" lon="2.15239">
        <ele>14</ele>
        <time>2023-06-28T13:22:37Z</time>
      </trkpt>
      <trkpt lat="49.94558" lon="2.15239">
        <ele>14</ele>
        <time>2023-06-28T13:22:38Z</time>
      </trkpt>
      <trkpt lat="49.94558" lon="2.15239">
        <ele>14</ele>
        <time>2023-06-28T13:22:39Z</time>
      </trkpt>
      <trkpt lat="49.94558" lon="2.15239">
        <ele>14</ele>
        <time>2023-06-28T13:22:40Z</time>
      </trkpt>
      <trkpt lat="49.94558" lon="2.15239">
        <ele>14</ele>
        <time>2023-06-28T13:22:41Z</time>
      </trkpt>
      <trkpt lat="49.94558" lon="2.15239">
        <ele>14</ele>
        <time>2023-06-28T13:22:42Z</time>
      </trkpt>
      <trkpt lat="49.94558" lon="2.15239">
        <ele>14</ele>
        <time>2023-06-28T13:22:43Z</time>
      </trkpt>
      <trkpt lat="49.94558" lon="2.15239">
        <ele>14</ele>
        <time>2023-06-28T13:22:44Z</time>
      </trkpt>
      <trkpt lat="49.94558" lon="2.1524">
        <ele>14</ele>
        <time>2023-06-28T13:22:46Z</time>
      </trkpt>
      <trkpt lat="49.94559" lon="2.1524">
        <ele>14</ele>
        <time>2023-06-28T13:22:48Z</time>
      </trkpt>
      <trkpt lat="49.94559" lon="2.15241">
        <ele>14.1</ele>
        <time>2023-06-28T13:22:49Z</time>
      </trkpt>
      <trkpt lat="49.94559" lon="2.15241">
        <ele>14.1</ele>
        <time>2023-06-28T13:22:51Z</time>
      </trkpt>
      <trkpt lat="49.94559" lon="2.15241">
        <ele>14.1</ele>
        <time>2023-06-28T13:22:52Z</time>
      </trkpt>
      <trkpt lat="49.94559" lon="2.15241">
        <ele>14.1</ele>
        <time>2023-06-28T13:22:54Z</time>
      </trkpt>
      <trkpt lat="49.94559" lon="2.15241">
        <ele>14.1</ele>
        <time>2023-06-28T13:22:55Z</time>
      </trkpt>
      <trkpt lat="49.94559" lon="2.15241">
        <ele>14.1</ele>
        <time>2023-06-28T13:22:57Z</time>
      </trkpt>
      <trkpt lat="49.94559" lon="2.15241">
        <ele>14.1</ele>
        <time>2023-06-28T13:22:58Z</time>
      </trkpt>
      <trkpt lat="49.94559" lon="2.15241">
        <ele>14.1</ele>
        <time>2023-06-28T13:22:59Z</time>
      </trkpt>
      <trkpt lat="49.94559" lon="2.15241">
        <ele>14.2</ele>
        <time>2023-06-28T13:23:01Z</time>
      </trkpt>
      <trkpt lat="49.94559" lon="2.15241">
        <ele>14.2</ele>
        <time>2023-06-28T13:23:02Z</time>
      </trkpt>
      <trkpt lat="49.94559" lon="2.15241">
        <ele>14.2</ele>
        <time>2023-06-28T13:23:04Z</time>
      </trkpt>
      <trkpt lat="49.94559" lon="2.15241">
        <ele>14.2</ele>
        <time>2023-06-28T13:23:05Z</time>
      </trkpt>
      <trkpt lat="49.94559" lon="2.1524">
        <ele>14.2</ele>
        <time>2023-06-28T13:23:06Z</time>
      </trkpt>
      <trkpt lat="49.94559" lon="2.1524">
        <ele>14.2</ele>
        <time>2023-06-28T13:23:07Z</time>
      </trkpt>
      <trkpt lat="49.94559" lon="2.1524">
        <ele>14.2</ele>
        <time>2023-06-28T13:23:08Z</time>
      </trkpt>
      <trkpt lat="49.94559" lon="2.1524">
        <ele>14.2</ele>
        <time>2023-06-28T13:23:09Z</time>
      </trkpt>
      <trkpt lat="49.94559" lon="2.15241">
        <ele>14.2</ele>
        <time>2023-06-28T13:23:10Z</time>
      </trkpt>
      <trkpt lat="49.94558" lon="2.1524">
        <ele>14.2</ele>
        <time>2023-06-28T13:23:11Z</time>
      </trkpt>
      <trkpt lat="49.94558" lon="2.15239">
        <ele>14.2</ele>
        <time>2023-06-28T13:23:13Z</time>
      </trkpt>
      <trkpt lat="49.94558" lon="2.15239">
        <ele>14.2</ele>
        <time>2023-06-28T13:23:14Z</time>
      </trkpt>
      <trkpt lat="49.94558" lon="2.15238">
        <ele>14.2</ele>
        <time>2023-06-28T13:23:15Z</time>
      </trkpt>
      <trkpt lat="49.94559" lon="2.15237">
        <ele>14.2</ele>
        <time>2023-06-28T13:23:16Z</time>
      </trkpt>
      <trkpt lat="49.94559" lon="2.15236">
        <ele>14.2</ele>
        <time>2023-06-28T13:23:17Z</time>
      </trkpt>
      <trkpt lat="49.94559" lon="2.15235">
        <ele>14.3</ele>
        <time>2023-06-28T13:23:18Z</time>
      </trkpt>
      <trkpt lat="49.9456" lon="2.15233">
        <ele>14.2</ele>
        <time>2023-06-28T13:23:20Z</time>
      </trkpt>
      <trkpt lat="49.94561" lon="2.1523">
        <ele>14.2</ele>
        <time>2023-06-28T13:23:21Z</time>
      </trkpt>
      <trkpt lat="49.94562" lon="2.15229">
        <ele>14.3</ele>
        <time>2023-06-28T13:23:22Z</time>
      </trkpt>
      <trkpt lat="49.94562" lon="2.15228">
        <ele>14.3</ele>
        <time>2023-06-28T13:23:23Z</time>
      </trkpt>
      <trkpt lat="49.94564" lon="2.15227">
        <ele>14.3</ele>
        <time>2023-06-28T13:23:24Z</time>
      </trkpt>
      <trkpt lat="49.94565" lon="2.15226">
        <ele>14.3</ele>
        <time>2023-06-28T13:23:25Z</time>
      </trkpt>
      <trkpt lat="49.94567" lon="2.15224">
        <ele>14.3</ele>
        <time>2023-06-28T13:23:27Z</time>
      </trkpt>
      <trkpt lat="49.94568" lon="2.15223">
        <ele>14.3</ele>
        <time>2023-06-28T13:23:28Z</time>
      </trkpt>
      <trkpt lat="49.94569" lon="2.15221">
        <ele>14.3</ele>
        <time>2023-06-28T13:23:29Z</time>
      </trkpt>
      <trkpt lat="49.9457" lon="2.1522">
        <ele>14.3</ele>
        <time>2023-06-28T13:23:30Z</time>
      </trkpt>
      <trkpt lat="49.94571" lon="2.15219">
        <ele>14.3</ele>
        <time>2023-06-28T13:23:31Z</time>
      </trkpt>
      <trkpt lat="49.94573" lon="2.15218">
        <ele>14.3</ele>
        <time>2023-06-28T13:23:33Z</time>
      </trkpt>
      <trkpt lat="49.94573" lon="2.15217">
        <ele>14.3</ele>
        <time>2023-06-28T13:23:34Z</time>
      </trkpt>
      <trkpt lat="49.94574" lon="2.15216">
        <ele>14.4</ele>
        <time>2023-06-28T13:23:35Z</time>
      </trkpt>
      <trkpt lat="49.94575" lon="2.15216">
        <ele>14.3</ele>
        <time>2023-06-28T13:23:36Z</time>
      </trkpt>
      <trkpt lat="49.94576" lon="2.15215">
        <ele>14.4</ele>
        <time>2023-06-28T13:23:37Z</time>
      </trkpt>
      <trkpt lat="49.94577" lon="2.15214">
        <ele>14.4</ele>
        <time>2023-06-28T13:23:38Z</time>
      </trkpt>
      <trkpt lat="49.94578" lon="2.15213">
        <ele>14.4</ele>
        <time>2023-06-28T13:23:39Z</time>
      </trkpt>
      <trkpt lat="49.9458" lon="2.15211">
        <ele>14.4</ele>
        <time>2023-06-28T13:23:41Z</time>
      </trkpt>
      <trkpt lat="49.94582" lon="2.15208">
        <ele>14.4</ele>
        <time>2023-06-28T13:23:42Z</time>
      </trkpt>
      <trkpt lat="49.94583" lon="2.15207">
        <ele>14.4</ele>
        <time>2023-06-28T13:23:43Z</time>
      </trkpt>
      <trkpt lat="49.94584" lon="2.15206">
        <ele>14.4</ele>
        <time>2023-06-28T13:23:44Z</time>
      </trkpt>
      <trkpt lat="49.94585" lon="2.15203">
        <ele>14.4</ele>
        <time>2023-06-28T13:23:45Z</time>
      </trkpt>
      <trkpt lat="49.94586" lon="2.152">
        <ele>14.4</ele>
        <time>2023-06-28T13:23:47Z</time>
      </trkpt>
      <trkpt lat="49.94587" lon="2.15197">
        <ele>14.4</ele>
        <time>2023-06-28T13:23:48Z</time>
      </trkpt>
      <trkpt lat="49.94587" lon="2.15195">
        <ele>14.3</ele>
        <time>2023-06-28T13:23:49Z</time>
      </trkpt>
      <trkpt lat="49.94587" lon="2.15192">
        <ele>14.3</ele>
        <time>2023-06-28T13:23:50Z</time>
      </trkpt>
      <trkpt lat="49.94588" lon="2.15189">
        <ele>14.3</ele>
        <time>2023-06-28T13:23:51Z</time>
      </trkpt>
      <trkpt lat="49.94588" lon="2.15184">
        <ele>14.3</ele>
        <time>2023-06-28T13:23:53Z</time>
      </trkpt>
      <trkpt lat="49.94588" lon="2.15183">
        <ele>14.3</ele>
        <time>2023-06-28T13:23:54Z</time>
      </trkpt>
      <trkpt lat="49.94587" lon="2.15177">
        <ele>14.2</ele>
        <time>2023-06-28T13:23:55Z</time>
      </trkpt>
      <trkpt lat="49.94587" lon="2.15176">
        <ele>14.3</ele>
        <time>2023-06-28T13:23:56Z</time>
      </trkpt>
      <trkpt lat="49.94586" lon="2.15174">
        <ele>14.2</ele>
        <time>2023-06-28T13:23:57Z</time>
      </trkpt>
      <trkpt lat="49.94586" lon="2.15171">
        <ele>14.2</ele>
        <time>2023-06-28T13:23:59Z</time>
      </trkpt>
      <trkpt lat="49.94585" lon="2.1517">
        <ele>14.2</ele>
        <time>2023-06-28T13:24:00Z</time>
      </trkpt>
      <trkpt lat="49.94584" lon="2.15169">
        <ele>14.2</ele>
        <time>2023-06-28T13:24:01Z</time>
      </trkpt>
      <trkpt lat="49.94584" lon="2.15167">
        <ele>14.2</ele>
        <time>2023-06-28T13:24:02Z</time>
      </trkpt>
      <trkpt lat="49.94583" lon="2.15166">
        <ele>14.2</ele>
        <time>2023-06-28T13:24:03Z</time>
      </trkpt>
      <trkpt lat="49.94583" lon="2.15164">
        <ele>14.2</ele>
        <time>2023-06-28T13:24:04Z</time>
      </trkpt>
      <trkpt lat="49.94583" lon="2.15162">
        <ele>14.2</ele>
        <time>2023-06-28T13:24:05Z</time>
      </trkpt>
      <trkpt lat="49.94583" lon="2.1516">
        <ele>14.2</ele>
        <time>2023-06-28T13:24:06Z</time>
      </trkpt>
      <trkpt lat="49.94582" lon="2.15158">
        <ele>14.2</ele>
        <time>2023-06-28T13:24:08Z</time>
      </trkpt>
      <trkpt lat="49.94582" lon="2.15157">
        <ele>14.3</ele>
        <time>2023-06-28T13:24:09Z</time>
      </trkpt>
      <trkpt lat="49.94582" lon="2.15155">
        <ele>14.2</ele>
        <time>2023-06-28T13:24:10Z</time>
      </trkpt>
      <trkpt lat="49.94582" lon="2.15153">
        <ele>14.3</ele>
        <time>2023-06-28T13:24:11Z</time>
      </trkpt>
      <trkpt lat="49.94582" lon="2.15151">
        <ele>14.3</ele>
        <time>2023-06-28T13:24:13Z</time>
      </trkpt>
      <trkpt lat="49.94582" lon="2.15149">
        <ele>14.3</ele>
        <time>2023-06-28T13:24:14Z</time>
      </trkpt>
      <trkpt lat="49.94582" lon="2.15147">
        <ele>14.3</ele>
        <time>2023-06-28T13:24:15Z</time>
      </trkpt>
      <trkpt lat="49.94583" lon="2.15145">
        <ele>14.3</ele>
        <time>2023-06-28T13:24:16Z</time>
      </trkpt>
      <trkpt lat="49.94583" lon="2.15142">
        <ele>14.3</ele>
        <time>2023-06-28T13:24:17Z</time>
      </trkpt>
      <trkpt lat="49.94585" lon="2.1514">
        <ele>14.3</ele>
        <time>2023-06-28T13:24:18Z</time>
      </trkpt>
      <trkpt lat="49.94586" lon="2.15138">
        <ele>14.3</ele>
        <time>2023-06-28T13:24:19Z</time>
      </trkpt>
      <trkpt lat="49.94587" lon="2.15136">
        <ele>14.4</ele>
        <time>2023-06-28T13:24:21Z</time>
      </trkpt>
      <trkpt lat="49.94588" lon="2.15136">
        <ele>14.4</ele>
        <time>2023-06-28T13:24:22Z</time>
      </trkpt>
      <trkpt lat="49.94589" lon="2.15136">
        <ele>14.4</ele>
        <time>2023-06-28T13:24:23Z</time>
      </trkpt>
      <trkpt lat="49.94591" lon="2.15135">
        <ele>14.4</ele>
        <time>2023-06-28T13:24:24Z</time>
      </trkpt>
      <trkpt lat="49.94592" lon="2.15134">
        <ele>14.4</ele>
        <time>2023-06-28T13:24:25Z</time>
      </trkpt>
      <trkpt lat="49.94593" lon="2.15133">
        <ele>14.4</ele>
        <time>2023-06-28T13:24:26Z</time>
      </trkpt>
      <trkpt lat="49.94594" lon="2.15132">
        <ele>14.5</ele>
        <time>2023-06-28T13:24:27Z</time>
      </trkpt>
      <trkpt lat="49.94596" lon="2.15131">
        <ele>14.5</ele>
        <time>2023-06-28T13:24:29Z</time>
      </trkpt>
      <trkpt lat="49.94597" lon="2.15131">
        <ele>14.5</ele>
        <time>2023-06-28T13:24:30Z</time>
      </trkpt>
      <trkpt lat="49.94598" lon="2.1513">
        <ele>14.5</ele>
        <time>2023-06-28T13:24:31Z</time>
      </trkpt>
      <trkpt lat="49.94601" lon="2.15129">
        <ele>14.6</ele>
        <time>2023-06-28T13:24:32Z</time>
      </trkpt>
      <trkpt lat="49.94602" lon="2.15129">
        <ele>14.6</ele>
        <time>2023-06-28T13:24:34Z</time>
      </trkpt>
      <trkpt lat="49.94604" lon="2.15129">
        <ele>14.6</ele>
        <time>2023-06-28T13:24:35Z</time>
      </trkpt>
      <trkpt lat="49.94605" lon="2.15129">
        <ele>14.6</ele>
        <time>2023-06-28T13:24:36Z</time>
      </trkpt>
      <trkpt lat="49.94606" lon="2.15129">
        <ele>14.7</ele>
        <time>2023-06-28T13:24:37Z</time>
      </trkpt>
      <trkpt lat="49.94608" lon="2.15129">
        <ele>14.7</ele>
        <time>2023-06-28T13:24:38Z</time>
      </trkpt>
      <trkpt lat="49.94609" lon="2.15129">
        <ele>14.7</ele>
        <time>2023-06-28T13:24:39Z</time>
      </trkpt>
      <trkpt lat="49.94612" lon="2.15129">
        <ele>14.7</ele>
        <time>2023-06-28T13:24:40Z</time>
      </trkpt>
      <trkpt lat="49.94613" lon="2.15129">
        <ele>14.8</ele>
        <time>2023-06-28T13:24:42Z</time>
      </trkpt>
      <trkpt lat="49.94614" lon="2.15129">
        <ele>14.8</ele>
        <time>2023-06-28T13:24:43Z</time>
      </trkpt>
      <trkpt lat="49.94615" lon="2.15128">
        <ele>14.8</ele>
        <time>2023-06-28T13:24:44Z</time>
      </trkpt>
      <trkpt lat="49.94616" lon="2.15128">
        <ele>14.8</ele>
        <time>2023-06-28T13:24:45Z</time>
      </trkpt>
      <trkpt lat="49.94617" lon="2.15128">
        <ele>14.9</ele>
        <time>2023-06-28T13:24:46Z</time>
      </trkpt>
      <trkpt lat="49.94618" lon="2.15128">
        <ele>14.9</ele>
        <time>2023-06-28T13:24:47Z</time>
      </trkpt>
      <trkpt lat="49.94619" lon="2.15128">
        <ele>14.9</ele>
        <time>2023-06-28T13:24:48Z</time>
      </trkpt>
      <trkpt lat="49.94621" lon="2.15126">
        <ele>14.9</ele>
        <time>2023-06-28T13:24:49Z</time>
      </trkpt>
      <trkpt lat="49.94622" lon="2.15126">
        <ele>14.9</ele>
        <time>2023-06-28T13:24:50Z</time>
      </trkpt>
      <trkpt lat="49.94623" lon="2.15125">
        <ele>15</ele>
        <time>2023-06-28T13:24:52Z</time>
      </trkpt>
      <trkpt lat="49.94624" lon="2.15124">
        <ele>15</ele>
        <time>2023-06-28T13:24:53Z</time>
      </trkpt>
      <trkpt lat="49.94625" lon="2.15123">
        <ele>15</ele>
        <time>2023-06-28T13:24:54Z</time>
      </trkpt>
      <trkpt lat="49.94625" lon="2.15122">
        <ele>15</ele>
        <time>2023-06-28T13:24:55Z</time>
      </trkpt>
      <trkpt lat="49.94627" lon="2.15121">
        <ele>15</ele>
        <time>2023-06-28T13:24:56Z</time>
      </trkpt>
      <trkpt lat="49.94628" lon="2.15121">
        <ele>15.1</ele>
        <time>2023-06-28T13:24:58Z</time>
      </trkpt>
      <trkpt lat="49.94629" lon="2.1512">
        <ele>15.1</ele>
        <time>2023-06-28T13:24:59Z</time>
      </trkpt>
      <trkpt lat="49.94629" lon="2.15119">
        <ele>15.1</ele>
        <time>2023-06-28T13:25:00Z</time>
      </trkpt>
      <trkpt lat="49.94628" lon="2.15118">
        <ele>15.1</ele>
        <time>2023-06-28T13:25:01Z</time>
      </trkpt>
      <trkpt lat="49.94627" lon="2.15116">
        <ele>15.1</ele>
        <time>2023-06-28T13:25:02Z</time>
      </trkpt>
      <trkpt lat="49.94626" lon="2.15115">
        <ele>15.1</ele>
        <time>2023-06-28T13:25:04Z</time>
      </trkpt>
      <trkpt lat="49.94626" lon="2.15114">
        <ele>15.1</ele>
        <time>2023-06-28T13:25:05Z</time>
      </trkpt>
      <trkpt lat="49.94625" lon="2.15112">
        <ele>15.1</ele>
        <time>2023-06-28T13:25:06Z</time>
      </trkpt>
      <trkpt lat="49.94625" lon="2.15111">
        <ele>15.1</ele>
        <time>2023-06-28T13:25:07Z</time>
      </trkpt>
      <trkpt lat="49.94625" lon="2.1511">
        <ele>15.2</ele>
        <time>2023-06-28T13:25:08Z</time>
      </trkpt>
      <trkpt lat="49.94625" lon="2.15108">
        <ele>15.2</ele>
        <time>2023-06-28T13:25:09Z</time>
      </trkpt>
      <trkpt lat="49.94626" lon="2.15106">
        <ele>15.2</ele>
        <time>2023-06-28T13:25:11Z</time>
      </trkpt>
      <trkpt lat="49.94627" lon="2.15104">
        <ele>15.2</ele>
        <time>2023-06-28T13:25:12Z</time>
      </trkpt>
      <trkpt lat="49.94629" lon="2.15102">
        <ele>15.3</ele>
        <time>2023-06-28T13:25:13Z</time>
      </trkpt>
      <trkpt lat="49.9463" lon="2.15102">
        <ele>15.3</ele>
        <time>2023-06-28T13:25:14Z</time>
      </trkpt>
      <trkpt lat="49.94633" lon="2.15103">
        <ele>15.3</ele>
        <time>2023-06-28T13:25:15Z</time>
      </trkpt>
      <trkpt lat="49.94634" lon="2.15103">
        <ele>15.3</ele>
        <time>2023-06-28T13:25:16Z</time>
      </trkpt>
      <trkpt lat="49.94635" lon="2.15103">
        <ele>15.3</ele>
        <time>2023-06-28T13:25:17Z</time>
      </trkpt>
      <trkpt lat="49.94636" lon="2.15102">
        <ele>15.3</ele>
        <time>2023-06-28T13:25:18Z</time>
      </trkpt>
      <trkpt lat="49.94637" lon="2.151">
        <ele>15.4</ele>
        <time>2023-06-28T13:25:19Z</time>
      </trkpt>
      <trkpt lat="49.94638" lon="2.15099">
        <ele>15.4</ele>
        <time>2023-06-28T13:25:21Z</time>
      </trkpt>
      <trkpt lat="49.94638" lon="2.15098">
        <ele>15.4</ele>
        <time>2023-06-28T13:25:22Z</time>
      </trkpt>
      <trkpt lat="49.94639" lon="2.15096">
        <ele>15.4</ele>
        <time>2023-06-28T13:25:24Z</time>
      </trkpt>
      <trkpt lat="49.94639" lon="2.15096">
        <ele>15.5</ele>
        <time>2023-06-28T13:25:25Z</time>
      </trkpt>
      <trkpt lat="49.94639" lon="2.15095">
        <ele>15.5</ele>
        <time>2023-06-28T13:25:26Z</time>
      </trkpt>
      <trkpt lat="49.94638" lon="2.15095">
        <ele>15.5</ele>
        <time>2023-06-28T13:25:28Z</time>
      </trkpt>
      <trkpt lat="49.94637" lon="2.15096">
        <ele>15.5</ele>
        <time>2023-06-28T13:25:29Z</time>
      </trkpt>
      <trkpt lat="49.94636" lon="2.15097">
        <ele>15.5</ele>
        <time>2023-06-28T13:25:31Z</time>
      </trkpt>
      <trkpt lat="49.94635" lon="2.15097">
        <ele>15.5</ele>
        <time>2023-06-28T13:25:32Z</time>
      </trkpt>
      <trkpt lat="49.94635" lon="2.15097">
        <ele>15.5</ele>
        <time>2023-06-28T13:25:34Z</time>
      </trkpt>
      <trkpt lat="49.94636" lon="2.15096">
        <ele>15.5</ele>
        <time>2023-06-28T13:25:35Z</time>
      </trkpt>
      <trkpt lat="49.94636" lon="2.15094">
        <ele>15.5</ele>
        <time>2023-06-28T13:25:36Z</time>
      </trkpt>
      <trkpt lat="49.94637" lon="2.15093">
        <ele>15.5</ele>
        <time>2023-06-28T13:25:37Z</time>
      </trkpt>
      <trkpt lat="49.94638" lon="2.1509">
        <ele>15.6</ele>
        <time>2023-06-28T13:25:38Z</time>
      </trkpt>
      <trkpt lat="49.94638" lon="2.15088">
        <ele>15.6</ele>
        <time>2023-06-28T13:25:39Z</time>
      </trkpt>
      <trkpt lat="49.94638" lon="2.15087">
        <ele>15.6</ele>
        <time>2023-06-28T13:25:40Z</time>
      </trkpt>
      <trkpt lat="49.94637" lon="2.15085">
        <ele>15.6</ele>
        <time>2023-06-28T13:25:42Z</time>
      </trkpt>
      <trkpt lat="49.94637" lon="2.15083">
        <ele>15.6</ele>
        <time>2023-06-28T13:25:43Z</time>
      </trkpt>
      <trkpt lat="49.94637" lon="2.15081">
        <ele>15.6</ele>
        <time>2023-06-28T13:25:44Z</time>
      </trkpt>
      <trkpt lat="49.94638" lon="2.15079">
        <ele>15.6</ele>
        <time>2023-06-28T13:25:46Z</time>
      </trkpt>
      <trkpt lat="49.94638" lon="2.15079">
        <ele>15.6</ele>
        <time>2023-06-28T13:25:47Z</time>
      </trkpt>
      <trkpt lat="49.94637" lon="2.15078">
        <ele>15.6</ele>
        <time>2023-06-28T13:25:48Z</time>
      </trkpt>
      <trkpt lat="49.94637" lon="2.15077">
        <ele>15.6</ele>
        <time>2023-06-28T13:25:50Z</time>
      </trkpt>
      <trkpt lat="49.94637" lon="2.15077">
        <ele>15.6</ele>
        <time>2023-06-28T13:25:51Z</time>
      </trkpt>
      <trkpt lat="49.94637" lon="2.15076">
        <ele>15.5</ele>
        <time>2023-06-28T13:25:52Z</time>
      </trkpt>
      <trkpt lat="49.94637" lon="2.15075">
        <ele>15.5</ele>
        <time>2023-06-28T13:25:53Z</time>
      </trkpt>
      <trkpt lat="49.94637" lon="2.15074">
        <ele>15.5</ele>
        <time>2023-06-28T13:25:54Z</time>
      </trkpt>
      <trkpt lat="49.94638" lon="2.15072">
        <ele>15.5</ele>
        <time>2023-06-28T13:25:55Z</time>
      </trkpt>
      <trkpt lat="49.94638" lon="2.15069">
        <ele>15.5</ele>
        <time>2023-06-28T13:25:56Z</time>
      </trkpt>
      <trkpt lat="49.94639" lon="2.15067">
        <ele>15.5</ele>
        <time>2023-06-28T13:25:57Z</time>
      </trkpt>
      <trkpt lat="49.94639" lon="2.15065">
        <ele>15.5</ele>
        <time>2023-06-28T13:25:58Z</time>
      </trkpt>
      <trkpt lat="49.94639" lon="2.15064">
        <ele>15.5</ele>
        <time>2023-06-28T13:25:59Z</time>
      </trkpt>
      <trkpt lat="49.9464" lon="2.15063">
        <ele>15.5</ele>
        <time>2023-06-28T13:26:01Z</time>
      </trkpt>
      <trkpt lat="49.9464" lon="2.15062">
        <ele>15.5</ele>
        <time>2023-06-28T13:26:02Z</time>
      </trkpt>
      <trkpt lat="49.9464" lon="2.1506">
        <ele>15.5</ele>
        <time>2023-06-28T13:26:03Z</time>
      </trkpt>
      <trkpt lat="49.9464" lon="2.15059">
        <ele>15.5</ele>
        <time>2023-06-28T13:26:04Z</time>
      </trkpt>
      <trkpt lat="49.9464" lon="2.15057">
        <ele>15.6</ele>
        <time>2023-06-28T13:26:05Z</time>
      </trkpt>
      <trkpt lat="49.9464" lon="2.15055">
        <ele>15.6</ele>
        <time>2023-06-28T13:26:06Z</time>
      </trkpt>
      <trkpt lat="49.9464" lon="2.15054">
        <ele>15.6</ele>
        <time>2023-06-28T13:26:07Z</time>
      </trkpt>
      <trkpt lat="49.9464" lon="2.15052">
        <ele>15.6</ele>
        <time>2023-06-28T13:26:08Z</time>
      </trkpt>
      <trkpt lat="49.9464" lon="2.15049">
        <ele>15.6</ele>
        <time>2023-06-28T13:26:10Z</time>
      </trkpt>
      <trkpt lat="49.94639" lon="2.15048">
        <ele>15.6</ele>
        <time>2023-06-28T13:26:11Z</time>
      </trkpt>
      <trkpt lat="49.94639" lon="2.15046">
        <ele>15.6</ele>
        <time>2023-06-28T13:26:12Z</time>
      </trkpt>
      <trkpt lat="49.94639" lon="2.15044">
        <ele>15.6</ele>
        <time>2023-06-28T13:26:13Z</time>
      </trkpt>
      <trkpt lat="49.94639" lon="2.15043">
        <ele>15.6</ele>
        <time>2023-06-28T13:26:14Z</time>
      </trkpt>
      <trkpt lat="49.94639" lon="2.15041">
        <ele>15.6</ele>
        <time>2023-06-28T13:26:15Z</time>
      </trkpt>
      <trkpt lat="49.94638" lon="2.15038">
        <ele>15.6</ele>
        <time>2023-06-28T13:26:17Z</time>
      </trkpt>
      <trkpt lat="49.94638" lon="2.15037">
        <ele>15.6</ele>
        <time>2023-06-28T13:26:18Z</time>
      </trkpt>
      <trkpt lat="49.94638" lon="2.15034">
        <ele>15.5</ele>
        <time>2023-06-28T13:26:19Z</time>
      </trkpt>
      <trkpt lat="49.94639" lon="2.15029">
        <ele>15.5</ele>
        <time>2023-06-28T13:26:20Z</time>
      </trkpt>
      <trkpt lat="49.94639" lon="2.15028">
        <ele>15.5</ele>
        <time>2023-06-28T13:26:21Z</time>
      </trkpt>
      <trkpt lat="49.94639" lon="2.15025">
        <ele>15.5</ele>
        <time>2023-06-28T13:26:22Z</time>
      </trkpt>
      <trkpt lat="49.9464" lon="2.15022">
        <ele>15.5</ele>
        <time>2023-06-28T13:26:24Z</time>
      </trkpt>
      <trkpt lat="49.9464" lon="2.15021">
        <ele>15.5</ele>
        <time>2023-06-28T13:26:25Z</time>
      </trkpt>
      <trkpt lat="49.9464" lon="2.15019">
        <ele>15.5</ele>
        <time>2023-06-28T13:26:26Z</time>
      </trkpt>
      <trkpt lat="49.9464" lon="2.15017">
        <ele>15.5</ele>
        <time>2023-06-28T13:26:27Z</time>
      </trkpt>
      <trkpt lat="49.94641" lon="2.15014">
        <ele>15.5</ele>
        <time>2023-06-28T13:26:29Z</time>
      </trkpt>
      <trkpt lat="49.94641" lon="2.15012">
        <ele>15.5</ele>
        <time>2023-06-28T13:26:30Z</time>
      </trkpt>
      <trkpt lat="49.94641" lon="2.1501">
        <ele>15.5</ele>
        <time>2023-06-28T13:26:31Z</time>
      </trkpt>
      <trkpt lat="49.94642" lon="2.15008">
        <ele>15.5</ele>
        <time>2023-06-28T13:26:32Z</time>
      </trkpt>
      <trkpt lat="49.94642" lon="2.15005">
        <ele>15.5</ele>
        <time>2023-06-28T13:26:33Z</time>
      </trkpt>
      <trkpt lat="49.94642" lon="2.15003">
        <ele>15.5</ele>
        <time>2023-06-28T13:26:34Z</time>
      </trkpt>
      <trkpt lat="49.94643" lon="2.14999">
        <ele>15.5</ele>
        <time>2023-06-28T13:26:36Z</time>
      </trkpt>
      <trkpt lat="49.94643" lon="2.14998">
        <ele>15.5</ele>
        <time>2023-06-28T13:26:37Z</time>
      </trkpt>
      <trkpt lat="49.94643" lon="2.14997">
        <ele>15.5</ele>
        <time>2023-06-28T13:26:38Z</time>
      </trkpt>
      <trkpt lat="49.94645" lon="2.14996">
        <ele>15.5</ele>
        <time>2023-06-28T13:26:40Z</time>
      </trkpt>
      <trkpt lat="49.94646" lon="2.14996">
        <ele>15.5</ele>
        <time>2023-06-28T13:26:41Z</time>
      </trkpt>
      <trkpt lat="49.94646" lon="2.14996">
        <ele>15.5</ele>
        <time>2023-06-28T13:26:42Z</time>
      </trkpt>
      <trkpt lat="49.94646" lon="2.14994">
        <ele>15.5</ele>
        <time>2023-06-28T13:26:43Z</time>
      </trkpt>
      <trkpt lat="49.94646" lon="2.14993">
        <ele>15.5</ele>
        <time>2023-06-28T13:26:44Z</time>
      </trkpt>
      <trkpt lat="49.94646" lon="2.14991">
        <ele>15.5</ele>
        <time>2023-06-28T13:26:45Z</time>
      </trkpt>
      <trkpt lat="49.94646" lon="2.14989">
        <ele>15.5</ele>
        <time>2023-06-28T13:26:46Z</time>
      </trkpt>
      <trkpt lat="49.94646" lon="2.14987">
        <ele>15.5</ele>
        <time>2023-06-28T13:26:48Z</time>
      </trkpt>
      <trkpt lat="49.94646" lon="2.14986">
        <ele>15.5</ele>
        <time>2023-06-28T13:26:49Z</time>
      </trkpt>
      <trkpt lat="49.94647" lon="2.14984">
        <ele>15.5</ele>
        <time>2023-06-28T13:26:50Z</time>
      </trkpt>
      <trkpt lat="49.94647" lon="2.14983">
        <ele>15.5</ele>
        <time>2023-06-28T13:26:51Z</time>
      </trkpt>
      <trkpt lat="49.94647" lon="2.14982">
        <ele>15.5</ele>
        <time>2023-06-28T13:26:52Z</time>
      </trkpt>
      <trkpt lat="49.94647" lon="2.14981">
        <ele>15.5</ele>
        <time>2023-06-28T13:26:53Z</time>
      </trkpt>
      <trkpt lat="49.94647" lon="2.1498">
        <ele>15.5</ele>
        <time>2023-06-28T13:26:55Z</time>
      </trkpt>
      <trkpt lat="49.94647" lon="2.14978">
        <ele>15.5</ele>
        <time>2023-06-28T13:26:56Z</time>
      </trkpt>
      <trkpt lat="49.94647" lon="2.14977">
        <ele>15.5</ele>
        <time>2023-06-28T13:26:57Z</time>
      </trkpt>
      <trkpt lat="49.94647" lon="2.14976">
        <ele>15.5</ele>
        <time>2023-06-28T13:26:58Z</time>
      </trkpt>
      <trkpt lat="49.94647" lon="2.14974">
        <ele>15.5</ele>
        <time>2023-06-28T13:26:59Z</time>
      </trkpt>
      <trkpt lat="49.94648" lon="2.14973">
        <ele>15.5</ele>
        <time>2023-06-28T13:27:00Z</time>
      </trkpt>
      <trkpt lat="49.94648" lon="2.14972">
        <ele>15.5</ele>
        <time>2023-06-28T13:27:02Z</time>
      </trkpt>
      <trkpt lat="49.94648" lon="2.14971">
        <ele>15.5</ele>
        <time>2023-06-28T13:27:03Z</time>
      </trkpt>
      <trkpt lat="49.94648" lon="2.14971">
        <ele>15.5</ele>
        <time>2023-06-28T13:27:04Z</time>
      </trkpt>
      <trkpt lat="49.94648" lon="2.1497">
        <ele>15.5</ele>
        <time>2023-06-28T13:27:05Z</time>
      </trkpt>
      <trkpt lat="49.94648" lon="2.14968">
        <ele>15.5</ele>
        <time>2023-06-28T13:27:06Z</time>
      </trkpt>
      <trkpt lat="49.94649" lon="2.14966">
        <ele>15.5</ele>
        <time>2023-06-28T13:27:07Z</time>
      </trkpt>
      <trkpt lat="49.94649" lon="2.14965">
        <ele>15.5</ele>
        <time>2023-06-28T13:27:09Z</time>
      </trkpt>
      <trkpt lat="49.9465" lon="2.14963">
        <ele>15.5</ele>
        <time>2023-06-28T13:27:10Z</time>
      </trkpt>
      <trkpt lat="49.9465" lon="2.14962">
        <ele>15.5</ele>
        <time>2023-06-28T13:27:11Z</time>
      </trkpt>
      <trkpt lat="49.94651" lon="2.14961">
        <ele>15.5</ele>
        <time>2023-06-28T13:27:12Z</time>
      </trkpt>
      <trkpt lat="49.94651" lon="2.1496">
        <ele>15.5</ele>
        <time>2023-06-28T13:27:13Z</time>
      </trkpt>
      <trkpt lat="49.94652" lon="2.14959">
        <ele>15.5</ele>
        <time>2023-06-28T13:27:14Z</time>
      </trkpt>
      <trkpt lat="49.94653" lon="2.14957">
        <ele>15.5</ele>
        <time>2023-06-28T13:27:15Z</time>
      </trkpt>
      <trkpt lat="49.94653" lon="2.14955">
        <ele>15.5</ele>
        <time>2023-06-28T13:27:16Z</time>
      </trkpt>
      <trkpt lat="49.94654" lon="2.14953">
        <ele>15.5</ele>
        <time>2023-06-28T13:27:18Z</time>
      </trkpt>
      <trkpt lat="49.94655" lon="2.14951">
        <ele>15.5</ele>
        <time>2023-06-28T13:27:19Z</time>
      </trkpt>
      <trkpt lat="49.94655" lon="2.1495">
        <ele>15.5</ele>
        <time>2023-06-28T13:27:20Z</time>
      </trkpt>
      <trkpt lat="49.94656" lon="2.14949">
        <ele>15.5</ele>
        <time>2023-06-28T13:27:21Z</time>
      </trkpt>
      <trkpt lat="49.94656" lon="2.14946">
        <ele>15.5</ele>
        <time>2023-06-28T13:27:22Z</time>
      </trkpt>
      <trkpt lat="49.94657" lon="2.14944">
        <ele>15.5</ele>
        <time>2023-06-28T13:27:23Z</time>
      </trkpt>
      <trkpt lat="49.94658" lon="2.14938">
        <ele>15.4</ele>
        <time>2023-06-28T13:27:25Z</time>
      </trkpt>
      <trkpt lat="49.94658" lon="2.14935">
        <ele>15.4</ele>
        <time>2023-06-28T13:27:26Z</time>
      </trkpt>
      <trkpt lat="49.94658" lon="2.14933">
        <ele>15.4</ele>
        <time>2023-06-28T13:27:27Z</time>
      </trkpt>
      <trkpt lat="49.94659" lon="2.14931">
        <ele>15.4</ele>
        <time>2023-06-28T13:27:28Z</time>
      </trkpt>
      <trkpt lat="49.94659" lon="2.14928">
        <ele>15.4</ele>
        <time>2023-06-28T13:27:29Z</time>
      </trkpt>
      <trkpt lat="49.9466" lon="2.14924">
        <ele>15.4</ele>
        <time>2023-06-28T13:27:31Z</time>
      </trkpt>
      <trkpt lat="49.9466" lon="2.14923">
        <ele>15.4</ele>
        <time>2023-06-28T13:27:32Z</time>
      </trkpt>
      <trkpt lat="49.9466" lon="2.14921">
        <ele>15.4</ele>
        <time>2023-06-28T13:27:33Z</time>
      </trkpt>
      <trkpt lat="49.9466" lon="2.14918">
        <ele>15.4</ele>
        <time>2023-06-28T13:27:34Z</time>
      </trkpt>
      <trkpt lat="49.9466" lon="2.14915">
        <ele>15.4</ele>
        <time>2023-06-28T13:27:35Z</time>
      </trkpt>
      <trkpt lat="49.9466" lon="2.14913">
        <ele>15.4</ele>
        <time>2023-06-28T13:27:36Z</time>
      </trkpt>
      <trkpt lat="49.9466" lon="2.14909">
        <ele>15.4</ele>
        <time>2023-06-28T13:27:37Z</time>
      </trkpt>
      <trkpt lat="49.9466" lon="2.14907">
        <ele>15.4</ele>
        <time>2023-06-28T13:27:39Z</time>
      </trkpt>
      <trkpt lat="49.94661" lon="2.14905">
        <ele>15.4</ele>
        <time>2023-06-28T13:27:40Z</time>
      </trkpt>
      <trkpt lat="49.94661" lon="2.14904">
        <ele>15.4</ele>
        <time>2023-06-28T13:27:41Z</time>
      </trkpt>
      <trkpt lat="49.94661" lon="2.14902">
        <ele>15.4</ele>
        <time>2023-06-28T13:27:42Z</time>
      </trkpt>
      <trkpt lat="49.94661" lon="2.149">
        <ele>15.4</ele>
        <time>2023-06-28T13:27:43Z</time>
      </trkpt>
      <trkpt lat="49.94661" lon="2.14897">
        <ele>15.3</ele>
        <time>2023-06-28T13:27:44Z</time>
      </trkpt>
      <trkpt lat="49.94662" lon="2.14895">
        <ele>15.3</ele>
        <time>2023-06-28T13:27:45Z</time>
      </trkpt>
      <trkpt lat="49.94662" lon="2.14893">
        <ele>15.3</ele>
        <time>2023-06-28T13:27:47Z</time>
      </trkpt>
      <trkpt lat="49.94662" lon="2.14891">
        <ele>15.3</ele>
        <time>2023-06-28T13:27:48Z</time>
      </trkpt>
      <trkpt lat="49.94663" lon="2.14889">
        <ele>15.3</ele>
        <time>2023-06-28T13:27:49Z</time>
      </trkpt>
      <trkpt lat="49.94663" lon="2.14885">
        <ele>15.3</ele>
        <time>2023-06-28T13:27:50Z</time>
      </trkpt>
      <trkpt lat="49.94663" lon="2.14884">
        <ele>15.3</ele>
        <time>2023-06-28T13:27:51Z</time>
      </trkpt>
      <trkpt lat="49.94663" lon="2.14883">
        <ele>15.3</ele>
        <time>2023-06-28T13:27:52Z</time>
      </trkpt>
      <trkpt lat="49.94664" lon="2.14881">
        <ele>15.3</ele>
        <time>2023-06-28T13:27:53Z</time>
      </trkpt>
      <trkpt lat="49.94664" lon="2.1488">
        <ele>15.3</ele>
        <time>2023-06-28T13:27:54Z</time>
      </trkpt>
      <trkpt lat="49.94664" lon="2.14878">
        <ele>15.3</ele>
        <time>2023-06-28T13:27:55Z</time>
      </trkpt>
      <trkpt lat="49.94665" lon="2.14875">
        <ele>15.3</ele>
        <time>2023-06-28T13:27:56Z</time>
      </trkpt>
      <trkpt lat="49.94665" lon="2.14873">
        <ele>15.3</ele>
        <time>2023-06-28T13:27:58Z</time>
      </trkpt>
      <trkpt lat="49.94665" lon="2.14872">
        <ele>15.3</ele>
        <time>2023-06-28T13:27:59Z</time>
      </trkpt>
      <trkpt lat="49.94665" lon="2.1487">
        <ele>15.3</ele>
        <time>2023-06-28T13:28:00Z</time>
      </trkpt>
      <trkpt lat="49.94665" lon="2.14868">
        <ele>15.3</ele>
        <time>2023-06-28T13:28:01Z</time>
      </trkpt>
      <trkpt lat="49.94665" lon="2.14865">
        <ele>15.3</ele>
        <time>2023-06-28T13:28:02Z</time>
      </trkpt>
      <trkpt lat="49.94665" lon="2.14863">
        <ele>15.3</ele>
        <time>2023-06-28T13:28:03Z</time>
      </trkpt>
      <trkpt lat="49.94665" lon="2.14862">
        <ele>15.3</ele>
        <time>2023-06-28T13:28:04Z</time>
      </trkpt>
      <trkpt lat="49.94665" lon="2.1486">
        <ele>15.3</ele>
        <time>2023-06-28T13:28:05Z</time>
      </trkpt>
      <trkpt lat="49.94665" lon="2.14858">
        <ele>15.3</ele>
        <time>2023-06-28T13:28:06Z</time>
      </trkpt>
      <trkpt lat="49.94666" lon="2.14856">
        <ele>15.3</ele>
        <time>2023-06-28T13:28:08Z</time>
      </trkpt>
      <trkpt lat="49.94666" lon="2.14854">
        <ele>15.3</ele>
        <time>2023-06-28T13:28:09Z</time>
      </trkpt>
      <trkpt lat="49.94667" lon="2.14852">
        <ele>15.3</ele>
        <time>2023-06-28T13:28:11Z</time>
      </trkpt>
      <trkpt lat="49.94667" lon="2.14851">
        <ele>15.3</ele>
        <time>2023-06-28T13:28:12Z</time>
      </trkpt>
      <trkpt lat="49.94667" lon="2.14848">
        <ele>15.4</ele>
        <time>2023-06-28T13:28:13Z</time>
      </trkpt>
      <trkpt lat="49.94667" lon="2.14846">
        <ele>15.4</ele>
        <time>2023-06-28T13:28:14Z</time>
      </trkpt>
      <trkpt lat="49.94667" lon="2.14845">
        <ele>15.4</ele>
        <time>2023-06-28T13:28:15Z</time>
      </trkpt>
      <trkpt lat="49.94668" lon="2.14841">
        <ele>15.4</ele>
        <time>2023-06-28T13:28:16Z</time>
      </trkpt>
      <trkpt lat="49.94668" lon="2.1484">
        <ele>15.4</ele>
        <time>2023-06-28T13:28:17Z</time>
      </trkpt>
      <trkpt lat="49.94668" lon="2.14838">
        <ele>15.4</ele>
        <time>2023-06-28T13:28:18Z</time>
      </trkpt>
      <trkpt lat="49.94668" lon="2.14836">
        <ele>15.4</ele>
        <time>2023-06-28T13:28:20Z</time>
      </trkpt>
      <trkpt lat="49.94668" lon="2.14834">
        <ele>15.4</ele>
        <time>2023-06-28T13:28:21Z</time>
      </trkpt>
      <trkpt lat="49.94668" lon="2.14832">
        <ele>15.4</ele>
        <time>2023-06-28T13:28:22Z</time>
      </trkpt>
      <trkpt lat="49.94668" lon="2.1483">
        <ele>15.4</ele>
        <time>2023-06-28T13:28:23Z</time>
      </trkpt>
      <trkpt lat="49.94668" lon="2.14826">
        <ele>15.4</ele>
        <time>2023-06-28T13:28:24Z</time>
      </trkpt>
      <trkpt lat="49.94668" lon="2.14825">
        <ele>15.4</ele>
        <time>2023-06-28T13:28:25Z</time>
      </trkpt>
      <trkpt lat="49.94668" lon="2.14824">
        <ele>15.5</ele>
        <time>2023-06-28T13:28:26Z</time>
      </trkpt>
      <trkpt lat="49.94668" lon="2.14822">
        <ele>15.5</ele>
        <time>2023-06-28T13:28:27Z</time>
      </trkpt>
      <trkpt lat="49.94668" lon="2.1482">
        <ele>15.5</ele>
        <time>2023-06-28T13:28:28Z</time>
      </trkpt>
      <trkpt lat="49.94669" lon="2.14816">
        <ele>15.5</ele>
        <time>2023-06-28T13:28:30Z</time>
      </trkpt>
      <trkpt lat="49.94669" lon="2.14814">
        <ele>15.5</ele>
        <time>2023-06-28T13:28:32Z</time>
      </trkpt>
      <trkpt lat="49.94669" lon="2.1481">
        <ele>15.5</ele>
        <time>2023-06-28T13:28:33Z</time>
      </trkpt>
      <trkpt lat="49.94669" lon="2.14809">
        <ele>15.5</ele>
        <time>2023-06-28T13:28:34Z</time>
      </trkpt>
      <trkpt lat="49.94669" lon="2.14808">
        <ele>15.5</ele>
        <time>2023-06-28T13:28:35Z</time>
      </trkpt>
      <trkpt lat="49.94669" lon="2.14805">
        <ele>15.5</ele>
        <time>2023-06-28T13:28:36Z</time>
      </trkpt>
      <trkpt lat="49.94669" lon="2.14803">
        <ele>15.5</ele>
        <time>2023-06-28T13:28:38Z</time>
      </trkpt>
      <trkpt lat="49.94668" lon="2.14801">
        <ele>15.5</ele>
        <time>2023-06-28T13:28:39Z</time>
      </trkpt>
      <trkpt lat="49.94668" lon="2.14799">
        <ele>15.6</ele>
        <time>2023-06-28T13:28:40Z</time>
      </trkpt>
      <trkpt lat="49.94668" lon="2.14798">
        <ele>15.6</ele>
        <time>2023-06-28T13:28:41Z</time>
      </trkpt>
      <trkpt lat="49.94667" lon="2.14795">
        <ele>15.6</ele>
        <time>2023-06-28T13:28:42Z</time>
      </trkpt>
      <trkpt lat="49.94667" lon="2.14793">
        <ele>15.6</ele>
        <time>2023-06-28T13:28:43Z</time>
      </trkpt>
      <trkpt lat="49.94667" lon="2.14792">
        <ele>15.6</ele>
        <time>2023-06-28T13:28:44Z</time>
      </trkpt>
      <trkpt lat="49.94667" lon="2.1479">
        <ele>15.6</ele>
        <time>2023-06-28T13:28:45Z</time>
      </trkpt>
      <trkpt lat="49.94666" lon="2.14787">
        <ele>15.6</ele>
        <time>2023-06-28T13:28:47Z</time>
      </trkpt>
      <trkpt lat="49.94665" lon="2.14785">
        <ele>15.6</ele>
        <time>2023-06-28T13:28:48Z</time>
      </trkpt>
      <trkpt lat="49.94665" lon="2.14782">
        <ele>15.6</ele>
        <time>2023-06-28T13:28:49Z</time>
      </trkpt>
      <trkpt lat="49.94664" lon="2.1478">
        <ele>15.6</ele>
        <time>2023-06-28T13:28:50Z</time>
      </trkpt>
      <trkpt lat="49.94663" lon="2.14778">
        <ele>15.6</ele>
        <time>2023-06-28T13:28:51Z</time>
      </trkpt>
      <trkpt lat="49.94662" lon="2.14776">
        <ele>15.6</ele>
        <time>2023-06-28T13:28:52Z</time>
      </trkpt>
      <trkpt lat="49.94661" lon="2.14774">
        <ele>15.6</ele>
        <time>2023-06-28T13:28:54Z</time>
      </trkpt>
      <trkpt lat="49.9466" lon="2.14772">
        <ele>15.6</ele>
        <time>2023-06-28T13:28:55Z</time>
      </trkpt>
      <trkpt lat="49.94659" lon="2.1477">
        <ele>15.6</ele>
        <time>2023-06-28T13:28:56Z</time>
      </trkpt>
      <trkpt lat="49.94657" lon="2.14767">
        <ele>15.6</ele>
        <time>2023-06-28T13:28:57Z</time>
      </trkpt>
      <trkpt lat="49.94656" lon="2.14766">
        <ele>15.6</ele>
        <time>2023-06-28T13:28:58Z</time>
      </trkpt>
      <trkpt lat="49.94655" lon="2.14764">
        <ele>15.6</ele>
        <time>2023-06-28T13:29:00Z</time>
      </trkpt>
      <trkpt lat="49.94654" lon="2.14762">
        <ele>15.6</ele>
        <time>2023-06-28T13:29:01Z</time>
      </trkpt>
      <trkpt lat="49.94653" lon="2.1476">
        <ele>15.6</ele>
        <time>2023-06-28T13:29:02Z</time>
      </trkpt>
      <trkpt lat="49.94652" lon="2.14758">
        <ele>15.6</ele>
        <time>2023-06-28T13:29:03Z</time>
      </trkpt>
      <trkpt lat="49.94652" lon="2.14757">
        <ele>15.6</ele>
        <time>2023-06-28T13:29:04Z</time>
      </trkpt>
      <trkpt lat="49.94651" lon="2.14755">
        <ele>15.6</ele>
        <time>2023-06-28T13:29:05Z</time>
      </trkpt>
      <trkpt lat="49.9465" lon="2.14753">
        <ele>15.6</ele>
        <time>2023-06-28T13:29:06Z</time>
      </trkpt>
      <trkpt lat="49.94649" lon="2.14752">
        <ele>15.6</ele>
        <time>2023-06-28T13:29:07Z</time>
      </trkpt>
      <trkpt lat="49.94648" lon="2.1475">
        <ele>15.6</ele>
        <time>2023-06-28T13:29:08Z</time>
      </trkpt>
      <trkpt lat="49.94647" lon="2.14748">
        <ele>15.6</ele>
        <time>2023-06-28T13:29:10Z</time>
      </trkpt>
      <trkpt lat="49.94647" lon="2.14746">
        <ele>15.6</ele>
        <time>2023-06-28T13:29:11Z</time>
      </trkpt>
      <trkpt lat="49.94646" lon="2.14744">
        <ele>15.6</ele>
        <time>2023-06-28T13:29:12Z</time>
      </trkpt>
      <trkpt lat="49.94645" lon="2.14741">
        <ele>15.6</ele>
        <time>2023-06-28T13:29:13Z</time>
      </trkpt>
      <trkpt lat="49.94644" lon="2.1474">
        <ele>15.6</ele>
        <time>2023-06-28T13:29:14Z</time>
      </trkpt>
      <trkpt lat="49.94644" lon="2.14739">
        <ele>15.6</ele>
        <time>2023-06-28T13:29:15Z</time>
      </trkpt>
      <trkpt lat="49.94643" lon="2.14736">
        <ele>15.6</ele>
        <time>2023-06-28T13:29:16Z</time>
      </trkpt>
      <trkpt lat="49.94642" lon="2.14735">
        <ele>15.6</ele>
        <time>2023-06-28T13:29:18Z</time>
      </trkpt>
      <trkpt lat="49.94642" lon="2.14734">
        <ele>15.6</ele>
        <time>2023-06-28T13:29:19Z</time>
      </trkpt>
      <trkpt lat="49.94641" lon="2.14732">
        <ele>15.6</ele>
        <time>2023-06-28T13:29:20Z</time>
      </trkpt>
      <trkpt lat="49.9464" lon="2.1473">
        <ele>15.6</ele>
        <time>2023-06-28T13:29:21Z</time>
      </trkpt>
      <trkpt lat="49.94639" lon="2.14727">
        <ele>15.6</ele>
        <time>2023-06-28T13:29:23Z</time>
      </trkpt>
      <trkpt lat="49.94638" lon="2.14726">
        <ele>15.6</ele>
        <time>2023-06-28T13:29:24Z</time>
      </trkpt>
      <trkpt lat="49.94638" lon="2.14724">
        <ele>15.6</ele>
        <time>2023-06-28T13:29:25Z</time>
      </trkpt>
      <trkpt lat="49.94637" lon="2.14722">
        <ele>15.6</ele>
        <time>2023-06-28T13:29:26Z</time>
      </trkpt>
      <trkpt lat="49.94636" lon="2.14719">
        <ele>15.6</ele>
        <time>2023-06-28T13:29:28Z</time>
      </trkpt>
      <trkpt lat="49.94635" lon="2.14717">
        <ele>15.6</ele>
        <time>2023-06-28T13:29:29Z</time>
      </trkpt>
      <trkpt lat="49.94635" lon="2.14716">
        <ele>15.6</ele>
        <time>2023-06-28T13:29:30Z</time>
      </trkpt>
      <trkpt lat="49.94635" lon="2.14714">
        <ele>15.6</ele>
        <time>2023-06-28T13:29:31Z</time>
      </trkpt>
      <trkpt lat="49.94634" lon="2.14712">
        <ele>15.6</ele>
        <time>2023-06-28T13:29:32Z</time>
      </trkpt>
      <trkpt lat="49.94634" lon="2.14711">
        <ele>15.6</ele>
        <time>2023-06-28T13:29:33Z</time>
      </trkpt>
      <trkpt lat="49.94633" lon="2.14709">
        <ele>15.6</ele>
        <time>2023-06-28T13:29:34Z</time>
      </trkpt>
      <trkpt lat="49.94632" lon="2.14708">
        <ele>15.6</ele>
        <time>2023-06-28T13:29:36Z</time>
      </trkpt>
      <trkpt lat="49.94631" lon="2.14706">
        <ele>15.6</ele>
        <time>2023-06-28T13:29:37Z</time>
      </trkpt>
      <trkpt lat="49.94631" lon="2.14705">
        <ele>15.6</ele>
        <time>2023-06-28T13:29:38Z</time>
      </trkpt>
      <trkpt lat="49.94629" lon="2.14703">
        <ele>15.6</ele>
        <time>2023-06-28T13:29:40Z</time>
      </trkpt>
      <trkpt lat="49.94628" lon="2.14703">
        <ele>15.6</ele>
        <time>2023-06-28T13:29:41Z</time>
      </trkpt>
      <trkpt lat="49.94627" lon="2.14702">
        <ele>15.6</ele>
        <time>2023-06-28T13:29:42Z</time>
      </trkpt>
      <trkpt lat="49.94625" lon="2.14701">
        <ele>15.6</ele>
        <time>2023-06-28T13:29:44Z</time>
      </trkpt>
      <trkpt lat="49.94624" lon="2.147">
        <ele>15.6</ele>
        <time>2023-06-28T13:29:45Z</time>
      </trkpt>
      <trkpt lat="49.94624" lon="2.14699">
        <ele>15.6</ele>
        <time>2023-06-28T13:29:46Z</time>
      </trkpt>
      <trkpt lat="49.94623" lon="2.14698">
        <ele>15.5</ele>
        <time>2023-06-28T13:29:47Z</time>
      </trkpt>
      <trkpt lat="49.94621" lon="2.14695">
        <ele>15.5</ele>
        <time>2023-06-28T13:29:48Z</time>
      </trkpt>
      <trkpt lat="49.94621" lon="2.14694">
        <ele>15.5</ele>
        <time>2023-06-28T13:29:50Z</time>
      </trkpt>
      <trkpt lat="49.9462" lon="2.14693">
        <ele>15.5</ele>
        <time>2023-06-28T13:29:51Z</time>
      </trkpt>
      <trkpt lat="49.94619" lon="2.14692">
        <ele>15.5</ele>
        <time>2023-06-28T13:29:52Z</time>
      </trkpt>
      <trkpt lat="49.94618" lon="2.1469">
        <ele>15.5</ele>
        <time>2023-06-28T13:29:53Z</time>
      </trkpt>
      <trkpt lat="49.94617" lon="2.14688">
        <ele>15.5</ele>
        <time>2023-06-28T13:29:54Z</time>
      </trkpt>
      <trkpt lat="49.94616" lon="2.14686">
        <ele>15.5</ele>
        <time>2023-06-28T13:29:56Z</time>
      </trkpt>
      <trkpt lat="49.94615" lon="2.14684">
        <ele>15.5</ele>
        <time>2023-06-28T13:29:57Z</time>
      </trkpt>
      <trkpt lat="49.94615" lon="2.14682">
        <ele>15.4</ele>
        <time>2023-06-28T13:29:58Z</time>
      </trkpt>
      <trkpt lat="49.94614" lon="2.1468">
        <ele>15.4</ele>
        <time>2023-06-28T13:29:59Z</time>
      </trkpt>
      <trkpt lat="49.94613" lon="2.14679">
        <ele>15.4</ele>
        <time>2023-06-28T13:30:00Z</time>
      </trkpt>
      <trkpt lat="49.94613" lon="2.14678">
        <ele>15.4</ele>
        <time>2023-06-28T13:30:01Z</time>
      </trkpt>
      <trkpt lat="49.94612" lon="2.14677">
        <ele>15.4</ele>
        <time>2023-06-28T13:30:03Z</time>
      </trkpt>
      <trkpt lat="49.94612" lon="2.14676">
        <ele>15.4</ele>
        <time>2023-06-28T13:30:04Z</time>
      </trkpt>
      <trkpt lat="49.94611" lon="2.14675">
        <ele>15.4</ele>
        <time>2023-06-28T13:30:05Z</time>
      </trkpt>
      <trkpt lat="49.9461" lon="2.14673">
        <ele>15.4</ele>
        <time>2023-06-28T13:30:07Z</time>
      </trkpt>
      <trkpt lat="49.94609" lon="2.14672">
        <ele>15.3</ele>
        <time>2023-06-28T13:30:08Z</time>
      </trkpt>
      <trkpt lat="49.94608" lon="2.14669">
        <ele>15.3</ele>
        <time>2023-06-28T13:30:09Z</time>
      </trkpt>
      <trkpt lat="49.94608" lon="2.14668">
        <ele>15.3</ele>
        <time>2023-06-28T13:30:10Z</time>
      </trkpt>
      <trkpt lat="49.94608" lon="2.14667">
        <ele>15.3</ele>
        <time>2023-06-28T13:30:11Z</time>
      </trkpt>
      <trkpt lat="49.94607" lon="2.14664">
        <ele>15.3</ele>
        <time>2023-06-28T13:30:13Z</time>
      </trkpt>
      <trkpt lat="49.94607" lon="2.14662">
        <ele>15.3</ele>
        <time>2023-06-28T13:30:14Z</time>
      </trkpt>
      <trkpt lat="49.94607" lon="2.1466">
        <ele>15.3</ele>
        <time>2023-06-28T13:30:15Z</time>
      </trkpt>
      <trkpt lat="49.94607" lon="2.14658">
        <ele>15.2</ele>
        <time>2023-06-28T13:30:16Z</time>
      </trkpt>
      <trkpt lat="49.94606" lon="2.14654">
        <ele>15.2</ele>
        <time>2023-06-28T13:30:17Z</time>
      </trkpt>
      <trkpt lat="49.94606" lon="2.14653">
        <ele>15.2</ele>
        <time>2023-06-28T13:30:18Z</time>
      </trkpt>
      <trkpt lat="49.94606" lon="2.14652">
        <ele>15.2</ele>
        <time>2023-06-28T13:30:19Z</time>
      </trkpt>
      <trkpt lat="49.94605" lon="2.1465">
        <ele>15.2</ele>
        <time>2023-06-28T13:30:20Z</time>
      </trkpt>
      <trkpt lat="49.94605" lon="2.14647">
        <ele>15.2</ele>
        <time>2023-06-28T13:30:22Z</time>
      </trkpt>
      <trkpt lat="49.94604" lon="2.14646">
        <ele>15.2</ele>
        <time>2023-06-28T13:30:23Z</time>
      </trkpt>
      <trkpt lat="49.94603" lon="2.14644">
        <ele>15.2</ele>
        <time>2023-06-28T13:30:24Z</time>
      </trkpt>
      <trkpt lat="49.94603" lon="2.14642">
        <ele>15.2</ele>
        <time>2023-06-28T13:30:25Z</time>
      </trkpt>
      <trkpt lat="49.94602" lon="2.1464">
        <ele>15.1</ele>
        <time>2023-06-28T13:30:26Z</time>
      </trkpt>
      <trkpt lat="49.94601" lon="2.14636">
        <ele>15.1</ele>
        <time>2023-06-28T13:30:28Z</time>
      </trkpt>
      <trkpt lat="49.94601" lon="2.14634">
        <ele>15.1</ele>
        <time>2023-06-28T13:30:30Z</time>
      </trkpt>
      <trkpt lat="49.946" lon="2.14632">
        <ele>15.1</ele>
        <time>2023-06-28T13:30:31Z</time>
      </trkpt>
      <trkpt lat="49.946" lon="2.1463">
        <ele>15.1</ele>
        <time>2023-06-28T13:30:32Z</time>
      </trkpt>
      <trkpt lat="49.946" lon="2.14629">
        <ele>15.1</ele>
        <time>2023-06-28T13:30:33Z</time>
      </trkpt>
      <trkpt lat="49.946" lon="2.14627">
        <ele>15.1</ele>
        <time>2023-06-28T13:30:34Z</time>
      </trkpt>
      <trkpt lat="49.94599" lon="2.14625">
        <ele>15.1</ele>
        <time>2023-06-28T13:30:35Z</time>
      </trkpt>
      <trkpt lat="49.94599" lon="2.14623">
        <ele>15.1</ele>
        <time>2023-06-28T13:30:37Z</time>
      </trkpt>
      <trkpt lat="49.94599" lon="2.14621">
        <ele>15.1</ele>
        <time>2023-06-28T13:30:38Z</time>
      </trkpt>
      <trkpt lat="49.94598" lon="2.14619">
        <ele>15.1</ele>
        <time>2023-06-28T13:30:39Z</time>
      </trkpt>
      <trkpt lat="49.94598" lon="2.14617">
        <ele>15.1</ele>
        <time>2023-06-28T13:30:40Z</time>
      </trkpt>
      <trkpt lat="49.94598" lon="2.14614">
        <ele>15.1</ele>
        <time>2023-06-28T13:30:42Z</time>
      </trkpt>
      <trkpt lat="49.94597" lon="2.14612">
        <ele>15.1</ele>
        <time>2023-06-28T13:30:43Z</time>
      </trkpt>
      <trkpt lat="49.94598" lon="2.14611">
        <ele>15.1</ele>
        <time>2023-06-28T13:30:44Z</time>
      </trkpt>
      <trkpt lat="49.94597" lon="2.14608">
        <ele>15.1</ele>
        <time>2023-06-28T13:30:46Z</time>
      </trkpt>
      <trkpt lat="49.94597" lon="2.14606">
        <ele>15</ele>
        <time>2023-06-28T13:30:47Z</time>
      </trkpt>
      <trkpt lat="49.94597" lon="2.14605">
        <ele>15</ele>
        <time>2023-06-28T13:30:48Z</time>
      </trkpt>
      <trkpt lat="49.94596" lon="2.14603">
        <ele>15</ele>
        <time>2023-06-28T13:30:49Z</time>
      </trkpt>
      <trkpt lat="49.94595" lon="2.14601">
        <ele>15</ele>
        <time>2023-06-28T13:30:50Z</time>
      </trkpt>
      <trkpt lat="49.94595" lon="2.14599">
        <ele>15</ele>
        <time>2023-06-28T13:30:51Z</time>
      </trkpt>
      <trkpt lat="49.94594" lon="2.14598">
        <ele>15</ele>
        <time>2023-06-28T13:30:52Z</time>
      </trkpt>
      <trkpt lat="49.94593" lon="2.14595">
        <ele>15</ele>
        <time>2023-06-28T13:30:53Z</time>
      </trkpt>
      <trkpt lat="49.94593" lon="2.14593">
        <ele>14.9</ele>
        <time>2023-06-28T13:30:55Z</time>
      </trkpt>
      <trkpt lat="49.94592" lon="2.14592">
        <ele>15</ele>
        <time>2023-06-28T13:30:56Z</time>
      </trkpt>
      <trkpt lat="49.94592" lon="2.1459">
        <ele>15</ele>
        <time>2023-06-28T13:30:57Z</time>
      </trkpt>
      <trkpt lat="49.94591" lon="2.14588">
        <ele>14.9</ele>
        <time>2023-06-28T13:30:58Z</time>
      </trkpt>
      <trkpt lat="49.9459" lon="2.14585">
        <ele>14.9</ele>
        <time>2023-06-28T13:30:59Z</time>
      </trkpt>
      <trkpt lat="49.9459" lon="2.14584">
        <ele>14.9</ele>
        <time>2023-06-28T13:31:01Z</time>
      </trkpt>
      <trkpt lat="49.94589" lon="2.14582">
        <ele>14.9</ele>
        <time>2023-06-28T13:31:02Z</time>
      </trkpt>
      <trkpt lat="49.94589" lon="2.14581">
        <ele>14.9</ele>
        <time>2023-06-28T13:31:03Z</time>
      </trkpt>
      <trkpt lat="49.94588" lon="2.1458">
        <ele>14.9</ele>
        <time>2023-06-28T13:31:04Z</time>
      </trkpt>
      <trkpt lat="49.94587" lon="2.14579">
        <ele>14.9</ele>
        <time>2023-06-28T13:31:05Z</time>
      </trkpt>
      <trkpt lat="49.94586" lon="2.14576">
        <ele>14.8</ele>
        <time>2023-06-28T13:31:06Z</time>
      </trkpt>
      <trkpt lat="49.94585" lon="2.14575">
        <ele>14.9</ele>
        <time>2023-06-28T13:31:08Z</time>
      </trkpt>
      <trkpt lat="49.94584" lon="2.14574">
        <ele>14.9</ele>
        <time>2023-06-28T13:31:09Z</time>
      </trkpt>
      <trkpt lat="49.94583" lon="2.14573">
        <ele>14.8</ele>
        <time>2023-06-28T13:31:10Z</time>
      </trkpt>
      <trkpt lat="49.94583" lon="2.14572">
        <ele>14.8</ele>
        <time>2023-06-28T13:31:11Z</time>
      </trkpt>
      <trkpt lat="49.94582" lon="2.14571">
        <ele>14.8</ele>
        <time>2023-06-28T13:31:12Z</time>
      </trkpt>
      <trkpt lat="49.94581" lon="2.1457">
        <ele>14.9</ele>
        <time>2023-06-28T13:31:13Z</time>
      </trkpt>
      <trkpt lat="49.9458" lon="2.14568">
        <ele>14.8</ele>
        <time>2023-06-28T13:31:15Z</time>
      </trkpt>
      <trkpt lat="49.94579" lon="2.14567">
        <ele>14.8</ele>
        <time>2023-06-28T13:31:16Z</time>
      </trkpt>
      <trkpt lat="49.94579" lon="2.14566">
        <ele>14.8</ele>
        <time>2023-06-28T13:31:17Z</time>
      </trkpt>
      <trkpt lat="49.94578" lon="2.14565">
        <ele>14.8</ele>
        <time>2023-06-28T13:31:18Z</time>
      </trkpt>
      <trkpt lat="49.94578" lon="2.14564">
        <ele>14.8</ele>
        <time>2023-06-28T13:31:19Z</time>
      </trkpt>
      <trkpt lat="49.94577" lon="2.14564">
        <ele>14.8</ele>
        <time>2023-06-28T13:31:20Z</time>
      </trkpt>
      <trkpt lat="49.94576" lon="2.14562">
        <ele>14.8</ele>
        <time>2023-06-28T13:31:22Z</time>
      </trkpt>
      <trkpt lat="49.94575" lon="2.14562">
        <ele>14.8</ele>
        <time>2023-06-28T13:31:23Z</time>
      </trkpt>
      <trkpt lat="49.94574" lon="2.1456">
        <ele>14.8</ele>
        <time>2023-06-28T13:31:24Z</time>
      </trkpt>
      <trkpt lat="49.94573" lon="2.14559">
        <ele>14.8</ele>
        <time>2023-06-28T13:31:25Z</time>
      </trkpt>
      <trkpt lat="49.94573" lon="2.14558">
        <ele>14.9</ele>
        <time>2023-06-28T13:31:26Z</time>
      </trkpt>
      <trkpt lat="49.94572" lon="2.14556">
        <ele>14.8</ele>
        <time>2023-06-28T13:31:27Z</time>
      </trkpt>
      <trkpt lat="49.94572" lon="2.14554">
        <ele>14.8</ele>
        <time>2023-06-28T13:31:29Z</time>
      </trkpt>
      <trkpt lat="49.94572" lon="2.14552">
        <ele>14.9</ele>
        <time>2023-06-28T13:31:30Z</time>
      </trkpt>
      <trkpt lat="49.94572" lon="2.14551">
        <ele>14.9</ele>
        <time>2023-06-28T13:31:31Z</time>
      </trkpt>
      <trkpt lat="49.94573" lon="2.1455">
        <ele>14.9</ele>
        <time>2023-06-28T13:31:32Z</time>
      </trkpt>
      <trkpt lat="49.94573" lon="2.14548">
        <ele>14.9</ele>
        <time>2023-06-28T13:31:33Z</time>
      </trkpt>
      <trkpt lat="49.94574" lon="2.14546">
        <ele>15</ele>
        <time>2023-06-28T13:31:34Z</time>
      </trkpt>
      <trkpt lat="49.94574" lon="2.14545">
        <ele>15</ele>
        <time>2023-06-28T13:31:35Z</time>
      </trkpt>
      <trkpt lat="49.94575" lon="2.14543">
        <ele>15</ele>
        <time>2023-06-28T13:31:36Z</time>
      </trkpt>
      <trkpt lat="49.94577" lon="2.14541">
        <ele>15</ele>
        <time>2023-06-28T13:31:38Z</time>
      </trkpt>
      <trkpt lat="49.94578" lon="2.14541">
        <ele>15.1</ele>
        <time>2023-06-28T13:31:39Z</time>
      </trkpt>
      <trkpt lat="49.94579" lon="2.1454">
        <ele>15.1</ele>
        <time>2023-06-28T13:31:40Z</time>
      </trkpt>
      <trkpt lat="49.9458" lon="2.14539">
        <ele>15.1</ele>
        <time>2023-06-28T13:31:41Z</time>
      </trkpt>
      <trkpt lat="49.94581" lon="2.14539">
        <ele>15.2</ele>
        <time>2023-06-28T13:31:42Z</time>
      </trkpt>
      <trkpt lat="49.94582" lon="2.14539">
        <ele>15.2</ele>
        <time>2023-06-28T13:31:43Z</time>
      </trkpt>
      <trkpt lat="49.94583" lon="2.14538">
        <ele>15.2</ele>
        <time>2023-06-28T13:31:44Z</time>
      </trkpt>
      <trkpt lat="49.94583" lon="2.14536">
        <ele>15.2</ele>
        <time>2023-06-28T13:31:45Z</time>
      </trkpt>
      <trkpt lat="49.94585" lon="2.14536">
        <ele>15.2</ele>
        <time>2023-06-28T13:31:47Z</time>
      </trkpt>
      <trkpt lat="49.94586" lon="2.14536">
        <ele>15.3</ele>
        <time>2023-06-28T13:31:48Z</time>
      </trkpt>
      <trkpt lat="49.94587" lon="2.14537">
        <ele>15.3</ele>
        <time>2023-06-28T13:31:49Z</time>
      </trkpt>
      <trkpt lat="49.94588" lon="2.14537">
        <ele>15.3</ele>
        <time>2023-06-28T13:31:50Z</time>
      </trkpt>
      <trkpt lat="49.94589" lon="2.14536">
        <ele>15.3</ele>
        <time>2023-06-28T13:31:51Z</time>
      </trkpt>
      <trkpt lat="49.9459" lon="2.14534">
        <ele>15.4</ele>
        <time>2023-06-28T13:31:53Z</time>
      </trkpt>
      <trkpt lat="49.9459" lon="2.14533">
        <ele>15.4</ele>
        <time>2023-06-28T13:31:54Z</time>
      </trkpt>
      <trkpt lat="49.94591" lon="2.14531">
        <ele>15.4</ele>
        <time>2023-06-28T13:31:55Z</time>
      </trkpt>
      <trkpt lat="49.94591" lon="2.1453">
        <ele>15.4</ele>
        <time>2023-06-28T13:31:56Z</time>
      </trkpt>
      <trkpt lat="49.94592" lon="2.14529">
        <ele>15.4</ele>
        <time>2023-06-28T13:31:57Z</time>
      </trkpt>
      <trkpt lat="49.94593" lon="2.14527">
        <ele>15.4</ele>
        <time>2023-06-28T13:31:59Z</time>
      </trkpt>
      <trkpt lat="49.94594" lon="2.14527">
        <ele>15.5</ele>
        <time>2023-06-28T13:32:00Z</time>
      </trkpt>
      <trkpt lat="49.94594" lon="2.14527">
        <ele>15.5</ele>
        <time>2023-06-28T13:32:01Z</time>
      </trkpt>
      <trkpt lat="49.94595" lon="2.14526">
        <ele>15.5</ele>
        <time>2023-06-28T13:32:03Z</time>
      </trkpt>
      <trkpt lat="49.94595" lon="2.14525">
        <ele>15.5</ele>
        <time>2023-06-28T13:32:04Z</time>
      </trkpt>
      <trkpt lat="49.94595" lon="2.14523">
        <ele>15.5</ele>
        <time>2023-06-28T13:32:05Z</time>
      </trkpt>
      <trkpt lat="49.94595" lon="2.1452">
        <ele>15.5</ele>
        <time>2023-06-28T13:32:06Z</time>
      </trkpt>
      <trkpt lat="49.94594" lon="2.14518">
        <ele>15.5</ele>
        <time>2023-06-28T13:32:07Z</time>
      </trkpt>
      <trkpt lat="49.94594" lon="2.14517">
        <ele>15.5</ele>
        <time>2023-06-28T13:32:08Z</time>
      </trkpt>
      <trkpt lat="49.94594" lon="2.14515">
        <ele>15.5</ele>
        <time>2023-06-28T13:32:09Z</time>
      </trkpt>
      <trkpt lat="49.94592" lon="2.14514">
        <ele>15.5</ele>
        <time>2023-06-28T13:32:11Z</time>
      </trkpt>
      <trkpt lat="49.94591" lon="2.14513">
        <ele>15.5</ele>
        <time>2023-06-28T13:32:12Z</time>
      </trkpt>
      <trkpt lat="49.9459" lon="2.14511">
        <ele>15.5</ele>
        <time>2023-06-28T13:32:13Z</time>
      </trkpt>
      <trkpt lat="49.94589" lon="2.1451">
        <ele>15.5</ele>
        <time>2023-06-28T13:32:14Z</time>
      </trkpt>
      <trkpt lat="49.94588" lon="2.14508">
        <ele>15.5</ele>
        <time>2023-06-28T13:32:15Z</time>
      </trkpt>
      <trkpt lat="49.94587" lon="2.14507">
        <ele>15.5</ele>
        <time>2023-06-28T13:32:16Z</time>
      </trkpt>
      <trkpt lat="49.94586" lon="2.14505">
        <ele>15.5</ele>
        <time>2023-06-28T13:32:17Z</time>
      </trkpt>
      <trkpt lat="49.94586" lon="2.14503">
        <ele>15.5</ele>
        <time>2023-06-28T13:32:18Z</time>
      </trkpt>
      <trkpt lat="49.94585" lon="2.14501">
        <ele>15.5</ele>
        <time>2023-06-28T13:32:19Z</time>
      </trkpt>
      <trkpt lat="49.94584" lon="2.14498">
        <ele>15.5</ele>
        <time>2023-06-28T13:32:21Z</time>
      </trkpt>
      <trkpt lat="49.94584" lon="2.14496">
        <ele>15.5</ele>
        <time>2023-06-28T13:32:22Z</time>
      </trkpt>
      <trkpt lat="49.94584" lon="2.14495">
        <ele>15.5</ele>
        <time>2023-06-28T13:32:23Z</time>
      </trkpt>
      <trkpt lat="49.94583" lon="2.14492">
        <ele>15.4</ele>
        <time>2023-06-28T13:32:24Z</time>
      </trkpt>
      <trkpt lat="49.94582" lon="2.1449">
        <ele>15.4</ele>
        <time>2023-06-28T13:32:26Z</time>
      </trkpt>
      <trkpt lat="49.94582" lon="2.14488">
        <ele>15.4</ele>
        <time>2023-06-28T13:32:27Z</time>
      </trkpt>
      <trkpt lat="49.94582" lon="2.14485">
        <ele>15.4</ele>
        <time>2023-06-28T13:32:28Z</time>
      </trkpt>
      <trkpt lat="49.94581" lon="2.14483">
        <ele>15.4</ele>
        <time>2023-06-28T13:32:29Z</time>
      </trkpt>
      <trkpt lat="49.94581" lon="2.14481">
        <ele>15.4</ele>
        <time>2023-06-28T13:32:30Z</time>
      </trkpt>
      <trkpt lat="49.94582" lon="2.14476">
        <ele>15.4</ele>
        <time>2023-06-28T13:32:32Z</time>
      </trkpt>
      <trkpt lat="49.94583" lon="2.14474">
        <ele>15.4</ele>
        <time>2023-06-28T13:32:33Z</time>
      </trkpt>
      <trkpt lat="49.94583" lon="2.14471">
        <ele>15.4</ele>
        <time>2023-06-28T13:32:34Z</time>
      </trkpt>
      <trkpt lat="49.94584" lon="2.14469">
        <ele>15.4</ele>
        <time>2023-06-28T13:32:36Z</time>
      </trkpt>
      <trkpt lat="49.94584" lon="2.14467">
        <ele>15.4</ele>
        <time>2023-06-28T13:32:37Z</time>
      </trkpt>
      <trkpt lat="49.94585" lon="2.14465">
        <ele>15.4</ele>
        <time>2023-06-28T13:32:38Z</time>
      </trkpt>
      <trkpt lat="49.94586" lon="2.14463">
        <ele>15.4</ele>
        <time>2023-06-28T13:32:39Z</time>
      </trkpt>
      <trkpt lat="49.94587" lon="2.1446">
        <ele>15.4</ele>
        <time>2023-06-28T13:32:40Z</time>
      </trkpt>
      <trkpt lat="49.94588" lon="2.14459">
        <ele>15.4</ele>
        <time>2023-06-28T13:32:42Z</time>
      </trkpt>
      <trkpt lat="49.94588" lon="2.14457">
        <ele>15.4</ele>
        <time>2023-06-28T13:32:43Z</time>
      </trkpt>
      <trkpt lat="49.94589" lon="2.14456">
        <ele>15.4</ele>
        <time>2023-06-28T13:32:44Z</time>
      </trkpt>
      <trkpt lat="49.94589" lon="2.14454">
        <ele>15.4</ele>
        <time>2023-06-28T13:32:45Z</time>
      </trkpt>
      <trkpt lat="49.9459" lon="2.14453">
        <ele>15.4</ele>
        <time>2023-06-28T13:32:46Z</time>
      </trkpt>
      <trkpt lat="49.94591" lon="2.14451">
        <ele>15.4</ele>
        <time>2023-06-28T13:32:47Z</time>
      </trkpt>
      <trkpt lat="49.94591" lon="2.14449">
        <ele>15.4</ele>
        <time>2023-06-28T13:32:48Z</time>
      </trkpt>
      <trkpt lat="49.94592" lon="2.14447">
        <ele>15.4</ele>
        <time>2023-06-28T13:32:49Z</time>
      </trkpt>
      <trkpt lat="49.94593" lon="2.14446">
        <ele>15.4</ele>
        <time>2023-06-28T13:32:51Z</time>
      </trkpt>
      <trkpt lat="49.94594" lon="2.14445">
        <ele>15.4</ele>
        <time>2023-06-28T13:32:52Z</time>
      </trkpt>
      <trkpt lat="49.94595" lon="2.14443">
        <ele>15.4</ele>
        <time>2023-06-28T13:32:53Z</time>
      </trkpt>
      <trkpt lat="49.94596" lon="2.14442">
        <ele>15.4</ele>
        <time>2023-06-28T13:32:54Z</time>
      </trkpt>
      <trkpt lat="49.94597" lon="2.14439">
        <ele>15.4</ele>
        <time>2023-06-28T13:32:55Z</time>
      </trkpt>
      <trkpt lat="49.94598" lon="2.14437">
        <ele>15.4</ele>
        <time>2023-06-28T13:32:57Z</time>
      </trkpt>
      <trkpt lat="49.94599" lon="2.14436">
        <ele>15.4</ele>
        <time>2023-06-28T13:32:58Z</time>
      </trkpt>
      <trkpt lat="49.94599" lon="2.14435">
        <ele>15.5</ele>
        <time>2023-06-28T13:32:59Z</time>
      </trkpt>
      <trkpt lat="49.946" lon="2.14434">
        <ele>15.5</ele>
        <time>2023-06-28T13:33:00Z</time>
      </trkpt>
      <trkpt lat="49.94601" lon="2.14431">
        <ele>15.5</ele>
        <time>2023-06-28T13:33:02Z</time>
      </trkpt>
      <trkpt lat="49.94602" lon="2.14429">
        <ele>15.5</ele>
        <time>2023-06-28T13:33:03Z</time>
      </trkpt>
      <trkpt lat="49.94602" lon="2.14428">
        <ele>15.5</ele>
        <time>2023-06-28T13:33:04Z</time>
      </trkpt>
      <trkpt lat="49.94603" lon="2.14426">
        <ele>15.5</ele>
        <time>2023-06-28T13:33:05Z</time>
      </trkpt>
      <trkpt lat="49.94604" lon="2.14425">
        <ele>15.5</ele>
        <time>2023-06-28T13:33:06Z</time>
      </trkpt>
      <trkpt lat="49.94604" lon="2.14422">
        <ele>15.5</ele>
        <time>2023-06-28T13:33:07Z</time>
      </trkpt>
      <trkpt lat="49.94605" lon="2.14421">
        <ele>15.5</ele>
        <time>2023-06-28T13:33:09Z</time>
      </trkpt>
      <trkpt lat="49.94605" lon="2.14419">
        <ele>15.5</ele>
        <time>2023-06-28T13:33:10Z</time>
      </trkpt>
      <trkpt lat="49.94606" lon="2.14417">
        <ele>15.5</ele>
        <time>2023-06-28T13:33:11Z</time>
      </trkpt>
      <trkpt lat="49.94607" lon="2.14416">
        <ele>15.5</ele>
        <time>2023-06-28T13:33:12Z</time>
      </trkpt>
      <trkpt lat="49.94607" lon="2.14414">
        <ele>15.5</ele>
        <time>2023-06-28T13:33:13Z</time>
      </trkpt>
      <trkpt lat="49.94608" lon="2.14413">
        <ele>15.5</ele>
        <time>2023-06-28T13:33:14Z</time>
      </trkpt>
      <trkpt lat="49.94609" lon="2.14411">
        <ele>15.5</ele>
        <time>2023-06-28T13:33:15Z</time>
      </trkpt>
      <trkpt lat="49.9461" lon="2.1441">
        <ele>15.5</ele>
        <time>2023-06-28T13:33:16Z</time>
      </trkpt>
      <trkpt lat="49.94611" lon="2.14407">
        <ele>15.5</ele>
        <time>2023-06-28T13:33:18Z</time>
      </trkpt>
      <trkpt lat="49.94612" lon="2.14406">
        <ele>15.5</ele>
        <time>2023-06-28T13:33:19Z</time>
      </trkpt>
      <trkpt lat="49.94613" lon="2.14405">
        <ele>15.5</ele>
        <time>2023-06-28T13:33:20Z</time>
      </trkpt>
      <trkpt lat="49.94613" lon="2.14403">
        <ele>15.4</ele>
        <time>2023-06-28T13:33:21Z</time>
      </trkpt>
      <trkpt lat="49.94614" lon="2.144">
        <ele>15.4</ele>
        <time>2023-06-28T13:33:22Z</time>
      </trkpt>
      <trkpt lat="49.94614" lon="2.14399">
        <ele>15.4</ele>
        <time>2023-06-28T13:33:23Z</time>
      </trkpt>
      <trkpt lat="49.94615" lon="2.14398">
        <ele>15.4</ele>
        <time>2023-06-28T13:33:24Z</time>
      </trkpt>
      <trkpt lat="49.94615" lon="2.14396">
        <ele>15.4</ele>
        <time>2023-06-28T13:33:26Z</time>
      </trkpt>
      <trkpt lat="49.94616" lon="2.14395">
        <ele>15.4</ele>
        <time>2023-06-28T13:33:27Z</time>
      </trkpt>
      <trkpt lat="49.94617" lon="2.14392">
        <ele>15.4</ele>
        <time>2023-06-28T13:33:29Z</time>
      </trkpt>
      <trkpt lat="49.94617" lon="2.14391">
        <ele>15.4</ele>
        <time>2023-06-28T13:33:30Z</time>
      </trkpt>
      <trkpt lat="49.94618" lon="2.14389">
        <ele>15.4</ele>
        <time>2023-06-28T13:33:31Z</time>
      </trkpt>
      <trkpt lat="49.94619" lon="2.14388">
        <ele>15.4</ele>
        <time>2023-06-28T13:33:32Z</time>
      </trkpt>
      <trkpt lat="49.9462" lon="2.14387">
        <ele>15.4</ele>
        <time>2023-06-28T13:33:34Z</time>
      </trkpt>
      <trkpt lat="49.9462" lon="2.14386">
        <ele>15.4</ele>
        <time>2023-06-28T13:33:35Z</time>
      </trkpt>
      <trkpt lat="49.9462" lon="2.14385">
        <ele>15.4</ele>
        <time>2023-06-28T13:33:36Z</time>
      </trkpt>
      <trkpt lat="49.94621" lon="2.14384">
        <ele>15.4</ele>
        <time>2023-06-28T13:33:37Z</time>
      </trkpt>
      <trkpt lat="49.94622" lon="2.14383">
        <ele>15.4</ele>
        <time>2023-06-28T13:33:38Z</time>
      </trkpt>
      <trkpt lat="49.94622" lon="2.14382">
        <ele>15.4</ele>
        <time>2023-06-28T13:33:39Z</time>
      </trkpt>
      <trkpt lat="49.94622" lon="2.1438">
        <ele>15.4</ele>
        <time>2023-06-28T13:33:40Z</time>
      </trkpt>
      <trkpt lat="49.94622" lon="2.14379">
        <ele>15.4</ele>
        <time>2023-06-28T13:33:42Z</time>
      </trkpt>
      <trkpt lat="49.94623" lon="2.14378">
        <ele>15.4</ele>
        <time>2023-06-28T13:33:43Z</time>
      </trkpt>
      <trkpt lat="49.94623" lon="2.14376">
        <ele>15.4</ele>
        <time>2023-06-28T13:33:44Z</time>
      </trkpt>
      <trkpt lat="49.94624" lon="2.14375">
        <ele>15.4</ele>
        <time>2023-06-28T13:33:45Z</time>
      </trkpt>
      <trkpt lat="49.94625" lon="2.14372">
        <ele>15.4</ele>
        <time>2023-06-28T13:33:46Z</time>
      </trkpt>
      <trkpt lat="49.94625" lon="2.14371">
        <ele>15.4</ele>
        <time>2023-06-28T13:33:47Z</time>
      </trkpt>
      <trkpt lat="49.94625" lon="2.1437">
        <ele>15.4</ele>
        <time>2023-06-28T13:33:48Z</time>
      </trkpt>
      <trkpt lat="49.94626" lon="2.14367">
        <ele>15.4</ele>
        <time>2023-06-28T13:33:50Z</time>
      </trkpt>
      <trkpt lat="49.94627" lon="2.14365">
        <ele>15.4</ele>
        <time>2023-06-28T13:33:51Z</time>
      </trkpt>
      <trkpt lat="49.94628" lon="2.14363">
        <ele>15.4</ele>
        <time>2023-06-28T13:33:53Z</time>
      </trkpt>
      <trkpt lat="49.94629" lon="2.14361">
        <ele>15.4</ele>
        <time>2023-06-28T13:33:54Z</time>
      </trkpt>
      <trkpt lat="49.9463" lon="2.14358">
        <ele>15.4</ele>
        <time>2023-06-28T13:33:55Z</time>
      </trkpt>
      <trkpt lat="49.9463" lon="2.14357">
        <ele>15.4</ele>
        <time>2023-06-28T13:33:56Z</time>
      </trkpt>
      <trkpt lat="49.9463" lon="2.14356">
        <ele>15.4</ele>
        <time>2023-06-28T13:33:57Z</time>
      </trkpt>
      <trkpt lat="49.94631" lon="2.14354">
        <ele>15.4</ele>
        <time>2023-06-28T13:33:58Z</time>
      </trkpt>
      <trkpt lat="49.94632" lon="2.14352">
        <ele>15.4</ele>
        <time>2023-06-28T13:33:59Z</time>
      </trkpt>
      <trkpt lat="49.94633" lon="2.1435">
        <ele>15.4</ele>
        <time>2023-06-28T13:34:00Z</time>
      </trkpt>
      <trkpt lat="49.94633" lon="2.14349">
        <ele>15.4</ele>
        <time>2023-06-28T13:34:01Z</time>
      </trkpt>
      <trkpt lat="49.94634" lon="2.14347">
        <ele>15.4</ele>
        <time>2023-06-28T13:34:02Z</time>
      </trkpt>
      <trkpt lat="49.94635" lon="2.14345">
        <ele>15.4</ele>
        <time>2023-06-28T13:34:04Z</time>
      </trkpt>
      <trkpt lat="49.94636" lon="2.14343">
        <ele>15.4</ele>
        <time>2023-06-28T13:34:05Z</time>
      </trkpt>
      <trkpt lat="49.94637" lon="2.14341">
        <ele>15.4</ele>
        <time>2023-06-28T13:34:06Z</time>
      </trkpt>
      <trkpt lat="49.94637" lon="2.14339">
        <ele>15.4</ele>
        <time>2023-06-28T13:34:07Z</time>
      </trkpt>
      <trkpt lat="49.94638" lon="2.14337">
        <ele>15.4</ele>
        <time>2023-06-28T13:34:08Z</time>
      </trkpt>
      <trkpt lat="49.94639" lon="2.14335">
        <ele>15.4</ele>
        <time>2023-06-28T13:34:09Z</time>
      </trkpt>
      <trkpt lat="49.9464" lon="2.14333">
        <ele>15.4</ele>
        <time>2023-06-28T13:34:10Z</time>
      </trkpt>
      <trkpt lat="49.9464" lon="2.14331">
        <ele>15.4</ele>
        <time>2023-06-28T13:34:11Z</time>
      </trkpt>
      <trkpt lat="49.94641" lon="2.1433">
        <ele>15.4</ele>
        <time>2023-06-28T13:34:12Z</time>
      </trkpt>
      <trkpt lat="49.94641" lon="2.14328">
        <ele>15.4</ele>
        <time>2023-06-28T13:34:14Z</time>
      </trkpt>
      <trkpt lat="49.94642" lon="2.14326">
        <ele>15.4</ele>
        <time>2023-06-28T13:34:15Z</time>
      </trkpt>
      <trkpt lat="49.94642" lon="2.14325">
        <ele>15.4</ele>
        <time>2023-06-28T13:34:16Z</time>
      </trkpt>
      <trkpt lat="49.94643" lon="2.14324">
        <ele>15.4</ele>
        <time>2023-06-28T13:34:17Z</time>
      </trkpt>
      <trkpt lat="49.94644" lon="2.14322">
        <ele>15.4</ele>
        <time>2023-06-28T13:34:18Z</time>
      </trkpt>
      <trkpt lat="49.94644" lon="2.14321">
        <ele>15.3</ele>
        <time>2023-06-28T13:34:19Z</time>
      </trkpt>
      <trkpt lat="49.94645" lon="2.14319">
        <ele>15.3</ele>
        <time>2023-06-28T13:34:20Z</time>
      </trkpt>
      <trkpt lat="49.94646" lon="2.14318">
        <ele>15.3</ele>
        <time>2023-06-28T13:34:22Z</time>
      </trkpt>
      <trkpt lat="49.94647" lon="2.14317">
        <ele>15.3</ele>
        <time>2023-06-28T13:34:23Z</time>
      </trkpt>
      <trkpt lat="49.94648" lon="2.14316">
        <ele>15.3</ele>
        <time>2023-06-28T13:34:24Z</time>
      </trkpt>
      <trkpt lat="49.94648" lon="2.14315">
        <ele>15.3</ele>
        <time>2023-06-28T13:34:25Z</time>
      </trkpt>
      <trkpt lat="49.94649" lon="2.14313">
        <ele>15.3</ele>
        <time>2023-06-28T13:34:26Z</time>
      </trkpt>
      <trkpt lat="49.94649" lon="2.14312">
        <ele>15.3</ele>
        <time>2023-06-28T13:34:27Z</time>
      </trkpt>
      <trkpt lat="49.9465" lon="2.14309">
        <ele>15.3</ele>
        <time>2023-06-28T13:34:28Z</time>
      </trkpt>
      <trkpt lat="49.94651" lon="2.14308">
        <ele>15.3</ele>
        <time>2023-06-28T13:34:29Z</time>
      </trkpt>
      <trkpt lat="49.94651" lon="2.14307">
        <ele>15.3</ele>
        <time>2023-06-28T13:34:30Z</time>
      </trkpt>
      <trkpt lat="49.94652" lon="2.14306">
        <ele>15.2</ele>
        <time>2023-06-28T13:34:31Z</time>
      </trkpt>
      <trkpt lat="49.94652" lon="2.14304">
        <ele>15.2</ele>
        <time>2023-06-28T13:34:33Z</time>
      </trkpt>
      <trkpt lat="49.94652" lon="2.14302">
        <ele>15.2</ele>
        <time>2023-06-28T13:34:34Z</time>
      </trkpt>
      <trkpt lat="49.94653" lon="2.143">
        <ele>15.2</ele>
        <time>2023-06-28T13:34:35Z</time>
      </trkpt>
      <trkpt lat="49.94653" lon="2.14299">
        <ele>15.2</ele>
        <time>2023-06-28T13:34:36Z</time>
      </trkpt>
      <trkpt lat="49.94654" lon="2.14298">
        <ele>15.2</ele>
        <time>2023-06-28T13:34:37Z</time>
      </trkpt>
      <trkpt lat="49.94654" lon="2.14297">
        <ele>15.2</ele>
        <time>2023-06-28T13:34:38Z</time>
      </trkpt>
      <trkpt lat="49.94655" lon="2.14295">
        <ele>15.2</ele>
        <time>2023-06-28T13:34:40Z</time>
      </trkpt>
      <trkpt lat="49.94655" lon="2.14293">
        <ele>15.2</ele>
        <time>2023-06-28T13:34:41Z</time>
      </trkpt>
      <trkpt lat="49.94657" lon="2.14291">
        <ele>15.2</ele>
        <time>2023-06-28T13:34:42Z</time>
      </trkpt>
      <trkpt lat="49.94657" lon="2.1429">
        <ele>15.2</ele>
        <time>2023-06-28T13:34:43Z</time>
      </trkpt>
      <trkpt lat="49.94658" lon="2.14289">
        <ele>15.2</ele>
        <time>2023-06-28T13:34:44Z</time>
      </trkpt>
      <trkpt lat="49.94658" lon="2.14287">
        <ele>15.2</ele>
        <time>2023-06-28T13:34:45Z</time>
      </trkpt>
      <trkpt lat="49.94659" lon="2.14285">
        <ele>15.2</ele>
        <time>2023-06-28T13:34:47Z</time>
      </trkpt>
      <trkpt lat="49.9466" lon="2.14284">
        <ele>15.2</ele>
        <time>2023-06-28T13:34:48Z</time>
      </trkpt>
      <trkpt lat="49.94661" lon="2.14283">
        <ele>15.2</ele>
        <time>2023-06-28T13:34:49Z</time>
      </trkpt>
      <trkpt lat="49.94662" lon="2.14281">
        <ele>15.2</ele>
        <time>2023-06-28T13:34:50Z</time>
      </trkpt>
      <trkpt lat="49.94662" lon="2.14279">
        <ele>15.2</ele>
        <time>2023-06-28T13:34:51Z</time>
      </trkpt>
      <trkpt lat="49.94662" lon="2.14278">
        <ele>15.2</ele>
        <time>2023-06-28T13:34:52Z</time>
      </trkpt>
      <trkpt lat="49.94663" lon="2.14277">
        <ele>15.2</ele>
        <time>2023-06-28T13:34:53Z</time>
      </trkpt>
      <trkpt lat="49.94663" lon="2.14274">
        <ele>15.2</ele>
        <time>2023-06-28T13:34:55Z</time>
      </trkpt>
      <trkpt lat="49.94664" lon="2.14273">
        <ele>15.3</ele>
        <time>2023-06-28T13:34:56Z</time>
      </trkpt>
      <trkpt lat="49.94664" lon="2.14271">
        <ele>15.3</ele>
        <time>2023-06-28T13:34:57Z</time>
      </trkpt>
      <trkpt lat="49.94665" lon="2.14269">
        <ele>15.3</ele>
        <time>2023-06-28T13:34:58Z</time>
      </trkpt>
      <trkpt lat="49.94665" lon="2.14267">
        <ele>15.3</ele>
        <time>2023-06-28T13:34:59Z</time>
      </trkpt>
      <trkpt lat="49.94666" lon="2.14264">
        <ele>15.3</ele>
        <time>2023-06-28T13:35:01Z</time>
      </trkpt>
      <trkpt lat="49.94666" lon="2.14262">
        <ele>15.3</ele>
        <time>2023-06-28T13:35:02Z</time>
      </trkpt>
      <trkpt lat="49.94666" lon="2.14261">
        <ele>15.3</ele>
        <time>2023-06-28T13:35:03Z</time>
      </trkpt>
      <trkpt lat="49.94666" lon="2.1426">
        <ele>15.4</ele>
        <time>2023-06-28T13:35:04Z</time>
      </trkpt>
      <trkpt lat="49.94666" lon="2.14258">
        <ele>15.4</ele>
        <time>2023-06-28T13:35:05Z</time>
      </trkpt>
      <trkpt lat="49.94666" lon="2.14256">
        <ele>15.4</ele>
        <time>2023-06-28T13:35:06Z</time>
      </trkpt>
      <trkpt lat="49.94666" lon="2.14255">
        <ele>15.4</ele>
        <time>2023-06-28T13:35:08Z</time>
      </trkpt>
      <trkpt lat="49.94667" lon="2.14253">
        <ele>15.5</ele>
        <time>2023-06-28T13:35:09Z</time>
      </trkpt>
      <trkpt lat="49.94667" lon="2.14251">
        <ele>15.5</ele>
        <time>2023-06-28T13:35:10Z</time>
      </trkpt>
      <trkpt lat="49.94667" lon="2.14249">
        <ele>15.5</ele>
        <time>2023-06-28T13:35:11Z</time>
      </trkpt>
      <trkpt lat="49.94667" lon="2.14248">
        <ele>15.6</ele>
        <time>2023-06-28T13:35:12Z</time>
      </trkpt>
      <trkpt lat="49.94667" lon="2.14247">
        <ele>15.6</ele>
        <time>2023-06-28T13:35:13Z</time>
      </trkpt>
      <trkpt lat="49.94668" lon="2.14245">
        <ele>15.6</ele>
        <time>2023-06-28T13:35:14Z</time>
      </trkpt>
      <trkpt lat="49.94668" lon="2.14242">
        <ele>15.7</ele>
        <time>2023-06-28T13:35:15Z</time>
      </trkpt>
      <trkpt lat="49.94668" lon="2.14241">
        <ele>15.7</ele>
        <time>2023-06-28T13:35:17Z</time>
      </trkpt>
      <trkpt lat="49.94669" lon="2.1424">
        <ele>15.7</ele>
        <time>2023-06-28T13:35:18Z</time>
      </trkpt>
      <trkpt lat="49.94669" lon="2.14238">
        <ele>15.8</ele>
        <time>2023-06-28T13:35:19Z</time>
      </trkpt>
      <trkpt lat="49.94669" lon="2.14237">
        <ele>15.8</ele>
        <time>2023-06-28T13:35:20Z</time>
      </trkpt>
      <trkpt lat="49.9467" lon="2.14236">
        <ele>15.8</ele>
        <time>2023-06-28T13:35:21Z</time>
      </trkpt>
      <trkpt lat="49.9467" lon="2.14234">
        <ele>15.9</ele>
        <time>2023-06-28T13:35:23Z</time>
      </trkpt>
      <trkpt lat="49.9467" lon="2.1423">
        <ele>16</ele>
        <time>2023-06-28T13:35:24Z</time>
      </trkpt>
      <trkpt lat="49.9467" lon="2.14229">
        <ele>16</ele>
        <time>2023-06-28T13:35:25Z</time>
      </trkpt>
      <trkpt lat="49.9467" lon="2.14227">
        <ele>16</ele>
        <time>2023-06-28T13:35:26Z</time>
      </trkpt>
      <trkpt lat="49.9467" lon="2.14225">
        <ele>16.1</ele>
        <time>2023-06-28T13:35:27Z</time>
      </trkpt>
      <trkpt lat="49.9467" lon="2.14224">
        <ele>16.1</ele>
        <time>2023-06-28T13:35:28Z</time>
      </trkpt>
      <trkpt lat="49.9467" lon="2.14223">
        <ele>16.1</ele>
        <time>2023-06-28T13:35:30Z</time>
      </trkpt>
      <trkpt lat="49.94669" lon="2.14221">
        <ele>16.2</ele>
        <time>2023-06-28T13:35:31Z</time>
      </trkpt>
      <trkpt lat="49.94669" lon="2.1422">
        <ele>16.2</ele>
        <time>2023-06-28T13:35:32Z</time>
      </trkpt>
      <trkpt lat="49.94666" lon="2.14219">
        <ele>16.3</ele>
        <time>2023-06-28T13:35:34Z</time>
      </trkpt>
      <trkpt lat="49.94665" lon="2.14219">
        <ele>16.3</ele>
        <time>2023-06-28T13:35:35Z</time>
      </trkpt>
      <trkpt lat="49.94663" lon="2.1422">
        <ele>16.3</ele>
        <time>2023-06-28T13:35:36Z</time>
      </trkpt>
      <trkpt lat="49.94662" lon="2.14221">
        <ele>16.3</ele>
        <time>2023-06-28T13:35:37Z</time>
      </trkpt>
      <trkpt lat="49.9466" lon="2.14222">
        <ele>16.3</ele>
        <time>2023-06-28T13:35:38Z</time>
      </trkpt>
      <trkpt lat="49.94658" lon="2.14222">
        <ele>16.4</ele>
        <time>2023-06-28T13:35:39Z</time>
      </trkpt>
      <trkpt lat="49.94657" lon="2.14222">
        <ele>16.4</ele>
        <time>2023-06-28T13:35:40Z</time>
      </trkpt>
      <trkpt lat="49.94657" lon="2.14221">
        <ele>16.4</ele>
        <time>2023-06-28T13:35:41Z</time>
      </trkpt>
      <trkpt lat="49.94655" lon="2.14222">
        <ele>16.4</ele>
        <time>2023-06-28T13:35:42Z</time>
      </trkpt>
      <trkpt lat="49.94654" lon="2.14222">
        <ele>16.4</ele>
        <time>2023-06-28T13:35:44Z</time>
      </trkpt>
      <trkpt lat="49.94653" lon="2.14222">
        <ele>16.4</ele>
        <time>2023-06-28T13:35:45Z</time>
      </trkpt>
      <trkpt lat="49.94652" lon="2.14222">
        <ele>16.4</ele>
        <time>2023-06-28T13:35:46Z</time>
      </trkpt>
      <trkpt lat="49.94651" lon="2.14223">
        <ele>16.4</ele>
        <time>2023-06-28T13:35:47Z</time>
      </trkpt>
      <trkpt lat="49.94649" lon="2.14223">
        <ele>16.4</ele>
        <time>2023-06-28T13:35:49Z</time>
      </trkpt>
      <trkpt lat="49.94648" lon="2.14224">
        <ele>16.4</ele>
        <time>2023-06-28T13:35:50Z</time>
      </trkpt>
      <trkpt lat="49.94647" lon="2.14226">
        <ele>16.4</ele>
        <time>2023-06-28T13:35:52Z</time>
      </trkpt>
      <trkpt lat="49.94646" lon="2.14227">
        <ele>16.4</ele>
        <time>2023-06-28T13:35:53Z</time>
      </trkpt>
      <trkpt lat="49.94645" lon="2.14227">
        <ele>16.4</ele>
        <time>2023-06-28T13:35:54Z</time>
      </trkpt>
      <trkpt lat="49.94645" lon="2.14227">
        <ele>16.4</ele>
        <time>2023-06-28T13:35:55Z</time>
      </trkpt>
      <trkpt lat="49.94644" lon="2.14227">
        <ele>16.4</ele>
        <time>2023-06-28T13:35:56Z</time>
      </trkpt>
      <trkpt lat="49.94642" lon="2.14228">
        <ele>16.4</ele>
        <time>2023-06-28T13:35:57Z</time>
      </trkpt>
      <trkpt lat="49.94641" lon="2.14228">
        <ele>16.4</ele>
        <time>2023-06-28T13:35:59Z</time>
      </trkpt>
      <trkpt lat="49.94641" lon="2.14228">
        <ele>16.4</ele>
        <time>2023-06-28T13:36:00Z</time>
      </trkpt>
      <trkpt lat="49.9464" lon="2.14228">
        <ele>16.5</ele>
        <time>2023-06-28T13:36:01Z</time>
      </trkpt>
      <trkpt lat="49.9464" lon="2.14227">
        <ele>16.5</ele>
        <time>2023-06-28T13:36:02Z</time>
      </trkpt>
      <trkpt lat="49.9464" lon="2.14226">
        <ele>16.5</ele>
        <time>2023-06-28T13:36:03Z</time>
      </trkpt>
      <trkpt lat="49.94639" lon="2.14225">
        <ele>16.5</ele>
        <time>2023-06-28T13:36:04Z</time>
      </trkpt>
      <trkpt lat="49.94638" lon="2.14221">
        <ele>16.2</ele>
        <time>2023-06-28T13:36:06Z</time>
      </trkpt>
      <trkpt lat="49.94637" lon="2.14218">
        <ele>16.1</ele>
        <time>2023-06-28T13:36:08Z</time>
      </trkpt>
      <trkpt lat="49.94637" lon="2.14215">
        <ele>15.9</ele>
        <time>2023-06-28T13:36:09Z</time>
      </trkpt>
      <trkpt lat="49.94637" lon="2.14213">
        <ele>15.8</ele>
        <time>2023-06-28T13:36:10Z</time>
      </trkpt>
      <trkpt lat="49.94637" lon="2.1421">
        <ele>15.7</ele>
        <time>2023-06-28T13:36:11Z</time>
      </trkpt>
      <trkpt lat="49.94636" lon="2.14209">
        <ele>15.5</ele>
        <time>2023-06-28T13:36:12Z</time>
      </trkpt>
      <trkpt lat="49.94636" lon="2.14206">
        <ele>15.4</ele>
        <time>2023-06-28T13:36:13Z</time>
      </trkpt>
      <trkpt lat="49.94635" lon="2.14204">
        <ele>15.3</ele>
        <time>2023-06-28T13:36:15Z</time>
      </trkpt>
      <trkpt lat="49.94635" lon="2.14203">
        <ele>15.2</ele>
        <time>2023-06-28T13:36:16Z</time>
      </trkpt>
      <trkpt lat="49.94635" lon="2.142">
        <ele>15.1</ele>
        <time>2023-06-28T13:36:17Z</time>
      </trkpt>
      <trkpt lat="49.94635" lon="2.14198">
        <ele>15</ele>
        <time>2023-06-28T13:36:18Z</time>
      </trkpt>
      <trkpt lat="49.94635" lon="2.14197">
        <ele>14.9</ele>
        <time>2023-06-28T13:36:19Z</time>
      </trkpt>
      <trkpt lat="49.94635" lon="2.14192">
        <ele>14.7</ele>
        <time>2023-06-28T13:36:21Z</time>
      </trkpt>
      <trkpt lat="49.94635" lon="2.14191">
        <ele>14.6</ele>
        <time>2023-06-28T13:36:22Z</time>
      </trkpt>
      <trkpt lat="49.94636" lon="2.14188">
        <ele>14.5</ele>
        <time>2023-06-28T13:36:23Z</time>
      </trkpt>
      <trkpt lat="49.94636" lon="2.14186">
        <ele>14.4</ele>
        <time>2023-06-28T13:36:24Z</time>
      </trkpt>
      <trkpt lat="49.94637" lon="2.14184">
        <ele>14.3</ele>
        <time>2023-06-28T13:36:25Z</time>
      </trkpt>
      <trkpt lat="49.94637" lon="2.14183">
        <ele>14.2</ele>
        <time>2023-06-28T13:36:26Z</time>
      </trkpt>
      <trkpt lat="49.94638" lon="2.14182">
        <ele>14.2</ele>
        <time>2023-06-28T13:36:27Z</time>
      </trkpt>
      <trkpt lat="49.94638" lon="2.1418">
        <ele>14.1</ele>
        <time>2023-06-28T13:36:28Z</time>
      </trkpt>
      <trkpt lat="49.94638" lon="2.14179">
        <ele>14</ele>
        <time>2023-06-28T13:36:29Z</time>
      </trkpt>
      <trkpt lat="49.94639" lon="2.14178">
        <ele>14</ele>
        <time>2023-06-28T13:36:31Z</time>
      </trkpt>
      <trkpt lat="49.94639" lon="2.14177">
        <ele>13.9</ele>
        <time>2023-06-28T13:36:32Z</time>
      </trkpt>
      <trkpt lat="49.94639" lon="2.14176">
        <ele>13.9</ele>
        <time>2023-06-28T13:36:33Z</time>
      </trkpt>
      <trkpt lat="49.9464" lon="2.14174">
        <ele>13.8</ele>
        <time>2023-06-28T13:36:35Z</time>
      </trkpt>
      <trkpt lat="49.9464" lon="2.14172">
        <ele>13.7</ele>
        <time>2023-06-28T13:36:36Z</time>
      </trkpt>
      <trkpt lat="49.94641" lon="2.1417">
        <ele>13.6</ele>
        <time>2023-06-28T13:36:37Z</time>
      </trkpt>
      <trkpt lat="49.94641" lon="2.14168">
        <ele>13.6</ele>
        <time>2023-06-28T13:36:38Z</time>
      </trkpt>
      <trkpt lat="49.94641" lon="2.14167">
        <ele>13.5</ele>
        <time>2023-06-28T13:36:39Z</time>
      </trkpt>
      <trkpt lat="49.94642" lon="2.14165">
        <ele>13.5</ele>
        <time>2023-06-28T13:36:40Z</time>
      </trkpt>
      <trkpt lat="49.94642" lon="2.14163">
        <ele>13.4</ele>
        <time>2023-06-28T13:36:41Z</time>
      </trkpt>
      <trkpt lat="49.94643" lon="2.14162">
        <ele>13.4</ele>
        <time>2023-06-28T13:36:43Z</time>
      </trkpt>
      <trkpt lat="49.94643" lon="2.14161">
        <ele>13.3</ele>
        <time>2023-06-28T13:36:44Z</time>
      </trkpt>
      <trkpt lat="49.94644" lon="2.14159">
        <ele>13.2</ele>
        <time>2023-06-28T13:36:45Z</time>
      </trkpt>
      <trkpt lat="49.94644" lon="2.14157">
        <ele>13.2</ele>
        <time>2023-06-28T13:36:46Z</time>
      </trkpt>
      <trkpt lat="49.94645" lon="2.14154">
        <ele>13.1</ele>
        <time>2023-06-28T13:36:47Z</time>
      </trkpt>
      <trkpt lat="49.94645" lon="2.14152">
        <ele>13</ele>
        <time>2023-06-28T13:36:49Z</time>
      </trkpt>
      <trkpt lat="49.94645" lon="2.1415">
        <ele>13</ele>
        <time>2023-06-28T13:36:50Z</time>
      </trkpt>
      <trkpt lat="49.94646" lon="2.14149">
        <ele>13</ele>
        <time>2023-06-28T13:36:51Z</time>
      </trkpt>
      <trkpt lat="49.94646" lon="2.14147">
        <ele>12.9</ele>
        <time>2023-06-28T13:36:52Z</time>
      </trkpt>
      <trkpt lat="49.94646" lon="2.14146">
        <ele>12.9</ele>
        <time>2023-06-28T13:36:53Z</time>
      </trkpt>
      <trkpt lat="49.94647" lon="2.14144">
        <ele>12.9</ele>
        <time>2023-06-28T13:36:54Z</time>
      </trkpt>
      <trkpt lat="49.94647" lon="2.14141">
        <ele>12.8</ele>
        <time>2023-06-28T13:36:56Z</time>
      </trkpt>
      <trkpt lat="49.94648" lon="2.14139">
        <ele>12.7</ele>
        <time>2023-06-28T13:36:57Z</time>
      </trkpt>
      <trkpt lat="49.94649" lon="2.14138">
        <ele>12.7</ele>
        <time>2023-06-28T13:36:58Z</time>
      </trkpt>
      <trkpt lat="49.94649" lon="2.14137">
        <ele>12.7</ele>
        <time>2023-06-28T13:36:59Z</time>
      </trkpt>
      <trkpt lat="49.9465" lon="2.14134">
        <ele>12.7</ele>
        <time>2023-06-28T13:37:00Z</time>
      </trkpt>
      <trkpt lat="49.9465" lon="2.14133">
        <ele>12.7</ele>
        <time>2023-06-28T13:37:01Z</time>
      </trkpt>
      <trkpt lat="49.94651" lon="2.14131">
        <ele>12.7</ele>
        <time>2023-06-28T13:37:02Z</time>
      </trkpt>
      <trkpt lat="49.94651" lon="2.14129">
        <ele>12.7</ele>
        <time>2023-06-28T13:37:04Z</time>
      </trkpt>
      <trkpt lat="49.94651" lon="2.14128">
        <ele>12.7</ele>
        <time>2023-06-28T13:37:05Z</time>
      </trkpt>
      <trkpt lat="49.94651" lon="2.14126">
        <ele>12.7</ele>
        <time>2023-06-28T13:37:06Z</time>
      </trkpt>
      <trkpt lat="49.94651" lon="2.14125">
        <ele>12.7</ele>
        <time>2023-06-28T13:37:07Z</time>
      </trkpt>
      <trkpt lat="49.94652" lon="2.14123">
        <ele>12.7</ele>
        <time>2023-06-28T13:37:08Z</time>
      </trkpt>
      <trkpt lat="49.94652" lon="2.14121">
        <ele>12.7</ele>
        <time>2023-06-28T13:37:09Z</time>
      </trkpt>
      <trkpt lat="49.94652" lon="2.14119">
        <ele>12.7</ele>
        <time>2023-06-28T13:37:10Z</time>
      </trkpt>
      <trkpt lat="49.94651" lon="2.14117">
        <ele>12.7</ele>
        <time>2023-06-28T13:37:12Z</time>
      </trkpt>
      <trkpt lat="49.94651" lon="2.14116">
        <ele>12.7</ele>
        <time>2023-06-28T13:37:13Z</time>
      </trkpt>
      <trkpt lat="49.9465" lon="2.14115">
        <ele>12.7</ele>
        <time>2023-06-28T13:37:14Z</time>
      </trkpt>
      <trkpt lat="49.94648" lon="2.14112">
        <ele>12.7</ele>
        <time>2023-06-28T13:37:15Z</time>
      </trkpt>
      <trkpt lat="49.94648" lon="2.14111">
        <ele>12.7</ele>
        <time>2023-06-28T13:37:16Z</time>
      </trkpt>
      <trkpt lat="49.94647" lon="2.1411">
        <ele>12.7</ele>
        <time>2023-06-28T13:37:17Z</time>
      </trkpt>
      <trkpt lat="49.94647" lon="2.14109">
        <ele>12.7</ele>
        <time>2023-06-28T13:37:18Z</time>
      </trkpt>
      <trkpt lat="49.94646" lon="2.14108">
        <ele>12.7</ele>
        <time>2023-06-28T13:37:20Z</time>
      </trkpt>
      <trkpt lat="49.94646" lon="2.14107">
        <ele>12.7</ele>
        <time>2023-06-28T13:37:21Z</time>
      </trkpt>
      <trkpt lat="49.94646" lon="2.14105">
        <ele>12.7</ele>
        <time>2023-06-28T13:37:22Z</time>
      </trkpt>
      <trkpt lat="49.94646" lon="2.14104">
        <ele>12.7</ele>
        <time>2023-06-28T13:37:23Z</time>
      </trkpt>
      <trkpt lat="49.94646" lon="2.14103">
        <ele>12.7</ele>
        <time>2023-06-28T13:37:24Z</time>
      </trkpt>
      <trkpt lat="49.94647" lon="2.14101">
        <ele>12.7</ele>
        <time>2023-06-28T13:37:25Z</time>
      </trkpt>
      <trkpt lat="49.94648" lon="2.141">
        <ele>12.7</ele>
        <time>2023-06-28T13:37:26Z</time>
      </trkpt>
      <trkpt lat="49.94648" lon="2.14099">
        <ele>12.7</ele>
        <time>2023-06-28T13:37:27Z</time>
      </trkpt>
      <trkpt lat="49.94649" lon="2.14097">
        <ele>12.7</ele>
        <time>2023-06-28T13:37:28Z</time>
      </trkpt>
      <trkpt lat="49.9465" lon="2.14096">
        <ele>12.7</ele>
        <time>2023-06-28T13:37:29Z</time>
      </trkpt>
      <trkpt lat="49.94651" lon="2.14095">
        <ele>12.7</ele>
        <time>2023-06-28T13:37:31Z</time>
      </trkpt>
      <trkpt lat="49.94651" lon="2.14094">
        <ele>12.7</ele>
        <time>2023-06-28T13:37:32Z</time>
      </trkpt>
      <trkpt lat="49.94652" lon="2.14093">
        <ele>12.7</ele>
        <time>2023-06-28T13:37:33Z</time>
      </trkpt>
      <trkpt lat="49.94653" lon="2.14092">
        <ele>12.7</ele>
        <time>2023-06-28T13:37:34Z</time>
      </trkpt>
      <trkpt lat="49.94654" lon="2.1409">
        <ele>12.7</ele>
        <time>2023-06-28T13:37:35Z</time>
      </trkpt>
      <trkpt lat="49.94655" lon="2.14089">
        <ele>12.7</ele>
        <time>2023-06-28T13:37:36Z</time>
      </trkpt>
      <trkpt lat="49.94656" lon="2.14088">
        <ele>12.8</ele>
        <time>2023-06-28T13:37:38Z</time>
      </trkpt>
      <trkpt lat="49.94657" lon="2.14087">
        <ele>12.8</ele>
        <time>2023-06-28T13:37:39Z</time>
      </trkpt>
      <trkpt lat="49.94658" lon="2.14086">
        <ele>12.8</ele>
        <time>2023-06-28T13:37:40Z</time>
      </trkpt>
      <trkpt lat="49.94658" lon="2.14085">
        <ele>12.8</ele>
        <time>2023-06-28T13:37:41Z</time>
      </trkpt>
      <trkpt lat="49.94659" lon="2.14083">
        <ele>12.8</ele>
        <time>2023-06-28T13:37:42Z</time>
      </trkpt>
      <trkpt lat="49.94659" lon="2.14082">
        <ele>12.8</ele>
        <time>2023-06-28T13:37:43Z</time>
      </trkpt>
      <trkpt lat="49.9466" lon="2.14081">
        <ele>12.8</ele>
        <time>2023-06-28T13:37:44Z</time>
      </trkpt>
      <trkpt lat="49.94661" lon="2.14079">
        <ele>12.8</ele>
        <time>2023-06-28T13:37:46Z</time>
      </trkpt>
      <trkpt lat="49.94662" lon="2.14077">
        <ele>12.9</ele>
        <time>2023-06-28T13:37:47Z</time>
      </trkpt>
      <trkpt lat="49.94662" lon="2.14076">
        <ele>12.9</ele>
        <time>2023-06-28T13:37:48Z</time>
      </trkpt>
      <trkpt lat="49.94663" lon="2.14074">
        <ele>12.9</ele>
        <time>2023-06-28T13:37:49Z</time>
      </trkpt>
      <trkpt lat="49.94664" lon="2.14073">
        <ele>12.9</ele>
        <time>2023-06-28T13:37:50Z</time>
      </trkpt>
      <trkpt lat="49.94664" lon="2.14071">
        <ele>12.9</ele>
        <time>2023-06-28T13:37:51Z</time>
      </trkpt>
      <trkpt lat="49.94664" lon="2.1407">
        <ele>12.9</ele>
        <time>2023-06-28T13:37:52Z</time>
      </trkpt>
      <trkpt lat="49.94665" lon="2.14068">
        <ele>12.9</ele>
        <time>2023-06-28T13:37:54Z</time>
      </trkpt>
      <trkpt lat="49.94665" lon="2.14067">
        <ele>12.9</ele>
        <time>2023-06-28T13:37:55Z</time>
      </trkpt>
      <trkpt lat="49.94666" lon="2.14066">
        <ele>12.9</ele>
        <time>2023-06-28T13:37:56Z</time>
      </trkpt>
      <trkpt lat="49.94666" lon="2.14064">
        <ele>12.9</ele>
        <time>2023-06-28T13:37:57Z</time>
      </trkpt>
      <trkpt lat="49.94665" lon="2.1406">
        <ele>12.9</ele>
        <time>2023-06-28T13:37:58Z</time>
      </trkpt>
      <trkpt lat="49.94664" lon="2.14059">
        <ele>12.9</ele>
        <time>2023-06-28T13:38:00Z</time>
      </trkpt>
      <trkpt lat="49.94664" lon="2.14057">
        <ele>12.9</ele>
        <time>2023-06-28T13:38:01Z</time>
      </trkpt>
      <trkpt lat="49.94663" lon="2.14056">
        <ele>12.9</ele>
        <time>2023-06-28T13:38:02Z</time>
      </trkpt>
      <trkpt lat="49.94663" lon="2.14054">
        <ele>12.9</ele>
        <time>2023-06-28T13:38:03Z</time>
      </trkpt>
      <trkpt lat="49.94662" lon="2.14053">
        <ele>12.9</ele>
        <time>2023-06-28T13:38:04Z</time>
      </trkpt>
      <trkpt lat="49.94661" lon="2.1405">
        <ele>12.9</ele>
        <time>2023-06-28T13:38:06Z</time>
      </trkpt>
      <trkpt lat="49.94661" lon="2.14048">
        <ele>12.9</ele>
        <time>2023-06-28T13:38:07Z</time>
      </trkpt>
      <trkpt lat="49.9466" lon="2.14046">
        <ele>12.9</ele>
        <time>2023-06-28T13:38:08Z</time>
      </trkpt>
      <trkpt lat="49.94659" lon="2.14043">
        <ele>12.9</ele>
        <time>2023-06-28T13:38:09Z</time>
      </trkpt>
      <trkpt lat="49.94659" lon="2.14041">
        <ele>12.9</ele>
        <time>2023-06-28T13:38:10Z</time>
      </trkpt>
      <trkpt lat="49.94658" lon="2.14039">
        <ele>12.9</ele>
        <time>2023-06-28T13:38:11Z</time>
      </trkpt>
      <trkpt lat="49.94657" lon="2.14037">
        <ele>12.9</ele>
        <time>2023-06-28T13:38:13Z</time>
      </trkpt>
      <trkpt lat="49.94657" lon="2.14035">
        <ele>13</ele>
        <time>2023-06-28T13:38:14Z</time>
      </trkpt>
      <trkpt lat="49.94656" lon="2.14034">
        <ele>12.9</ele>
        <time>2023-06-28T13:38:15Z</time>
      </trkpt>
      <trkpt lat="49.94655" lon="2.14032">
        <ele>12.9</ele>
        <time>2023-06-28T13:38:17Z</time>
      </trkpt>
      <trkpt lat="49.94655" lon="2.14031">
        <ele>12.9</ele>
        <time>2023-06-28T13:38:18Z</time>
      </trkpt>
      <trkpt lat="49.94654" lon="2.1403">
        <ele>12.9</ele>
        <time>2023-06-28T13:38:19Z</time>
      </trkpt>
      <trkpt lat="49.94654" lon="2.1403">
        <ele>12.9</ele>
        <time>2023-06-28T13:38:20Z</time>
      </trkpt>
      <trkpt lat="49.94654" lon="2.14029">
        <ele>12.9</ele>
        <time>2023-06-28T13:38:21Z</time>
      </trkpt>
      <trkpt lat="49.94654" lon="2.14028">
        <ele>12.8</ele>
        <time>2023-06-28T13:38:23Z</time>
      </trkpt>
      <trkpt lat="49.94653" lon="2.14028">
        <ele>12.8</ele>
        <time>2023-06-28T13:38:24Z</time>
      </trkpt>
      <trkpt lat="49.94652" lon="2.14028">
        <ele>12.8</ele>
        <time>2023-06-28T13:38:25Z</time>
      </trkpt>
      <trkpt lat="49.94651" lon="2.14028">
        <ele>12.8</ele>
        <time>2023-06-28T13:38:26Z</time>
      </trkpt>
      <trkpt lat="49.94649" lon="2.14028">
        <ele>12.8</ele>
        <time>2023-06-28T13:38:27Z</time>
      </trkpt>
      <trkpt lat="49.94648" lon="2.14027">
        <ele>12.7</ele>
        <time>2023-06-28T13:38:29Z</time>
      </trkpt>
      <trkpt lat="49.94647" lon="2.14026">
        <ele>12.7</ele>
        <time>2023-06-28T13:38:30Z</time>
      </trkpt>
      <trkpt lat="49.94646" lon="2.14024">
        <ele>12.7</ele>
        <time>2023-06-28T13:38:31Z</time>
      </trkpt>
      <trkpt lat="49.94646" lon="2.1402">
        <ele>12.6</ele>
        <time>2023-06-28T13:38:32Z</time>
      </trkpt>
      <trkpt lat="49.94646" lon="2.14018">
        <ele>12.6</ele>
        <time>2023-06-28T13:38:33Z</time>
      </trkpt>
      <trkpt lat="49.94646" lon="2.14016">
        <ele>12.6</ele>
        <time>2023-06-28T13:38:35Z</time>
      </trkpt>
      <trkpt lat="49.94646" lon="2.14014">
        <ele>12.6</ele>
        <time>2023-06-28T13:38:36Z</time>
      </trkpt>
      <trkpt lat="49.94646" lon="2.14013">
        <ele>12.6</ele>
        <time>2023-06-28T13:38:37Z</time>
      </trkpt>
      <trkpt lat="49.94646" lon="2.14012">
        <ele>12.6</ele>
        <time>2023-06-28T13:38:38Z</time>
      </trkpt>
      <trkpt lat="49.94646" lon="2.14011">
        <ele>12.6</ele>
        <time>2023-06-28T13:38:40Z</time>
      </trkpt>
      <trkpt lat="49.94645" lon="2.1401">
        <ele>12.6</ele>
        <time>2023-06-28T13:38:41Z</time>
      </trkpt>
      <trkpt lat="49.94645" lon="2.14009">
        <ele>12.6</ele>
        <time>2023-06-28T13:38:42Z</time>
      </trkpt>
      <trkpt lat="49.94644" lon="2.14008">
        <ele>12.6</ele>
        <time>2023-06-28T13:38:43Z</time>
      </trkpt>
      <trkpt lat="49.94644" lon="2.14007">
        <ele>12.6</ele>
        <time>2023-06-28T13:38:44Z</time>
      </trkpt>
      <trkpt lat="49.94643" lon="2.14006">
        <ele>12.8</ele>
        <time>2023-06-28T13:38:45Z</time>
      </trkpt>
      <trkpt lat="49.94643" lon="2.14005">
        <ele>12.8</ele>
        <time>2023-06-28T13:38:47Z</time>
      </trkpt>
      <trkpt lat="49.94642" lon="2.14004">
        <ele>12.8</ele>
        <time>2023-06-28T13:38:48Z</time>
      </trkpt>
      <trkpt lat="49.94641" lon="2.14003">
        <ele>12.8</ele>
        <time>2023-06-28T13:38:49Z</time>
      </trkpt>
      <trkpt lat="49.9464" lon="2.14002">
        <ele>12.8</ele>
        <time>2023-06-28T13:38:50Z</time>
      </trkpt>
      <trkpt lat="49.9464" lon="2.13999">
        <ele>12.8</ele>
        <time>2023-06-28T13:38:52Z</time>
      </trkpt>
      <trkpt lat="49.9464" lon="2.13999">
        <ele>12.8</ele>
        <time>2023-06-28T13:38:53Z</time>
      </trkpt>
      <trkpt lat="49.9464" lon="2.13999">
        <ele>12.8</ele>
        <time>2023-06-28T13:38:55Z</time>
      </trkpt>
      <trkpt lat="49.9464" lon="2.13999">
        <ele>12.8</ele>
        <time>2023-06-28T13:38:56Z</time>
      </trkpt>
      <trkpt lat="49.9464" lon="2.14">
        <ele>12.8</ele>
        <time>2023-06-28T13:38:58Z</time>
      </trkpt>
      <trkpt lat="49.9464" lon="2.14">
        <ele>12.8</ele>
        <time>2023-06-28T13:38:59Z</time>
      </trkpt>
      <trkpt lat="49.9464" lon="2.14">
        <ele>12.8</ele>
        <time>2023-06-28T13:39:01Z</time>
      </trkpt>
      <trkpt lat="49.9464" lon="2.14">
        <ele>12.8</ele>
        <time>2023-06-28T13:39:02Z</time>
      </trkpt>
      <trkpt lat="49.9464" lon="2.14">
        <ele>12.8</ele>
        <time>2023-06-28T13:39:04Z</time>
      </trkpt>
      <trkpt lat="49.9464" lon="2.14">
        <ele>12.8</ele>
        <time>2023-06-28T13:39:05Z</time>
      </trkpt>
      <trkpt lat="49.9464" lon="2.14">
        <ele>12.8</ele>
        <time>2023-06-28T13:39:06Z</time>
      </trkpt>
      <trkpt lat="49.9464" lon="2.14">
        <ele>12.8</ele>
        <time>2023-06-28T13:39:08Z</time>
      </trkpt>
      <trkpt lat="49.9464" lon="2.14">
        <ele>12.8</ele>
        <time>2023-06-28T13:39:09Z</time>
      </trkpt>
      <trkpt lat="49.9464" lon="2.14">
        <ele>12.8</ele>
        <time>2023-06-28T13:39:10Z</time>
      </trkpt>
      <trkpt lat="49.9464" lon="2.14">
        <ele>12.8</ele>
        <time>2023-06-28T13:39:11Z</time>
      </trkpt>
      <trkpt lat="49.9464" lon="2.14001">
        <ele>12.8</ele>
        <time>2023-06-28T13:39:12Z</time>
      </trkpt>
      <trkpt lat="49.9464" lon="2.14001">
        <ele>12.8</ele>
        <time>2023-06-28T13:39:13Z</time>
      </trkpt>
      <trkpt lat="49.9464" lon="2.14001">
        <ele>12.8</ele>
        <time>2023-06-28T13:39:14Z</time>
      </trkpt>
      <trkpt lat="49.9464" lon="2.14001">
        <ele>12.8</ele>
        <time>2023-06-28T13:39:15Z</time>
      </trkpt>
      <trkpt lat="49.9464" lon="2.14001">
        <ele>12.8</ele>
        <time>2023-06-28T13:39:16Z</time>
      </trkpt>
      <trkpt lat="49.9464" lon="2.14001">
        <ele>12.8</ele>
        <time>2023-06-28T13:39:17Z</time>
      </trkpt>
      <trkpt lat="49.9464" lon="2.14001">
        <ele>12.8</ele>
        <time>2023-06-28T13:39:18Z</time>
      </trkpt>
      <trkpt lat="49.9464" lon="2.14001">
        <ele>12.8</ele>
        <time>2023-06-28T13:39:19Z</time>
      </trkpt>
      <trkpt lat="49.9464" lon="2.14001">
        <ele>12.8</ele>
        <time>2023-06-28T13:39:20Z</time>
      </trkpt>
      <trkpt lat="49.9464" lon="2.14001">
        <ele>12.8</ele>
        <time>2023-06-28T13:39:21Z</time>
      </trkpt>
      <trkpt lat="49.9464" lon="2.14002">
        <ele>12.8</ele>
        <time>2023-06-28T13:39:22Z</time>
      </trkpt>
      <trkpt lat="49.9464" lon="2.14002">
        <ele>12.8</ele>
        <time>2023-06-28T13:39:23Z</time>
      </trkpt>
      <trkpt lat="49.9464" lon="2.14002">
        <ele>12.8</ele>
        <time>2023-06-28T13:39:24Z</time>
      </trkpt>
      <trkpt lat="49.9464" lon="2.14002">
        <ele>12.8</ele>
        <time>2023-06-28T13:39:25Z</time>
      </trkpt>
      <trkpt lat="49.9464" lon="2.14002">
        <ele>12.8</ele>
        <time>2023-06-28T13:39:26Z</time>
      </trkpt>
      <trkpt lat="49.9464" lon="2.14002">
        <ele>12.8</ele>
        <time>2023-06-28T13:39:27Z</time>
      </trkpt>
      <trkpt lat="49.9464" lon="2.14002">
        <ele>12.8</ele>
        <time>2023-06-28T13:39:28Z</time>
      </trkpt>
      <trkpt lat="49.9464" lon="2.14002">
        <ele>12.8</ele>
        <time>2023-06-28T13:39:29Z</time>
      </trkpt>
      <trkpt lat="49.9464" lon="2.14002">
        <ele>12.8</ele>
        <time>2023-06-28T13:39:30Z</time>
      </trkpt>
      <trkpt lat="49.9464" lon="2.14002">
        <ele>12.8</ele>
        <time>2023-06-28T13:39:31Z</time>
      </trkpt>
      <trkpt lat="49.9464" lon="2.14002">
        <ele>12.8</ele>
        <time>2023-06-28T13:39:32Z</time>
      </trkpt>
      <trkpt lat="49.9464" lon="2.14003">
        <ele>12.8</ele>
        <time>2023-06-28T13:39:33Z</time>
      </trkpt>
      <trkpt lat="49.9464" lon="2.14003">
        <ele>12.8</ele>
        <time>2023-06-28T13:39:34Z</time>
      </trkpt>
      <trkpt lat="49.9464" lon="2.14003">
        <ele>12.8</ele>
        <time>2023-06-28T13:39:35Z</time>
      </trkpt>
      <trkpt lat="49.9464" lon="2.14003">
        <ele>12.8</ele>
        <time>2023-06-28T13:39:36Z</time>
      </trkpt>
      <trkpt lat="49.9464" lon="2.14003">
        <ele>12.8</ele>
        <time>2023-06-28T13:39:37Z</time>
      </trkpt>
      <trkpt lat="49.9464" lon="2.14003">
        <ele>12.8</ele>
        <time>2023-06-28T13:39:38Z</time>
      </trkpt>
      <trkpt lat="49.9464" lon="2.14003">
        <ele>12.8</ele>
        <time>2023-06-28T13:39:40Z</time>
      </trkpt>
      <trkpt lat="49.9464" lon="2.14003">
        <ele>12.8</ele>
        <time>2023-06-28T13:39:41Z</time>
      </trkpt>
      <trkpt lat="49.9464" lon="2.14003">
        <ele>12.8</ele>
        <time>2023-06-28T13:39:42Z</time>
      </trkpt>
      <trkpt lat="49.9464" lon="2.14003">
        <ele>12.8</ele>
        <time>2023-06-28T13:39:43Z</time>
      </trkpt>
      <trkpt lat="49.9464" lon="2.14004">
        <ele>12.8</ele>
        <time>2023-06-28T13:39:44Z</time>
      </trkpt>
      <trkpt lat="49.94638" lon="2.14008">
        <ele>12.8</ele>
        <time>2023-06-28T13:39:46Z</time>
      </trkpt>
      <trkpt lat="49.94637" lon="2.14009">
        <ele>12.8</ele>
        <time>2023-06-28T13:39:47Z</time>
      </trkpt>
      <trkpt lat="49.94635" lon="2.14013">
        <ele>12.8</ele>
        <time>2023-06-28T13:39:48Z</time>
      </trkpt>
      <trkpt lat="49.94635" lon="2.14014">
        <ele>12.8</ele>
        <time>2023-06-28T13:39:49Z</time>
      </trkpt>
      <trkpt lat="49.94634" lon="2.14016">
        <ele>12.9</ele>
        <time>2023-06-28T13:39:50Z</time>
      </trkpt>
      <trkpt lat="49.94633" lon="2.14019">
        <ele>12.9</ele>
        <time>2023-06-28T13:39:51Z</time>
      </trkpt>
      <trkpt lat="49.94632" lon="2.14021">
        <ele>13</ele>
        <time>2023-06-28T13:39:52Z</time>
      </trkpt>
      <trkpt lat="49.9463" lon="2.14021">
        <ele>13</ele>
        <time>2023-06-28T13:39:54Z</time>
      </trkpt>
      <trkpt lat="49.94627" lon="2.14021">
        <ele>13.1</ele>
        <time>2023-06-28T13:39:55Z</time>
      </trkpt>
      <trkpt lat="49.94626" lon="2.14021">
        <ele>13.1</ele>
        <time>2023-06-28T13:39:56Z</time>
      </trkpt>
      <trkpt lat="49.94624" lon="2.14021">
        <ele>13.2</ele>
        <time>2023-06-28T13:39:57Z</time>
      </trkpt>
      <trkpt lat="49.94623" lon="2.14021">
        <ele>13.2</ele>
        <time>2023-06-28T13:39:58Z</time>
      </trkpt>
      <trkpt lat="49.94623" lon="2.14021">
        <ele>13.2</ele>
        <time>2023-06-28T13:39:59Z</time>
      </trkpt>
      <trkpt lat="49.94621" lon="2.14021">
        <ele>13.2</ele>
        <time>2023-06-28T13:40:01Z</time>
      </trkpt>
      <trkpt lat="49.9462" lon="2.14021">
        <ele>13.2</ele>
        <time>2023-06-28T13:40:02Z</time>
      </trkpt>
      <trkpt lat="49.94619" lon="2.14021">
        <ele>13.3</ele>
        <time>2023-06-28T13:40:03Z</time>
      </trkpt>
      <trkpt lat="49.94618" lon="2.1402">
        <ele>13.3</ele>
        <time>2023-06-28T13:40:04Z</time>
      </trkpt>
      <trkpt lat="49.94617" lon="2.14019">
        <ele>13.3</ele>
        <time>2023-06-28T13:40:05Z</time>
      </trkpt>
      <trkpt lat="49.94616" lon="2.1402">
        <ele>13.3</ele>
        <time>2023-06-28T13:40:06Z</time>
      </trkpt>
      <trkpt lat="49.94616" lon="2.14021">
        <ele>13.3</ele>
        <time>2023-06-28T13:40:08Z</time>
      </trkpt>
      <trkpt lat="49.94616" lon="2.14022">
        <ele>13.3</ele>
        <time>2023-06-28T13:40:09Z</time>
      </trkpt>
      <trkpt lat="49.94616" lon="2.14024">
        <ele>13.4</ele>
        <time>2023-06-28T13:40:10Z</time>
      </trkpt>
      <trkpt lat="49.94616" lon="2.14025">
        <ele>13.4</ele>
        <time>2023-06-28T13:40:11Z</time>
      </trkpt>
      <trkpt lat="49.94616" lon="2.14026">
        <ele>13.4</ele>
        <time>2023-06-28T13:40:12Z</time>
      </trkpt>
      <trkpt lat="49.94616" lon="2.14028">
        <ele>13.4</ele>
        <time>2023-06-28T13:40:13Z</time>
      </trkpt>
      <trkpt lat="49.94616" lon="2.14029">
        <ele>13.4</ele>
        <time>2023-06-28T13:40:15Z</time>
      </trkpt>
      <trkpt lat="49.94616" lon="2.14031">
        <ele>13.4</ele>
        <time>2023-06-28T13:40:16Z</time>
      </trkpt>
      <trkpt lat="49.94615" lon="2.14033">
        <ele>13.5</ele>
        <time>2023-06-28T13:40:17Z</time>
      </trkpt>
      <trkpt lat="49.94615" lon="2.14035">
        <ele>13.5</ele>
        <time>2023-06-28T13:40:18Z</time>
      </trkpt>
      <trkpt lat="49.94615" lon="2.14036">
        <ele>13.5</ele>
        <time>2023-06-28T13:40:19Z</time>
      </trkpt>
      <trkpt lat="49.94614" lon="2.14037">
        <ele>13.5</ele>
        <time>2023-06-28T13:40:20Z</time>
      </trkpt>
      <trkpt lat="49.94613" lon="2.14038">
        <ele>13.5</ele>
        <time>2023-06-28T13:40:22Z</time>
      </trkpt>
      <trkpt lat="49.94612" lon="2.14038">
        <ele>13.6</ele>
        <time>2023-06-28T13:40:23Z</time>
      </trkpt>
      <trkpt lat="49.94612" lon="2.14039">
        <ele>13.6</ele>
        <time>2023-06-28T13:40:24Z</time>
      </trkpt>
      <trkpt lat="49.94611" lon="2.1404">
        <ele>13.6</ele>
        <time>2023-06-28T13:40:25Z</time>
      </trkpt>
      <trkpt lat="49.9461" lon="2.14041">
        <ele>13.6</ele>
        <time>2023-06-28T13:40:26Z</time>
      </trkpt>
      <trkpt lat="49.9461" lon="2.14042">
        <ele>13.6</ele>
        <time>2023-06-28T13:40:27Z</time>
      </trkpt>
      <trkpt lat="49.94609" lon="2.14044">
        <ele>13.6</ele>
        <time>2023-06-28T13:40:29Z</time>
      </trkpt>
      <trkpt lat="49.94609" lon="2.14045">
        <ele>13.7</ele>
        <time>2023-06-28T13:40:30Z</time>
      </trkpt>
      <trkpt lat="49.94608" lon="2.14047">
        <ele>13.7</ele>
        <time>2023-06-28T13:40:31Z</time>
      </trkpt>
      <trkpt lat="49.94607" lon="2.14049">
        <ele>13.7</ele>
        <time>2023-06-28T13:40:32Z</time>
      </trkpt>
      <trkpt lat="49.94607" lon="2.1405">
        <ele>13.7</ele>
        <time>2023-06-28T13:40:34Z</time>
      </trkpt>
      <trkpt lat="49.94606" lon="2.14051">
        <ele>13.7</ele>
        <time>2023-06-28T13:40:35Z</time>
      </trkpt>
      <trkpt lat="49.94605" lon="2.14053">
        <ele>13.8</ele>
        <time>2023-06-28T13:40:36Z</time>
      </trkpt>
      <trkpt lat="49.94604" lon="2.14054">
        <ele>13.8</ele>
        <time>2023-06-28T13:40:37Z</time>
      </trkpt>
      <trkpt lat="49.94603" lon="2.14055">
        <ele>13.8</ele>
        <time>2023-06-28T13:40:38Z</time>
      </trkpt>
      <trkpt lat="49.94602" lon="2.14057">
        <ele>13.9</ele>
        <time>2023-06-28T13:40:39Z</time>
      </trkpt>
      <trkpt lat="49.94601" lon="2.14058">
        <ele>13.9</ele>
        <time>2023-06-28T13:40:41Z</time>
      </trkpt>
      <trkpt lat="49.946" lon="2.14059">
        <ele>13.9</ele>
        <time>2023-06-28T13:40:42Z</time>
      </trkpt>
      <trkpt lat="49.94599" lon="2.1406">
        <ele>13.9</ele>
        <time>2023-06-28T13:40:43Z</time>
      </trkpt>
      <trkpt lat="49.94599" lon="2.14059">
        <ele>13.9</ele>
        <time>2023-06-28T13:40:44Z</time>
      </trkpt>
      <trkpt lat="49.94599" lon="2.1406">
        <ele>13.9</ele>
        <time>2023-06-28T13:40:45Z</time>
      </trkpt>
      <trkpt lat="49.94599" lon="2.1406">
        <ele>13.9</ele>
        <time>2023-06-28T13:40:46Z</time>
      </trkpt>
      <trkpt lat="49.94598" lon="2.14061">
        <ele>13.9</ele>
        <time>2023-06-28T13:40:48Z</time>
      </trkpt>
      <trkpt lat="49.94598" lon="2.14062">
        <ele>14</ele>
        <time>2023-06-28T13:40:49Z</time>
      </trkpt>
      <trkpt lat="49.94598" lon="2.14064">
        <ele>14</ele>
        <time>2023-06-28T13:40:50Z</time>
      </trkpt>
      <trkpt lat="49.94598" lon="2.14065">
        <ele>14</ele>
        <time>2023-06-28T13:40:51Z</time>
      </trkpt>
      <trkpt lat="49.94598" lon="2.14067">
        <ele>14</ele>
        <time>2023-06-28T13:40:53Z</time>
      </trkpt>
      <trkpt lat="49.94599" lon="2.14068">
        <ele>14</ele>
        <time>2023-06-28T13:40:54Z</time>
      </trkpt>
      <trkpt lat="49.946" lon="2.14069">
        <ele>14.1</ele>
        <time>2023-06-28T13:40:56Z</time>
      </trkpt>
      <trkpt lat="49.94601" lon="2.14069">
        <ele>14.1</ele>
        <time>2023-06-28T13:40:57Z</time>
      </trkpt>
      <trkpt lat="49.94601" lon="2.14069">
        <ele>14.1</ele>
        <time>2023-06-28T13:40:59Z</time>
      </trkpt>
      <trkpt lat="49.94601" lon="2.14069">
        <ele>14.1</ele>
        <time>2023-06-28T13:41:00Z</time>
      </trkpt>
      <trkpt lat="49.94601" lon="2.14069">
        <ele>14.1</ele>
        <time>2023-06-28T13:41:02Z</time>
      </trkpt>
      <trkpt lat="49.94601" lon="2.14069">
        <ele>14.1</ele>
        <time>2023-06-28T13:41:03Z</time>
      </trkpt>
      <trkpt lat="49.94601" lon="2.14068">
        <ele>14.1</ele>
        <time>2023-06-28T13:41:05Z</time>
      </trkpt>
      <trkpt lat="49.94601" lon="2.14068">
        <ele>14.1</ele>
        <time>2023-06-28T13:41:06Z</time>
      </trkpt>
      <trkpt lat="49.94601" lon="2.14068">
        <ele>14.1</ele>
        <time>2023-06-28T13:41:07Z</time>
      </trkpt>
      <trkpt lat="49.94601" lon="2.14068">
        <ele>14.1</ele>
        <time>2023-06-28T13:41:09Z</time>
      </trkpt>
      <trkpt lat="49.94601" lon="2.14068">
        <ele>14.1</ele>
        <time>2023-06-28T13:41:10Z</time>
      </trkpt>
      <trkpt lat="49.94601" lon="2.14068">
        <ele>14.1</ele>
        <time>2023-06-28T13:41:12Z</time>
      </trkpt>
      <trkpt lat="49.94601" lon="2.14068">
        <ele>14.1</ele>
        <time>2023-06-28T13:41:13Z</time>
      </trkpt>
      <trkpt lat="49.946" lon="2.14068">
        <ele>14.1</ele>
        <time>2023-06-28T13:41:14Z</time>
      </trkpt>
      <trkpt lat="49.946" lon="2.14068">
        <ele>14.1</ele>
        <time>2023-06-28T13:41:15Z</time>
      </trkpt>
      <trkpt lat="49.946" lon="2.14067">
        <ele>14.1</ele>
        <time>2023-06-28T13:41:16Z</time>
      </trkpt>
      <trkpt lat="49.946" lon="2.14067">
        <ele>14.1</ele>
        <time>2023-06-28T13:41:17Z</time>
      </trkpt>
      <trkpt lat="49.946" lon="2.14067">
        <ele>14.1</ele>
        <time>2023-06-28T13:41:18Z</time>
      </trkpt>
      <trkpt lat="49.946" lon="2.14067">
        <ele>14.1</ele>
        <time>2023-06-28T13:41:19Z</time>
      </trkpt>
      <trkpt lat="49.946" lon="2.14067">
        <ele>14.1</ele>
        <time>2023-06-28T13:41:20Z</time>
      </trkpt>
      <trkpt lat="49.946" lon="2.14067">
        <ele>14.1</ele>
        <time>2023-06-28T13:41:21Z</time>
      </trkpt>
      <trkpt lat="49.946" lon="2.14067">
        <ele>14.1</ele>
        <time>2023-06-28T13:41:22Z</time>
      </trkpt>
      <trkpt lat="49.946" lon="2.14067">
        <ele>14.1</ele>
        <time>2023-06-28T13:41:23Z</time>
      </trkpt>
      <trkpt lat="49.946" lon="2.14066">
        <ele>14.1</ele>
        <time>2023-06-28T13:41:24Z</time>
      </trkpt>
      <trkpt lat="49.946" lon="2.14066">
        <ele>14.1</ele>
        <time>2023-06-28T13:41:25Z</time>
      </trkpt>
      <trkpt lat="49.946" lon="2.14066">
        <ele>14.1</ele>
        <time>2023-06-28T13:41:26Z</time>
      </trkpt>
      <trkpt lat="49.946" lon="2.14066">
        <ele>14.1</ele>
        <time>2023-06-28T13:41:27Z</time>
      </trkpt>
      <trkpt lat="49.946" lon="2.14066">
        <ele>14.1</ele>
        <time>2023-06-28T13:41:28Z</time>
      </trkpt>
      <trkpt lat="49.946" lon="2.14066">
        <ele>14.2</ele>
        <time>2023-06-28T13:41:29Z</time>
      </trkpt>
      <trkpt lat="49.946" lon="2.14066">
        <ele>14.2</ele>
        <time>2023-06-28T13:41:30Z</time>
      </trkpt>
      <trkpt lat="49.946" lon="2.14066">
        <ele>14.2</ele>
        <time>2023-06-28T13:41:31Z</time>
      </trkpt>
      <trkpt lat="49.946" lon="2.14066">
        <ele>14.2</ele>
        <time>2023-06-28T13:41:32Z</time>
      </trkpt>
      <trkpt lat="49.946" lon="2.14065">
        <ele>14.2</ele>
        <time>2023-06-28T13:41:33Z</time>
      </trkpt>
      <trkpt lat="49.946" lon="2.14065">
        <ele>14.2</ele>
        <time>2023-06-28T13:41:34Z</time>
      </trkpt>
      <trkpt lat="49.946" lon="2.14065">
        <ele>14.2</ele>
        <time>2023-06-28T13:41:35Z</time>
      </trkpt>
      <trkpt lat="49.94599" lon="2.14065">
        <ele>14.2</ele>
        <time>2023-06-28T13:41:36Z</time>
      </trkpt>
      <trkpt lat="49.94599" lon="2.14065">
        <ele>14.2</ele>
        <time>2023-06-28T13:41:37Z</time>
      </trkpt>
      <trkpt lat="49.94599" lon="2.14065">
        <ele>14.2</ele>
        <time>2023-06-28T13:41:38Z</time>
      </trkpt>
      <trkpt lat="49.94599" lon="2.14065">
        <ele>14.2</ele>
        <time>2023-06-28T13:41:39Z</time>
      </trkpt>
      <trkpt lat="49.94599" lon="2.14065">
        <ele>14.2</ele>
        <time>2023-06-28T13:41:40Z</time>
      </trkpt>
      <trkpt lat="49.94599" lon="2.14065">
        <ele>14.2</ele>
        <time>2023-06-28T13:41:41Z</time>
      </trkpt>
      <trkpt lat="49.94599" lon="2.14064">
        <ele>14.2</ele>
        <time>2023-06-28T13:41:42Z</time>
      </trkpt>
      <trkpt lat="49.94599" lon="2.14064">
        <ele>14.2</ele>
        <time>2023-06-28T13:41:43Z</time>
      </trkpt>
      <trkpt lat="49.94599" lon="2.14064">
        <ele>14.2</ele>
        <time>2023-06-28T13:41:44Z</time>
      </trkpt>
      <trkpt lat="49.94599" lon="2.14064">
        <ele>14.2</ele>
        <time>2023-06-28T13:41:45Z</time>
      </trkpt>
      <trkpt lat="49.94599" lon="2.14064">
        <ele>14.2</ele>
        <time>2023-06-28T13:41:46Z</time>
      </trkpt>
      <trkpt lat="49.94599" lon="2.14064">
        <ele>14.2</ele>
        <time>2023-06-28T13:41:47Z</time>
      </trkpt>
      <trkpt lat="49.94599" lon="2.14064">
        <ele>14.2</ele>
        <time>2023-06-28T13:41:48Z</time>
      </trkpt>
      <trkpt lat="49.94599" lon="2.14064">
        <ele>14.2</ele>
        <time>2023-06-28T13:41:49Z</time>
      </trkpt>
      <trkpt lat="49.94599" lon="2.14063">
        <ele>14.2</ele>
        <time>2023-06-28T13:41:50Z</time>
      </trkpt>
      <trkpt lat="49.94599" lon="2.14063">
        <ele>14.2</ele>
        <time>2023-06-28T13:41:51Z</time>
      </trkpt>
      <trkpt lat="49.94599" lon="2.14063">
        <ele>14.2</ele>
        <time>2023-06-28T13:41:52Z</time>
      </trkpt>
      <trkpt lat="49.94598" lon="2.14062">
        <ele>14.2</ele>
        <time>2023-06-28T13:41:53Z</time>
      </trkpt>
      <trkpt lat="49.94598" lon="2.14062">
        <ele>14.2</ele>
        <time>2023-06-28T13:41:54Z</time>
      </trkpt>
      <trkpt lat="49.94598" lon="2.14063">
        <ele>14.2</ele>
        <time>2023-06-28T13:41:55Z</time>
      </trkpt>
      <trkpt lat="49.94597" lon="2.14064">
        <ele>14.3</ele>
        <time>2023-06-28T13:41:56Z</time>
      </trkpt>
      <trkpt lat="49.94597" lon="2.14064">
        <ele>14.3</ele>
        <time>2023-06-28T13:41:57Z</time>
      </trkpt>
      <trkpt lat="49.94597" lon="2.14063">
        <ele>14.3</ele>
        <time>2023-06-28T13:41:58Z</time>
      </trkpt>
      <trkpt lat="49.94597" lon="2.14063">
        <ele>14.3</ele>
        <time>2023-06-28T13:41:59Z</time>
      </trkpt>
      <trkpt lat="49.94597" lon="2.14063">
        <ele>14.3</ele>
        <time>2023-06-28T13:42:00Z</time>
      </trkpt>
      <trkpt lat="49.94597" lon="2.14063">
        <ele>14.3</ele>
        <time>2023-06-28T13:42:01Z</time>
      </trkpt>
      <trkpt lat="49.94597" lon="2.14063">
        <ele>14.3</ele>
        <time>2023-06-28T13:42:02Z</time>
      </trkpt>
      <trkpt lat="49.94597" lon="2.14063">
        <ele>14.3</ele>
        <time>2023-06-28T13:42:03Z</time>
      </trkpt>
      <trkpt lat="49.94597" lon="2.14063">
        <ele>14.3</ele>
        <time>2023-06-28T13:42:04Z</time>
      </trkpt>
      <trkpt lat="49.94597" lon="2.14063">
        <ele>14.3</ele>
        <time>2023-06-28T13:42:05Z</time>
      </trkpt>
      <trkpt lat="49.94597" lon="2.14063">
        <ele>14.3</ele>
        <time>2023-06-28T13:42:06Z</time>
      </trkpt>
      <trkpt lat="49.94597" lon="2.14063">
        <ele>14.3</ele>
        <time>2023-06-28T13:42:07Z</time>
      </trkpt>
      <trkpt lat="49.94597" lon="2.14063">
        <ele>14.3</ele>
        <time>2023-06-28T13:42:08Z</time>
      </trkpt>
      <trkpt lat="49.94597" lon="2.14063">
        <ele>14.3</ele>
        <time>2023-06-28T13:42:09Z</time>
      </trkpt>
      <trkpt lat="49.94597" lon="2.14063">
        <ele>14.3</ele>
        <time>2023-06-28T13:42:10Z</time>
      </trkpt>
      <trkpt lat="49.94597" lon="2.14063">
        <ele>14.3</ele>
        <time>2023-06-28T13:42:11Z</time>
      </trkpt>
      <trkpt lat="49.94597" lon="2.14063">
        <ele>14.3</ele>
        <time>2023-06-28T13:42:12Z</time>
      </trkpt>
      <trkpt lat="49.94597" lon="2.14063">
        <ele>14.3</ele>
        <time>2023-06-28T13:42:13Z</time>
      </trkpt>
      <trkpt lat="49.94597" lon="2.14063">
        <ele>14.3</ele>
        <time>2023-06-28T13:42:14Z</time>
      </trkpt>
      <trkpt lat="49.94597" lon="2.14063">
        <ele>14.3</ele>
        <time>2023-06-28T13:42:15Z</time>
      </trkpt>
      <trkpt lat="49.94597" lon="2.14063">
        <ele>14.3</ele>
        <time>2023-06-28T13:42:16Z</time>
      </trkpt>
      <trkpt lat="49.94597" lon="2.14063">
        <ele>14.3</ele>
        <time>2023-06-28T13:42:17Z</time>
      </trkpt>
      <trkpt lat="49.94597" lon="2.14063">
        <ele>14.3</ele>
        <time>2023-06-28T13:42:18Z</time>
      </trkpt>
      <trkpt lat="49.94597" lon="2.14063">
        <ele>14.3</ele>
        <time>2023-06-28T13:42:19Z</time>
      </trkpt>
      <trkpt lat="49.94597" lon="2.14063">
        <ele>14.3</ele>
        <time>2023-06-28T13:42:20Z</time>
      </trkpt>
      <trkpt lat="49.94597" lon="2.14063">
        <ele>14.3</ele>
        <time>2023-06-28T13:42:21Z</time>
      </trkpt>
      <trkpt lat="49.94597" lon="2.14063">
        <ele>14.3</ele>
        <time>2023-06-28T13:42:22Z</time>
      </trkpt>
      <trkpt lat="49.94597" lon="2.14063">
        <ele>14.3</ele>
        <time>2023-06-28T13:42:23Z</time>
      </trkpt>
      <trkpt lat="49.94597" lon="2.14063">
        <ele>14.3</ele>
        <time>2023-06-28T13:42:24Z</time>
      </trkpt>
      <trkpt lat="49.94597" lon="2.14063">
        <ele>14.3</ele>
        <time>2023-06-28T13:42:25Z</time>
      </trkpt>
      <trkpt lat="49.94597" lon="2.14063">
        <ele>14.3</ele>
        <time>2023-06-28T13:42:26Z</time>
      </trkpt>
      <trkpt lat="49.94598" lon="2.14064">
        <ele>14.3</ele>
        <time>2023-06-28T13:42:27Z</time>
      </trkpt>
      <trkpt lat="49.94598" lon="2.14065">
        <ele>14.3</ele>
        <time>2023-06-28T13:42:28Z</time>
      </trkpt>
      <trkpt lat="49.94598" lon="2.14065">
        <ele>14.3</ele>
        <time>2023-06-28T13:42:29Z</time>
      </trkpt>
      <trkpt lat="49.94598" lon="2.14066">
        <ele>14.3</ele>
        <time>2023-06-28T13:42:30Z</time>
      </trkpt>
      <trkpt lat="49.94597" lon="2.14066">
        <ele>14.3</ele>
        <time>2023-06-28T13:42:31Z</time>
      </trkpt>
      <trkpt lat="49.94597" lon="2.14066">
        <ele>14.3</ele>
        <time>2023-06-28T13:42:32Z</time>
      </trkpt>
      <trkpt lat="49.94597" lon="2.14066">
        <ele>14.3</ele>
        <time>2023-06-28T13:42:33Z</time>
      </trkpt>
      <trkpt lat="49.94597" lon="2.14066">
        <ele>14.3</ele>
        <time>2023-06-28T13:42:34Z</time>
      </trkpt>
      <trkpt lat="49.94597" lon="2.14066">
        <ele>14.3</ele>
        <time>2023-06-28T13:42:35Z</time>
      </trkpt>
      <trkpt lat="49.94597" lon="2.14066">
        <ele>14.3</ele>
        <time>2023-06-28T13:42:36Z</time>
      </trkpt>
      <trkpt lat="49.94597" lon="2.14066">
        <ele>14.3</ele>
        <time>2023-06-28T13:42:37Z</time>
      </trkpt>
      <trkpt lat="49.94597" lon="2.14066">
        <ele>14.3</ele>
        <time>2023-06-28T13:42:38Z</time>
      </trkpt>
    </trkseg>
  </trk>
</gpx>